Wetterdaten: Mittwoch, 01.03.2017
Datum Zeit Temp. A. Temp. A. max Feuchte A. Luftdruck Regen Wind Richtung Richtung Sonnenschein ET UV Solar Taupunkt Windchill Windböen
01.03.2017 00:00 1,7 °C 1,7 °C 85 % 1003,1 hPa 0,0 mm 9,8 km/h (2 Bft) SW 228 ° 0 min 0,000 mm 0,0 UV-I 0 W/m² -0,5 °C -1,2 °C 16,1 km/h (3 Bft)
01.03.2017 00:01 1,7 °C 1,7 °C 85 % 1003,1 hPa 0,0 mm 11,0 km/h (2 Bft) W-SW 248 ° 0 min 0,000 mm 0,0 UV-I 0 W/m² -0,5 °C -1,5 °C 20,9 km/h (4 Bft)
01.03.2017 00:02 1,7 °C 1,7 °C 84 % 1003,2 hPa 0,0 mm 18,3 km/h (3 Bft) S-SW 202 ° 0 min 0,000 mm 0,0 UV-I 0 W/m² -0,7 °C -2,9 °C 30,6 km/h (5 Bft)
01.03.2017 00:03 1,7 °C 1,7 °C 84 % 1003,1 hPa 0,0 mm 14,6 km/h (3 Bft) W 272 ° 0 min 0,000 mm 0,0 UV-I 0 W/m² -0,7 °C -2,2 °C 22,5 km/h (4 Bft)
01.03.2017 00:04 1,8 °C 1,8 °C 84 % 1003,1 hPa 0,0 mm 11,7 km/h (2 Bft) W-NW 298 ° 0 min 0,000 mm 0,0 UV-I 0 W/m² -0,6 °C -1,6 °C 20,9 km/h (4 Bft)
01.03.2017 00:05 1,7 °C 1,8 °C 84 % 1003,1 hPa 0,0 mm 13,9 km/h (3 Bft) W-SW 244 ° 0 min 0,000 mm 0,0 UV-I 0 W/m² -0,7 °C -2,1 °C 25,7 km/h (4 Bft)
01.03.2017 00:06 1,8 °C 1,8 °C 84 % 1003,1 hPa 0,0 mm 18,9 km/h (3 Bft) W-SW 257 ° 0 min 0,000 mm 0,0 UV-I 0 W/m² -0,6 °C -2,8 °C 24,1 km/h (4 Bft)
01.03.2017 00:07 1,7 °C 1,8 °C 84 % 1003,3 hPa 0,0 mm 16,0 km/h (3 Bft) W 265 ° 0 min 0,000 mm 0,0 UV-I 0 W/m² -0,7 °C -2,5 °C 22,5 km/h (4 Bft)
01.03.2017 00:08 1,8 °C 1,8 °C 84 % 1003,2 hPa 0,0 mm 24,3 km/h (4 Bft) W-SW 244 ° 0 min 0,000 mm 0,0 UV-I 0 W/m² -0,6 °C -3,5 °C 27,4 km/h (4 Bft)
01.03.2017 00:09 1,8 °C 1,8 °C 84 % 1003,3 hPa 0,0 mm 22,5 km/h (4 Bft) W-SW 256 ° 0 min 0,000 mm 0,0 UV-I 0 W/m² -0,6 °C -3,3 °C 27,4 km/h (4 Bft)
01.03.2017 00:10 1,8 °C 1,8 °C 85 % 1003,3 hPa 0,0 mm 19,3 km/h (3 Bft) W-SW 241 ° 0 min 0,000 mm 0,0 UV-I 0 W/m² -0,4 °C -2,9 °C 27,4 km/h (4 Bft)
01.03.2017 00:11 1,7 °C 1,8 °C 85 % 1003,3 hPa 0,0 mm 15,8 km/h (3 Bft) W 261 ° 0 min 0,000 mm 0,0 UV-I 0 W/m² -0,5 °C -2,5 °C 22,5 km/h (4 Bft)
01.03.2017 00:12 1,7 °C 1,8 °C 85 % 1003,3 hPa 0,0 mm 9,9 km/h (2 Bft) SW 222 ° 0 min 0,000 mm 0,0 UV-I 0 W/m² -0,5 °C -1,3 °C 19,3 km/h (3 Bft)
01.03.2017 00:13 1,7 °C 1,7 °C 85 % 1003,3 hPa 0,0 mm 13,4 km/h (3 Bft) W 275 ° 0 min 0,000 mm 0,0 UV-I 0 W/m² -0,5 °C -2,0 °C 24,1 km/h (4 Bft)
01.03.2017 00:14 1,7 °C 1,7 °C 85 % 1003,3 hPa 0,0 mm 17,4 km/h (3 Bft) W 259 ° 0 min 0,000 mm 0,0 UV-I 0 W/m² -0,5 °C -2,7 °C 27,4 km/h (4 Bft)
01.03.2017 00:15 1,7 °C 1,7 °C 86 % 1003,4 hPa 0,0 mm 17,8 km/h (3 Bft) W-SW 252 ° 0 min 0,000 mm 0,0 UV-I 0 W/m² -0,4 °C -2,8 °C 25,7 km/h (4 Bft)
01.03.2017 00:16 1,6 °C 1,7 °C 87 % 1003,3 hPa 0,0 mm 12,9 km/h (3 Bft) W 267 ° 0 min 0,000 mm 0,0 UV-I 0 W/m² -0,3 °C -2,0 °C 17,7 km/h (3 Bft)
01.03.2017 00:17 1,5 °C 1,6 °C 87 % 1003,4 hPa 0,0 mm 14,1 km/h (3 Bft) W-SW 247 ° 0 min 0,000 mm 0,0 UV-I 0 W/m² -0,4 °C -2,4 °C 22,5 km/h (4 Bft)
01.03.2017 00:18 1,4 °C 1,5 °C 87 % 1003,4 hPa 0,0 mm 13,3 km/h (3 Bft) W 261 ° 0 min 0,000 mm 0,0 UV-I 0 W/m² -0,5 °C -2,4 °C 22,5 km/h (4 Bft)
01.03.2017 00:19 1,4 °C 1,4 °C 88 % 1003,4 hPa 0,0 mm 12,8 km/h (3 Bft) W 273 ° 0 min 0,000 mm 0,0 UV-I 0 W/m² -0,4 °C -2,3 °C 17,7 km/h (3 Bft)
01.03.2017 00:20 1,3 °C 1,4 °C 88 % 1003,5 hPa 0,0 mm 15,7 km/h (3 Bft) W 279 ° 0 min 0,000 mm 0,0 UV-I 0 W/m² -0,5 °C -2,9 °C 20,9 km/h (4 Bft)
01.03.2017 00:21 1,3 °C 1,3 °C 88 % 1003,4 hPa 0,0 mm 16,3 km/h (3 Bft) W-SW 242 ° 0 min 0,000 mm 0,0 UV-I 0 W/m² -0,5 °C -3,0 °C 20,9 km/h (4 Bft)
01.03.2017 00:22 1,2 °C 1,3 °C 89 % 1003,5 hPa 0,0 mm 14,1 km/h (3 Bft) W-SW 258 ° 0 min 0,000 mm 0,0 UV-I 0 W/m² -0,4 °C -2,8 °C 20,9 km/h (4 Bft)
01.03.2017 00:23 1,2 °C 1,2 °C 89 % 1003,4 hPa 0,0 mm 17,4 km/h (3 Bft) W-NW 285 ° 0 min 0,000 mm 0,0 UV-I 0 W/m² -0,4 °C -3,3 °C 27,4 km/h (4 Bft)
01.03.2017 00:24 1,1 °C 1,2 °C 89 % 1003,4 hPa 0,0 mm 16,3 km/h (3 Bft) W-SW 245 ° 0 min 0,000 mm 0,0 UV-I 0 W/m² -0,5 °C -3,3 °C 20,9 km/h (4 Bft)
01.03.2017 00:25 1,1 °C 1,1 °C 90 % 1003,6 hPa 0,0 mm 16,4 km/h (3 Bft) W-SW 253 ° 0 min 0,000 mm 0,0 UV-I 0 W/m² -0,4 °C -3,3 °C 25,7 km/h (4 Bft)
01.03.2017 00:26 1,1 °C 1,1 °C 90 % 1003,6 hPa 0,0 mm 16,9 km/h (3 Bft) W 263 ° 0 min 0,000 mm 0,0 UV-I 0 W/m² -0,4 °C -3,4 °C 20,9 km/h (4 Bft)
01.03.2017 00:27 1,0 °C 1,1 °C 90 % 1003,6 hPa 0,0 mm 11,9 km/h (2 Bft) W 263 ° 0 min 0,000 mm 0,0 UV-I 0 W/m² -0,5 °C -2,6 °C 14,5 km/h (3 Bft)
01.03.2017 00:28 1,0 °C 1,0 °C 90 % 1003,6 hPa 0,0 mm 12,0 km/h (2 Bft) W-SW 248 ° 0 min 0,000 mm 0,0 UV-I 0 W/m² -0,5 °C -2,6 °C 19,3 km/h (3 Bft)
01.03.2017 00:29 0,9 °C 1,0 °C 90 % 1003,7 hPa 0,0 mm 14,1 km/h (3 Bft) W-NW 291 ° 0 min 0,000 mm 0,0 UV-I 0 W/m² -0,6 °C -3,1 °C 19,3 km/h (3 Bft)
01.03.2017 00:30 0,9 °C 0,9 °C 91 % 1003,8 hPa 0,0 mm 12,9 km/h (3 Bft) W 269 ° 0 min 0,000 mm 0,0 UV-I 0 W/m² -0,4 °C -2,9 °C 24,1 km/h (4 Bft)
01.03.2017 00:31 0,9 °C 0,9 °C 90 % 1003,7 hPa 0,0 mm 10,7 km/h (2 Bft) W 261 ° 0 min 0,000 mm 0,0 UV-I 0 W/m² -0,6 °C -2,4 °C 17,7 km/h (3 Bft)
01.03.2017 00:32 0,9 °C 0,9 °C 91 % 1003,8 hPa 0,0 mm 12,3 km/h (3 Bft) W 273 ° 0 min 0,000 mm 0,0 UV-I 0 W/m² -0,4 °C -2,8 °C 16,1 km/h (3 Bft)
01.03.2017 00:33 0,8 °C 0,9 °C 91 % 1003,8 hPa 0,0 mm 10,3 km/h (2 Bft) W-NW 285 ° 0 min 0,000 mm 0,0 UV-I 0 W/m² -0,5 °C -2,4 °C 16,1 km/h (3 Bft)
01.03.2017 00:34 0,8 °C 0,8 °C 91 % 1003,8 hPa 0,0 mm 10,6 km/h (2 Bft) W 265 ° 0 min 0,000 mm 0,0 UV-I 0 W/m² -0,5 °C -2,5 °C 16,1 km/h (3 Bft)
01.03.2017 00:35 0,8 °C 0,8 °C 91 % 1003,9 hPa 0,0 mm 12,5 km/h (3 Bft) W 261 ° 0 min 0,000 mm 0,0 UV-I 0 W/m² -0,5 °C -2,9 °C 17,7 km/h (3 Bft)
01.03.2017 00:36 0,8 °C 0,8 °C 91 % 1003,9 hPa 0,0 mm 10,7 km/h (2 Bft) W 271 ° 0 min 0,000 mm 0,0 UV-I 0 W/m² -0,5 °C -2,5 °C 19,3 km/h (3 Bft)
01.03.2017 00:37 0,8 °C 0,8 °C 91 % 1003,9 hPa 0,0 mm 12,4 km/h (3 Bft) W 269 ° 0 min 0,000 mm 0,0 UV-I 0 W/m² -0,5 °C -2,9 °C 19,3 km/h (3 Bft)
01.03.2017 00:38 0,8 °C 0,8 °C 91 % 1003,9 hPa 0,0 mm 13,3 km/h (3 Bft) S-SW 198 ° 0 min 0,000 mm 0,0 UV-I 0 W/m² -0,5 °C -3,1 °C 20,9 km/h (4 Bft)
01.03.2017 00:39 0,8 °C 0,8 °C 91 % 1003,9 hPa 0,0 mm 12,3 km/h (3 Bft) W 260 ° 0 min 0,000 mm 0,0 UV-I 0 W/m² -0,5 °C -2,9 °C 20,9 km/h (4 Bft)
01.03.2017 00:40 0,8 °C 0,8 °C 91 % 1003,9 hPa 0,0 mm 18,9 km/h (3 Bft) W-NW 290 ° 0 min 0,000 mm 0,0 UV-I 0 W/m² -0,5 °C -4,1 °C 25,7 km/h (4 Bft)
01.03.2017 00:41 0,8 °C 0,8 °C 91 % 1004,0 hPa 0,0 mm 24,2 km/h (4 Bft) W 263 ° 0 min 0,000 mm 0,0 UV-I 0 W/m² -0,5 °C -4,8 °C 30,6 km/h (5 Bft)
01.03.2017 00:42 0,8 °C 0,8 °C 91 % 1004,0 hPa 0,0 mm 16,4 km/h (3 Bft) W-SW 257 ° 0 min 0,000 mm 0,0 UV-I 0 W/m² -0,5 °C -3,7 °C 24,1 km/h (4 Bft)
01.03.2017 00:43 0,8 °C 0,8 °C 92 % 1004,1 hPa 0,0 mm 15,7 km/h (3 Bft) W-SW 255 ° 0 min 0,000 mm 0,0 UV-I 0 W/m² -0,3 °C -3,6 °C 24,1 km/h (4 Bft)
01.03.2017 00:44 0,8 °C 0,8 °C 92 % 1004,1 hPa 0,0 mm 12,3 km/h (3 Bft) W 279 ° 0 min 0,000 mm 0,0 UV-I 0 W/m² -0,3 °C -2,9 °C 16,1 km/h (3 Bft)
01.03.2017 00:45 0,7 °C 0,8 °C 92 % 1004,2 hPa 0,0 mm 11,4 km/h (2 Bft) SW 235 ° 0 min 0,000 mm 0,0 UV-I 0 W/m² -0,4 °C -2,8 °C 14,5 km/h (3 Bft)
01.03.2017 00:46 0,8 °C 0,8 °C 92 % 1004,2 hPa 0,0 mm 16,6 km/h (3 Bft) W-SW 248 ° 0 min 0,000 mm 0,0 UV-I 0 W/m² -0,3 °C -3,7 °C 25,7 km/h (4 Bft)
01.03.2017 00:47 0,8 °C 0,8 °C 92 % 1004,2 hPa 0,0 mm 18,5 km/h (3 Bft) W-SW 255 ° 0 min 0,000 mm 0,0 UV-I 0 W/m² -0,3 °C -4,0 °C 29,0 km/h (5 Bft)
01.03.2017 00:48 0,8 °C 0,8 °C 92 % 1004,3 hPa 0,0 mm 18,2 km/h (3 Bft) W 277 ° 0 min 0,000 mm 0,0 UV-I 0 W/m² -0,3 °C -4,0 °C 24,1 km/h (4 Bft)
01.03.2017 00:49 0,8 °C 0,8 °C 92 % 1004,3 hPa 0,0 mm 13,4 km/h (3 Bft) W-SW 256 ° 0 min 0,000 mm 0,0 UV-I 0 W/m² -0,3 °C -3,1 °C 19,3 km/h (3 Bft)
01.03.2017 00:50 0,8 °C 0,8 °C 92 % 1004,3 hPa 0,0 mm 16,2 km/h (3 Bft) W 270 ° 0 min 0,000 mm 0,0 UV-I 0 W/m² -0,3 °C -3,6 °C 20,9 km/h (4 Bft)
01.03.2017 00:51 0,8 °C 0,8 °C 92 % 1004,3 hPa 0,0 mm 15,5 km/h (3 Bft) W 269 ° 0 min 0,000 mm 0,0 UV-I 0 W/m² -0,3 °C -3,5 °C 20,9 km/h (4 Bft)
01.03.2017 00:52 0,8 °C 0,8 °C 92 % 1004,3 hPa 0,0 mm 10,3 km/h (2 Bft) W 266 ° 0 min 0,000 mm 0,0 UV-I 0 W/m² -0,3 °C -2,4 °C 16,1 km/h (3 Bft)
01.03.2017 00:53 0,8 °C 0,8 °C 92 % 1004,3 hPa 0,2 mm 9,5 km/h (2 Bft) W 268 ° 0 min 0,000 mm 0,0 UV-I 0 W/m² -0,3 °C -2,2 °C 14,5 km/h (3 Bft)
01.03.2017 00:54 0,8 °C 0,8 °C 91 % 1004,4 hPa 0,0 mm 12,8 km/h (3 Bft) W-SW 254 ° 0 min 0,000 mm 0,0 UV-I 0 W/m² -0,5 °C -3,0 °C 30,6 km/h (5 Bft)
01.03.2017 00:55 0,8 °C 0,8 °C 91 % 1004,5 hPa 0,0 mm 21,9 km/h (4 Bft) W 266 ° 0 min 0,000 mm 0,0 UV-I 0 W/m² -0,5 °C -4,5 °C 29,0 km/h (5 Bft)
01.03.2017 00:56 0,8 °C 0,8 °C 91 % 1004,6 hPa 0,0 mm 17,8 km/h (3 Bft) W-NW 290 ° 0 min 0,000 mm 0,0 UV-I 0 W/m² -0,5 °C -3,9 °C 22,5 km/h (4 Bft)
01.03.2017 00:57 0,8 °C 0,8 °C 91 % 1004,6 hPa 0,0 mm 21,9 km/h (4 Bft) W-NW 296 ° 0 min 0,000 mm 0,0 UV-I 0 W/m² -0,5 °C -4,5 °C 32,2 km/h (5 Bft)
01.03.2017 00:58 0,8 °C 0,8 °C 91 % 1004,5 hPa 0,0 mm 20,2 km/h (4 Bft) W-SW 249 ° 0 min 0,000 mm 0,0 UV-I 0 W/m² -0,5 °C -4,3 °C 29,0 km/h (5 Bft)
01.03.2017 00:59 0,8 °C 0,8 °C 91 % 1004,7 hPa 0,0 mm 16,7 km/h (3 Bft) W 265 ° 0 min 0,000 mm 0,0 UV-I 0 W/m² -0,5 °C -3,7 °C 25,7 km/h (4 Bft)
01.03.2017 01:00 0,8 °C 0,8 °C 91 % 1004,8 hPa 0,0 mm 25,7 km/h (4 Bft) W 279 ° 0 min 0,000 mm 0,0 UV-I 0 W/m² -0,5 °C -5,0 °C 40,2 km/h (6 Bft)
01.03.2017 01:01 0,8 °C 0,8 °C 90 % 1004,8 hPa 0,0 mm 18,4 km/h (3 Bft) SW 221 ° 0 min 0,025 mm 0,0 UV-I 0 W/m² -0,6 °C -4,0 °C 29,0 km/h (5 Bft)
01.03.2017 01:02 0,8 °C 0,8 °C 90 % 1004,8 hPa 0,0 mm 18,1 km/h (3 Bft) W-SW 250 ° 0 min 0,000 mm 0,0 UV-I 0 W/m² -0,6 °C -3,9 °C 32,2 km/h (5 Bft)
01.03.2017 01:03 0,8 °C 0,8 °C 90 % 1004,8 hPa 0,0 mm 29,4 km/h (5 Bft) SW 233 ° 0 min 0,000 mm 0,0 UV-I 0 W/m² -0,6 °C -5,4 °C 43,5 km/h (6 Bft)
01.03.2017 01:04 0,8 °C 0,8 °C 90 % 1004,8 hPa 0,0 mm 19,2 km/h (3 Bft) W-SW 250 ° 0 min 0,000 mm 0,0 UV-I 0 W/m² -0,6 °C -4,1 °C 25,7 km/h (4 Bft)
01.03.2017 01:05 0,8 °C 0,8 °C 90 % 1004,8 hPa 0,0 mm 21,6 km/h (4 Bft) W 264 ° 0 min 0,000 mm 0,0 UV-I 0 W/m² -0,6 °C -4,5 °C 32,2 km/h (5 Bft)
01.03.2017 01:06 0,8 °C 0,9 °C 89 % 1004,8 hPa 0,0 mm 20,8 km/h (4 Bft) W-SW 252 ° 0 min 0,000 mm 0,0 UV-I 0 W/m² -0,8 °C -4,3 °C 32,2 km/h (5 Bft)
01.03.2017 01:07 0,8 °C 0,9 °C 89 % 1004,8 hPa 0,0 mm 13,4 km/h (3 Bft) W 265 ° 0 min 0,000 mm 0,0 UV-I 0 W/m² -0,8 °C -3,1 °C 22,5 km/h (4 Bft)
01.03.2017 01:08 0,8 °C 0,9 °C 89 % 1004,8 hPa 0,0 mm 10,6 km/h (2 Bft) S-SW 211 ° 0 min 0,000 mm 0,0 UV-I 0 W/m² -0,8 °C -2,5 °C 14,5 km/h (3 Bft)
01.03.2017 01:09 0,9 °C 0,9 °C 89 % 1004,8 hPa 0,0 mm 12,1 km/h (2 Bft) W-SW 246 ° 0 min 0,000 mm 0,0 UV-I 0 W/m² -0,7 °C -2,7 °C 19,3 km/h (3 Bft)
01.03.2017 01:10 0,9 °C 0,9 °C 89 % 1004,8 hPa 0,0 mm 15,8 km/h (3 Bft) W-SW 255 ° 0 min 0,000 mm 0,0 UV-I 0 W/m² -0,7 °C -3,4 °C 22,5 km/h (4 Bft)
01.03.2017 01:11 0,8 °C 0,9 °C 89 % 1004,8 hPa 0,0 mm 17,9 km/h (3 Bft) W 263 ° 0 min 0,000 mm 0,0 UV-I 0 W/m² -0,8 °C -3,9 °C 25,7 km/h (4 Bft)
01.03.2017 01:12 0,8 °C 0,9 °C 89 % 1004,7 hPa 0,0 mm 18,3 km/h (3 Bft) W-SW 256 ° 0 min 0,000 mm 0,0 UV-I 0 W/m² -0,8 °C -4,0 °C 25,7 km/h (4 Bft)
01.03.2017 01:13 0,8 °C 0,9 °C 89 % 1004,8 hPa 0,0 mm 15,3 km/h (3 Bft) SW 236 ° 0 min 0,000 mm 0,0 UV-I 0 W/m² -0,8 °C -3,5 °C 20,9 km/h (4 Bft)
01.03.2017 01:14 0,8 °C 0,9 °C 89 % 1004,7 hPa 0,0 mm 18,3 km/h (3 Bft) W-SW 237 ° 0 min 0,000 mm 0,0 UV-I 0 W/m² -0,8 °C -4,0 °C 29,0 km/h (5 Bft)
01.03.2017 01:15 0,8 °C 0,9 °C 89 % 1004,7 hPa 0,0 mm 16,0 km/h (3 Bft) W 264 ° 0 min 0,000 mm 0,0 UV-I 0 W/m² -0,8 °C -3,6 °C 20,9 km/h (4 Bft)
01.03.2017 01:16 0,9 °C 0,9 °C 89 % 1004,7 hPa 0,0 mm 13,6 km/h (3 Bft) W-SW 238 ° 0 min 0,000 mm 0,0 UV-I 0 W/m² -0,7 °C -3,0 °C 20,9 km/h (4 Bft)
01.03.2017 01:17 0,9 °C 0,9 °C 88 % 1004,7 hPa 0,0 mm 12,3 km/h (3 Bft) W 261 ° 0 min 0,000 mm 0,0 UV-I 0 W/m² -0,9 °C -2,8 °C 19,3 km/h (3 Bft)
01.03.2017 01:18 0,9 °C 0,9 °C 88 % 1004,8 hPa 0,0 mm 11,4 km/h (2 Bft) W-NW 287 ° 0 min 0,000 mm 0,0 UV-I 0 W/m² -0,9 °C -2,6 °C 17,7 km/h (3 Bft)
01.03.2017 01:19 0,9 °C 0,9 °C 88 % 1004,8 hPa 0,0 mm 17,2 km/h (3 Bft) W-SW 242 ° 0 min 0,000 mm 0,0 UV-I 0 W/m² -0,9 °C -3,7 °C 24,1 km/h (4 Bft)
01.03.2017 01:20 0,9 °C 0,9 °C 88 % 1004,8 hPa 0,0 mm 19,8 km/h (3 Bft) W 264 ° 0 min 0,000 mm 0,0 UV-I 0 W/m² -0,9 °C -4,1 °C 25,7 km/h (4 Bft)
01.03.2017 01:21 0,9 °C 0,9 °C 88 % 1004,7 hPa 0,0 mm 13,7 km/h (3 Bft) SW 214 ° 0 min 0,000 mm 0,0 UV-I 0 W/m² -0,9 °C -3,1 °C 22,5 km/h (4 Bft)
01.03.2017 01:22 0,9 °C 0,9 °C 88 % 1004,6 hPa 0,0 mm 14,9 km/h (3 Bft) SW 234 ° 0 min 0,000 mm 0,0 UV-I 0 W/m² -0,9 °C -3,3 °C 22,5 km/h (4 Bft)
01.03.2017 01:23 0,9 °C 0,9 °C 88 % 1004,7 hPa 0,0 mm 9,7 km/h (2 Bft) W-NW 297 ° 0 min 0,000 mm 0,0 UV-I 0 W/m² -0,9 °C -2,2 °C 16,1 km/h (3 Bft)
01.03.2017 01:24 0,9 °C 0,9 °C 88 % 1004,7 hPa 0,0 mm 11,1 km/h (2 Bft) W-SW 254 ° 0 min 0,000 mm 0,0 UV-I 0 W/m² -0,9 °C -2,5 °C 25,7 km/h (4 Bft)
01.03.2017 01:25 0,9 °C 0,9 °C 88 % 1004,7 hPa 0,0 mm 19,5 km/h (3 Bft) W-SW 239 ° 0 min 0,000 mm 0,0 UV-I 0 W/m² -0,9 °C -4,0 °C 25,7 km/h (4 Bft)
01.03.2017 01:26 0,9 °C 0,9 °C 88 % 1004,6 hPa 0,0 mm 12,5 km/h (3 Bft) W-SW 257 ° 0 min 0,000 mm 0,0 UV-I 0 W/m² -0,9 °C -2,8 °C 17,7 km/h (3 Bft)
01.03.2017 01:27 0,9 °C 0,9 °C 88 % 1004,7 hPa 0,0 mm 13,0 km/h (3 Bft) W 265 ° 0 min 0,000 mm 0,0 UV-I 0 W/m² -0,9 °C -2,9 °C 19,3 km/h (3 Bft)
01.03.2017 01:28 0,9 °C 0,9 °C 88 % 1004,6 hPa 0,0 mm 15,8 km/h (3 Bft) W-SW 254 ° 0 min 0,000 mm 0,0 UV-I 0 W/m² -0,9 °C -3,4 °C 20,9 km/h (4 Bft)
01.03.2017 01:29 0,9 °C 0,9 °C 88 % 1004,6 hPa 0,0 mm 10,5 km/h (2 Bft) W-SW 258 ° 0 min 0,000 mm 0,0 UV-I 0 W/m² -0,9 °C -2,4 °C 16,1 km/h (3 Bft)
01.03.2017 01:30 0,9 °C 0,9 °C 88 % 1004,6 hPa 0,0 mm 11,8 km/h (2 Bft) W 260 ° 0 min 0,000 mm 0,0 UV-I 0 W/m² -0,9 °C -2,7 °C 14,5 km/h (3 Bft)
01.03.2017 01:31 0,9 °C 0,9 °C 88 % 1004,6 hPa 0,0 mm 11,8 km/h (2 Bft) W-SW 249 ° 0 min 0,000 mm 0,0 UV-I 0 W/m² -0,9 °C -2,7 °C 16,1 km/h (3 Bft)
01.03.2017 01:32 0,9 °C 0,9 °C 87 % 1004,5 hPa 0,0 mm 8,2 km/h (2 Bft) W 274 ° 0 min 0,000 mm 0,0 UV-I 0 W/m² -1,0 °C -1,7 °C 12,9 km/h (3 Bft)
01.03.2017 01:33 0,9 °C 0,9 °C 87 % 1004,5 hPa 0,0 mm 16,8 km/h (3 Bft) W-SW 237 ° 0 min 0,000 mm 0,0 UV-I 0 W/m² -1,0 °C -3,6 °C 25,7 km/h (4 Bft)
01.03.2017 01:34 0,9 °C 0,9 °C 87 % 1004,4 hPa 0,0 mm 18,3 km/h (3 Bft) W-SW 254 ° 0 min 0,000 mm 0,0 UV-I 0 W/m² -1,0 °C -3,9 °C 27,4 km/h (4 Bft)
01.03.2017 01:35 0,9 °C 0,9 °C 87 % 1004,4 hPa 0,0 mm 11,0 km/h (2 Bft) W 267 ° 0 min 0,000 mm 0,0 UV-I 0 W/m² -1,0 °C -2,5 °C 14,5 km/h (3 Bft)
01.03.2017 01:36 0,9 °C 0,9 °C 87 % 1004,4 hPa 0,0 mm 10,6 km/h (2 Bft) W-SW 248 ° 0 min 0,000 mm 0,0 UV-I 0 W/m² -1,0 °C -2,4 °C 17,7 km/h (3 Bft)
01.03.2017 01:37 0,9 °C 0,9 °C 87 % 1004,4 hPa 0,0 mm 13,2 km/h (3 Bft) W 276 ° 0 min 0,000 mm 0,0 UV-I 0 W/m² -1,0 °C -3,0 °C 17,7 km/h (3 Bft)
01.03.2017 01:38 0,9 °C 0,9 °C 87 % 1004,4 hPa 0,0 mm 11,7 km/h (2 Bft) W 264 ° 0 min 0,000 mm 0,0 UV-I 0 W/m² -1,0 °C -2,6 °C 19,3 km/h (3 Bft)
01.03.2017 01:39 0,9 °C 0,9 °C 86 % 1004,4 hPa 0,0 mm 13,4 km/h (3 Bft) W 263 ° 0 min 0,000 mm 0,0 UV-I 0 W/m² -1,2 °C -3,0 °C 20,9 km/h (4 Bft)
01.03.2017 01:40 0,9 °C 0,9 °C 86 % 1004,4 hPa 0,0 mm 12,4 km/h (3 Bft) W 259 ° 0 min 0,000 mm 0,0 UV-I 0 W/m² -1,2 °C -2,8 °C 19,3 km/h (3 Bft)
01.03.2017 01:41 0,9 °C 1,0 °C 86 % 1004,5 hPa 0,0 mm 13,3 km/h (3 Bft) W-SW 254 ° 0 min 0,000 mm 0,0 UV-I 0 W/m² -1,2 °C -3,0 °C 17,7 km/h (3 Bft)
01.03.2017 01:42 0,9 °C 0,9 °C 86 % 1004,5 hPa 0,0 mm 13,3 km/h (3 Bft) W-SW 248 ° 0 min 0,000 mm 0,0 UV-I 0 W/m² -1,2 °C -3,0 °C 20,9 km/h (4 Bft)
01.03.2017 01:43 0,9 °C 1,0 °C 86 % 1004,5 hPa 0,0 mm 13,3 km/h (3 Bft) W-SW 246 ° 0 min 0,000 mm 0,0 UV-I 0 W/m² -1,2 °C -3,0 °C 17,7 km/h (3 Bft)
01.03.2017 01:44 0,9 °C 1,0 °C 87 % 1004,5 hPa 0,0 mm 8,6 km/h (2 Bft) NW 306 ° 0 min 0,000 mm 0,0 UV-I 0 W/m² -1,0 °C -1,9 °C 12,9 km/h (3 Bft)
01.03.2017 01:45 0,9 °C 0,9 °C 86 % 1004,5 hPa 0,0 mm 13,2 km/h (3 Bft) W-SW 250 ° 0 min 0,000 mm 0,0 UV-I 0 W/m² -1,2 °C -3,0 °C 20,9 km/h (4 Bft)
01.03.2017 01:46 0,9 °C 0,9 °C 86 % 1004,5 hPa 0,0 mm 13,1 km/h (3 Bft) NW 309 ° 0 min 0,000 mm 0,0 UV-I 0 W/m² -1,2 °C -2,9 °C 19,3 km/h (3 Bft)
01.03.2017 01:47 0,9 °C 0,9 °C 86 % 1004,5 hPa 0,0 mm 12,1 km/h (2 Bft) W-SW 252 ° 0 min 0,000 mm 0,0 UV-I 0 W/m² -1,2 °C -2,7 °C 22,5 km/h (4 Bft)
01.03.2017 01:48 0,9 °C 0,9 °C 86 % 1004,5 hPa 0,0 mm 11,3 km/h (2 Bft) W 262 ° 0 min 0,000 mm 0,0 UV-I 0 W/m² -1,2 °C -2,6 °C 16,1 km/h (3 Bft)
01.03.2017 01:49 0,9 °C 0,9 °C 86 % 1004,5 hPa 0,0 mm 15,5 km/h (3 Bft) W 266 ° 0 min 0,000 mm 0,0 UV-I 0 W/m² -1,2 °C -3,4 °C 25,7 km/h (4 Bft)
01.03.2017 01:50 0,9 °C 1,0 °C 86 % 1004,5 hPa 0,0 mm 18,6 km/h (3 Bft) SW 236 ° 0 min 0,000 mm 0,0 UV-I 0 W/m² -1,2 °C -3,9 °C 32,2 km/h (5 Bft)
01.03.2017 01:51 0,9 °C 0,9 °C 86 % 1004,6 hPa 0,0 mm 13,3 km/h (3 Bft) W 279 ° 0 min 0,000 mm 0,0 UV-I 0 W/m² -1,2 °C -3,0 °C 20,9 km/h (4 Bft)
01.03.2017 01:52 0,9 °C 0,9 °C 85 % 1004,5 hPa 0,0 mm 15,6 km/h (3 Bft) W-SW 257 ° 0 min 0,000 mm 0,0 UV-I 0 W/m² -1,3 °C -3,4 °C 22,5 km/h (4 Bft)
01.03.2017 01:53 1,0 °C 1,0 °C 85 % 1004,7 hPa 0,0 mm 15,8 km/h (3 Bft) W-SW 246 ° 0 min 0,000 mm 0,0 UV-I 0 W/m² -1,2 °C -3,3 °C 19,3 km/h (3 Bft)
01.03.2017 01:54 1,0 °C 1,0 °C 85 % 1004,6 hPa 0,0 mm 17,7 km/h (3 Bft) W-SW 245 ° 0 min 0,000 mm 0,0 UV-I 0 W/m² -1,2 °C -3,6 °C 20,9 km/h (4 Bft)
01.03.2017 01:55 1,0 °C 1,0 °C 85 % 1004,7 hPa 0,0 mm 17,4 km/h (3 Bft) W-SW 257 ° 0 min 0,000 mm 0,0 UV-I 0 W/m² -1,2 °C -3,6 °C 29,0 km/h (5 Bft)
01.03.2017 01:56 1,0 °C 1,0 °C 85 % 1004,7 hPa 0,0 mm 9,4 km/h (2 Bft) W-SW 252 ° 0 min 0,000 mm 0,0 UV-I 0 W/m² -1,2 °C -2,0 °C 12,9 km/h (3 Bft)
01.03.2017 01:57 1,0 °C 1,0 °C 85 % 1004,8 hPa 0,0 mm 17,2 km/h (3 Bft) W 277 ° 0 min 0,000 mm 0,0 UV-I 0 W/m² -1,2 °C -3,6 °C 24,1 km/h (4 Bft)
01.03.2017 01:58 1,0 °C 1,0 °C 85 % 1004,8 hPa 0,0 mm 19,4 km/h (3 Bft) S-SW 200 ° 0 min 0,000 mm 0,0 UV-I 0 W/m² -1,2 °C -3,9 °C 29,0 km/h (5 Bft)
01.03.2017 01:59 1,1 °C 1,1 °C 84 % 1004,6 hPa 0,0 mm 15,1 km/h (3 Bft) W-NW 289 ° 0 min 0,000 mm 0,0 UV-I 0 W/m² -1,3 °C -3,1 °C 24,1 km/h (4 Bft)
01.03.2017 02:00 1,1 °C 1,1 °C 84 % 1004,8 hPa 0,0 mm 16,2 km/h (3 Bft) W-SW 244 ° 0 min 0,026 mm 0,0 UV-I 0 W/m² -1,3 °C -3,3 °C 24,1 km/h (4 Bft)
01.03.2017 02:01 1,1 °C 1,1 °C 84 % 1004,8 hPa 0,0 mm 17,2 km/h (3 Bft) W 269 ° 0 min 0,000 mm 0,0 UV-I 0 W/m² -1,3 °C -3,4 °C 30,6 km/h (5 Bft)
01.03.2017 02:02 1,1 °C 1,1 °C 84 % 1004,9 hPa 0,0 mm 17,9 km/h (3 Bft) W-SW 249 ° 0 min 0,000 mm 0,0 UV-I 0 W/m² -1,3 °C -3,5 °C 24,1 km/h (4 Bft)
01.03.2017 02:03 1,1 °C 1,1 °C 84 % 1004,9 hPa 0,0 mm 15,5 km/h (3 Bft) W 275 ° 0 min 0,000 mm 0,0 UV-I 0 W/m² -1,3 °C -3,1 °C 22,5 km/h (4 Bft)
01.03.2017 02:04 1,1 °C 1,1 °C 84 % 1005,0 hPa 0,0 mm 17,8 km/h (3 Bft) W 260 ° 0 min 0,000 mm 0,0 UV-I 0 W/m² -1,3 °C -3,5 °C 27,4 km/h (4 Bft)
01.03.2017 02:05 1,1 °C 1,1 °C 83 % 1004,9 hPa 0,0 mm 23,8 km/h (4 Bft) W 275 ° 0 min 0,000 mm 0,0 UV-I 0 W/m² -1,5 °C -4,4 °C 32,2 km/h (5 Bft)
01.03.2017 02:06 1,1 °C 1,1 °C 83 % 1004,9 hPa 0,0 mm 17,2 km/h (3 Bft) W 269 ° 0 min 0,000 mm 0,0 UV-I 0 W/m² -1,5 °C -3,4 °C 29,0 km/h (5 Bft)
01.03.2017 02:07 1,1 °C 1,1 °C 84 % 1004,9 hPa 0,0 mm 10,3 km/h (2 Bft) W-SW 253 ° 0 min 0,000 mm 0,0 UV-I 0 W/m² -1,3 °C -2,1 °C 14,5 km/h (3 Bft)
01.03.2017 02:08 1,1 °C 1,1 °C 84 % 1005,0 hPa 0,0 mm 13,6 km/h (3 Bft) W-SW 248 ° 0 min 0,000 mm 0,0 UV-I 0 W/m² -1,3 °C -2,8 °C 17,7 km/h (3 Bft)
01.03.2017 02:09 1,1 °C 1,1 °C 84 % 1005,0 hPa 0,0 mm 17,7 km/h (3 Bft) W-SW 258 ° 0 min 0,000 mm 0,0 UV-I 0 W/m² -1,3 °C -3,5 °C 29,0 km/h (5 Bft)
01.03.2017 02:10 1,1 °C 1,1 °C 84 % 1005,0 hPa 0,0 mm 13,3 km/h (3 Bft) W-SW 247 ° 0 min 0,000 mm 0,0 UV-I 0 W/m² -1,3 °C -2,7 °C 25,7 km/h (4 Bft)
01.03.2017 02:11 1,1 °C 1,1 °C 84 % 1005,0 hPa 0,0 mm 13,8 km/h (3 Bft) W 259 ° 0 min 0,000 mm 0,0 UV-I 0 W/m² -1,3 °C -2,8 °C 19,3 km/h (3 Bft)
01.03.2017 02:12 1,1 °C 1,1 °C 84 % 1004,9 hPa 0,0 mm 14,3 km/h (3 Bft) W 281 ° 0 min 0,000 mm 0,0 UV-I 0 W/m² -1,3 °C -2,9 °C 24,1 km/h (4 Bft)
01.03.2017 02:13 1,1 °C 1,1 °C 84 % 1005,0 hPa 0,0 mm 22,8 km/h (4 Bft) W-SW 238 ° 0 min 0,000 mm 0,0 UV-I 0 W/m² -1,3 °C -4,2 °C 32,2 km/h (5 Bft)
01.03.2017 02:14 1,1 °C 1,1 °C 84 % 1005,0 hPa 0,0 mm 16,8 km/h (3 Bft) W-SW 255 ° 0 min 0,000 mm 0,0 UV-I 0 W/m² -1,3 °C -3,4 °C 20,9 km/h (4 Bft)
01.03.2017 02:15 1,1 °C 1,1 °C 84 % 1005,0 hPa 0,0 mm 13,7 km/h (3 Bft) W 265 ° 0 min 0,000 mm 0,0 UV-I 0 W/m² -1,3 °C -2,8 °C 17,7 km/h (3 Bft)
01.03.2017 02:16 1,0 °C 1,1 °C 84 % 1005,0 hPa 0,0 mm 9,7 km/h (2 Bft) W 273 ° 0 min 0,000 mm 0,0 UV-I 0 W/m² -1,4 °C -2,0 °C 19,3 km/h (3 Bft)
01.03.2017 02:17 1,0 °C 1,0 °C 84 % 1005,1 hPa 0,0 mm 16,2 km/h (3 Bft) W-SW 251 ° 0 min 0,000 mm 0,0 UV-I 0 W/m² -1,4 °C -3,4 °C 20,9 km/h (4 Bft)
01.03.2017 02:18 0,9 °C 1,0 °C 84 % 1005,1 hPa 0,0 mm 10,9 km/h (2 Bft) W-SW 254 ° 0 min 0,000 mm 0,0 UV-I 0 W/m² -1,5 °C -2,5 °C 17,7 km/h (3 Bft)
01.03.2017 02:19 1,0 °C 1,0 °C 85 % 1005,1 hPa 0,0 mm 11,9 km/h (2 Bft) W-SW 245 ° 0 min 0,000 mm 0,0 UV-I 0 W/m² -1,2 °C -2,6 °C 16,1 km/h (3 Bft)
01.03.2017 02:20 0,9 °C 1,0 °C 85 % 1005,1 hPa 0,0 mm 10,5 km/h (2 Bft) W-SW 244 ° 0 min 0,000 mm 0,0 UV-I 0 W/m² -1,3 °C -2,4 °C 16,1 km/h (3 Bft)
01.03.2017 02:21 0,9 °C 0,9 °C 84 % 1005,0 hPa 0,0 mm 13,9 km/h (3 Bft) W-SW 238 ° 0 min 0,000 mm 0,0 UV-I 0 W/m² -1,5 °C -3,1 °C 17,7 km/h (3 Bft)
01.03.2017 02:22 0,9 °C 0,9 °C 85 % 1005,2 hPa 0,0 mm 16,6 km/h (3 Bft) W-SW 257 ° 0 min 0,000 mm 0,0 UV-I 0 W/m² -1,3 °C -3,6 °C 24,1 km/h (4 Bft)
01.03.2017 02:23 0,9 °C 0,9 °C 85 % 1005,1 hPa 0,0 mm 9,7 km/h (2 Bft) W 267 ° 0 min 0,000 mm 0,0 UV-I 0 W/m² -1,3 °C -2,2 °C 16,1 km/h (3 Bft)
01.03.2017 02:24 0,9 °C 0,9 °C 85 % 1005,1 hPa 0,0 mm 12,7 km/h (3 Bft) W 281 ° 0 min 0,000 mm 0,0 UV-I 0 W/m² -1,3 °C -2,9 °C 16,1 km/h (3 Bft)
01.03.2017 02:25 0,9 °C 0,9 °C 85 % 1005,1 hPa 0,0 mm 13,3 km/h (3 Bft) W 269 ° 0 min 0,000 mm 0,0 UV-I 0 W/m² -1,3 °C -3,0 °C 17,7 km/h (3 Bft)
01.03.2017 02:26 0,9 °C 0,9 °C 85 % 1005,2 hPa 0,0 mm 12,8 km/h (3 Bft) W-SW 241 ° 0 min 0,000 mm 0,0 UV-I 0 W/m² -1,3 °C -2,9 °C 16,1 km/h (3 Bft)
01.03.2017 02:27 0,9 °C 0,9 °C 85 % 1005,4 hPa 0,0 mm 8,5 km/h (2 Bft) W-NW 296 ° 0 min 0,000 mm 0,0 UV-I 0 W/m² -1,3 °C -1,8 °C 16,1 km/h (3 Bft)
01.03.2017 02:28 0,8 °C 0,9 °C 84 % 1005,1 hPa 0,0 mm 9,7 km/h (2 Bft) SW 229 ° 0 min 0,000 mm 0,0 UV-I 0 W/m² -1,6 °C -2,3 °C 17,7 km/h (3 Bft)
01.03.2017 02:29 0,8 °C 0,8 °C 84 % 1005,1 hPa 0,0 mm 19,4 km/h (3 Bft) SW 217 ° 0 min 0,000 mm 0,0 UV-I 0 W/m² -1,6 °C -4,1 °C 25,7 km/h (4 Bft)
01.03.2017 02:30 0,9 °C 0,9 °C 84 % 1005,3 hPa 0,0 mm 13,4 km/h (3 Bft) W 267 ° 0 min 0,000 mm 0,0 UV-I 0 W/m² -1,5 °C -3,0 °C 17,7 km/h (3 Bft)
01.03.2017 02:31 0,9 °C 0,9 °C 84 % 1005,2 hPa 0,0 mm 14,1 km/h (3 Bft) W-SW 251 ° 0 min 0,000 mm 0,0 UV-I 0 W/m² -1,5 °C -3,1 °C 17,7 km/h (3 Bft)
01.03.2017 02:32 0,9 °C 0,9 °C 84 % 1005,2 hPa 0,0 mm 12,3 km/h (3 Bft) W-SW 248 ° 0 min 0,000 mm 0,0 UV-I 0 W/m² -1,5 °C -2,8 °C 17,7 km/h (3 Bft)
01.03.2017 02:33 0,9 °C 0,9 °C 84 % 1005,2 hPa 0,0 mm 12,3 km/h (3 Bft) SW 223 ° 0 min 0,000 mm 0,0 UV-I 0 W/m² -1,5 °C -2,8 °C 20,9 km/h (4 Bft)
01.03.2017 02:34 0,9 °C 0,9 °C 83 % 1005,2 hPa 0,0 mm 23,5 km/h (4 Bft) W-NW 290 ° 0 min 0,000 mm 0,0 UV-I 0 W/m² -1,7 °C -4,6 °C 32,2 km/h (5 Bft)
01.03.2017 02:35 0,9 °C 0,9 °C 82 % 1005,2 hPa 0,0 mm 22,1 km/h (4 Bft) SW 221 ° 0 min 0,000 mm 0,0 UV-I 0 W/m² -1,8 °C -4,4 °C 35,4 km/h (5 Bft)
01.03.2017 02:36 0,9 °C 0,9 °C 82 % 1005,2 hPa 0,0 mm 11,5 km/h (2 Bft) W-NW 294 ° 0 min 0,000 mm 0,0 UV-I 0 W/m² -1,8 °C -2,6 °C 16,1 km/h (3 Bft)
01.03.2017 02:37 0,9 °C 1,0 °C 82 % 1005,2 hPa 0,0 mm 15,5 km/h (3 Bft) W 275 ° 0 min 0,000 mm 0,0 UV-I 0 W/m² -1,8 °C -3,4 °C 27,4 km/h (4 Bft)
01.03.2017 02:38 1,0 °C 1,0 °C 82 % 1005,2 hPa 0,0 mm 17,2 km/h (3 Bft) NW 308 ° 0 min 0,000 mm 0,0 UV-I 0 W/m² -1,7 °C -3,6 °C 29,0 km/h (5 Bft)
01.03.2017 02:39 1,0 °C 1,0 °C 82 % 1005,2 hPa 0,0 mm 22,2 km/h (4 Bft) W-NW 298 ° 0 min 0,000 mm 0,0 UV-I 0 W/m² -1,7 °C -4,3 °C 29,0 km/h (5 Bft)
01.03.2017 02:40 1,0 °C 1,0 °C 81 % 1005,2 hPa 0,0 mm 16,5 km/h (3 Bft) W 263 ° 0 min 0,000 mm 0,0 UV-I 0 W/m² -1,9 °C -3,4 °C 22,5 km/h (4 Bft)
01.03.2017 02:41 1,0 °C 1,0 °C 81 % 1005,2 hPa 0,0 mm 16,7 km/h (3 Bft) W 262 ° 0 min 0,000 mm 0,0 UV-I 0 W/m² -1,9 °C -3,5 °C 32,2 km/h (5 Bft)
01.03.2017 02:42 1,0 °C 1,0 °C 81 % 1005,3 hPa 0,0 mm 25,7 km/h (4 Bft) W 271 ° 0 min 0,000 mm 0,0 UV-I 0 W/m² -1,9 °C -4,7 °C 33,8 km/h (5 Bft)
01.03.2017 02:43 1,0 °C 1,0 °C 80 % 1005,2 hPa 0,0 mm 21,5 km/h (4 Bft) W 261 ° 0 min 0,000 mm 0,0 UV-I 0 W/m² -2,1 °C -4,2 °C 32,2 km/h (5 Bft)
01.03.2017 02:44 1,1 °C 1,1 °C 81 % 1005,2 hPa 0,0 mm 23,0 km/h (4 Bft) W 275 ° 0 min 0,000 mm 0,0 UV-I 0 W/m² -1,8 °C -4,3 °C 33,8 km/h (5 Bft)
01.03.2017 02:45 1,1 °C 1,1 °C 81 % 1005,2 hPa 0,0 mm 20,4 km/h (4 Bft) W-NW 289 ° 0 min 0,000 mm 0,0 UV-I 0 W/m² -1,8 °C -3,9 °C 27,4 km/h (4 Bft)
01.03.2017 02:46 1,1 °C 1,1 °C 80 % 1005,1 hPa 0,0 mm 22,3 km/h (4 Bft) W-SW 243 ° 0 min 0,000 mm 0,0 UV-I 0 W/m² -2,0 °C -4,2 °C 30,6 km/h (5 Bft)
01.03.2017 02:47 1,1 °C 1,1 °C 80 % 1005,1 hPa 0,0 mm 20,3 km/h (4 Bft) W 263 ° 0 min 0,000 mm 0,0 UV-I 0 W/m² -2,0 °C -3,9 °C 30,6 km/h (5 Bft)
01.03.2017 02:48 1,1 °C 1,1 °C 81 % 1005,1 hPa 0,0 mm 19,8 km/h (3 Bft) W-NW 291 ° 0 min 0,000 mm 0,0 UV-I 0 W/m² -1,8 °C -3,8 °C 25,7 km/h (4 Bft)
01.03.2017 02:49 1,1 °C 1,1 °C 80 % 1005,0 hPa 0,0 mm 12,7 km/h (3 Bft) W 269 ° 0 min 0,000 mm 0,0 UV-I 0 W/m² -2,0 °C -2,6 °C 19,3 km/h (3 Bft)
01.03.2017 02:50 1,1 °C 1,1 °C 81 % 1005,0 hPa 0,0 mm 16,2 km/h (3 Bft) W 260 ° 0 min 0,000 mm 0,0 UV-I 0 W/m² -1,8 °C -3,3 °C 20,9 km/h (4 Bft)
01.03.2017 02:51 1,1 °C 1,1 °C 81 % 1004,9 hPa 0,0 mm 14,3 km/h (3 Bft) W 265 ° 0 min 0,000 mm 0,0 UV-I 0 W/m² -1,8 °C -2,9 °C 24,1 km/h (4 Bft)
01.03.2017 02:52 1,1 °C 1,1 °C 81 % 1004,8 hPa 0,0 mm 18,9 km/h (3 Bft) W-SW 245 ° 0 min 0,000 mm 0,0 UV-I 0 W/m² -1,8 °C -3,7 °C 27,4 km/h (4 Bft)
01.03.2017 02:53 1,1 °C 1,1 °C 80 % 1004,9 hPa 0,0 mm 12,5 km/h (3 Bft) NW 308 ° 0 min 0,000 mm 0,0 UV-I 0 W/m² -2,0 °C -2,6 °C 24,1 km/h (4 Bft)
01.03.2017 02:54 1,1 °C 1,1 °C 81 % 1004,8 hPa 0,0 mm 22,7 km/h (4 Bft) W-SW 252 ° 0 min 0,000 mm 0,0 UV-I 0 W/m² -1,8 °C -4,2 °C 27,4 km/h (4 Bft)
01.03.2017 02:55 1,1 °C 1,1 °C 80 % 1004,8 hPa 0,0 mm 17,7 km/h (3 Bft) W-NW 287 ° 0 min 0,000 mm 0,0 UV-I 0 W/m² -2,0 °C -3,5 °C 22,5 km/h (4 Bft)
01.03.2017 02:56 1,1 °C 1,1 °C 80 % 1004,9 hPa 0,0 mm 11,4 km/h (2 Bft) SW 227 ° 0 min 0,000 mm 0,0 UV-I 0 W/m² -2,0 °C -2,3 °C 17,7 km/h (3 Bft)
01.03.2017 02:57 1,1 °C 1,1 °C 81 % 1004,9 hPa 0,0 mm 10,7 km/h (2 Bft) W-SW 246 ° 0 min 0,000 mm 0,0 UV-I 0 W/m² -1,8 °C -2,2 °C 16,1 km/h (3 Bft)
01.03.2017 02:58 1,1 °C 1,1 °C 80 % 1004,9 hPa 0,0 mm 17,1 km/h (3 Bft) W-SW 238 ° 0 min 0,000 mm 0,0 UV-I 0 W/m² -2,0 °C -3,4 °C 25,7 km/h (4 Bft)
01.03.2017 02:59 1,1 °C 1,1 °C 80 % 1004,9 hPa 0,0 mm 19,5 km/h (3 Bft) W 264 ° 0 min 0,000 mm 0,0 UV-I 0 W/m² -2,0 °C -3,8 °C 29,0 km/h (5 Bft)
01.03.2017 03:00 1,2 °C 1,2 °C 80 % 1004,9 hPa 0,0 mm 12,5 km/h (3 Bft) W 272 ° 0 min 0,000 mm 0,0 UV-I 0 W/m² -1,9 °C -2,5 °C 19,3 km/h (3 Bft)
01.03.2017 03:01 1,1 °C 1,2 °C 80 % 1004,9 hPa 0,0 mm 21,6 km/h (4 Bft) W-NW 289 ° 0 min 0,025 mm 0,0 UV-I 0 W/m² -2,0 °C -4,1 °C 30,6 km/h (5 Bft)
01.03.2017 03:02 1,1 °C 1,2 °C 80 % 1005,0 hPa 0,0 mm 14,3 km/h (3 Bft) W-SW 257 ° 0 min 0,000 mm 0,0 UV-I 0 W/m² -2,0 °C -2,9 °C 22,5 km/h (4 Bft)
01.03.2017 03:03 1,1 °C 1,2 °C 81 % 1005,0 hPa 0,0 mm 14,6 km/h (3 Bft) W-SW 242 ° 0 min 0,000 mm 0,0 UV-I 0 W/m² -1,8 °C -3,0 °C 22,5 km/h (4 Bft)
01.03.2017 03:04 1,2 °C 1,2 °C 81 % 1005,0 hPa 0,0 mm 13,5 km/h (3 Bft) W-SW 242 ° 0 min 0,000 mm 0,0 UV-I 0 W/m² -1,7 °C -2,7 °C 19,3 km/h (3 Bft)
01.03.2017 03:05 1,1 °C 1,2 °C 81 % 1005,0 hPa 0,0 mm 13,9 km/h (3 Bft) W-NW 290 ° 0 min 0,000 mm 0,0 UV-I 0 W/m² -1,8 °C -2,9 °C 25,7 km/h (4 Bft)
01.03.2017 03:06 1,1 °C 1,1 °C 80 % 1005,0 hPa 0,0 mm 13,3 km/h (3 Bft) W-SW 240 ° 0 min 0,000 mm 0,0 UV-I 0 W/m² -2,0 °C -2,7 °C 19,3 km/h (3 Bft)
01.03.2017 03:07 1,1 °C 1,1 °C 80 % 1005,1 hPa 0,0 mm 16,2 km/h (3 Bft) W 279 ° 0 min 0,000 mm 0,0 UV-I 0 W/m² -2,0 °C -3,3 °C 24,1 km/h (4 Bft)
01.03.2017 03:08 1,1 °C 1,1 °C 80 % 1005,0 hPa 0,0 mm 16,9 km/h (3 Bft) W 270 ° 0 min 0,000 mm 0,0 UV-I 0 W/m² -2,0 °C -3,4 °C 22,5 km/h (4 Bft)
01.03.2017 03:09 1,1 °C 1,1 °C 81 % 1005,1 hPa 0,0 mm 15,2 km/h (3 Bft) W-NW 284 ° 0 min 0,000 mm 0,0 UV-I 0 W/m² -1,8 °C -3,1 °C 20,9 km/h (4 Bft)
01.03.2017 03:10 1,1 °C 1,1 °C 81 % 1005,1 hPa 0,0 mm 17,0 km/h (3 Bft) W-SW 257 ° 0 min 0,000 mm 0,0 UV-I 0 W/m² -1,8 °C -3,4 °C 25,7 km/h (4 Bft)
01.03.2017 03:11 1,1 °C 1,1 °C 80 % 1005,1 hPa 0,0 mm 12,8 km/h (3 Bft) W 265 ° 0 min 0,000 mm 0,0 UV-I 0 W/m² -2,0 °C -2,6 °C 20,9 km/h (4 Bft)
01.03.2017 03:12 1,1 °C 1,1 °C 81 % 1005,1 hPa 0,0 mm 13,1 km/h (3 Bft) W-SW 254 ° 0 min 0,000 mm 0,0 UV-I 0 W/m² -1,8 °C -2,7 °C 17,7 km/h (3 Bft)
01.03.2017 03:13 1,1 °C 1,1 °C 80 % 1005,1 hPa 0,0 mm 10,8 km/h (2 Bft) W 260 ° 0 min 0,000 mm 0,0 UV-I 0 W/m² -2,0 °C -2,2 °C 19,3 km/h (3 Bft)
01.03.2017 03:14 1,1 °C 1,1 °C 80 % 1005,0 hPa 0,0 mm 20,3 km/h (4 Bft) W 276 ° 0 min 0,000 mm 0,0 UV-I 0 W/m² -2,0 °C -3,9 °C 27,4 km/h (4 Bft)
01.03.2017 03:15 1,1 °C 1,1 °C 80 % 1005,1 hPa 0,0 mm 15,2 km/h (3 Bft) W-SW 254 ° 0 min 0,000 mm 0,0 UV-I 0 W/m² -2,0 °C -3,1 °C 24,1 km/h (4 Bft)
01.03.2017 03:16 1,1 °C 1,1 °C 80 % 1005,2 hPa 0,0 mm 13,7 km/h (3 Bft) W 262 ° 0 min 0,000 mm 0,0 UV-I 0 W/m² -2,0 °C -2,8 °C 19,3 km/h (3 Bft)
01.03.2017 03:17 1,1 °C 1,1 °C 80 % 1005,2 hPa 0,0 mm 11,3 km/h (2 Bft) W 271 ° 0 min 0,000 mm 0,0 UV-I 0 W/m² -2,0 °C -2,3 °C 16,1 km/h (3 Bft)
01.03.2017 03:18 1,1 °C 1,1 °C 80 % 1005,2 hPa 0,0 mm 13,5 km/h (3 Bft) W 264 ° 0 min 0,000 mm 0,0 UV-I 0 W/m² -2,0 °C -2,8 °C 19,3 km/h (3 Bft)
01.03.2017 03:19 1,1 °C 1,2 °C 80 % 1005,3 hPa 0,0 mm 13,6 km/h (3 Bft) W 266 ° 0 min 0,000 mm 0,0 UV-I 0 W/m² -2,0 °C -2,8 °C 29,0 km/h (5 Bft)
01.03.2017 03:20 1,2 °C 1,2 °C 80 % 1005,3 hPa 0,0 mm 15,8 km/h (3 Bft) W 262 ° 0 min 0,000 mm 0,0 UV-I 0 W/m² -1,9 °C -3,1 °C 24,1 km/h (4 Bft)
01.03.2017 03:21 1,2 °C 1,2 °C 80 % 1005,4 hPa 0,0 mm 10,5 km/h (2 Bft) W-SW 246 ° 0 min 0,000 mm 0,0 UV-I 0 W/m² -1,9 °C -2,0 °C 12,9 km/h (3 Bft)
01.03.2017 03:22 1,2 °C 1,2 °C 80 % 1005,3 hPa 0,0 mm 11,3 km/h (2 Bft) W-SW 254 ° 0 min 0,000 mm 0,0 UV-I 0 W/m² -1,9 °C -2,2 °C 16,1 km/h (3 Bft)
01.03.2017 03:23 1,2 °C 1,2 °C 80 % 1005,4 hPa 0,0 mm 11,0 km/h (2 Bft) W 281 ° 0 min 0,000 mm 0,0 UV-I 0 W/m² -1,9 °C -2,1 °C 17,7 km/h (3 Bft)
01.03.2017 03:24 1,2 °C 1,2 °C 80 % 1005,4 hPa 0,0 mm 8,6 km/h (2 Bft) S 182 ° 0 min 0,000 mm 0,0 UV-I 0 W/m² -1,9 °C -1,5 °C 20,9 km/h (4 Bft)
01.03.2017 03:25 1,2 °C 1,2 °C 80 % 1005,2 hPa 0,0 mm 18,2 km/h (3 Bft) SW 234 ° 0 min 0,000 mm 0,0 UV-I 0 W/m² -1,9 °C -3,5 °C 22,5 km/h (4 Bft)
01.03.2017 03:26 1,2 °C 1,2 °C 80 % 1005,2 hPa 0,0 mm 16,6 km/h (3 Bft) NW 305 ° 0 min 0,000 mm 0,0 UV-I 0 W/m² -1,9 °C -3,2 °C 25,7 km/h (4 Bft)
01.03.2017 03:27 1,2 °C 1,2 °C 80 % 1005,2 hPa 0,0 mm 19,2 km/h (3 Bft) W-SW 248 ° 0 min 0,000 mm 0,0 UV-I 0 W/m² -1,9 °C -3,6 °C 25,7 km/h (4 Bft)
01.03.2017 03:28 1,2 °C 1,2 °C 79 % 1005,3 hPa 0,0 mm 15,4 km/h (3 Bft) SW 221 ° 0 min 0,000 mm 0,0 UV-I 0 W/m² -2,0 °C -3,0 °C 22,5 km/h (4 Bft)
01.03.2017 03:29 1,2 °C 1,2 °C 79 % 1005,2 hPa 0,0 mm 11,3 km/h (2 Bft) SW 228 ° 0 min 0,000 mm 0,0 UV-I 0 W/m² -2,0 °C -2,2 °C 22,5 km/h (4 Bft)
01.03.2017 03:30 1,2 °C 1,2 °C 79 % 1005,3 hPa 0,0 mm 17,6 km/h (3 Bft) W 260 ° 0 min 0,000 mm 0,0 UV-I 0 W/m² -2,0 °C -3,4 °C 25,7 km/h (4 Bft)
01.03.2017 03:31 1,2 °C 1,2 °C 79 % 1005,2 hPa 0,0 mm 19,0 km/h (3 Bft) W-SW 252 ° 0 min 0,000 mm 0,0 UV-I 0 W/m² -2,0 °C -3,6 °C 22,5 km/h (4 Bft)
01.03.2017 03:32 1,2 °C 1,2 °C 79 % 1005,2 hPa 0,0 mm 15,6 km/h (3 Bft) W-SW 242 ° 0 min 0,000 mm 0,0 UV-I 0 W/m² -2,0 °C -3,0 °C 25,7 km/h (4 Bft)
01.03.2017 03:33 1,2 °C 1,2 °C 79 % 1005,2 hPa 0,0 mm 13,6 km/h (3 Bft) W-SW 242 ° 0 min 0,000 mm 0,0 UV-I 0 W/m² -2,0 °C -2,7 °C 19,3 km/h (3 Bft)
01.03.2017 03:34 1,2 °C 1,2 °C 79 % 1005,4 hPa 0,0 mm 25,0 km/h (4 Bft) W-SW 248 ° 0 min 0,000 mm 0,0 UV-I 0 W/m² -2,0 °C -4,4 °C 38,6 km/h (5 Bft)
01.03.2017 03:35 1,2 °C 1,2 °C 79 % 1005,1 hPa 0,0 mm 22,2 km/h (4 Bft) W-SW 257 ° 0 min 0,000 mm 0,0 UV-I 0 W/m² -2,0 °C -4,0 °C 32,2 km/h (5 Bft)
01.03.2017 03:36 1,2 °C 1,2 °C 79 % 1005,2 hPa 0,0 mm 13,8 km/h (3 Bft) SW 236 ° 0 min 0,000 mm 0,0 UV-I 0 W/m² -2,0 °C -2,7 °C 16,1 km/h (3 Bft)
01.03.2017 03:37 1,2 °C 1,2 °C 79 % 1005,2 hPa 0,0 mm 20,4 km/h (4 Bft) W 268 ° 0 min 0,000 mm 0,0 UV-I 0 W/m² -2,0 °C -3,8 °C 29,0 km/h (5 Bft)
01.03.2017 03:38 1,2 °C 1,2 °C 79 % 1005,2 hPa 0,0 mm 15,6 km/h (3 Bft) S-SW 213 ° 0 min 0,000 mm 0,0 UV-I 0 W/m² -2,0 °C -3,0 °C 25,7 km/h (4 Bft)
01.03.2017 03:39 1,2 °C 1,2 °C 78 % 1005,1 hPa 0,0 mm 17,9 km/h (3 Bft) W-SW 252 ° 0 min 0,000 mm 0,0 UV-I 0 W/m² -2,2 °C -3,4 °C 27,4 km/h (4 Bft)
01.03.2017 03:40 1,2 °C 1,2 °C 78 % 1005,1 hPa 0,0 mm 15,0 km/h (3 Bft) W 262 ° 0 min 0,000 mm 0,0 UV-I 0 W/m² -2,2 °C -2,9 °C 24,1 km/h (4 Bft)
01.03.2017 03:41 1,2 °C 1,2 °C 78 % 1005,2 hPa 0,0 mm 15,1 km/h (3 Bft) W 261 ° 0 min 0,000 mm 0,0 UV-I 0 W/m² -2,2 °C -3,0 °C 19,3 km/h (3 Bft)
01.03.2017 03:42 1,2 °C 1,2 °C 78 % 1005,2 hPa 0,0 mm 13,1 km/h (3 Bft) W 278 ° 0 min 0,000 mm 0,0 UV-I 0 W/m² -2,2 °C -2,6 °C 20,9 km/h (4 Bft)
01.03.2017 03:43 1,2 °C 1,2 °C 78 % 1005,2 hPa 0,0 mm 20,8 km/h (4 Bft) W-SW 242 ° 0 min 0,000 mm 0,0 UV-I 0 W/m² -2,2 °C -3,8 °C 30,6 km/h (5 Bft)
01.03.2017 03:44 1,2 °C 1,2 °C 78 % 1005,2 hPa 0,0 mm 18,7 km/h (3 Bft) W-SW 244 ° 0 min 0,000 mm 0,0 UV-I 0 W/m² -2,2 °C -3,5 °C 27,4 km/h (4 Bft)
01.03.2017 03:45 1,2 °C 1,2 °C 78 % 1005,3 hPa 0,0 mm 14,6 km/h (3 Bft) W 265 ° 0 min 0,000 mm 0,0 UV-I 0 W/m² -2,2 °C -2,9 °C 25,7 km/h (4 Bft)
01.03.2017 03:46 1,2 °C 1,2 °C 78 % 1005,2 hPa 0,0 mm 10,4 km/h (2 Bft) W-SW 248 ° 0 min 0,000 mm 0,0 UV-I 0 W/m² -2,2 °C -2,0 °C 17,7 km/h (3 Bft)
01.03.2017 03:47 1,1 °C 1,2 °C 78 % 1005,3 hPa 0,0 mm 11,5 km/h (2 Bft) NW 307 ° 0 min 0,000 mm 0,0 UV-I 0 W/m² -2,3 °C -2,4 °C 19,3 km/h (3 Bft)
01.03.2017 03:48 1,1 °C 1,2 °C 78 % 1005,3 hPa 0,0 mm 10,4 km/h (2 Bft) W-SW 250 ° 0 min 0,000 mm 0,0 UV-I 0 W/m² -2,3 °C -2,1 °C 19,3 km/h (3 Bft)
01.03.2017 03:49 1,1 °C 1,1 °C 78 % 1005,3 hPa 0,0 mm 13,7 km/h (3 Bft) W 273 ° 0 min 0,000 mm 0,0 UV-I 0 W/m² -2,3 °C -2,8 °C 19,3 km/h (3 Bft)
01.03.2017 03:50 1,1 °C 1,1 °C 78 % 1005,2 hPa 0,0 mm 17,6 km/h (3 Bft) W-SW 248 ° 0 min 0,000 mm 0,0 UV-I 0 W/m² -2,3 °C -3,5 °C 25,7 km/h (4 Bft)
01.03.2017 03:51 1,1 °C 1,1 °C 78 % 1005,2 hPa 0,0 mm 10,7 km/h (2 Bft) W-SW 254 ° 0 min 0,000 mm 0,0 UV-I 0 W/m² -2,3 °C -2,2 °C 14,5 km/h (3 Bft)
01.03.2017 03:52 1,1 °C 1,1 °C 78 % 1005,3 hPa 0,0 mm 10,0 km/h (2 Bft) SW 217 ° 0 min 0,000 mm 0,0 UV-I 0 W/m² -2,3 °C -2,0 °C 14,5 km/h (3 Bft)
01.03.2017 03:53 1,1 °C 1,1 °C 78 % 1005,2 hPa 0,0 mm 10,6 km/h (2 Bft) W-SW 240 ° 0 min 0,000 mm 0,0 UV-I 0 W/m² -2,3 °C -2,1 °C 17,7 km/h (3 Bft)
01.03.2017 03:54 1,1 °C 1,1 °C 78 % 1005,1 hPa 0,0 mm 22,4 km/h (4 Bft) W-SW 242 ° 0 min 0,000 mm 0,0 UV-I 0 W/m² -2,3 °C -4,2 °C 38,6 km/h (5 Bft)
01.03.2017 03:55 1,1 °C 1,1 °C 77 % 1005,2 hPa 0,0 mm 22,9 km/h (4 Bft) W 271 ° 0 min 0,000 mm 0,0 UV-I 0 W/m² -2,5 °C -4,2 °C 30,6 km/h (5 Bft)
01.03.2017 03:56 1,0 °C 1,1 °C 78 % 1005,2 hPa 0,0 mm 16,0 km/h (3 Bft) W 265 ° 0 min 0,000 mm 0,0 UV-I 0 W/m² -2,4 °C -3,4 °C 19,3 km/h (3 Bft)
01.03.2017 03:57 1,1 °C 1,1 °C 78 % 1005,1 hPa 0,0 mm 11,8 km/h (2 Bft) W-NW 292 ° 0 min 0,000 mm 0,0 UV-I 0 W/m² -2,3 °C -2,4 °C 25,7 km/h (4 Bft)
01.03.2017 03:58 1,1 °C 1,1 °C 77 % 1005,1 hPa 0,0 mm 15,4 km/h (3 Bft) NW 309 ° 0 min 0,000 mm 0,0 UV-I 0 W/m² -2,5 °C -3,1 °C 19,3 km/h (3 Bft)
01.03.2017 03:59 1,0 °C 1,1 °C 78 % 1005,2 hPa 0,0 mm 12,2 km/h (2 Bft) W-SW 242 ° 0 min 0,000 mm 0,0 UV-I 0 W/m² -2,4 °C -2,6 °C 30,6 km/h (5 Bft)
01.03.2017 04:00 1,0 °C 1,0 °C 77 % 1005,1 hPa 0,0 mm 22,7 km/h (4 Bft) SW 234 ° 0 min 0,000 mm 0,0 UV-I 0 W/m² -2,6 °C -4,3 °C 30,6 km/h (5 Bft)
01.03.2017 04:03 0,9 °C 1,0 °C 77 % 1005,1 hPa 0,0 mm 13,2 km/h (3 Bft) W 273 ° 0 min 0,026 mm 0,0 UV-I 0 W/m² -2,7 °C -3,0 °C 17,7 km/h (3 Bft)
01.03.2017 04:04 0,9 °C 0,9 °C 77 % 1005,1 hPa 0,0 mm 8,9 km/h (2 Bft) W-SW 242 ° 0 min 0,000 mm 0,0 UV-I 0 W/m² -2,7 °C -1,9 °C 12,9 km/h (3 Bft)
01.03.2017 04:05 0,9 °C 0,9 °C 77 % 1005,1 hPa 0,0 mm 14,3 km/h (3 Bft) W-SW 248 ° 0 min 0,000 mm 0,0 UV-I 0 W/m² -2,7 °C -3,2 °C 20,9 km/h (4 Bft)
01.03.2017 04:06 0,8 °C 0,9 °C 77 % 1005,2 hPa 0,0 mm 11,7 km/h (2 Bft) W 261 ° 0 min 0,000 mm 0,0 UV-I 0 W/m² -2,8 °C -2,8 °C 14,5 km/h (3 Bft)
01.03.2017 04:07 0,8 °C 0,8 °C 77 % 1005,2 hPa 0,0 mm 10,1 km/h (2 Bft) W 264 ° 0 min 0,000 mm 0,0 UV-I 0 W/m² -2,8 °C -2,4 °C 16,1 km/h (3 Bft)
01.03.2017 04:08 0,7 °C 0,8 °C 77 % 1005,2 hPa 0,0 mm 13,1 km/h (3 Bft) S-SW 208 ° 0 min 0,000 mm 0,0 UV-I 0 W/m² -2,9 °C -3,2 °C 17,7 km/h (3 Bft)
01.03.2017 04:09 0,7 °C 0,7 °C 78 % 1005,3 hPa 0,0 mm 16,2 km/h (3 Bft) W-SW 257 ° 0 min 0,000 mm 0,0 UV-I 0 W/m² -2,7 °C -3,8 °C 25,7 km/h (4 Bft)
01.03.2017 04:10 0,7 °C 0,7 °C 77 % 1005,2 hPa 0,0 mm 14,3 km/h (3 Bft) SW 222 ° 0 min 0,000 mm 0,0 UV-I 0 W/m² -2,9 °C -3,4 °C 24,1 km/h (4 Bft)
01.03.2017 04:11 0,7 °C 0,7 °C 77 % 1005,3 hPa 0,0 mm 10,3 km/h (2 Bft) W-SW 252 ° 0 min 0,000 mm 0,0 UV-I 0 W/m² -2,9 °C -2,6 °C 17,7 km/h (3 Bft)
01.03.2017 04:12 0,7 °C 0,7 °C 77 % 1005,3 hPa 0,0 mm 6,7 km/h (2 Bft) SW 219 ° 0 min 0,000 mm 0,0 UV-I 0 W/m² -2,9 °C -1,5 °C 12,9 km/h (3 Bft)
01.03.2017 04:13 0,7 °C 0,7 °C 77 % 1005,3 hPa 0,0 mm 10,9 km/h (2 Bft) W-SW 247 ° 0 min 0,000 mm 0,0 UV-I 0 W/m² -2,9 °C -2,7 °C 20,9 km/h (4 Bft)
01.03.2017 04:14 0,6 °C 0,7 °C 78 % 1005,3 hPa 0,0 mm 9,3 km/h (2 Bft) SW 219 ° 0 min 0,000 mm 0,0 UV-I 0 W/m² -2,8 °C -2,4 °C 16,1 km/h (3 Bft)
01.03.2017 04:15 0,6 °C 0,6 °C 77 % 1005,3 hPa 0,0 mm 6,9 km/h (2 Bft) W-SW 247 ° 0 min 0,000 mm 0,0 UV-I 0 W/m² -3,0 °C -1,7 °C 9,7 km/h (2 Bft)
01.03.2017 04:16 0,6 °C 0,6 °C 78 % 1005,3 hPa 0,0 mm 4,6 km/h (1 Bft) SW 225 ° 0 min 0,000 mm 0,0 UV-I 0 W/m² -2,8 °C -0,7 °C 8,0 km/h (2 Bft)
01.03.2017 04:17 0,6 °C 0,6 °C 78 % 1005,3 hPa 0,0 mm 4,7 km/h (1 Bft) S-SW 210 ° 0 min 0,000 mm 0,0 UV-I 0 W/m² -2,8 °C -0,8 °C 8,0 km/h (2 Bft)
01.03.2017 04:18 0,6 °C 0,6 °C 78 % 1005,3 hPa 0,0 mm 7,0 km/h (2 Bft) W 263 ° 0 min 0,000 mm 0,0 UV-I 0 W/m² -2,8 °C -1,7 °C 12,9 km/h (3 Bft)
01.03.2017 04:19 0,6 °C 0,6 °C 78 % 1005,2 hPa 0,0 mm 9,5 km/h (2 Bft) SW 215 ° 0 min 0,000 mm 0,0 UV-I 0 W/m² -2,8 °C -2,5 °C 16,1 km/h (3 Bft)
01.03.2017 04:20 0,5 °C 0,6 °C 78 % 1005,2 hPa 0,0 mm 10,0 km/h (2 Bft) W-SW 245 ° 0 min 0,000 mm 0,0 UV-I 0 W/m² -2,9 °C -2,7 °C 17,7 km/h (3 Bft)
01.03.2017 04:21 0,4 °C 0,5 °C 78 % 1005,3 hPa 0,0 mm 9,5 km/h (2 Bft) W-SW 237 ° 0 min 0,000 mm 0,0 UV-I 0 W/m² -3,0 °C -2,7 °C 12,9 km/h (3 Bft)
01.03.2017 04:22 0,5 °C 0,5 °C 78 % 1005,2 hPa 0,0 mm 8,9 km/h (2 Bft) W 278 ° 0 min 0,000 mm 0,0 UV-I 0 W/m² -2,9 °C -2,4 °C 16,1 km/h (3 Bft)
01.03.2017 04:23 0,5 °C 0,5 °C 78 % 1005,4 hPa 0,0 mm 10,7 km/h (2 Bft) W-SW 254 ° 0 min 0,000 mm 0,0 UV-I 0 W/m² -2,9 °C -2,9 °C 14,5 km/h (3 Bft)
01.03.2017 04:24 0,5 °C 0,5 °C 78 % 1005,3 hPa 0,0 mm 11,3 km/h (2 Bft) W-SW 249 ° 0 min 0,000 mm 0,0 UV-I 0 W/m² -2,9 °C -3,0 °C 14,5 km/h (3 Bft)
01.03.2017 04:25 0,4 °C 0,5 °C 78 % 1005,4 hPa 0,0 mm 9,3 km/h (2 Bft) SW 229 ° 0 min 0,000 mm 0,0 UV-I 0 W/m² -3,0 °C -2,6 °C 12,9 km/h (3 Bft)
01.03.2017 04:26 0,4 °C 0,4 °C 78 % 1005,3 hPa 0,0 mm 7,5 km/h (2 Bft) W-NW 290 ° 0 min 0,000 mm 0,0 UV-I 0 W/m² -3,0 °C -2,1 °C 12,9 km/h (3 Bft)
01.03.2017 04:27 0,3 °C 0,4 °C 78 % 1005,3 hPa 0,0 mm 14,9 km/h (3 Bft) W-SW 247 ° 0 min 0,000 mm 0,0 UV-I 0 W/m² -3,1 °C -4,0 °C 25,7 km/h (4 Bft)
01.03.2017 04:28 0,3 °C 0,3 °C 77 % 1005,3 hPa 0,0 mm 10,5 km/h (2 Bft) W 259 ° 0 min 0,000 mm 0,0 UV-I 0 W/m² -3,2 °C -3,1 °C 14,5 km/h (3 Bft)
01.03.2017 04:29 0,3 °C 0,3 °C 76 % 1005,3 hPa 0,0 mm 14,5 km/h (3 Bft) W 259 ° 0 min 0,000 mm 0,0 UV-I 0 W/m² -3,4 °C -4,0 °C 19,3 km/h (3 Bft)
01.03.2017 04:30 0,3 °C 0,3 °C 76 % 1005,3 hPa 0,0 mm 12,7 km/h (3 Bft) W-SW 243 ° 0 min 0,000 mm 0,0 UV-I 0 W/m² -3,4 °C -3,6 °C 16,1 km/h (3 Bft)
01.03.2017 04:31 0,3 °C 0,3 °C 76 % 1005,3 hPa 0,0 mm 14,1 km/h (3 Bft) W 262 ° 0 min 0,000 mm 0,0 UV-I 0 W/m² -3,4 °C -3,9 °C 19,3 km/h (3 Bft)
01.03.2017 04:32 0,3 °C 0,3 °C 76 % 1005,2 hPa 0,0 mm 11,4 km/h (2 Bft) W-SW 257 ° 0 min 0,000 mm 0,0 UV-I 0 W/m² -3,4 °C -3,3 °C 19,3 km/h (3 Bft)
01.03.2017 04:33 0,4 °C 0,4 °C 75 % 1005,2 hPa 0,0 mm 13,0 km/h (3 Bft) W 259 ° 0 min 0,000 mm 0,0 UV-I 0 W/m² -3,5 °C -3,5 °C 19,3 km/h (3 Bft)
01.03.2017 04:34 0,4 °C 0,4 °C 75 % 1005,2 hPa 0,0 mm 9,9 km/h (2 Bft) S-SW 211 ° 0 min 0,000 mm 0,0 UV-I 0 W/m² -3,5 °C -2,8 °C 17,7 km/h (3 Bft)
01.03.2017 04:35 0,4 °C 0,4 °C 74 % 1005,2 hPa 0,0 mm 6,9 km/h (2 Bft) W 272 ° 0 min 0,000 mm 0,0 UV-I 0 W/m² -3,7 °C -1,9 °C 22,5 km/h (4 Bft)
01.03.2017 04:36 0,4 °C 0,4 °C 75 % 1005,2 hPa 0,0 mm 12,1 km/h (2 Bft) W-SW 252 ° 0 min 0,000 mm 0,0 UV-I 0 W/m² -3,5 °C -3,3 °C 24,1 km/h (4 Bft)
01.03.2017 04:37 0,4 °C 0,4 °C 75 % 1005,2 hPa 0,0 mm 12,2 km/h (2 Bft) W 264 ° 0 min 0,000 mm 0,0 UV-I 0 W/m² -3,5 °C -3,4 °C 16,1 km/h (3 Bft)
01.03.2017 04:38 0,4 °C 0,4 °C 75 % 1005,1 hPa 0,0 mm 14,6 km/h (3 Bft) W 271 ° 0 min 0,000 mm 0,0 UV-I 0 W/m² -3,5 °C -3,8 °C 20,9 km/h (4 Bft)
01.03.2017 04:39 0,4 °C 0,4 °C 74 % 1005,2 hPa 0,0 mm 10,7 km/h (2 Bft) SW 229 ° 0 min 0,000 mm 0,0 UV-I 0 W/m² -3,7 °C -3,0 °C 14,5 km/h (3 Bft)
01.03.2017 04:40 0,4 °C 0,4 °C 74 % 1005,2 hPa 0,0 mm 11,4 km/h (2 Bft) W 268 ° 0 min 0,000 mm 0,0 UV-I 0 W/m² -3,7 °C -3,2 °C 16,1 km/h (3 Bft)
01.03.2017 04:41 0,4 °C 0,4 °C 74 % 1005,1 hPa 0,0 mm 9,5 km/h (2 Bft) W 273 ° 0 min 0,000 mm 0,0 UV-I 0 W/m² -3,7 °C -2,7 °C 16,1 km/h (3 Bft)
01.03.2017 04:42 0,4 °C 0,4 °C 74 % 1005,3 hPa 0,0 mm 9,1 km/h (2 Bft) W-SW 255 ° 0 min 0,000 mm 0,0 UV-I 0 W/m² -3,7 °C -2,6 °C 12,9 km/h (3 Bft)
01.03.2017 04:43 0,3 °C 0,4 °C 74 % 1005,3 hPa 0,0 mm 8,7 km/h (2 Bft) W 263 ° 0 min 0,000 mm 0,0 UV-I 0 W/m² -3,8 °C -2,6 °C 19,3 km/h (3 Bft)
01.03.2017 04:44 0,3 °C 0,4 °C 74 % 1005,2 hPa 0,0 mm 11,2 km/h (2 Bft) W-SW 253 ° 0 min 0,000 mm 0,0 UV-I 0 W/m² -3,8 °C -3,3 °C 19,3 km/h (3 Bft)
01.03.2017 04:45 0,4 °C 0,4 °C 73 % 1005,2 hPa 0,0 mm 15,2 km/h (3 Bft) W 265 ° 0 min 0,000 mm 0,0 UV-I 0 W/m² -3,9 °C -4,0 °C 20,9 km/h (4 Bft)
01.03.2017 04:46 0,4 °C 0,4 °C 74 % 1005,3 hPa 0,0 mm 10,8 km/h (2 Bft) SW 218 ° 0 min 0,000 mm 0,0 UV-I 0 W/m² -3,7 °C -3,0 °C 19,3 km/h (3 Bft)
01.03.2017 04:47 0,4 °C 0,4 °C 73 % 1005,3 hPa 0,0 mm 9,7 km/h (2 Bft) SW 236 ° 0 min 0,000 mm 0,0 UV-I 0 W/m² -3,9 °C -2,8 °C 14,5 km/h (3 Bft)
01.03.2017 04:48 0,4 °C 0,4 °C 73 % 1005,3 hPa 0,0 mm 10,9 km/h (2 Bft) W-SW 256 ° 0 min 0,000 mm 0,0 UV-I 0 W/m² -3,9 °C -3,1 °C 22,5 km/h (4 Bft)
01.03.2017 04:49 0,4 °C 0,4 °C 73 % 1005,3 hPa 0,0 mm 15,0 km/h (3 Bft) W 269 ° 0 min 0,000 mm 0,0 UV-I 0 W/m² -3,9 °C -3,9 °C 25,7 km/h (4 Bft)
01.03.2017 04:50 0,4 °C 0,4 °C 73 % 1005,3 hPa 0,0 mm 14,2 km/h (3 Bft) W-SW 251 ° 0 min 0,000 mm 0,0 UV-I 0 W/m² -3,9 °C -3,8 °C 19,3 km/h (3 Bft)
01.03.2017 04:51 0,4 °C 0,4 °C 73 % 1005,3 hPa 0,0 mm 8,9 km/h (2 Bft) W 259 ° 0 min 0,000 mm 0,0 UV-I 0 W/m² -3,9 °C -2,5 °C 12,9 km/h (3 Bft)
01.03.2017 04:52 0,4 °C 0,4 °C 73 % 1005,3 hPa 0,0 mm 10,0 km/h (2 Bft) SW 235 ° 0 min 0,000 mm 0,0 UV-I 0 W/m² -3,9 °C -2,8 °C 16,1 km/h (3 Bft)
01.03.2017 04:53 0,3 °C 0,4 °C 73 % 1005,3 hPa 0,0 mm 11,6 km/h (2 Bft) W 266 ° 0 min 0,000 mm 0,0 UV-I 0 W/m² -4,0 °C -3,3 °C 20,9 km/h (4 Bft)
01.03.2017 04:54 0,3 °C 0,4 °C 73 % 1005,2 hPa 0,0 mm 12,8 km/h (3 Bft) W-SW 255 ° 0 min 0,000 mm 0,0 UV-I 0 W/m² -4,0 °C -3,6 °C 17,7 km/h (3 Bft)
01.03.2017 04:55 0,3 °C 0,3 °C 74 % 1005,3 hPa 0,0 mm 8,5 km/h (2 Bft) W 281 ° 0 min 0,000 mm 0,0 UV-I 0 W/m² -3,8 °C -2,5 °C 16,1 km/h (3 Bft)
01.03.2017 04:56 0,3 °C 0,3 °C 73 % 1005,2 hPa 0,0 mm 11,9 km/h (2 Bft) W 273 ° 0 min 0,000 mm 0,0 UV-I 0 W/m² -4,0 °C -3,4 °C 14,5 km/h (3 Bft)
01.03.2017 04:57 0,3 °C 0,3 °C 73 % 1005,2 hPa 0,0 mm 13,3 km/h (3 Bft) W 261 ° 0 min 0,000 mm 0,0 UV-I 0 W/m² -4,0 °C -3,7 °C 19,3 km/h (3 Bft)
01.03.2017 04:58 0,3 °C 0,3 °C 73 % 1005,2 hPa 0,0 mm 10,5 km/h (2 Bft) SW 234 ° 0 min 0,000 mm 0,0 UV-I 0 W/m² -4,0 °C -3,1 °C 12,9 km/h (3 Bft)
01.03.2017 04:59 0,3 °C 0,3 °C 73 % 1005,2 hPa 0,0 mm 10,9 km/h (2 Bft) W-SW 257 ° 0 min 0,000 mm 0,0 UV-I 0 W/m² -4,0 °C -3,2 °C 17,7 km/h (3 Bft)
01.03.2017 05:00 0,3 °C 0,3 °C 73 % 1005,4 hPa 0,0 mm 11,8 km/h (2 Bft) W-SW 251 ° 0 min 0,025 mm 0,0 UV-I 0 W/m² -4,0 °C -3,4 °C 16,1 km/h (3 Bft)
01.03.2017 05:01 0,3 °C 0,3 °C 73 % 1005,4 hPa 0,0 mm 17,6 km/h (3 Bft) W-SW 255 ° 0 min 0,000 mm 0,0 UV-I 0 W/m² -4,0 °C -4,5 °C 29,0 km/h (5 Bft)
01.03.2017 05:02 0,3 °C 0,3 °C 72 % 1005,4 hPa 0,0 mm 16,4 km/h (3 Bft) W 271 ° 0 min 0,000 mm 0,0 UV-I 0 W/m² -4,1 °C -4,3 °C 30,6 km/h (5 Bft)
01.03.2017 05:03 0,4 °C 0,4 °C 72 % 1005,4 hPa 0,0 mm 16,1 km/h (3 Bft) W-SW 244 ° 0 min 0,000 mm 0,0 UV-I 0 W/m² -4,0 °C -4,1 °C 24,1 km/h (4 Bft)
01.03.2017 05:04 0,4 °C 0,4 °C 72 % 1005,4 hPa 0,0 mm 12,3 km/h (3 Bft) W-NW 302 ° 0 min 0,000 mm 0,0 UV-I 0 W/m² -4,0 °C -3,4 °C 19,3 km/h (3 Bft)
01.03.2017 05:05 0,4 °C 0,4 °C 72 % 1005,2 hPa 0,0 mm 12,2 km/h (2 Bft) W-SW 252 ° 0 min 0,000 mm 0,0 UV-I 0 W/m² -4,0 °C -3,4 °C 22,5 km/h (4 Bft)
01.03.2017 05:06 0,4 °C 0,4 °C 72 % 1005,4 hPa 0,0 mm 11,8 km/h (2 Bft) S-SW 207 ° 0 min 0,000 mm 0,0 UV-I 0 W/m² -4,0 °C -3,3 °C 22,5 km/h (4 Bft)
01.03.2017 05:07 0,4 °C 0,4 °C 71 % 1005,5 hPa 0,0 mm 7,6 km/h (2 Bft) W-SW 239 ° 0 min 0,000 mm 0,0 UV-I 0 W/m² -4,2 °C -2,1 °C 16,1 km/h (3 Bft)
01.03.2017 05:08 0,4 °C 0,5 °C 72 % 1005,5 hPa 0,0 mm 8,4 km/h (2 Bft) W-SW 254 ° 0 min 0,000 mm 0,0 UV-I 0 W/m² -4,0 °C -2,4 °C 12,9 km/h (3 Bft)
01.03.2017 05:09 0,5 °C 0,5 °C 72 % 1005,5 hPa 0,0 mm 17,9 km/h (3 Bft) W-SW 247 ° 0 min 0,000 mm 0,0 UV-I 0 W/m² -3,9 °C -4,3 °C 20,9 km/h (4 Bft)
01.03.2017 05:10 0,5 °C 0,5 °C 72 % 1005,5 hPa 0,0 mm 6,8 km/h (2 Bft) W-SW 254 ° 0 min 0,000 mm 0,0 UV-I 0 W/m² -3,9 °C -1,8 °C 14,5 km/h (3 Bft)
01.03.2017 05:11 0,4 °C 0,5 °C 72 % 1005,5 hPa 0,0 mm 8,3 km/h (2 Bft) SW 214 ° 0 min 0,000 mm 0,0 UV-I 0 W/m² -4,0 °C -2,4 °C 14,5 km/h (3 Bft)
01.03.2017 05:12 0,4 °C 0,5 °C 72 % 1005,5 hPa 0,0 mm 12,6 km/h (3 Bft) W-SW 249 ° 0 min 0,000 mm 0,0 UV-I 0 W/m² -4,0 °C -3,4 °C 16,1 km/h (3 Bft)
01.03.2017 05:13 0,4 °C 0,4 °C 72 % 1005,5 hPa 0,0 mm 12,1 km/h (2 Bft) W-SW 253 ° 0 min 0,000 mm 0,0 UV-I 0 W/m² -4,0 °C -3,3 °C 17,7 km/h (3 Bft)
01.03.2017 05:14 0,4 °C 0,4 °C 72 % 1005,5 hPa 0,0 mm 10,7 km/h (2 Bft) W-SW 241 ° 0 min 0,000 mm 0,0 UV-I 0 W/m² -4,0 °C -3,0 °C 19,3 km/h (3 Bft)
01.03.2017 05:15 0,4 °C 0,5 °C 72 % 1005,5 hPa 0,0 mm 10,3 km/h (2 Bft) W 262 ° 0 min 0,000 mm 0,0 UV-I 0 W/m² -4,0 °C -2,9 °C 16,1 km/h (3 Bft)
01.03.2017 05:16 0,4 °C 0,4 °C 72 % 1005,6 hPa 0,0 mm 7,1 km/h (2 Bft) W-SW 250 ° 0 min 0,000 mm 0,0 UV-I 0 W/m² -4,0 °C -2,0 °C 12,9 km/h (3 Bft)
01.03.2017 05:17 0,4 °C 0,4 °C 72 % 1005,6 hPa 0,0 mm 11,2 km/h (2 Bft) SW 236 ° 0 min 0,000 mm 0,0 UV-I 0 W/m² -4,0 °C -3,1 °C 16,1 km/h (3 Bft)
01.03.2017 05:18 0,4 °C 0,4 °C 72 % 1005,7 hPa 0,0 mm 14,8 km/h (3 Bft) W-SW 241 ° 0 min 0,000 mm 0,0 UV-I 0 W/m² -4,0 °C -3,9 °C 22,5 km/h (4 Bft)
01.03.2017 05:19 0,4 °C 0,4 °C 72 % 1005,6 hPa 0,0 mm 15,7 km/h (3 Bft) W-SW 245 ° 0 min 0,000 mm 0,0 UV-I 0 W/m² -4,0 °C -4,0 °C 19,3 km/h (3 Bft)
01.03.2017 05:20 0,4 °C 0,4 °C 71 % 1005,6 hPa 0,0 mm 13,2 km/h (3 Bft) S-SW 201 ° 0 min 0,000 mm 0,0 UV-I 0 W/m² -4,2 °C -3,6 °C 17,7 km/h (3 Bft)
01.03.2017 05:21 0,4 °C 0,4 °C 71 % 1005,6 hPa 0,0 mm 14,0 km/h (3 Bft) W-SW 246 ° 0 min 0,000 mm 0,0 UV-I 0 W/m² -4,2 °C -3,7 °C 20,9 km/h (4 Bft)
01.03.2017 05:22 0,4 °C 0,5 °C 71 % 1005,7 hPa 0,0 mm 17,2 km/h (3 Bft) SW 236 ° 0 min 0,000 mm 0,0 UV-I 0 W/m² -4,2 °C -4,3 °C 22,5 km/h (4 Bft)
01.03.2017 05:23 0,5 °C 0,5 °C 71 % 1005,6 hPa 0,0 mm 15,8 km/h (3 Bft) W-SW 250 ° 0 min 0,000 mm 0,0 UV-I 0 W/m² -4,1 °C -3,9 °C 19,3 km/h (3 Bft)
01.03.2017 05:24 0,5 °C 0,6 °C 71 % 1005,7 hPa 0,0 mm 9,2 km/h (2 Bft) W-SW 239 ° 0 min 0,000 mm 0,0 UV-I 0 W/m² -4,1 °C -2,5 °C 16,1 km/h (3 Bft)
01.03.2017 05:25 0,6 °C 0,6 °C 71 % 1005,7 hPa 0,0 mm 6,6 km/h (2 Bft) W-SW 245 ° 0 min 0,000 mm 0,0 UV-I 0 W/m² -4,0 °C -1,6 °C 11,3 km/h (2 Bft)
01.03.2017 05:26 0,5 °C 0,6 °C 71 % 1005,6 hPa 0,0 mm 10,1 km/h (2 Bft) W-SW 250 ° 0 min 0,000 mm 0,0 UV-I 0 W/m² -4,1 °C -2,7 °C 16,1 km/h (3 Bft)
01.03.2017 05:27 0,4 °C 0,5 °C 71 % 1005,6 hPa 0,0 mm 10,9 km/h (2 Bft) W-SW 241 ° 0 min 0,000 mm 0,0 UV-I 0 W/m² -4,2 °C -3,1 °C 20,9 km/h (4 Bft)
01.03.2017 05:28 0,4 °C 0,4 °C 71 % 1005,6 hPa 0,0 mm 7,5 km/h (2 Bft) S-SW 211 ° 0 min 0,000 mm 0,0 UV-I 0 W/m² -4,2 °C -2,1 °C 12,9 km/h (3 Bft)
01.03.2017 05:29 0,4 °C 0,4 °C 72 % 1005,6 hPa 0,0 mm 6,4 km/h (2 Bft) SW 220 ° 0 min 0,000 mm 0,0 UV-I 0 W/m² -4,0 °C -1,7 °C 14,5 km/h (3 Bft)
01.03.2017 05:30 0,4 °C 0,4 °C 72 % 1005,6 hPa 0,0 mm 7,3 km/h (2 Bft) W-SW 257 ° 0 min 0,000 mm 0,0 UV-I 0 W/m² -4,0 °C -2,0 °C 12,9 km/h (3 Bft)
01.03.2017 05:31 0,3 °C 0,4 °C 72 % 1005,6 hPa 0,0 mm 9,9 km/h (2 Bft) SW 228 ° 0 min 0,000 mm 0,0 UV-I 0 W/m² -4,1 °C -2,9 °C 16,1 km/h (3 Bft)
01.03.2017 05:32 0,3 °C 0,3 °C 72 % 1005,6 hPa 0,0 mm 11,3 km/h (2 Bft) W-SW 244 ° 0 min 0,000 mm 0,0 UV-I 0 W/m² -4,1 °C -3,3 °C 16,1 km/h (3 Bft)
01.03.2017 05:33 0,3 °C 0,3 °C 71 % 1005,6 hPa 0,0 mm 9,1 km/h (2 Bft) S 190 ° 0 min 0,000 mm 0,0 UV-I 0 W/m² -4,3 °C -2,7 °C 12,9 km/h (3 Bft)
01.03.2017 05:34 0,3 °C 0,3 °C 71 % 1005,7 hPa 0,0 mm 10,5 km/h (2 Bft) W-SW 254 ° 0 min 0,000 mm 0,0 UV-I 0 W/m² -4,3 °C -3,1 °C 19,3 km/h (3 Bft)
01.03.2017 05:35 0,3 °C 0,3 °C 72 % 1005,6 hPa 0,0 mm 10,3 km/h (2 Bft) W-SW 257 ° 0 min 0,000 mm 0,0 UV-I 0 W/m² -4,1 °C -3,0 °C 17,7 km/h (3 Bft)
01.03.2017 05:36 0,3 °C 0,3 °C 72 % 1005,6 hPa 0,0 mm 9,9 km/h (2 Bft) W-SW 238 ° 0 min 0,000 mm 0,0 UV-I 0 W/m² -4,1 °C -2,9 °C 14,5 km/h (3 Bft)
01.03.2017 05:37 0,3 °C 0,3 °C 71 % 1005,6 hPa 0,0 mm 5,6 km/h (1 Bft) S-SW 193 ° 0 min 0,000 mm 0,0 UV-I 0 W/m² -4,3 °C -1,5 °C 9,7 km/h (2 Bft)
01.03.2017 05:38 0,3 °C 0,3 °C 71 % 1005,6 hPa 0,0 mm 5,0 km/h (1 Bft) S-SW 208 ° 0 min 0,000 mm 0,0 UV-I 0 W/m² -4,3 °C -1,2 °C 8,0 km/h (2 Bft)
01.03.2017 05:39 0,4 °C 0,4 °C 71 % 1005,7 hPa 0,0 mm 7,2 km/h (2 Bft) S 190 ° 0 min 0,000 mm 0,0 UV-I 0 W/m² -4,2 °C -2,0 °C 9,7 km/h (2 Bft)
01.03.2017 05:40 0,4 °C 0,4 °C 71 % 1005,7 hPa 0,0 mm 5,9 km/h (2 Bft) W-SW 243 ° 0 min 0,000 mm 0,0 UV-I 0 W/m² -4,2 °C -1,5 °C 12,9 km/h (3 Bft)
01.03.2017 05:41 0,4 °C 0,4 °C 71 % 1005,7 hPa 0,0 mm 7,3 km/h (2 Bft) SW 232 ° 0 min 0,000 mm 0,0 UV-I 0 W/m² -4,2 °C -2,0 °C 11,3 km/h (2 Bft)
01.03.2017 05:42 0,4 °C 0,4 °C 71 % 1005,7 hPa 0,0 mm 4,4 km/h (1 Bft) S-SW 194 ° 0 min 0,000 mm 0,0 UV-I 0 W/m² -4,2 °C 0,4 °C 6,4 km/h (2 Bft)
01.03.2017 05:43 0,4 °C 0,4 °C 71 % 1005,7 hPa 0,0 mm 7,4 km/h (2 Bft) S-SW 194 ° 0 min 0,000 mm 0,0 UV-I 0 W/m² -4,2 °C -2,1 °C 9,7 km/h (2 Bft)
01.03.2017 05:44 0,4 °C 0,4 °C 71 % 1005,8 hPa 0,0 mm 6,7 km/h (2 Bft) S-SW 205 ° 0 min 0,000 mm 0,0 UV-I 0 W/m² -4,2 °C -1,8 °C 11,3 km/h (2 Bft)
01.03.2017 05:45 0,4 °C 0,4 °C 71 % 1005,7 hPa 0,0 mm 7,7 km/h (2 Bft) S 191 ° 0 min 0,000 mm 0,0 UV-I 0 W/m² -4,2 °C -2,2 °C 11,3 km/h (2 Bft)
01.03.2017 05:46 0,4 °C 0,4 °C 71 % 1005,8 hPa 0,0 mm 8,2 km/h (2 Bft) SW 223 ° 0 min 0,000 mm 0,0 UV-I 0 W/m² -4,2 °C -2,3 °C 14,5 km/h (3 Bft)
01.03.2017 05:47 0,4 °C 0,5 °C 71 % 1005,8 hPa 0,0 mm 7,9 km/h (2 Bft) S-SW 211 ° 0 min 0,000 mm 0,0 UV-I 0 W/m² -4,2 °C -2,2 °C 11,3 km/h (2 Bft)
01.03.2017 05:48 0,5 °C 0,5 °C 70 % 1005,8 hPa 0,0 mm 7,1 km/h (2 Bft) S-SO 167 ° 0 min 0,000 mm 0,0 UV-I 0 W/m² -4,3 °C -1,9 °C 9,7 km/h (2 Bft)
01.03.2017 05:49 0,5 °C 0,5 °C 70 % 1005,8 hPa 0,0 mm 5,8 km/h (2 Bft) W 261 ° 0 min 0,000 mm 0,0 UV-I 0 W/m² -4,3 °C -1,4 °C 12,9 km/h (3 Bft)
01.03.2017 05:50 0,4 °C 0,5 °C 70 % 1005,9 hPa 0,0 mm 5,2 km/h (1 Bft) W-SW 244 ° 0 min 0,000 mm 0,0 UV-I 0 W/m² -4,4 °C -1,2 °C 11,3 km/h (2 Bft)
01.03.2017 05:51 0,5 °C 0,5 °C 70 % 1005,9 hPa 0,0 mm 6,2 km/h (2 Bft) S 176 ° 0 min 0,000 mm 0,0 UV-I 0 W/m² -4,3 °C -1,5 °C 9,7 km/h (2 Bft)
01.03.2017 05:52 0,4 °C 0,5 °C 70 % 1005,8 hPa 0,0 mm 9,9 km/h (2 Bft) SW 223 ° 0 min 0,000 mm 0,0 UV-I 0 W/m² -4,4 °C -2,8 °C 14,5 km/h (3 Bft)
01.03.2017 05:53 0,5 °C 0,5 °C 70 % 1005,9 hPa 0,0 mm 10,5 km/h (2 Bft) S-SO 161 ° 0 min 0,000 mm 0,0 UV-I 0 W/m² -4,3 °C -2,8 °C 19,3 km/h (3 Bft)
01.03.2017 05:54 0,5 °C 0,5 °C 70 % 1005,9 hPa 0,0 mm 8,7 km/h (2 Bft) S-SW 200 ° 0 min 0,000 mm 0,0 UV-I 0 W/m² -4,3 °C -2,4 °C 14,5 km/h (3 Bft)
01.03.2017 05:55 0,5 °C 0,5 °C 70 % 1005,9 hPa 0,0 mm 11,0 km/h (2 Bft) W-SW 239 ° 0 min 0,000 mm 0,0 UV-I 0 W/m² -4,3 °C -3,0 °C 16,1 km/h (3 Bft)
01.03.2017 05:56 0,6 °C 0,6 °C 69 % 1006,0 hPa 0,0 mm 5,2 km/h (1 Bft) SW 235 ° 0 min 0,000 mm 0,0 UV-I 0 W/m² -4,4 °C -1,0 °C 9,7 km/h (2 Bft)
01.03.2017 05:57 0,6 °C 0,6 °C 69 % 1006,0 hPa 0,0 mm 6,6 km/h (2 Bft) W 264 ° 0 min 0,000 mm 0,0 UV-I 0 W/m² -4,4 °C -1,6 °C 11,3 km/h (2 Bft)
01.03.2017 05:58 0,6 °C 0,6 °C 70 % 1006,1 hPa 0,0 mm 7,1 km/h (2 Bft) W-SW 249 ° 0 min 0,000 mm 0,0 UV-I 0 W/m² -4,2 °C -1,7 °C 12,9 km/h (3 Bft)
01.03.2017 05:59 0,6 °C 0,6 °C 70 % 1006,0 hPa 0,0 mm 3,9 km/h (1 Bft) SW 234 ° 0 min 0,000 mm 0,0 UV-I 0 W/m² -4,2 °C 0,6 °C 6,4 km/h (2 Bft)
01.03.2017 06:00 0,6 °C 0,6 °C 69 % 1006,1 hPa 0,0 mm 4,4 km/h (1 Bft) SW 232 ° 0 min 0,000 mm 0,0 UV-I 0 W/m² -4,4 °C 0,6 °C 6,4 km/h (2 Bft)
01.03.2017 06:01 0,4 °C 0,6 °C 70 % 1006,1 hPa 0,0 mm 5,4 km/h (1 Bft) W-NW 284 ° 0 min 0,025 mm 0,0 UV-I 0 W/m² -4,4 °C -1,3 °C 12,9 km/h (3 Bft)
01.03.2017 06:02 0,4 °C 0,5 °C 70 % 1006,1 hPa 0,0 mm 5,5 km/h (1 Bft) W-SW 245 ° 0 min 0,000 mm 0,0 UV-I 0 W/m² -4,4 °C -1,4 °C 11,3 km/h (2 Bft)
01.03.2017 06:03 0,4 °C 0,4 °C 70 % 1006,2 hPa 0,0 mm 4,2 km/h (1 Bft) SW 232 ° 0 min 0,000 mm 0,0 UV-I 0 W/m² -4,4 °C 0,4 °C 6,4 km/h (2 Bft)
01.03.2017 06:04 0,4 °C 0,4 °C 70 % 1006,2 hPa 0,0 mm 8,5 km/h (2 Bft) W-SW 254 ° 0 min 0,000 mm 0,0 UV-I 0 W/m² -4,4 °C -2,4 °C 11,3 km/h (2 Bft)
01.03.2017 06:05 0,4 °C 0,4 °C 71 % 1006,2 hPa 0,0 mm 8,4 km/h (2 Bft) W-SW 250 ° 0 min 0,000 mm 0,0 UV-I 0 W/m² -4,2 °C -2,4 °C 12,9 km/h (3 Bft)
01.03.2017 06:06 0,4 °C 0,4 °C 71 % 1006,2 hPa 0,0 mm 5,7 km/h (1 Bft) SW 218 ° 0 min 0,000 mm 0,0 UV-I 0 W/m² -4,2 °C -1,4 °C 12,9 km/h (3 Bft)
01.03.2017 06:07 0,4 °C 0,4 °C 70 % 1006,2 hPa 0,0 mm 10,9 km/h (2 Bft) W 264 ° 0 min 0,000 mm 0,0 UV-I 0 W/m² -4,4 °C -3,1 °C 16,1 km/h (3 Bft)
01.03.2017 06:08 0,4 °C 0,4 °C 71 % 1006,1 hPa 0,0 mm 13,5 km/h (3 Bft) W 261 ° 0 min 0,000 mm 0,0 UV-I 0 W/m² -4,2 °C -3,6 °C 19,3 km/h (3 Bft)
01.03.2017 06:09 0,5 °C 0,5 °C 71 % 1006,2 hPa 0,0 mm 14,2 km/h (3 Bft) W-SW 251 ° 0 min 0,000 mm 0,0 UV-I 0 W/m² -4,1 °C -3,6 °C 19,3 km/h (3 Bft)
01.03.2017 06:10 0,5 °C 0,6 °C 71 % 1006,2 hPa 0,0 mm 8,5 km/h (2 Bft) W-SW 251 ° 0 min 0,000 mm 0,0 UV-I 0 W/m² -4,1 °C -2,3 °C 14,5 km/h (3 Bft)
01.03.2017 06:11 0,6 °C 0,6 °C 70 % 1006,2 hPa 0,0 mm 10,6 km/h (2 Bft) SW 220 ° 0 min 0,000 mm 0,0 UV-I 0 W/m² -4,2 °C -2,7 °C 16,1 km/h (3 Bft)
01.03.2017 06:12 0,6 °C 0,6 °C 70 % 1006,1 hPa 0,0 mm 16,5 km/h (3 Bft) W 262 ° 0 min 0,000 mm 0,0 UV-I 0 W/m² -4,2 °C -3,9 °C 24,1 km/h (4 Bft)
01.03.2017 06:13 0,7 °C 0,7 °C 69 % 1006,2 hPa 0,0 mm 12,1 km/h (2 Bft) W-SW 254 ° 0 min 0,000 mm 0,0 UV-I 0 W/m² -4,3 °C -3,0 °C 17,7 km/h (3 Bft)
01.03.2017 06:14 0,7 °C 0,7 °C 69 % 1006,2 hPa 0,0 mm 9,3 km/h (2 Bft) W-SW 244 ° 0 min 0,000 mm 0,0 UV-I 0 W/m² -4,3 °C -2,3 °C 12,9 km/h (3 Bft)
01.03.2017 06:15 0,8 °C 0,8 °C 69 % 1006,2 hPa 0,0 mm 5,0 km/h (1 Bft) W-SW 256 ° 0 min 0,000 mm 0,0 UV-I 0 W/m² -4,2 °C -0,7 °C 8,0 km/h (2 Bft)
01.03.2017 06:16 0,8 °C 0,8 °C 69 % 1006,2 hPa 0,0 mm 6,4 km/h (2 Bft) W 266 ° 0 min 0,000 mm 0,0 UV-I 0 W/m² -4,2 °C -1,3 °C 14,5 km/h (3 Bft)
01.03.2017 06:17 0,8 °C 0,8 °C 67 % 1006,2 hPa 0,0 mm 6,2 km/h (2 Bft) W-SW 238 ° 0 min 0,000 mm 0,0 UV-I 0 W/m² -4,6 °C -1,2 °C 11,3 km/h (2 Bft)
01.03.2017 06:18 0,9 °C 0,9 °C 68 % 1006,1 hPa 0,0 mm 6,9 km/h (2 Bft) W-SW 241 ° 0 min 0,000 mm 0,0 UV-I 0 W/m² -4,3 °C -1,3 °C 12,9 km/h (3 Bft)
01.03.2017 06:19 0,9 °C 0,9 °C 69 % 1006,2 hPa 0,0 mm 10,7 km/h (2 Bft) W-SW 250 ° 0 min 0,000 mm 0,0 UV-I 0 W/m² -4,1 °C -2,4 °C 17,7 km/h (3 Bft)
01.03.2017 06:20 0,9 °C 0,9 °C 68 % 1006,2 hPa 0,0 mm 11,1 km/h (2 Bft) W-SW 245 ° 0 min 0,000 mm 0,0 UV-I 0 W/m² -4,3 °C -2,5 °C 14,5 km/h (3 Bft)
01.03.2017 06:21 0,9 °C 0,9 °C 69 % 1006,3 hPa 0,0 mm 9,4 km/h (2 Bft) W-SW 253 ° 0 min 0,000 mm 0,0 UV-I 0 W/m² -4,1 °C -2,1 °C 12,9 km/h (3 Bft)
01.03.2017 06:22 1,0 °C 1,0 °C 69 % 1006,3 hPa 0,0 mm 11,5 km/h (2 Bft) W 268 ° 0 min 0,000 mm 0,0 UV-I 0 W/m² -4,0 °C -2,5 °C 17,7 km/h (3 Bft)
01.03.2017 06:23 1,0 °C 1,0 °C 69 % 1006,3 hPa 0,0 mm 17,1 km/h (3 Bft) W 261 ° 0 min 0,000 mm 0,0 UV-I 0 W/m² -4,0 °C -3,5 °C 24,1 km/h (4 Bft)
01.03.2017 06:24 1,0 °C 1,1 °C 69 % 1006,4 hPa 0,0 mm 11,6 km/h (2 Bft) SW 235 ° 0 min 0,000 mm 0,0 UV-I 0 W/m² -4,0 °C -2,5 °C 19,3 km/h (3 Bft)
01.03.2017 06:25 1,1 °C 1,1 °C 69 % 1006,3 hPa 0,0 mm 10,8 km/h (2 Bft) S 188 ° 0 min 0,000 mm 0,0 UV-I 0 W/m² -3,9 °C -2,2 °C 16,1 km/h (3 Bft)
01.03.2017 06:26 1,1 °C 1,1 °C 68 % 1006,3 hPa 0,0 mm 16,5 km/h (3 Bft) S 191 ° 0 min 0,000 mm 0,0 UV-I 0 W/m² -4,1 °C -3,3 °C 24,1 km/h (4 Bft)
01.03.2017 06:27 1,1 °C 1,1 °C 68 % 1006,4 hPa 0,0 mm 9,9 km/h (2 Bft) SW 229 ° 0 min 0,000 mm 0,0 UV-I 0 W/m² -4,1 °C -2,0 °C 12,9 km/h (3 Bft)
01.03.2017 06:28 1,2 °C 1,2 °C 68 % 1006,3 hPa 0,0 mm 10,1 km/h (2 Bft) W-SW 252 ° 0 min 0,000 mm 0,0 UV-I 0 W/m² -4,0 °C -1,9 °C 14,5 km/h (3 Bft)
01.03.2017 06:29 1,2 °C 1,2 °C 69 % 1006,3 hPa 0,0 mm 12,0 km/h (2 Bft) W-SW 240 ° 0 min 0,000 mm 0,0 UV-I 0 W/m² -3,8 °C -2,3 °C 19,3 km/h (3 Bft)
01.03.2017 06:30 1,2 °C 1,2 °C 68 % 1006,3 hPa 0,0 mm 18,3 km/h (3 Bft) W-SW 254 ° 0 min 0,000 mm 0,0 UV-I 0 W/m² -4,0 °C -3,5 °C 33,8 km/h (5 Bft)
01.03.2017 06:31 1,2 °C 1,2 °C 68 % 1006,3 hPa 0,0 mm 17,8 km/h (3 Bft) W-SW 244 ° 0 min 0,000 mm 0,0 UV-I 0 W/m² -4,0 °C -3,4 °C 22,5 km/h (4 Bft)
01.03.2017 06:32 1,2 °C 1,2 °C 68 % 1006,3 hPa 0,0 mm 8,9 km/h (2 Bft) S-SW 202 ° 0 min 0,000 mm 0,0 UV-I 0 W/m² -4,0 °C -1,6 °C 14,5 km/h (3 Bft)
01.03.2017 06:33 1,2 °C 1,2 °C 68 % 1006,3 hPa 0,0 mm 7,9 km/h (2 Bft) W 271 ° 0 min 0,000 mm 0,0 UV-I 0 W/m² -4,0 °C -1,3 °C 14,5 km/h (3 Bft)
01.03.2017 06:34 1,2 °C 1,3 °C 68 % 1006,3 hPa 0,0 mm 12,5 km/h (3 Bft) W-SW 249 ° 0 min 0,000 mm 0,0 UV-I 0 W/m² -4,0 °C -2,5 °C 22,5 km/h (4 Bft)
01.03.2017 06:35 1,2 °C 1,2 °C 69 % 1006,3 hPa 0,0 mm 13,5 km/h (3 Bft) W-SW 242 ° 0 min 0,000 mm 0,0 UV-I 0 W/m² -3,8 °C -2,7 °C 19,3 km/h (3 Bft)
01.03.2017 06:36 1,2 °C 1,2 °C 68 % 1006,3 hPa 0,0 mm 13,6 km/h (3 Bft) W 261 ° 0 min 0,000 mm 0,0 UV-I 0 W/m² -4,0 °C -2,7 °C 17,7 km/h (3 Bft)
01.03.2017 06:37 1,3 °C 1,3 °C 69 % 1006,3 hPa 0,0 mm 14,5 km/h (3 Bft) W 271 ° 0 min 0,000 mm 0,0 UV-I 0 W/m² -3,7 °C -2,7 °C 25,7 km/h (4 Bft)
01.03.2017 06:38 1,3 °C 1,3 °C 69 % 1006,3 hPa 0,0 mm 19,0 km/h (3 Bft) W-SW 254 ° 0 min 0,000 mm 0,0 UV-I 0 W/m² -3,7 °C -3,5 °C 25,7 km/h (4 Bft)
01.03.2017 06:39 1,3 °C 1,3 °C 69 % 1006,3 hPa 0,0 mm 9,4 km/h (2 Bft) W 261 ° 0 min 0,000 mm 0,0 UV-I 0 W/m² -3,7 °C -1,6 °C 17,7 km/h (3 Bft)
01.03.2017 06:40 1,3 °C 1,3 °C 68 % 1006,3 hPa 0,0 mm 13,3 km/h (3 Bft) W 270 ° 0 min 0,000 mm 0,0 UV-I 0 W/m² -3,9 °C -2,5 °C 20,9 km/h (4 Bft)
01.03.2017 06:41 1,3 °C 1,4 °C 67 % 1006,3 hPa 0,0 mm 13,4 km/h (3 Bft) W 280 ° 0 min 0,000 mm 0,0 UV-I 0 W/m² -4,1 °C -2,5 °C 19,3 km/h (3 Bft)
01.03.2017 06:42 1,4 °C 1,4 °C 69 % 1006,4 hPa 0,0 mm 15,2 km/h (3 Bft) W-SW 251 ° 0 min 0,000 mm 0,0 UV-I 0 W/m² -3,7 °C -2,7 °C 24,1 km/h (4 Bft)
01.03.2017 06:43 1,4 °C 1,4 °C 69 % 1006,3 hPa 0,0 mm 21,1 km/h (4 Bft) W 262 ° 0 min 0,000 mm 0,0 UV-I 0 W/m² -3,7 °C -3,6 °C 30,6 km/h (5 Bft)
01.03.2017 06:44 1,4 °C 1,4 °C 69 % 1006,3 hPa 0,0 mm 13,8 km/h (3 Bft) W-SW 238 ° 0 min 0,000 mm 0,0 UV-I 0 W/m² -3,7 °C -2,5 °C 20,9 km/h (4 Bft)
01.03.2017 06:45 1,4 °C 1,4 °C 69 % 1006,3 hPa 0,0 mm 10,4 km/h (2 Bft) W 260 ° 0 min 0,000 mm 0,0 UV-I 0 W/m² -3,7 °C -1,7 °C 16,1 km/h (3 Bft)
01.03.2017 06:46 1,4 °C 1,4 °C 69 % 1006,4 hPa 0,0 mm 14,8 km/h (3 Bft) SW 236 ° 0 min 0,000 mm 0,0 UV-I 0 W/m² -3,7 °C -2,7 °C 17,7 km/h (3 Bft)
01.03.2017 06:47 1,4 °C 1,4 °C 69 % 1006,5 hPa 0,0 mm 11,3 km/h (2 Bft) W-SW 246 ° 0 min 0,000 mm 0,0 UV-I 0 W/m² -3,7 °C -2,0 °C 17,7 km/h (3 Bft)
01.03.2017 06:48 1,4 °C 1,4 °C 69 % 1006,4 hPa 0,0 mm 14,1 km/h (3 Bft) W 261 ° 0 min 0,000 mm 0,0 UV-I 0 W/m² -3,7 °C -2,5 °C 20,9 km/h (4 Bft)
01.03.2017 06:49 1,4 °C 1,4 °C 68 % 1006,4 hPa 0,0 mm 11,2 km/h (2 Bft) W-SW 246 ° 0 min 0,000 mm 0,0 UV-I 0 W/m² -3,8 °C -1,9 °C 17,7 km/h (3 Bft)
01.03.2017 06:50 1,4 °C 1,4 °C 69 % 1006,5 hPa 0,0 mm 16,6 km/h (3 Bft) W-SW 246 ° 0 min 0,000 mm 0,0 UV-I 0 W/m² -3,7 °C -3,0 °C 22,5 km/h (4 Bft)
01.03.2017 06:51 1,4 °C 1,4 °C 69 % 1006,4 hPa 0,0 mm 8,8 km/h (2 Bft) W 262 ° 0 min 0,000 mm 0,0 UV-I 0 W/m² -3,7 °C -1,3 °C 17,7 km/h (3 Bft)
01.03.2017 06:52 1,4 °C 1,4 °C 68 % 1006,3 hPa 0,0 mm 14,3 km/h (3 Bft) W-SW 257 ° 0 min 0,000 mm 0,0 UV-I 0 W/m² -3,8 °C -2,6 °C 22,5 km/h (4 Bft)
01.03.2017 06:53 1,5 °C 1,5 °C 69 % 1006,3 hPa 0,0 mm 12,5 km/h (3 Bft) W 260 ° 0 min 0,000 mm 0,0 UV-I 0 W/m² -3,6 °C -2,1 °C 17,7 km/h (3 Bft)
01.03.2017 06:54 1,5 °C 1,5 °C 69 % 1006,4 hPa 0,0 mm 10,2 km/h (2 Bft) W-SW 250 ° 0 min 0,000 mm 0,0 UV-I 0 W/m² -3,6 °C -1,6 °C 14,5 km/h (3 Bft)
01.03.2017 06:55 1,4 °C 1,5 °C 69 % 1006,4 hPa 0,0 mm 10,8 km/h (2 Bft) SW 218 ° 0 min 0,000 mm 0,0 UV-I 0 W/m² -3,7 °C -1,8 °C 17,7 km/h (3 Bft)
01.03.2017 06:56 1,4 °C 1,5 °C 69 % 1006,4 hPa 0,0 mm 13,2 km/h (3 Bft) W 261 ° 0 min 0,000 mm 0,0 UV-I 0 W/m² -3,7 °C -2,4 °C 25,7 km/h (4 Bft)
01.03.2017 06:57 1,4 °C 1,5 °C 69 % 1006,4 hPa 0,0 mm 20,0 km/h (4 Bft) W 259 ° 0 min 0,000 mm 0,0 UV-I 0 W/m² -3,7 °C -3,5 °C 29,0 km/h (5 Bft)
01.03.2017 06:58 1,5 °C 1,5 °C 69 % 1006,5 hPa 0,0 mm 14,0 km/h (3 Bft) W-SW 246 ° 0 min 0,000 mm 0,0 UV-I 0 W/m² -3,6 °C -2,4 °C 22,5 km/h (4 Bft)
01.03.2017 06:59 1,4 °C 1,5 °C 69 % 1006,6 hPa 0,0 mm 11,8 km/h (2 Bft) W-SW 255 ° 0 min 0,000 mm 0,0 UV-I 0 W/m² -3,7 °C -2,1 °C 16,1 km/h (3 Bft)
01.03.2017 07:00 1,4 °C 1,4 °C 70 % 1006,6 hPa 0,0 mm 15,4 km/h (3 Bft) W 261 ° 0 min 0,000 mm 0,0 UV-I 0 W/m² -3,5 °C -2,8 °C 20,9 km/h (4 Bft)
01.03.2017 07:01 1,4 °C 1,4 °C 69 % 1006,6 hPa 0,0 mm 12,4 km/h (3 Bft) W-SW 238 ° 0 min 0,026 mm 0,0 UV-I 0 W/m² -3,7 °C -2,2 °C 19,3 km/h (3 Bft)
01.03.2017 07:02 1,4 °C 1,4 °C 70 % 1006,6 hPa 0,0 mm 14,4 km/h (3 Bft) W-SW 242 ° 0 min 0,000 mm 0,0 UV-I 0 W/m² -3,5 °C -2,6 °C 17,7 km/h (3 Bft)
01.03.2017 07:03 1,4 °C 1,4 °C 70 % 1006,7 hPa 0,0 mm 11,3 km/h (2 Bft) W-SW 254 ° 0 min 0,000 mm 0,0 UV-I 0 W/m² -3,5 °C -2,0 °C 19,3 km/h (3 Bft)
01.03.2017 07:04 1,4 °C 1,4 °C 71 % 1006,7 hPa 0,0 mm 15,6 km/h (3 Bft) W 260 ° 0 min 0,000 mm 0,0 UV-I 0 W/m² -3,3 °C -2,8 °C 27,4 km/h (4 Bft)
01.03.2017 07:05 1,4 °C 1,4 °C 71 % 1006,9 hPa 0,0 mm 25,0 km/h (4 Bft) S-SW 204 ° 0 min 0,000 mm 0,0 UV-I 0 W/m² -3,3 °C -4,1 °C 33,8 km/h (5 Bft)
01.03.2017 07:06 1,4 °C 1,4 °C 72 % 1006,7 hPa 0,0 mm 23,2 km/h (4 Bft) SW 217 ° 0 min 0,000 mm 0,0 UV-I 0 W/m² -3,1 °C -3,9 °C 33,8 km/h (5 Bft)
01.03.2017 07:07 1,4 °C 1,5 °C 72 % 1006,8 hPa 0,0 mm 23,1 km/h (4 Bft) W 260 ° 0 min 0,000 mm 0,0 UV-I 0 W/m² -3,1 °C -3,9 °C 33,8 km/h (5 Bft)
01.03.2017 07:08 1,5 °C 1,5 °C 72 % 1006,8 hPa 0,0 mm 20,5 km/h (4 Bft) W-SW 257 ° 0 min 0,000 mm 0,0 UV-I 0 W/m² -3,0 °C -3,4 °C 30,6 km/h (5 Bft)
01.03.2017 07:09 1,5 °C 1,6 °C 72 % 1006,9 hPa 0,0 mm 20,8 km/h (4 Bft) SW 222 ° 0 min 0,000 mm 0,0 UV-I 0 W/m² -3,0 °C -3,5 °C 29,0 km/h (5 Bft)
01.03.2017 07:10 1,5 °C 1,6 °C 73 % 1006,9 hPa 0,0 mm 21,6 km/h (4 Bft) W 266 ° 0 min 0,000 mm 0,0 UV-I 5 W/m² -2,8 °C -3,6 °C 33,8 km/h (5 Bft)
01.03.2017 07:11 1,5 °C 1,5 °C 73 % 1006,9 hPa 0,0 mm 21,1 km/h (4 Bft) W-SW 258 ° 0 min 0,000 mm 0,0 UV-I 5 W/m² -2,8 °C -3,5 °C 29,0 km/h (5 Bft)
01.03.2017 07:12 1,5 °C 1,5 °C 73 % 1006,9 hPa 0,0 mm 21,3 km/h (4 Bft) W 267 ° 0 min 0,000 mm 0,0 UV-I 5 W/m² -2,8 °C -3,5 °C 29,0 km/h (5 Bft)
01.03.2017 07:13 1,5 °C 1,5 °C 73 % 1007,0 hPa 0,0 mm 18,1 km/h (3 Bft) W 266 ° 0 min 0,000 mm 0,0 UV-I 5 W/m² -2,8 °C -3,1 °C 29,0 km/h (5 Bft)
01.03.2017 07:14 1,5 °C 1,5 °C 74 % 1006,9 hPa 0,0 mm 20,7 km/h (4 Bft) W-SW 255 ° 0 min 0,000 mm 0,0 UV-I 5 W/m² -2,6 °C -3,4 °C 27,4 km/h (4 Bft)
01.03.2017 07:15 1,5 °C 1,5 °C 73 % 1006,9 hPa 0,0 mm 23,8 km/h (4 Bft) W 262 ° 0 min 0,000 mm 0,0 UV-I 5 W/m² -2,8 °C -3,8 °C 30,6 km/h (5 Bft)
01.03.2017 07:16 1,4 °C 1,5 °C 73 % 1007,0 hPa 0,0 mm 21,3 km/h (4 Bft) W-SW 249 ° 0 min 0,000 mm 0,0 UV-I 5 W/m² -2,9 °C -3,7 °C 29,0 km/h (5 Bft)
01.03.2017 07:17 1,4 °C 1,4 °C 74 % 1006,9 hPa 0,0 mm 17,7 km/h (3 Bft) SW 234 ° 0 min 0,000 mm 0,0 UV-I 5 W/m² -2,7 °C -3,1 °C 25,7 km/h (4 Bft)
01.03.2017 07:18 1,4 °C 1,4 °C 74 % 1006,9 hPa 0,0 mm 15,4 km/h (3 Bft) SW 221 ° 0 min 0,000 mm 0,0 UV-I 7 W/m² -2,7 °C -2,8 °C 25,7 km/h (4 Bft)
01.03.2017 07:19 1,4 °C 1,4 °C 74 % 1006,9 hPa 0,0 mm 14,8 km/h (3 Bft) W-SW 243 ° 0 min 0,000 mm 0,0 UV-I 7 W/m² -2,7 °C -2,7 °C 20,9 km/h (4 Bft)
01.03.2017 07:20 1,4 °C 1,4 °C 74 % 1007,0 hPa 0,0 mm 19,0 km/h (3 Bft) W-SW 248 ° 0 min 0,000 mm 0,0 UV-I 7 W/m² -2,7 °C -3,3 °C 29,0 km/h (5 Bft)
01.03.2017 07:21 1,4 °C 1,4 °C 74 % 1006,9 hPa 0,0 mm 11,2 km/h (2 Bft) W 278 ° 0 min 0,000 mm 0,0 UV-I 7 W/m² -2,7 °C -1,9 °C 14,5 km/h (3 Bft)
01.03.2017 07:22 1,4 °C 1,4 °C 74 % 1006,9 hPa 0,0 mm 15,8 km/h (3 Bft) W 265 ° 0 min 0,000 mm 0,0 UV-I 7 W/m² -2,7 °C -2,8 °C 19,3 km/h (3 Bft)
01.03.2017 07:23 1,4 °C 1,4 °C 74 % 1007,0 hPa 0,0 mm 13,6 km/h (3 Bft) W-NW 292 ° 0 min 0,000 mm 0,0 UV-I 7 W/m² -2,7 °C -2,4 °C 17,7 km/h (3 Bft)
01.03.2017 07:24 1,4 °C 1,4 °C 74 % 1007,1 hPa 0,0 mm 13,8 km/h (3 Bft) W 265 ° 0 min 0,000 mm 0,0 UV-I 7 W/m² -2,7 °C -2,5 °C 19,3 km/h (3 Bft)
01.03.2017 07:25 1,3 °C 1,4 °C 74 % 1007,1 hPa 0,0 mm 12,7 km/h (3 Bft) W-SW 256 ° 0 min 0,000 mm 0,0 UV-I 9 W/m² -2,8 °C -2,4 °C 19,3 km/h (3 Bft)
01.03.2017 07:26 1,3 °C 1,3 °C 75 % 1007,0 hPa 0,0 mm 9,7 km/h (2 Bft) W-SW 250 ° 0 min 0,000 mm 0,0 UV-I 9 W/m² -2,6 °C -1,7 °C 14,5 km/h (3 Bft)
01.03.2017 07:27 1,3 °C 1,3 °C 75 % 1007,1 hPa 0,0 mm 8,4 km/h (2 Bft) SW 235 ° 0 min 0,000 mm 0,0 UV-I 9 W/m² -2,6 °C -1,3 °C 17,7 km/h (3 Bft)
01.03.2017 07:28 1,3 °C 1,3 °C 75 % 1007,0 hPa 0,0 mm 11,9 km/h (2 Bft) W-SW 257 ° 0 min 0,000 mm 0,0 UV-I 9 W/m² -2,6 °C -2,2 °C 16,1 km/h (3 Bft)
01.03.2017 07:29 1,3 °C 1,3 °C 75 % 1007,0 hPa 0,0 mm 9,7 km/h (2 Bft) W 259 ° 0 min 0,000 mm 0,0 UV-I 9 W/m² -2,6 °C -1,7 °C 12,9 km/h (3 Bft)
01.03.2017 07:30 1,3 °C 1,3 °C 75 % 1007,0 hPa 0,0 mm 14,4 km/h (3 Bft) W 262 ° 0 min 0,000 mm 0,0 UV-I 11 W/m² -2,6 °C -2,7 °C 19,3 km/h (3 Bft)
01.03.2017 07:31 1,3 °C 1,3 °C 75 % 1007,0 hPa 0,0 mm 13,6 km/h (3 Bft) W 265 ° 0 min 0,000 mm 0,0 UV-I 12 W/m² -2,6 °C -2,6 °C 19,3 km/h (3 Bft)
01.03.2017 07:32 1,3 °C 1,3 °C 75 % 1007,0 hPa 0,0 mm 17,9 km/h (3 Bft) W 266 ° 0 min 0,000 mm 0,0 UV-I 11 W/m² -2,6 °C -3,3 °C 24,1 km/h (4 Bft)
01.03.2017 07:33 1,3 °C 1,3 °C 75 % 1007,1 hPa 0,0 mm 12,6 km/h (3 Bft) W-SW 248 ° 0 min 0,000 mm 0,0 UV-I 9 W/m² -2,6 °C -2,4 °C 17,7 km/h (3 Bft)
01.03.2017 07:34 1,3 °C 1,3 °C 75 % 1007,1 hPa 0,0 mm 17,2 km/h (3 Bft) W-SW 250 ° 0 min 0,000 mm 0,0 UV-I 9 W/m² -2,6 °C -3,2 °C 24,1 km/h (4 Bft)
01.03.2017 07:35 1,3 °C 1,3 °C 75 % 1007,1 hPa 0,0 mm 15,8 km/h (3 Bft) W 270 ° 0 min 0,000 mm 0,0 UV-I 9 W/m² -2,6 °C -3,0 °C 27,4 km/h (4 Bft)
01.03.2017 07:36 1,4 °C 1,4 °C 75 % 1007,0 hPa 0,0 mm 11,4 km/h (2 Bft) W-SW 250 ° 0 min 0,000 mm 0,0 UV-I 11 W/m² -2,5 °C -2,0 °C 19,3 km/h (3 Bft)
01.03.2017 07:37 1,4 °C 1,4 °C 75 % 1007,0 hPa 0,0 mm 14,0 km/h (3 Bft) W-SW 250 ° 0 min 0,000 mm 0,0 UV-I 11 W/m² -2,5 °C -2,5 °C 27,4 km/h (4 Bft)
01.03.2017 07:38 1,4 °C 1,4 °C 75 % 1007,2 hPa 0,0 mm 15,6 km/h (3 Bft) W 259 ° 0 min 0,000 mm 0,0 UV-I 11 W/m² -2,5 °C -2,8 °C 20,9 km/h (4 Bft)
01.03.2017 07:39 1,4 °C 1,4 °C 76 % 1007,1 hPa 0,0 mm 19,2 km/h (3 Bft) SW 222 ° 0 min 0,000 mm 0,0 UV-I 12 W/m² -2,4 °C -3,4 °C 25,7 km/h (4 Bft)
01.03.2017 07:40 1,4 °C 1,4 °C 76 % 1007,2 hPa 0,0 mm 16,5 km/h (3 Bft) SW 223 ° 0 min 0,000 mm 0,0 UV-I 12 W/m² -2,4 °C -2,9 °C 25,7 km/h (4 Bft)
01.03.2017 07:41 1,4 °C 1,4 °C 76 % 1007,0 hPa 0,0 mm 11,3 km/h (2 Bft) W-SW 257 ° 0 min 0,000 mm 0,0 UV-I 14 W/m² -2,4 °C -2,0 °C 14,5 km/h (3 Bft)
01.03.2017 07:42 1,4 °C 1,4 °C 76 % 1007,1 hPa 0,0 mm 10,5 km/h (2 Bft) W 276 ° 0 min 0,000 mm 0,0 UV-I 18 W/m² -2,4 °C -1,8 °C 17,7 km/h (3 Bft)
01.03.2017 07:43 1,4 °C 1,4 °C 76 % 1007,1 hPa 0,0 mm 11,8 km/h (2 Bft) W-SW 240 ° 0 min 0,000 mm 0,0 UV-I 30 W/m² -2,4 °C -2,1 °C 17,7 km/h (3 Bft)
01.03.2017 07:44 1,4 °C 1,4 °C 76 % 1007,1 hPa 0,0 mm 8,2 km/h (2 Bft) W-NW 290 ° 0 min 0,000 mm 0,0 UV-I 26 W/m² -2,4 °C -1,2 °C 12,9 km/h (3 Bft)
01.03.2017 07:45 1,4 °C 1,4 °C 76 % 1007,2 hPa 0,0 mm 9,5 km/h (2 Bft) W-SW 258 ° 0 min 0,000 mm 0,0 UV-I 30 W/m² -2,4 °C -1,5 °C 16,1 km/h (3 Bft)
01.03.2017 07:46 1,4 °C 1,4 °C 76 % 1007,2 hPa 0,0 mm 11,0 km/h (2 Bft) SW 222 ° 0 min 0,000 mm 0,0 UV-I 37 W/m² -2,4 °C -1,9 °C 17,7 km/h (3 Bft)
01.03.2017 07:47 1,4 °C 1,4 °C 76 % 1007,2 hPa 0,0 mm 13,3 km/h (3 Bft) W 266 ° 0 min 0,000 mm 0,0 UV-I 37 W/m² -2,4 °C -2,4 °C 17,7 km/h (3 Bft)
01.03.2017 07:48 1,4 °C 1,4 °C 77 % 1007,2 hPa 0,0 mm 17,7 km/h (3 Bft) W-SW 245 ° 0 min 0,000 mm 0,0 UV-I 33 W/m² -2,2 °C -3,1 °C 25,7 km/h (4 Bft)
01.03.2017 07:49 1,4 °C 1,4 °C 76 % 1007,2 hPa 0,0 mm 10,3 km/h (2 Bft) W-SW 246 ° 0 min 0,000 mm 0,0 UV-I 42 W/m² -2,4 °C -1,7 °C 16,1 km/h (3 Bft)
01.03.2017 07:50 1,4 °C 1,4 °C 76 % 1007,2 hPa 0,0 mm 13,4 km/h (3 Bft) W 261 ° 0 min 0,000 mm 0,0 UV-I 40 W/m² -2,4 °C -2,4 °C 19,3 km/h (3 Bft)
01.03.2017 07:51 1,5 °C 1,5 °C 76 % 1007,2 hPa 0,0 mm 14,6 km/h (3 Bft) W-SW 253 ° 0 min 0,000 mm 0,0 UV-I 47 W/m² -2,3 °C -2,5 °C 17,7 km/h (3 Bft)
01.03.2017 07:52 1,6 °C 1,6 °C 76 % 1007,2 hPa 0,0 mm 8,3 km/h (2 Bft) W-SW 251 ° 0 min 0,000 mm 0,0 UV-I 51 W/m² -2,2 °C -0,9 °C 14,5 km/h (3 Bft)
01.03.2017 07:53 1,6 °C 1,6 °C 76 % 1007,3 hPa 0,0 mm 13,1 km/h (3 Bft) W 265 ° 0 min 0,000 mm 0,0 UV-I 53 W/m² -2,2 °C -2,1 °C 20,9 km/h (4 Bft)
01.03.2017 07:54 1,6 °C 1,6 °C 76 % 1007,3 hPa 0,0 mm 13,8 km/h (3 Bft) W 259 ° 0 min 0,000 mm 0,0 UV-I 51 W/m² -2,2 °C -2,2 °C 19,3 km/h (3 Bft)
01.03.2017 07:55 1,6 °C 1,6 °C 76 % 1007,3 hPa 0,0 mm 8,9 km/h (2 Bft) W-SW 249 ° 0 min 0,000 mm 0,0 UV-I 44 W/m² -2,2 °C -1,1 °C 11,3 km/h (2 Bft)
01.03.2017 07:56 1,6 °C 1,6 °C 76 % 1007,4 hPa 0,0 mm 15,4 km/h (3 Bft) W-SW 250 ° 0 min 0,000 mm 0,0 UV-I 44 W/m² -2,2 °C -2,5 °C 20,9 km/h (4 Bft)
01.03.2017 07:57 1,6 °C 1,6 °C 76 % 1007,4 hPa 0,0 mm 12,7 km/h (3 Bft) W-SW 246 ° 0 min 0,000 mm 0,0 UV-I 42 W/m² -2,2 °C -2,0 °C 20,9 km/h (4 Bft)
01.03.2017 07:58 1,6 °C 1,6 °C 76 % 1007,4 hPa 0,0 mm 12,3 km/h (3 Bft) SW 227 ° 0 min 0,000 mm 0,0 UV-I 46 W/m² -2,2 °C -1,9 °C 22,5 km/h (4 Bft)
01.03.2017 07:59 1,6 °C 1,6 °C 76 % 1007,4 hPa 0,0 mm 12,5 km/h (3 Bft) SW 219 ° 0 min 0,000 mm 0,0 UV-I 44 W/m² -2,2 °C -2,0 °C 17,7 km/h (3 Bft)
01.03.2017 08:00 1,6 °C 1,6 °C 76 % 1007,4 hPa 0,0 mm 14,2 km/h (3 Bft) W-SW 248 ° 0 min 0,000 mm 0,0 UV-I 44 W/m² -2,2 °C -2,3 °C 22,5 km/h (4 Bft)
01.03.2017 08:01 1,6 °C 1,6 °C 76 % 1007,5 hPa 0,0 mm 11,2 km/h (2 Bft) W-SW 255 ° 0 min 0,025 mm 0,0 UV-I 58 W/m² -2,2 °C -1,7 °C 16,1 km/h (3 Bft)
01.03.2017 08:02 1,6 °C 1,6 °C 76 % 1007,5 hPa 0,0 mm 15,9 km/h (3 Bft) S-SW 202 ° 0 min 0,000 mm 0,0 UV-I 63 W/m² -2,2 °C -2,6 °C 24,1 km/h (4 Bft)
01.03.2017 08:03 1,6 °C 1,6 °C 76 % 1007,4 hPa 0,0 mm 17,4 km/h (3 Bft) W-SW 257 ° 0 min 0,000 mm 0,0 UV-I 65 W/m² -2,2 °C -2,8 °C 20,9 km/h (4 Bft)
01.03.2017 08:04 1,6 °C 1,6 °C 76 % 1007,6 hPa 0,0 mm 14,8 km/h (3 Bft) W 268 ° 0 min 0,000 mm 0,0 UV-I 83 W/m² -2,2 °C -2,4 °C 22,5 km/h (4 Bft)
01.03.2017 08:05 1,6 °C 1,7 °C 76 % 1007,6 hPa 0,0 mm 16,8 km/h (3 Bft) SW 231 ° 0 min 0,000 mm 0,0 UV-I 72 W/m² -2,2 °C -2,7 °C 22,5 km/h (4 Bft)
01.03.2017 08:06 1,7 °C 1,7 °C 76 % 1007,6 hPa 0,0 mm 13,8 km/h (3 Bft) S-SW 199 ° 0 min 0,000 mm 0,0 UV-I 69 W/m² -2,1 °C -2,1 °C 22,5 km/h (4 Bft)
01.03.2017 08:07 1,7 °C 1,7 °C 76 % 1007,6 hPa 0,0 mm 23,1 km/h (4 Bft) W 264 ° 0 min 0,000 mm 0,0 UV-I 69 W/m² -2,1 °C -3,5 °C 32,2 km/h (5 Bft)
01.03.2017 08:08 1,7 °C 1,7 °C 76 % 1007,6 hPa 0,0 mm 18,3 km/h (3 Bft) W 265 ° 0 min 0,000 mm 0,0 UV-I 63 W/m² -2,1 °C -2,9 °C 27,4 km/h (4 Bft)
01.03.2017 08:09 1,7 °C 1,7 °C 76 % 1007,7 hPa 0,0 mm 19,2 km/h (3 Bft) W 281 ° 0 min 0,000 mm 0,0 UV-I 60 W/m² -2,1 °C -3,0 °C 29,0 km/h (5 Bft)
01.03.2017 08:10 1,8 °C 1,8 °C 76 % 1007,7 hPa 0,0 mm 17,2 km/h (3 Bft) W-SW 257 ° 0 min 0,000 mm 0,0 UV-I 60 W/m² -2,0 °C -2,6 °C 30,6 km/h (5 Bft)
01.03.2017 08:11 1,8 °C 1,8 °C 75 % 1007,7 hPa 0,0 mm 18,8 km/h (3 Bft) W-SW 255 ° 0 min 0,000 mm 0,0 UV-I 62 W/m² -2,1 °C -2,8 °C 25,7 km/h (4 Bft)
01.03.2017 08:12 1,8 °C 1,8 °C 75 % 1007,7 hPa 0,0 mm 20,2 km/h (4 Bft) W 267 ° 0 min 0,000 mm 0,0 UV-I 62 W/m² -2,1 °C -3,0 °C 25,7 km/h (4 Bft)
01.03.2017 08:13 1,8 °C 1,9 °C 75 % 1007,7 hPa 0,0 mm 17,1 km/h (3 Bft) W-SW 250 ° 0 min 0,000 mm 0,5 UV-I 67 W/m² -2,1 °C -2,5 °C 22,5 km/h (4 Bft)
01.03.2017 08:14 1,9 °C 1,9 °C 75 % 1007,7 hPa 0,0 mm 12,2 km/h (2 Bft) W 259 ° 0 min 0,000 mm 0,5 UV-I 77 W/m² -2,1 °C -1,5 °C 20,9 km/h (4 Bft)
01.03.2017 08:15 1,9 °C 1,9 °C 75 % 1007,8 hPa 0,0 mm 19,4 km/h (3 Bft) W 281 ° 0 min 0,000 mm 0,5 UV-I 91 W/m² -2,1 °C -2,8 °C 30,6 km/h (5 Bft)
01.03.2017 08:16 1,9 °C 1,9 °C 75 % 1007,8 hPa 0,0 mm 21,5 km/h (4 Bft) NW 315 ° 0 min 0,000 mm 0,5 UV-I 91 W/m² -2,1 °C -3,0 °C 29,0 km/h (5 Bft)
01.03.2017 08:17 1,9 °C 1,9 °C 75 % 1007,8 hPa 0,0 mm 18,0 km/h (3 Bft) W 261 ° 0 min 0,000 mm 0,5 UV-I 90 W/m² -2,1 °C -2,6 °C 27,4 km/h (4 Bft)
01.03.2017 08:18 1,9 °C 2,0 °C 75 % 1007,8 hPa 0,0 mm 14,2 km/h (3 Bft) W 265 ° 0 min 0,000 mm 0,5 UV-I 93 W/m² -2,1 °C -1,9 °C 19,3 km/h (3 Bft)
01.03.2017 08:19 2,0 °C 2,0 °C 75 % 1007,8 hPa 0,0 mm 15,0 km/h (3 Bft) W-SW 258 ° 0 min 0,000 mm 0,5 UV-I 83 W/m² -2,0 °C -2,0 °C 22,5 km/h (4 Bft)
01.03.2017 08:20 2,0 °C 2,0 °C 75 % 1007,9 hPa 0,0 mm 18,2 km/h (3 Bft) S-SW 213 ° 0 min 0,000 mm 0,5 UV-I 74 W/m² -2,0 °C -2,5 °C 41,8 km/h (6 Bft)
01.03.2017 08:21 2,0 °C 2,1 °C 75 % 1007,9 hPa 0,0 mm 17,7 km/h (3 Bft) W 272 ° 0 min 0,000 mm 0,5 UV-I 77 W/m² -2,0 °C -2,4 °C 30,6 km/h (5 Bft)
01.03.2017 08:22 2,1 °C 2,1 °C 74 % 1008,0 hPa 0,0 mm 17,6 km/h (3 Bft) W-SW 251 ° 0 min 0,000 mm 0,5 UV-I 107 W/m² -2,0 °C -2,2 °C 25,7 km/h (4 Bft)
01.03.2017 08:23 2,1 °C 2,1 °C 75 % 1008,2 hPa 0,0 mm 21,7 km/h (4 Bft) W-SW 250 ° 0 min 0,000 mm 0,5 UV-I 105 W/m² -1,9 °C -2,8 °C 32,2 km/h (5 Bft)
01.03.2017 08:24 2,1 °C 2,1 °C 75 % 1008,1 hPa 0,0 mm 23,2 km/h (4 Bft) W 271 ° 0 min 0,000 mm 0,5 UV-I 95 W/m² -1,9 °C -3,0 °C 30,6 km/h (5 Bft)
01.03.2017 08:25 2,1 °C 2,1 °C 76 % 1008,2 hPa 0,0 mm 19,3 km/h (3 Bft) W 264 ° 0 min 0,000 mm 0,5 UV-I 121 W/m² -1,7 °C -2,5 °C 30,6 km/h (5 Bft)
01.03.2017 08:26 2,1 °C 2,1 °C 76 % 1008,2 hPa 0,0 mm 15,8 km/h (3 Bft) W 279 ° 0 min 0,000 mm 0,6 UV-I 137 W/m² -1,7 °C -2,0 °C 22,5 km/h (4 Bft)
01.03.2017 08:27 2,1 °C 2,1 °C 76 % 1008,3 hPa 0,0 mm 21,5 km/h (4 Bft) W-SW 254 ° 0 min 0,000 mm 0,5 UV-I 141 W/m² -1,7 °C -2,8 °C 32,2 km/h (5 Bft)
01.03.2017 08:28 2,1 °C 2,1 °C 76 % 1008,4 hPa 0,0 mm 17,4 km/h (3 Bft) W 267 ° 0 min 0,000 mm 0,5 UV-I 107 W/m² -1,7 °C -2,2 °C 32,2 km/h (5 Bft)
01.03.2017 08:29 2,1 °C 2,1 °C 76 % 1008,3 hPa 0,0 mm 12,4 km/h (3 Bft) W 267 ° 0 min 0,000 mm 0,5 UV-I 91 W/m² -1,7 °C -1,3 °C 20,9 km/h (4 Bft)
01.03.2017 08:30 2,1 °C 2,1 °C 76 % 1008,3 hPa 0,0 mm 17,5 km/h (3 Bft) W 262 ° 0 min 0,000 mm 0,6 UV-I 91 W/m² -1,7 °C -2,2 °C 25,7 km/h (4 Bft)
01.03.2017 08:31 2,1 °C 2,1 °C 76 % 1008,3 hPa 0,0 mm 20,0 km/h (4 Bft) W 259 ° 0 min 0,000 mm 0,7 UV-I 70 W/m² -1,7 °C -2,6 °C 24,1 km/h (4 Bft)
01.03.2017 08:32 2,1 °C 2,1 °C 76 % 1008,2 hPa 0,0 mm 15,7 km/h (3 Bft) W 271 ° 0 min 0,000 mm 0,7 UV-I 62 W/m² -1,7 °C -1,9 °C 24,1 km/h (4 Bft)
01.03.2017 08:33 2,1 °C 2,1 °C 76 % 1008,2 hPa 0,0 mm 17,0 km/h (3 Bft) W-SW 245 ° 0 min 0,000 mm 0,7 UV-I 58 W/m² -1,7 °C -2,2 °C 25,7 km/h (4 Bft)
01.03.2017 08:34 2,1 °C 2,1 °C 75 % 1008,2 hPa 0,0 mm 16,6 km/h (3 Bft) W 281 ° 0 min 0,000 mm 0,7 UV-I 81 W/m² -1,9 °C -2,1 °C 25,7 km/h (4 Bft)
01.03.2017 08:35 2,1 °C 2,1 °C 76 % 1008,2 hPa 0,0 mm 14,3 km/h (3 Bft) W 261 ° 0 min 0,000 mm 0,7 UV-I 121 W/m² -1,7 °C -1,7 °C 22,5 km/h (4 Bft)
01.03.2017 08:36 2,1 °C 2,1 °C 76 % 1008,2 hPa 0,0 mm 11,8 km/h (2 Bft) W-NW 289 ° 0 min 0,000 mm 0,7 UV-I 151 W/m² -1,7 °C -1,2 °C 16,1 km/h (3 Bft)
01.03.2017 08:37 2,1 °C 2,1 °C 76 % 1008,2 hPa 0,0 mm 9,5 km/h (2 Bft) W 278 ° 0 min 0,000 mm 0,8 UV-I 174 W/m² -1,7 °C -0,7 °C 14,5 km/h (3 Bft)
01.03.2017 08:38 2,2 °C 2,2 °C 76 % 1008,2 hPa 0,0 mm 13,9 km/h (3 Bft) W-SW 254 ° 1 min 0,000 mm 0,8 UV-I 209 W/m² -1,6 °C -1,5 °C 20,9 km/h (4 Bft)
01.03.2017 08:39 2,2 °C 2,2 °C 76 % 1008,2 hPa 0,0 mm 21,0 km/h (4 Bft) W-SW 238 ° 1 min 0,000 mm 0,7 UV-I 200 W/m² -1,6 °C -2,6 °C 37,0 km/h (5 Bft)
01.03.2017 08:40 2,3 °C 2,3 °C 74 % 1008,1 hPa 0,0 mm 21,9 km/h (4 Bft) W-SW 243 ° 0 min 0,000 mm 0,6 UV-I 165 W/m² -1,8 °C -2,6 °C 29,0 km/h (5 Bft)
01.03.2017 08:41 2,3 °C 2,3 °C 75 % 1008,1 hPa 0,0 mm 14,6 km/h (3 Bft) SW 215 ° 0 min 0,000 mm 0,6 UV-I 149 W/m² -1,7 °C -1,5 °C 22,5 km/h (4 Bft)
01.03.2017 08:42 2,3 °C 2,3 °C 75 % 1008,1 hPa 0,0 mm 8,2 km/h (2 Bft) W-SW 254 ° 0 min 0,000 mm 0,6 UV-I 111 W/m² -1,7 °C -0,1 °C 12,9 km/h (3 Bft)
01.03.2017 08:43 2,3 °C 2,3 °C 75 % 1008,2 hPa 0,0 mm 15,6 km/h (3 Bft) W 265 ° 0 min 0,000 mm 0,5 UV-I 79 W/m² -1,7 °C -1,7 °C 24,1 km/h (4 Bft)
01.03.2017 08:44 2,3 °C 2,3 °C 74 % 1008,1 hPa 0,0 mm 16,2 km/h (3 Bft) W-NW 290 ° 0 min 0,000 mm 0,0 UV-I 47 W/m² -1,8 °C -1,8 °C 22,5 km/h (4 Bft)
01.03.2017 08:45 2,3 °C 2,3 °C 74 % 1008,4 hPa 0,0 mm 16,3 km/h (3 Bft) S-SW 206 ° 0 min 0,000 mm 0,0 UV-I 44 W/m² -1,8 °C -1,8 °C 27,4 km/h (4 Bft)
01.03.2017 08:46 2,3 °C 2,3 °C 74 % 1008,1 hPa 0,0 mm 14,2 km/h (3 Bft) W-SW 250 ° 0 min 0,000 mm 0,0 UV-I 46 W/m² -1,8 °C -1,4 °C 24,1 km/h (4 Bft)
01.03.2017 08:47 2,3 °C 2,3 °C 74 % 1008,2 hPa 0,0 mm 20,7 km/h (4 Bft) W-SW 257 ° 0 min 0,000 mm 0,7 UV-I 60 W/m² -1,8 °C -2,4 °C 27,4 km/h (4 Bft)
01.03.2017 08:48 2,3 °C 2,3 °C 75 % 1008,2 hPa 0,0 mm 18,8 km/h (3 Bft) W 260 ° 0 min 0,000 mm 0,8 UV-I 116 W/m² -1,7 °C -2,2 °C 24,1 km/h (4 Bft)
01.03.2017 08:49 2,3 °C 2,3 °C 75 % 1008,2 hPa 0,0 mm 12,6 km/h (3 Bft) W 263 ° 0 min 0,000 mm 0,8 UV-I 141 W/m² -1,7 °C -1,1 °C 17,7 km/h (3 Bft)
01.03.2017 08:50 2,3 °C 2,3 °C 75 % 1008,2 hPa 0,0 mm 10,2 km/h (2 Bft) W-SW 249 ° 0 min 0,000 mm 0,7 UV-I 132 W/m² -1,7 °C -0,6 °C 14,5 km/h (3 Bft)
01.03.2017 08:51 2,3 °C 2,3 °C 76 % 1008,3 hPa 0,0 mm 10,1 km/h (2 Bft) W 265 ° 0 min 0,000 mm 0,6 UV-I 97 W/m² -1,5 °C -0,6 °C 12,9 km/h (3 Bft)
01.03.2017 08:52 2,3 °C 2,3 °C 76 % 1008,3 hPa 0,0 mm 13,2 km/h (3 Bft) W-SW 256 ° 0 min 0,000 mm 0,7 UV-I 84 W/m² -1,5 °C -1,3 °C 19,3 km/h (3 Bft)
01.03.2017 08:53 2,3 °C 2,3 °C 76 % 1008,4 hPa 0,0 mm 14,9 km/h (3 Bft) W-SW 245 ° 0 min 0,000 mm 0,6 UV-I 74 W/m² -1,5 °C -1,6 °C 24,1 km/h (4 Bft)
01.03.2017 08:54 2,2 °C 2,3 °C 76 % 1008,5 hPa 0,0 mm 16,6 km/h (3 Bft) W 271 ° 0 min 0,000 mm 0,6 UV-I 54 W/m² -1,6 °C -2,0 °C 20,9 km/h (4 Bft)
01.03.2017 08:55 2,2 °C 2,2 °C 77 % 1008,5 hPa 0,0 mm 26,4 km/h (4 Bft) S-SW 207 ° 0 min 0,000 mm 0,0 UV-I 49 W/m² -1,4 °C -3,2 °C 35,4 km/h (5 Bft)
01.03.2017 08:56 2,2 °C 2,2 °C 76 % 1008,5 hPa 0,0 mm 25,1 km/h (4 Bft) W-SW 252 ° 0 min 0,000 mm 0,0 UV-I 46 W/m² -1,6 °C -3,1 °C 32,2 km/h (5 Bft)
01.03.2017 08:57 2,1 °C 2,2 °C 77 % 1008,3 hPa 0,0 mm 20,9 km/h (4 Bft) W 275 ° 0 min 0,000 mm 0,8 UV-I 60 W/m² -1,5 °C -2,7 °C 35,4 km/h (5 Bft)
01.03.2017 08:58 2,1 °C 2,2 °C 77 % 1008,4 hPa 0,0 mm 16,4 km/h (3 Bft) W-SW 250 ° 0 min 0,000 mm 0,9 UV-I 97 W/m² -1,5 °C -2,1 °C 22,5 km/h (4 Bft)
01.03.2017 08:59 2,1 °C 2,1 °C 77 % 1008,5 hPa 0,0 mm 18,8 km/h (3 Bft) W-SW 248 ° 0 min 0,000 mm 1,0 UV-I 149 W/m² -1,5 °C -2,4 °C 25,7 km/h (4 Bft)
01.03.2017 09:00 2,1 °C 2,1 °C 78 % 1008,5 hPa 0,0 mm 19,4 km/h (3 Bft) W 275 ° 0 min 0,076 mm 1,0 UV-I 137 W/m² -1,3 °C -2,5 °C 30,6 km/h (5 Bft)
01.03.2017 09:01 2,1 °C 2,1 °C 77 % 1008,5 hPa 0,0 mm 19,2 km/h (3 Bft) W-SW 255 ° 0 min 0,000 mm 1,0 UV-I 142 W/m² -1,5 °C -2,5 °C 30,6 km/h (5 Bft)
01.03.2017 09:02 2,1 °C 2,1 °C 78 % 1008,5 hPa 0,0 mm 17,3 km/h (3 Bft) W-SW 257 ° 0 min 0,000 mm 1,0 UV-I 144 W/m² -1,3 °C -2,2 °C 24,1 km/h (4 Bft)
01.03.2017 09:03 2,1 °C 2,2 °C 78 % 1008,5 hPa 0,0 mm 20,7 km/h (4 Bft) W-SW 253 ° 0 min 0,000 mm 1,0 UV-I 160 W/m² -1,3 °C -2,7 °C 30,6 km/h (5 Bft)
01.03.2017 09:04 2,2 °C 2,2 °C 78 % 1008,5 hPa 0,0 mm 25,7 km/h (4 Bft) W 264 ° 0 min 0,000 mm 1,0 UV-I 192 W/m² -1,2 °C -3,2 °C 33,8 km/h (5 Bft)
01.03.2017 09:05 2,2 °C 2,2 °C 78 % 1008,5 hPa 0,0 mm 22,6 km/h (4 Bft) W-SW 257 ° 0 min 0,000 mm 0,8 UV-I 155 W/m² -1,2 °C -2,8 °C 30,6 km/h (5 Bft)
01.03.2017 09:06 2,2 °C 2,2 °C 78 % 1008,7 hPa 0,0 mm 20,9 km/h (4 Bft) W 275 ° 0 min 0,000 mm 0,6 UV-I 123 W/m² -1,2 °C -2,6 °C 30,6 km/h (5 Bft)
01.03.2017 09:07 2,2 °C 2,2 °C 78 % 1008,6 hPa 0,0 mm 24,9 km/h (4 Bft) W-SW 257 ° 0 min 0,000 mm 0,6 UV-I 102 W/m² -1,2 °C -3,1 °C 33,8 km/h (5 Bft)
01.03.2017 09:08 2,2 °C 2,2 °C 78 % 1008,7 hPa 0,0 mm 20,5 km/h (4 Bft) N-NW 331 ° 0 min 0,000 mm 0,6 UV-I 93 W/m² -1,2 °C -2,5 °C 25,7 km/h (4 Bft)
01.03.2017 09:09 2,1 °C 2,2 °C 79 % 1008,9 hPa 0,0 mm 23,9 km/h (4 Bft) W 259 ° 0 min 0,000 mm 0,5 UV-I 81 W/m² -1,2 °C -3,1 °C 33,8 km/h (5 Bft)
01.03.2017 09:10 2,1 °C 2,1 °C 79 % 1008,9 hPa 0,0 mm 23,1 km/h (4 Bft) SW 227 ° 0 min 0,000 mm 0,5 UV-I 69 W/m² -1,2 °C -3,0 °C 35,4 km/h (5 Bft)
01.03.2017 09:11 2,1 °C 2,1 °C 80 % 1009,0 hPa 0,0 mm 22,4 km/h (4 Bft) W-NW 288 ° 0 min 0,000 mm 0,5 UV-I 79 W/m² -1,0 °C -2,9 °C 29,0 km/h (5 Bft)
01.03.2017 09:12 1,9 °C 2,1 °C 80 % 1009,0 hPa 0,0 mm 19,8 km/h (3 Bft) W-SW 242 ° 0 min 0,000 mm 0,6 UV-I 79 W/m² -1,2 °C -2,8 °C 29,0 km/h (5 Bft)
01.03.2017 09:13 1,9 °C 1,9 °C 81 % 1009,0 hPa 0,0 mm 16,2 km/h (3 Bft) W 279 ° 0 min 0,000 mm 0,7 UV-I 102 W/m² -1,0 °C -2,3 °C 20,9 km/h (4 Bft)
01.03.2017 09:14 1,8 °C 1,9 °C 81 % 1009,0 hPa 0,0 mm 16,5 km/h (3 Bft) W 267 ° 0 min 0,000 mm 0,8 UV-I 121 W/m² -1,1 °C -2,4 °C 25,7 km/h (4 Bft)
01.03.2017 09:15 1,7 °C 1,8 °C 82 % 1009,0 hPa 0,0 mm 17,2 km/h (3 Bft) W 259 ° 0 min 0,000 mm 0,9 UV-I 141 W/m² -1,0 °C -2,7 °C 20,9 km/h (4 Bft)
01.03.2017 09:16 1,7 °C 1,7 °C 82 % 1008,9 hPa 0,0 mm 16,7 km/h (3 Bft) W 263 ° 0 min 0,000 mm 0,9 UV-I 148 W/m² -1,0 °C -2,6 °C 20,9 km/h (4 Bft)
01.03.2017 09:17 1,7 °C 1,7 °C 82 % 1009,0 hPa 0,0 mm 17,6 km/h (3 Bft) W-SW 248 ° 0 min 0,000 mm 1,0 UV-I 163 W/m² -1,0 °C -2,7 °C 24,1 km/h (4 Bft)
01.03.2017 09:18 1,7 °C 1,7 °C 83 % 1008,9 hPa 0,0 mm 14,5 km/h (3 Bft) W 279 ° 0 min 0,000 mm 1,0 UV-I 149 W/m² -0,9 °C -2,2 °C 20,9 km/h (4 Bft)
01.03.2017 09:19 1,7 °C 1,7 °C 83 % 1009,0 hPa 0,0 mm 15,3 km/h (3 Bft) W-SW 258 ° 0 min 0,000 mm 1,0 UV-I 171 W/m² -0,9 °C -2,4 °C 20,9 km/h (4 Bft)
01.03.2017 09:20 1,7 °C 1,7 °C 82 % 1008,9 hPa 0,0 mm 19,0 km/h (3 Bft) W 265 ° 0 min 0,000 mm 1,0 UV-I 188 W/m² -1,0 °C -3,0 °C 24,1 km/h (4 Bft)
01.03.2017 09:21 1,8 °C 1,8 °C 82 % 1009,0 hPa 0,0 mm 16,5 km/h (3 Bft) W-SW 248 ° 0 min 0,000 mm 1,0 UV-I 183 W/m² -0,9 °C -2,4 °C 25,7 km/h (4 Bft)
01.03.2017 09:22 1,8 °C 1,8 °C 82 % 1009,0 hPa 0,0 mm 14,5 km/h (3 Bft) W-SW 247 ° 0 min 0,000 mm 0,9 UV-I 183 W/m² -0,9 °C -2,1 °C 17,7 km/h (3 Bft)
01.03.2017 09:23 1,8 °C 1,8 °C 82 % 1009,0 hPa 0,0 mm 14,3 km/h (3 Bft) W 259 ° 0 min 0,000 mm 0,8 UV-I 139 W/m² -0,9 °C -2,1 °C 25,7 km/h (4 Bft)
01.03.2017 09:24 1,9 °C 1,9 °C 82 % 1009,1 hPa 0,0 mm 14,1 km/h (3 Bft) W-SW 250 ° 0 min 0,000 mm 1,0 UV-I 132 W/m² -0,8 °C -1,9 °C 20,9 km/h (4 Bft)
01.03.2017 09:25 1,9 °C 1,9 °C 82 % 1009,0 hPa 0,0 mm 21,5 km/h (4 Bft) W 267 ° 0 min 0,000 mm 0,9 UV-I 130 W/m² -0,8 °C -3,0 °C 32,2 km/h (5 Bft)
01.03.2017 09:26 1,9 °C 1,9 °C 81 % 1009,1 hPa 0,0 mm 21,4 km/h (4 Bft) W-SW 257 ° 0 min 0,000 mm 0,8 UV-I 127 W/m² -1,0 °C -3,0 °C 30,6 km/h (5 Bft)
01.03.2017 09:27 1,9 °C 1,9 °C 81 % 1009,1 hPa 0,0 mm 20,1 km/h (4 Bft) W-SW 258 ° 0 min 0,000 mm 0,8 UV-I 113 W/m² -1,0 °C -2,9 °C 29,0 km/h (5 Bft)
01.03.2017 09:28 1,9 °C 1,9 °C 81 % 1009,2 hPa 0,0 mm 21,4 km/h (4 Bft) W-SW 248 ° 0 min 0,000 mm 0,8 UV-I 118 W/m² -1,0 °C -3,0 °C 27,4 km/h (4 Bft)
01.03.2017 09:29 2,0 °C 2,0 °C 80 % 1009,1 hPa 0,0 mm 19,2 km/h (3 Bft) W-NW 287 ° 0 min 0,000 mm 0,9 UV-I 144 W/m² -1,1 °C -2,6 °C 27,4 km/h (4 Bft)
01.03.2017 09:30 2,0 °C 2,0 °C 80 % 1009,1 hPa 0,0 mm 17,0 km/h (3 Bft) W 274 ° 0 min 0,000 mm 0,8 UV-I 144 W/m² -1,1 °C -2,3 °C 24,1 km/h (4 Bft)
01.03.2017 09:31 2,1 °C 2,1 °C 80 % 1009,0 hPa 0,0 mm 16,4 km/h (3 Bft) W-SW 252 ° 0 min 0,000 mm 0,8 UV-I 118 W/m² -1,0 °C -2,1 °C 30,6 km/h (5 Bft)
01.03.2017 09:32 2,1 °C 2,1 °C 80 % 1009,0 hPa 0,0 mm 17,3 km/h (3 Bft) W-SW 250 ° 0 min 0,000 mm 0,8 UV-I 114 W/m² -1,0 °C -2,2 °C 32,2 km/h (5 Bft)
01.03.2017 09:33 2,1 °C 2,1 °C 80 % 1009,2 hPa 0,0 mm 14,8 km/h (3 Bft) SW 219 ° 0 min 0,000 mm 0,8 UV-I 139 W/m² -1,0 °C -1,8 °C 19,3 km/h (3 Bft)
01.03.2017 09:34 2,1 °C 2,2 °C 80 % 1009,2 hPa 0,0 mm 15,6 km/h (3 Bft) SW 236 ° 0 min 0,000 mm 0,8 UV-I 134 W/m² -1,0 °C -1,9 °C 22,5 km/h (4 Bft)
01.03.2017 09:35 2,1 °C 2,2 °C 79 % 1009,3 hPa 0,0 mm 23,7 km/h (4 Bft) W-SW 252 ° 0 min 0,000 mm 0,8 UV-I 132 W/m² -1,2 °C -3,1 °C 38,6 km/h (5 Bft)
01.03.2017 09:36 2,2 °C 2,2 °C 79 % 1009,3 hPa 0,0 mm 19,0 km/h (3 Bft) W-SW 250 ° 0 min 0,000 mm 0,7 UV-I 118 W/m² -1,1 °C -2,3 °C 32,2 km/h (5 Bft)
01.03.2017 09:37 2,2 °C 2,2 °C 78 % 1009,2 hPa 0,0 mm 14,5 km/h (3 Bft) W-SW 254 ° 0 min 0,000 mm 0,8 UV-I 118 W/m² -1,2 °C -1,6 °C 20,9 km/h (4 Bft)
01.03.2017 09:38 2,2 °C 2,2 °C 79 % 1009,3 hPa 0,0 mm 13,1 km/h (3 Bft) W 260 ° 0 min 0,000 mm 0,8 UV-I 118 W/m² -1,1 °C -1,4 °C 19,3 km/h (3 Bft)
01.03.2017 09:39 2,3 °C 2,3 °C 78 % 1009,3 hPa 0,0 mm 27,5 km/h (4 Bft) W 273 ° 0 min 0,000 mm 1,0 UV-I 128 W/m² -1,1 °C -3,2 °C 35,4 km/h (5 Bft)
01.03.2017 09:40 2,3 °C 2,3 °C 78 % 1009,3 hPa 0,0 mm 23,0 km/h (4 Bft) W-SW 244 ° 0 min 0,000 mm 1,1 UV-I 185 W/m² -1,1 °C -2,7 °C 38,6 km/h (5 Bft)
01.03.2017 09:41 2,3 °C 2,3 °C 77 % 1009,3 hPa 0,0 mm 17,5 km/h (3 Bft) W 269 ° 0 min 0,000 mm 1,2 UV-I 179 W/m² -1,3 °C -2,0 °C 27,4 km/h (4 Bft)
01.03.2017 09:42 2,4 °C 2,4 °C 77 % 1009,4 hPa 0,0 mm 22,7 km/h (4 Bft) W-SW 237 ° 0 min 0,000 mm 1,2 UV-I 172 W/m² -1,2 °C -2,6 °C 30,6 km/h (5 Bft)
01.03.2017 09:43 2,4 °C 2,4 °C 77 % 1009,4 hPa 0,0 mm 23,7 km/h (4 Bft) W 271 ° 0 min 0,000 mm 1,2 UV-I 171 W/m² -1,2 °C -2,7 °C 32,2 km/h (5 Bft)
01.03.2017 09:44 2,5 °C 2,5 °C 76 % 1009,3 hPa 0,0 mm 23,5 km/h (4 Bft) W 267 ° 0 min 0,000 mm 1,3 UV-I 192 W/m² -1,3 °C -2,5 °C 37,0 km/h (5 Bft)
01.03.2017 09:45 2,6 °C 2,6 °C 76 % 1009,3 hPa 0,0 mm 20,0 km/h (4 Bft) W 263 ° 1 min 0,000 mm 1,4 UV-I 221 W/m² -1,2 °C -2,0 °C 30,6 km/h (5 Bft)
01.03.2017 09:46 2,6 °C 2,6 °C 75 % 1009,3 hPa 0,0 mm 19,5 km/h (3 Bft) W-SW 240 ° 0 min 0,000 mm 1,4 UV-I 185 W/m² -1,4 °C -1,9 °C 27,4 km/h (4 Bft)
01.03.2017 09:47 2,6 °C 2,7 °C 75 % 1009,4 hPa 0,0 mm 12,9 km/h (3 Bft) W 271 ° 0 min 0,000 mm 1,6 UV-I 158 W/m² -1,4 °C -0,8 °C 19,3 km/h (3 Bft)
01.03.2017 09:48 2,7 °C 2,7 °C 75 % 1009,3 hPa 0,0 mm 14,8 km/h (3 Bft) S-SO 163 ° 0 min 0,000 mm 1,3 UV-I 127 W/m² -1,3 °C -1,1 °C 24,1 km/h (4 Bft)
01.03.2017 09:49 2,7 °C 2,7 °C 76 % 1009,2 hPa 0,0 mm 11,4 km/h (2 Bft) W-SW 252 ° 0 min 0,000 mm 1,2 UV-I 74 W/m² -1,1 °C -0,4 °C 19,3 km/h (3 Bft)
01.03.2017 09:50 2,7 °C 2,7 °C 75 % 1009,4 hPa 0,0 mm 19,6 km/h (3 Bft) W 260 ° 0 min 0,000 mm 1,3 UV-I 60 W/m² -1,3 °C -1,8 °C 30,6 km/h (5 Bft)
01.03.2017 09:51 2,7 °C 2,7 °C 74 % 1009,2 hPa 0,0 mm 19,0 km/h (3 Bft) W 265 ° 0 min 0,000 mm 1,4 UV-I 60 W/m² -1,5 °C -1,7 °C 29,0 km/h (5 Bft)
01.03.2017 09:52 2,7 °C 2,7 °C 74 % 1009,3 hPa 0,0 mm 20,3 km/h (4 Bft) W-SW 253 ° 0 min 0,000 mm 1,4 UV-I 128 W/m² -1,5 °C -1,9 °C 27,4 km/h (4 Bft)
01.03.2017 09:53 2,7 °C 2,7 °C 74 % 1009,3 hPa 0,0 mm 19,2 km/h (3 Bft) W 259 ° 0 min 0,000 mm 1,3 UV-I 125 W/m² -1,5 °C -1,7 °C 25,7 km/h (4 Bft)
01.03.2017 09:54 2,8 °C 2,8 °C 74 % 1009,4 hPa 0,0 mm 21,2 km/h (4 Bft) W 267 ° 0 min 0,000 mm 1,5 UV-I 186 W/m² -1,4 °C -1,9 °C 33,8 km/h (5 Bft)
01.03.2017 09:55 2,8 °C 2,8 °C 74 % 1009,3 hPa 0,0 mm 21,1 km/h (4 Bft) W 279 ° 1 min 0,000 mm 1,6 UV-I 246 W/m² -1,4 °C -1,9 °C 32,2 km/h (5 Bft)
01.03.2017 09:56 2,9 °C 2,9 °C 74 % 1009,3 hPa 0,0 mm 18,1 km/h (3 Bft) W-NW 293 ° 1 min 0,000 mm 1,5 UV-I 227 W/m² -1,3 °C -1,3 °C 22,5 km/h (4 Bft)
01.03.2017 09:57 3,1 °C 3,1 °C 73 % 1009,3 hPa 0,0 mm 15,0 km/h (3 Bft) W-SW 246 ° 0 min 0,000 mm 1,4 UV-I 199 W/m² -1,3 °C -0,6 °C 29,0 km/h (5 Bft)
01.03.2017 09:58 3,2 °C 3,2 °C 74 % 1009,3 hPa 0,0 mm 16,4 km/h (3 Bft) SW 235 ° 1 min 0,000 mm 1,5 UV-I 221 W/m² -1,0 °C -0,7 °C 27,4 km/h (4 Bft)
01.03.2017 09:59 3,2 °C 3,2 °C 73 % 1009,4 hPa 0,0 mm 18,0 km/h (3 Bft) W-SW 257 ° 1 min 0,000 mm 1,6 UV-I 221 W/m² -1,2 °C -0,9 °C 27,4 km/h (4 Bft)
01.03.2017 10:00 3,3 °C 3,3 °C 72 % 1009,4 hPa 0,0 mm 22,5 km/h (4 Bft) W-SW 253 ° 1 min 0,000 mm 1,5 UV-I 306 W/m² -1,3 °C -1,4 °C 30,6 km/h (5 Bft)
01.03.2017 10:01 3,3 °C 3,3 °C 72 % 1009,4 hPa 0,0 mm 19,9 km/h (4 Bft) W 281 ° 1 min 0,077 mm 1,4 UV-I 320 W/m² -1,3 °C -1,1 °C 29,0 km/h (5 Bft)
01.03.2017 10:02 3,4 °C 3,4 °C 72 % 1009,5 hPa 0,0 mm 19,3 km/h (3 Bft) W-SW 248 ° 1 min 0,000 mm 1,2 UV-I 229 W/m² -1,2 °C -0,9 °C 25,7 km/h (4 Bft)
01.03.2017 10:03 3,4 °C 3,4 °C 72 % 1009,6 hPa 0,0 mm 16,2 km/h (3 Bft) W-SW 254 ° 1 min 0,000 mm 1,2 UV-I 214 W/m² -1,2 °C -0,4 °C 22,5 km/h (4 Bft)
01.03.2017 10:04 3,5 °C 3,5 °C 73 % 1009,5 hPa 0,0 mm 24,2 km/h (4 Bft) W 274 ° 0 min 0,000 mm 1,3 UV-I 195 W/m² -0,9 °C -1,3 °C 41,8 km/h (6 Bft)
01.03.2017 10:05 3,5 °C 3,5 °C 71 % 1009,5 hPa 0,0 mm 25,7 km/h (4 Bft) W-NW 291 ° 1 min 0,000 mm 1,4 UV-I 204 W/m² -1,3 °C -1,5 °C 30,6 km/h (5 Bft)
01.03.2017 10:06 3,4 °C 3,5 °C 71 % 1009,6 hPa 0,0 mm 22,1 km/h (4 Bft) W-SW 238 ° 0 min 0,000 mm 1,4 UV-I 195 W/m² -1,3 °C -1,2 °C 40,2 km/h (6 Bft)
01.03.2017 10:07 3,4 °C 3,5 °C 70 % 1009,6 hPa 0,0 mm 23,0 km/h (4 Bft) W 260 ° 0 min 0,000 mm 1,4 UV-I 178 W/m² -1,5 °C -1,3 °C 35,4 km/h (5 Bft)
01.03.2017 10:08 3,4 °C 3,4 °C 71 % 1009,5 hPa 0,0 mm 26,8 km/h (4 Bft) W 269 ° 0 min 0,000 mm 1,5 UV-I 199 W/m² -1,3 °C -1,7 °C 45,1 km/h (6 Bft)
01.03.2017 10:09 3,3 °C 3,4 °C 70 % 1009,5 hPa 0,0 mm 17,9 km/h (3 Bft) SW 234 ° 1 min 0,000 mm 1,5 UV-I 209 W/m² -1,6 °C -0,8 °C 24,1 km/h (4 Bft)
01.03.2017 10:10 3,3 °C 3,3 °C 71 % 1009,7 hPa 0,0 mm 18,9 km/h (3 Bft) W-NW 286 ° 0 min 0,000 mm 1,4 UV-I 107 W/m² -1,4 °C -0,9 °C 29,0 km/h (5 Bft)
01.03.2017 10:11 3,3 °C 3,3 °C 71 % 1009,6 hPa 0,0 mm 16,8 km/h (3 Bft) W-SW 255 ° 0 min 0,000 mm 1,4 UV-I 114 W/m² -1,4 °C -0,6 °C 27,4 km/h (4 Bft)
01.03.2017 10:12 3,3 °C 3,3 °C 72 % 1009,7 hPa 0,0 mm 26,4 km/h (4 Bft) W-SW 250 ° 0 min 0,000 mm 1,5 UV-I 116 W/m² -1,3 °C -1,8 °C 38,6 km/h (5 Bft)
01.03.2017 10:13 3,3 °C 3,3 °C 70 % 1009,7 hPa 0,0 mm 17,4 km/h (3 Bft) W-SW 257 ° 0 min 0,000 mm 1,6 UV-I 171 W/m² -1,6 °C -0,7 °C 27,4 km/h (4 Bft)
01.03.2017 10:14 3,3 °C 3,3 °C 71 % 1009,6 hPa 0,0 mm 24,0 km/h (4 Bft) W-NW 286 ° 0 min 0,000 mm 1,7 UV-I 185 W/m² -1,4 °C -1,6 °C 37,0 km/h (5 Bft)
01.03.2017 10:15 3,3 °C 3,3 °C 72 % 1009,6 hPa 0,0 mm 21,0 km/h (4 Bft) W 263 ° 1 min 0,000 mm 1,7 UV-I 213 W/m² -1,3 °C -1,2 °C 32,2 km/h (5 Bft)
01.03.2017 10:16 3,4 °C 3,4 °C 72 % 1009,6 hPa 0,0 mm 18,9 km/h (3 Bft) W-SW 253 ° 0 min 0,000 mm 1,7 UV-I 171 W/m² -1,2 °C -0,8 °C 29,0 km/h (5 Bft)
01.03.2017 10:17 3,4 °C 3,4 °C 72 % 1009,4 hPa 0,0 mm 24,2 km/h (4 Bft) W 276 ° 0 min 0,000 mm 1,7 UV-I 171 W/m² -1,2 °C -1,5 °C 30,6 km/h (5 Bft)
01.03.2017 10:18 3,4 °C 3,4 °C 71 % 1009,4 hPa 0,0 mm 21,4 km/h (4 Bft) W-NW 290 ° 1 min 0,000 mm 1,8 UV-I 229 W/m² -1,3 °C -1,1 °C 35,4 km/h (5 Bft)
01.03.2017 10:19 3,5 °C 3,5 °C 70 % 1009,6 hPa 0,0 mm 25,5 km/h (4 Bft) W-SW 244 ° 1 min 0,000 mm 1,7 UV-I 229 W/m² -1,4 °C -1,5 °C 35,4 km/h (5 Bft)
01.03.2017 10:20 3,5 °C 3,5 °C 71 % 1009,5 hPa 0,0 mm 19,3 km/h (3 Bft) W-SW 252 ° 1 min 0,000 mm 2,0 UV-I 315 W/m² -1,3 °C -0,7 °C 25,7 km/h (4 Bft)
01.03.2017 10:21 3,5 °C 3,5 °C 71 % 1009,4 hPa 0,0 mm 18,7 km/h (3 Bft) W 276 ° 1 min 0,000 mm 2,0 UV-I 397 W/m² -1,3 °C -0,7 °C 29,0 km/h (5 Bft)
01.03.2017 10:22 3,5 °C 3,6 °C 71 % 1009,6 hPa 0,0 mm 22,0 km/h (4 Bft) W-SW 240 ° 1 min 0,000 mm 2,1 UV-I 388 W/m² -1,3 °C -1,1 °C 29,0 km/h (5 Bft)
01.03.2017 10:23 3,6 °C 3,6 °C 69 % 1009,4 hPa 0,0 mm 30,9 km/h (5 Bft) W 279 ° 1 min 0,000 mm 2,2 UV-I 431 W/m² -1,5 °C -1,9 °C 40,2 km/h (6 Bft)
01.03.2017 10:24 3,6 °C 3,6 °C 69 % 1009,4 hPa 0,0 mm 16,7 km/h (3 Bft) W 259 ° 1 min 0,000 mm 2,3 UV-I 487 W/m² -1,5 °C -0,2 °C 24,1 km/h (4 Bft)
01.03.2017 10:25 3,7 °C 3,7 °C 70 % 1009,4 hPa 0,0 mm 21,4 km/h (4 Bft) W-SW 254 ° 1 min 0,000 mm 2,3 UV-I 490 W/m² -1,3 °C -0,7 °C 30,6 km/h (5 Bft)
01.03.2017 10:26 3,7 °C 3,7 °C 70 % 1009,5 hPa 0,0 mm 14,4 km/h (3 Bft) W 268 ° 1 min 0,000 mm 2,4 UV-I 503 W/m² -1,3 °C 0,2 °C 20,9 km/h (4 Bft)
01.03.2017 10:27 3,7 °C 3,7 °C 70 % 1009,6 hPa 0,0 mm 18,4 km/h (3 Bft) S-SW 211 ° 1 min 0,000 mm 2,4 UV-I 501 W/m² -1,3 °C -0,4 °C 27,4 km/h (4 Bft)
01.03.2017 10:28 3,8 °C 3,8 °C 70 % 1009,6 hPa 0,0 mm 15,4 km/h (3 Bft) W 266 ° 1 min 0,000 mm 2,4 UV-I 508 W/m² -1,2 °C 0,2 °C 22,5 km/h (4 Bft)
01.03.2017 10:29 3,8 °C 3,8 °C 69 % 1009,8 hPa 0,0 mm 21,4 km/h (4 Bft) W 263 ° 1 min 0,000 mm 2,4 UV-I 501 W/m² -1,4 °C -0,6 °C 35,4 km/h (5 Bft)
01.03.2017 10:30 3,8 °C 3,8 °C 68 % 1009,5 hPa 0,0 mm 19,8 km/h (3 Bft) W-SW 243 ° 1 min 0,000 mm 2,4 UV-I 499 W/m² -1,6 °C -0,4 °C 35,4 km/h (5 Bft)
01.03.2017 10:31 3,9 °C 3,9 °C 68 % 1009,7 hPa 0,0 mm 19,6 km/h (3 Bft) W-SW 245 ° 1 min 0,000 mm 2,4 UV-I 512 W/m² -1,5 °C -0,3 °C 27,4 km/h (4 Bft)
01.03.2017 10:32 3,9 °C 3,9 °C 69 % 1009,5 hPa 0,0 mm 23,3 km/h (4 Bft) S-SW 198 ° 1 min 0,000 mm 2,4 UV-I 489 W/m² -1,3 °C -0,7 °C 30,6 km/h (5 Bft)
01.03.2017 10:33 3,9 °C 3,9 °C 67 % 1009,5 hPa 0,0 mm 22,5 km/h (4 Bft) W-SW 253 ° 1 min 0,000 mm 2,3 UV-I 452 W/m² -1,7 °C -0,6 °C 37,0 km/h (5 Bft)
01.03.2017 10:34 3,9 °C 3,9 °C 67 % 1009,6 hPa 0,0 mm 26,2 km/h (4 Bft) W 260 ° 1 min 0,000 mm 2,4 UV-I 438 W/m² -1,7 °C -1,0 °C 35,4 km/h (5 Bft)
01.03.2017 10:35 3,9 °C 3,9 °C 67 % 1009,5 hPa 0,0 mm 19,1 km/h (3 Bft) W-NW 292 ° 1 min 0,000 mm 2,3 UV-I 438 W/m² -1,7 °C -0,2 °C 33,8 km/h (5 Bft)
01.03.2017 10:36 4,0 °C 4,0 °C 67 % 1009,7 hPa 0,0 mm 22,9 km/h (4 Bft) W 272 ° 1 min 0,000 mm 2,0 UV-I 367 W/m² -1,6 °C -0,5 °C 35,4 km/h (5 Bft)
01.03.2017 10:37 4,0 °C 4,0 °C 68 % 1009,5 hPa 0,0 mm 26,9 km/h (4 Bft) W-SW 248 ° 1 min 0,000 mm 2,1 UV-I 311 W/m² -1,4 °C -1,0 °C 33,8 km/h (5 Bft)
01.03.2017 10:38 4,1 °C 4,1 °C 65 % 1009,7 hPa 0,0 mm 23,7 km/h (4 Bft) NW 306 ° 1 min 0,000 mm 1,9 UV-I 311 W/m² -1,9 °C -0,5 °C 33,8 km/h (5 Bft)
01.03.2017 10:39 4,1 °C 4,1 °C 66 % 1009,5 hPa 0,0 mm 19,2 km/h (3 Bft) W 265 ° 1 min 0,000 mm 1,8 UV-I 232 W/m² -1,7 °C 0,0 °C 25,7 km/h (4 Bft)
01.03.2017 10:40 4,1 °C 4,1 °C 66 % 1009,5 hPa 0,0 mm 15,8 km/h (3 Bft) W 272 ° 1 min 0,000 mm 1,8 UV-I 323 W/m² -1,7 °C 0,5 °C 22,5 km/h (4 Bft)
01.03.2017 10:41 4,1 °C 4,1 °C 66 % 1009,5 hPa 0,0 mm 22,0 km/h (4 Bft) W-SW 255 ° 1 min 0,000 mm 1,8 UV-I 229 W/m² -1,7 °C -0,3 °C 32,2 km/h (5 Bft)
01.03.2017 10:42 4,1 °C 4,1 °C 67 % 1009,5 hPa 0,0 mm 18,8 km/h (3 Bft) W-SW 254 ° 1 min 0,000 mm 1,9 UV-I 243 W/m² -1,5 °C 0,1 °C 24,1 km/h (4 Bft)
01.03.2017 10:43 4,1 °C 4,2 °C 65 % 1009,6 hPa 0,0 mm 23,0 km/h (4 Bft) W 262 ° 1 min 0,000 mm 2,1 UV-I 234 W/m² -1,9 °C -0,4 °C 35,4 km/h (5 Bft)
01.03.2017 10:44 4,2 °C 4,2 °C 66 % 1009,5 hPa 0,0 mm 11,5 km/h (2 Bft) W 280 ° 1 min 0,000 mm 2,4 UV-I 264 W/m² -1,6 °C 1,4 °C 22,5 km/h (4 Bft)
01.03.2017 10:45 4,2 °C 4,2 °C 65 % 1009,5 hPa 0,0 mm 11,5 km/h (2 Bft) W 259 ° 1 min 0,000 mm 2,2 UV-I 387 W/m² -1,8 °C 1,4 °C 19,3 km/h (3 Bft)
01.03.2017 10:46 4,3 °C 4,3 °C 66 % 1009,5 hPa 0,0 mm 21,4 km/h (4 Bft) W-SW 255 ° 1 min 0,000 mm 1,9 UV-I 366 W/m² -1,5 °C 0,0 °C 30,6 km/h (5 Bft)
01.03.2017 10:47 4,3 °C 4,3 °C 65 % 1009,5 hPa 0,0 mm 17,0 km/h (3 Bft) W-SW 241 ° 1 min 0,000 mm 2,6 UV-I 366 W/m² -1,7 °C 0,6 °C 25,7 km/h (4 Bft)
01.03.2017 10:48 4,3 °C 4,3 °C 67 % 1009,7 hPa 0,0 mm 15,1 km/h (3 Bft) S-SW 201 ° 1 min 0,000 mm 2,2 UV-I 366 W/m² -1,3 °C 0,9 °C 22,5 km/h (4 Bft)
01.03.2017 10:49 4,4 °C 4,4 °C 67 % 1009,6 hPa 0,0 mm 17,5 km/h (3 Bft) W 272 ° 1 min 0,000 mm 2,5 UV-I 371 W/m² -1,2 °C 0,6 °C 27,4 km/h (4 Bft)
01.03.2017 10:50 4,4 °C 4,4 °C 64 % 1009,5 hPa 0,0 mm 21,8 km/h (4 Bft) W 279 ° 1 min 0,000 mm 2,5 UV-I 422 W/m² -1,8 °C 0,1 °C 32,2 km/h (5 Bft)
01.03.2017 10:51 4,4 °C 4,4 °C 66 % 1009,5 hPa 0,0 mm 14,5 km/h (3 Bft) W-NW 290 ° 1 min 0,000 mm 2,5 UV-I 388 W/m² -1,4 °C 1,1 °C 20,9 km/h (4 Bft)
01.03.2017 10:52 4,5 °C 4,5 °C 66 % 1009,5 hPa 0,0 mm 16,4 km/h (3 Bft) W-NW 292 ° 0 min 0,000 mm 1,8 UV-I 156 W/m² -1,3 °C 0,9 °C 27,4 km/h (4 Bft)
01.03.2017 10:53 4,5 °C 4,5 °C 64 % 1009,5 hPa 0,0 mm 11,7 km/h (2 Bft) W-NW 303 ° 0 min 0,000 mm 2,1 UV-I 156 W/m² -1,7 °C 1,7 °C 25,7 km/h (4 Bft)
01.03.2017 10:54 4,6 °C 4,6 °C 66 % 1009,5 hPa 0,0 mm 13,3 km/h (3 Bft) W-NW 302 ° 1 min 0,000 mm 2,0 UV-I 243 W/m² -1,2 °C 1,5 °C 20,9 km/h (4 Bft)
01.03.2017 10:55 4,6 °C 4,6 °C 65 % 1009,5 hPa 0,0 mm 12,1 km/h (2 Bft) W-SW 252 ° 1 min 0,000 mm 2,3 UV-I 330 W/m² -1,4 °C 1,8 °C 17,7 km/h (3 Bft)
01.03.2017 10:56 4,7 °C 4,7 °C 67 % 1009,5 hPa 0,0 mm 10,3 km/h (2 Bft) W 277 ° 1 min 0,000 mm 2,1 UV-I 276 W/m² -0,9 °C 2,2 °C 12,9 km/h (3 Bft)
01.03.2017 10:57 4,7 °C 4,7 °C 65 % 1009,7 hPa 0,0 mm 24,5 km/h (4 Bft) W-NW 284 ° 1 min 0,000 mm 2,2 UV-I 262 W/m² -1,3 °C 0,2 °C 37,0 km/h (5 Bft)
01.03.2017 10:58 4,7 °C 4,7 °C 64 % 1009,6 hPa 0,0 mm 17,1 km/h (3 Bft) W-SW 252 ° 1 min 0,000 mm 2,8 UV-I 299 W/m² -1,5 °C 1,1 °C 27,4 km/h (4 Bft)
01.03.2017 10:59 4,7 °C 4,8 °C 63 % 1009,6 hPa 0,0 mm 19,5 km/h (3 Bft) W-SW 252 ° 1 min 0,000 mm 1,9 UV-I 260 W/m² -1,7 °C 0,8 °C 32,2 km/h (5 Bft)
01.03.2017 11:00 4,7 °C 4,7 °C 64 % 1009,7 hPa 0,0 mm 28,6 km/h (4 Bft) W-NW 285 ° 1 min 0,000 mm 1,9 UV-I 353 W/m² -1,5 °C -0,2 °C 40,2 km/h (6 Bft)
01.03.2017 11:01 4,6 °C 4,7 °C 65 % 1009,7 hPa 0,0 mm 21,0 km/h (4 Bft) W-SW 240 ° 1 min 0,177 mm 2,4 UV-I 429 W/m² -1,4 °C 0,4 °C 29,0 km/h (5 Bft)
01.03.2017 11:02 4,6 °C 4,6 °C 65 % 1009,7 hPa 0,0 mm 21,7 km/h (4 Bft) W-SW 258 ° 1 min 0,000 mm 1,9 UV-I 246 W/m² -1,4 °C 0,4 °C 32,2 km/h (5 Bft)
01.03.2017 11:03 4,4 °C 4,6 °C 64 % 1009,7 hPa 0,0 mm 25,7 km/h (4 Bft) W-SW 257 ° 1 min 0,000 mm 2,2 UV-I 246 W/m² -1,8 °C -0,3 °C 43,5 km/h (6 Bft)
01.03.2017 11:04 4,4 °C 4,4 °C 63 % 1009,5 hPa 0,0 mm 21,9 km/h (4 Bft) W 262 ° 1 min 0,000 mm 1,8 UV-I 246 W/m² -2,0 °C 0,1 °C 41,8 km/h (6 Bft)
01.03.2017 11:05 4,4 °C 4,4 °C 63 % 1009,8 hPa 0,0 mm 21,6 km/h (4 Bft) W 269 ° 1 min 0,000 mm 1,9 UV-I 206 W/m² -2,0 °C 0,1 °C 37,0 km/h (5 Bft)
01.03.2017 11:06 4,4 °C 4,4 °C 64 % 1009,8 hPa 0,0 mm 20,4 km/h (4 Bft) W-SW 248 ° 1 min 0,000 mm 2,2 UV-I 206 W/m² -1,8 °C 0,3 °C 27,4 km/h (4 Bft)
01.03.2017 11:07 4,4 °C 4,4 °C 65 % 1009,8 hPa 0,0 mm 21,0 km/h (4 Bft) W 266 ° 1 min 0,000 mm 3,0 UV-I 206 W/m² -1,6 °C 0,2 °C 30,6 km/h (5 Bft)
01.03.2017 11:08 4,4 °C 4,4 °C 65 % 1009,7 hPa 0,0 mm 18,1 km/h (3 Bft) SW 234 ° 1 min 0,000 mm 2,1 UV-I 566 W/m² -1,6 °C 0,6 °C 27,4 km/h (4 Bft)
01.03.2017 11:09 4,4 °C 4,4 °C 64 % 1009,7 hPa 0,0 mm 21,8 km/h (4 Bft) W-SW 250 ° 1 min 0,000 mm 2,6 UV-I 566 W/m² -1,8 °C 0,1 °C 32,2 km/h (5 Bft)
01.03.2017 11:10 4,4 °C 4,4 °C 65 % 1009,8 hPa 0,0 mm 20,4 km/h (4 Bft) W-SW 256 ° 1 min 0,000 mm 2,6 UV-I 302 W/m² -1,6 °C 0,3 °C 27,4 km/h (4 Bft)
01.03.2017 11:11 4,6 °C 4,6 °C 65 % 1009,8 hPa 0,0 mm 14,0 km/h (3 Bft) S-SW 206 ° 1 min 0,000 mm 3,1 UV-I 302 W/m² -1,4 °C 1,4 °C 16,1 km/h (3 Bft)
01.03.2017 11:12 4,7 °C 4,7 °C 65 % 1009,8 hPa 0,0 mm 21,5 km/h (4 Bft) W 269 ° 1 min 0,000 mm 2,0 UV-I 302 W/m² -1,3 °C 0,5 °C 29,0 km/h (5 Bft)
01.03.2017 11:13 4,7 °C 4,7 °C 65 % 1009,9 hPa 0,0 mm 16,3 km/h (3 Bft) W 265 ° 1 min 0,000 mm 1,7 UV-I 302 W/m² -1,3 °C 1,2 °C 33,8 km/h (5 Bft)
01.03.2017 11:14 4,7 °C 4,7 °C 63 % 1009,8 hPa 0,0 mm 25,6 km/h (4 Bft) W 277 ° 1 min 0,000 mm 1,8 UV-I 236 W/m² -1,7 °C 0,1 °C 40,2 km/h (6 Bft)
01.03.2017 11:15 4,6 °C 4,7 °C 63 % 1009,9 hPa 0,0 mm 23,5 km/h (4 Bft) W 266 ° 1 min 0,000 mm 2,4 UV-I 236 W/m² -1,8 °C 0,2 °C 40,2 km/h (6 Bft)
01.03.2017 11:16 4,6 °C 4,7 °C 63 % 1009,9 hPa 0,0 mm 23,4 km/h (4 Bft) W-NW 291 ° 1 min 0,000 mm 3,3 UV-I 236 W/m² -1,8 °C 0,2 °C 32,2 km/h (5 Bft)
01.03.2017 11:17 4,7 °C 4,7 °C 64 % 1009,8 hPa 0,0 mm 15,8 km/h (3 Bft) W-SW 244 ° 1 min 0,000 mm 2,8 UV-I 236 W/m² -1,5 °C 1,3 °C 20,9 km/h (4 Bft)
01.03.2017 11:18 4,8 °C 4,8 °C 63 % 1009,9 hPa 0,0 mm 20,8 km/h (4 Bft) W 275 ° 1 min 0,000 mm 3,4 UV-I 236 W/m² -1,6 °C 0,7 °C 32,2 km/h (5 Bft)
01.03.2017 11:19 4,8 °C 4,8 °C 63 % 1009,9 hPa 0,0 mm 24,5 km/h (4 Bft) W 280 ° 1 min 0,000 mm 2,0 UV-I 686 W/m² -1,6 °C 0,3 °C 40,2 km/h (6 Bft)
01.03.2017 11:20 4,9 °C 4,9 °C 63 % 1009,9 hPa 0,0 mm 15,4 km/h (3 Bft) W-NW 302 ° 1 min 0,000 mm 3,3 UV-I 729 W/m² -1,5 °C 1,6 °C 24,1 km/h (4 Bft)
01.03.2017 11:21 4,9 °C 4,9 °C 64 % 1009,9 hPa 0,0 mm 15,4 km/h (3 Bft) W-NW 302 ° 1 min 0,000 mm 3,2 UV-I 541 W/m² -1,3 °C 1,6 °C 20,9 km/h (4 Bft)
01.03.2017 11:22 5,0 °C 5,0 °C 62 % 1009,9 hPa 0,0 mm 21,0 km/h (4 Bft) W 271 ° 1 min 0,000 mm 3,1 UV-I 541 W/m² -1,7 °C 0,9 °C 27,4 km/h (4 Bft)
01.03.2017 11:23 5,1 °C 5,1 °C 65 % 1009,9 hPa 0,0 mm 19,2 km/h (3 Bft) W-NW 290 ° 1 min 0,000 mm 2,6 UV-I 541 W/m² -0,9 °C 1,3 °C 30,6 km/h (5 Bft)
01.03.2017 11:24 5,1 °C 5,1 °C 63 % 1009,9 hPa 0,0 mm 18,4 km/h (3 Bft) W-SW 248 ° 1 min 0,000 mm 3,1 UV-I 541 W/m² -1,4 °C 1,4 °C 33,8 km/h (5 Bft)
01.03.2017 11:25 5,1 °C 5,2 °C 62 % 1010,0 hPa 0,0 mm 28,4 km/h (4 Bft) W-NW 294 ° 1 min 0,000 mm 3,1 UV-I 638 W/m² -1,6 °C 0,3 °C 46,7 km/h (6 Bft)
01.03.2017 11:26 5,2 °C 5,2 °C 62 % 1009,8 hPa 0,0 mm 24,7 km/h (4 Bft) W-NW 283 ° 1 min 0,000 mm 3,1 UV-I 668 W/m² -1,5 °C 0,8 °C 37,0 km/h (5 Bft)
01.03.2017 11:27 5,2 °C 5,2 °C 63 % 1010,1 hPa 0,0 mm 24,7 km/h (4 Bft) W-NW 291 ° 1 min 0,000 mm 3,0 UV-I 703 W/m² -1,3 °C 0,8 °C 40,2 km/h (6 Bft)
01.03.2017 11:28 5,2 °C 5,2 °C 61 % 1009,9 hPa 0,0 mm 23,7 km/h (4 Bft) W 265 ° 1 min 0,000 mm 2,7 UV-I 707 W/m² -1,7 °C 0,9 °C 30,6 km/h (5 Bft)
01.03.2017 11:29 5,1 °C 5,2 °C 61 % 1010,2 hPa 0,0 mm 23,4 km/h (4 Bft) S-SW 197 ° 1 min 0,000 mm 2,1 UV-I 707 W/m² -1,8 °C 0,8 °C 35,4 km/h (5 Bft)
01.03.2017 11:30 5,0 °C 5,1 °C 61 % 1010,0 hPa 0,0 mm 13,8 km/h (3 Bft) W-SW 254 ° 0 min 0,000 mm 1,8 UV-I 158 W/m² -1,9 °C 1,9 °C 27,4 km/h (4 Bft)
01.03.2017 11:31 4,9 °C 5,0 °C 63 % 1010,0 hPa 0,0 mm 16,9 km/h (3 Bft) W 275 ° 0 min 0,000 mm 3,1 UV-I 158 W/m² -1,5 °C 1,3 °C 24,1 km/h (4 Bft)
01.03.2017 11:32 5,0 °C 5,0 °C 63 % 1010,1 hPa 0,0 mm 24,8 km/h (4 Bft) W 277 ° 0 min 0,000 mm 3,1 UV-I 158 W/m² -1,4 °C 0,5 °C 35,4 km/h (5 Bft)
01.03.2017 11:33 5,0 °C 5,0 °C 62 % 1010,1 hPa 0,0 mm 21,8 km/h (4 Bft) W-SW 249 ° 1 min 0,000 mm 3,1 UV-I 598 W/m² -1,7 °C 0,9 °C 32,2 km/h (5 Bft)
01.03.2017 11:34 5,1 °C 5,1 °C 63 % 1009,9 hPa 0,0 mm 17,4 km/h (3 Bft) W-NW 284 ° 1 min 0,000 mm 3,1 UV-I 606 W/m² -1,4 °C 1,5 °C 22,5 km/h (4 Bft)
01.03.2017 11:35 5,1 °C 5,1 °C 63 % 1010,0 hPa 0,0 mm 21,4 km/h (4 Bft) W 278 ° 1 min 0,000 mm 3,2 UV-I 633 W/m² -1,4 °C 1,0 °C 33,8 km/h (5 Bft)
01.03.2017 11:36 5,1 °C 5,1 °C 62 % 1009,9 hPa 0,0 mm 28,8 km/h (4 Bft) W-SW 257 ° 1 min 0,000 mm 3,2 UV-I 647 W/m² -1,6 °C 0,3 °C 45,1 km/h (6 Bft)
01.03.2017 11:37 5,1 °C 5,1 °C 63 % 1009,9 hPa 0,0 mm 27,0 km/h (4 Bft) W-SW 253 ° 1 min 0,000 mm 3,2 UV-I 635 W/m² -1,4 °C 0,5 °C 38,6 km/h (5 Bft)
01.03.2017 11:38 5,1 °C 5,1 °C 63 % 1010,0 hPa 0,0 mm 18,8 km/h (3 Bft) W-NW 282 ° 1 min 0,000 mm 3,0 UV-I 635 W/m² -1,4 °C 1,3 °C 27,4 km/h (4 Bft)
01.03.2017 11:39 5,0 °C 5,1 °C 63 % 1009,9 hPa 0,0 mm 22,9 km/h (4 Bft) W-SW 248 ° 1 min 0,000 mm 2,3 UV-I 352 W/m² -1,4 °C 0,7 °C 37,0 km/h (5 Bft)
01.03.2017 11:40 5,0 °C 5,0 °C 62 % 1009,9 hPa 0,0 mm 20,9 km/h (4 Bft) W-NW 285 ° 1 min 0,000 mm 2,2 UV-I 406 W/m² -1,7 °C 1,0 °C 29,0 km/h (5 Bft)
01.03.2017 11:41 4,9 °C 5,0 °C 63 % 1009,9 hPa 0,0 mm 16,4 km/h (3 Bft) W-SW 246 ° 1 min 0,000 mm 2,3 UV-I 406 W/m² -1,5 °C 1,4 °C 24,1 km/h (4 Bft)
01.03.2017 11:42 4,9 °C 4,9 °C 63 % 1010,0 hPa 0,0 mm 15,0 km/h (3 Bft) W-SW 257 ° 1 min 0,000 mm 2,2 UV-I 301 W/m² -1,5 °C 1,6 °C 24,1 km/h (4 Bft)
01.03.2017 11:43 4,8 °C 4,9 °C 63 % 1010,0 hPa 0,0 mm 19,4 km/h (3 Bft) W 275 ° 1 min 0,000 mm 2,3 UV-I 297 W/m² -1,6 °C 0,9 °C 30,6 km/h (5 Bft)
01.03.2017 11:44 4,8 °C 4,8 °C 65 % 1010,0 hPa 0,0 mm 15,1 km/h (3 Bft) W-SW 257 ° 1 min 0,000 mm 2,2 UV-I 297 W/m² -1,2 °C 1,5 °C 22,5 km/h (4 Bft)
01.03.2017 11:45 4,8 °C 4,8 °C 63 % 1010,1 hPa 0,0 mm 22,0 km/h (4 Bft) W-SW 253 ° 1 min 0,000 mm 2,5 UV-I 297 W/m² -1,6 °C 0,6 °C 32,2 km/h (5 Bft)
01.03.2017 11:46 4,8 °C 4,8 °C 63 % 1010,0 hPa 0,0 mm 24,7 km/h (4 Bft) W 270 ° 1 min 0,000 mm 2,3 UV-I 297 W/m² -1,6 °C 0,3 °C 43,5 km/h (6 Bft)
01.03.2017 11:47 4,8 °C 4,8 °C 62 % 1010,0 hPa 0,0 mm 23,9 km/h (4 Bft) SW 235 ° 1 min 0,000 mm 3,2 UV-I 297 W/m² -1,9 °C 0,4 °C 30,6 km/h (5 Bft)
01.03.2017 11:48 4,8 °C 4,8 °C 63 % 1010,0 hPa 0,0 mm 13,3 km/h (3 Bft) W-SW 252 ° 1 min 0,000 mm 2,8 UV-I 510 W/m² -1,6 °C 1,8 °C 25,7 km/h (4 Bft)
01.03.2017 11:49 4,8 °C 4,8 °C 63 % 1009,9 hPa 0,0 mm 13,1 km/h (3 Bft) W-SW 242 ° 1 min 0,000 mm 3,0 UV-I 605 W/m² -1,6 °C 1,8 °C 17,7 km/h (3 Bft)
01.03.2017 11:50 4,9 °C 4,9 °C 65 % 1010,0 hPa 0,0 mm 15,8 km/h (3 Bft) W-SW 244 ° 1 min 0,000 mm 2,7 UV-I 466 W/m² -1,1 °C 1,5 °C 25,7 km/h (4 Bft)
01.03.2017 11:51 5,1 °C 5,1 °C 64 % 1009,9 hPa 0,0 mm 25,4 km/h (4 Bft) W 265 ° 1 min 0,000 mm 3,0 UV-I 466 W/m² -1,1 °C 0,6 °C 30,6 km/h (5 Bft)
01.03.2017 11:52 5,1 °C 5,1 °C 63 % 1009,9 hPa 0,0 mm 17,5 km/h (3 Bft) W 274 ° 1 min 0,000 mm 3,0 UV-I 540 W/m² -1,4 °C 1,5 °C 25,7 km/h (4 Bft)
01.03.2017 11:53 5,2 °C 5,2 °C 63 % 1009,9 hPa 0,0 mm 16,0 km/h (3 Bft) W-SW 254 ° 1 min 0,000 mm 2,8 UV-I 540 W/m² -1,3 °C 1,8 °C 20,9 km/h (4 Bft)
01.03.2017 11:54 5,2 °C 5,2 °C 63 % 1009,9 hPa 0,0 mm 20,9 km/h (4 Bft) W 273 ° 1 min 0,000 mm 2,5 UV-I 406 W/m² -1,3 °C 1,2 °C 30,6 km/h (5 Bft)
01.03.2017 11:55 5,2 °C 5,2 °C 62 % 1010,1 hPa 0,0 mm 25,4 km/h (4 Bft) W 269 ° 1 min 0,000 mm 2,7 UV-I 362 W/m² -1,5 °C 0,7 °C 33,8 km/h (5 Bft)
01.03.2017 11:56 5,2 °C 5,2 °C 62 % 1009,9 hPa 0,0 mm 19,3 km/h (3 Bft) SW 214 ° 1 min 0,000 mm 2,5 UV-I 387 W/m² -1,5 °C 1,4 °C 35,4 km/h (5 Bft)
01.03.2017 11:57 5,2 °C 5,2 °C 60 % 1010,1 hPa 0,0 mm 18,6 km/h (3 Bft) W-SW 249 ° 1 min 0,000 mm 2,7 UV-I 387 W/m² -1,9 °C 1,5 °C 27,4 km/h (4 Bft)
01.03.2017 11:58 5,2 °C 5,2 °C 62 % 1010,0 hPa 0,0 mm 20,9 km/h (4 Bft) W-SW 242 ° 1 min 0,000 mm 2,4 UV-I 371 W/m² -1,5 °C 1,2 °C 30,6 km/h (5 Bft)
01.03.2017 11:59 5,2 °C 5,2 °C 62 % 1009,9 hPa 0,0 mm 20,0 km/h (4 Bft) NW 312 ° 1 min 0,000 mm 2,7 UV-I 388 W/m² -1,5 °C 1,3 °C 25,7 km/h (4 Bft)
01.03.2017 12:00 5,2 °C 5,2 °C 61 % 1009,9 hPa 0,0 mm 11,0 km/h (2 Bft) W 274 ° 1 min 0,000 mm 2,4 UV-I 420 W/m² -1,7 °C 2,7 °C 17,7 km/h (3 Bft)
01.03.2017 12:01 5,3 °C 5,3 °C 63 % 1009,9 hPa 0,0 mm 19,4 km/h (3 Bft) W 275 ° 1 min 0,254 mm 2,6 UV-I 378 W/m² -1,2 °C 1,5 °C 25,7 km/h (4 Bft)
01.03.2017 12:02 5,3 °C 5,3 °C 64 % 1009,9 hPa 0,0 mm 16,4 km/h (3 Bft) S 186 ° 1 min 0,000 mm 2,7 UV-I 432 W/m² -0,9 °C 1,9 °C 24,1 km/h (4 Bft)
01.03.2017 12:03 5,3 °C 5,3 °C 61 % 1009,9 hPa 0,0 mm 17,8 km/h (3 Bft) W-SW 242 ° 1 min 0,000 mm 2,6 UV-I 406 W/m² -1,6 °C 1,7 °C 33,8 km/h (5 Bft)
01.03.2017 12:04 5,3 °C 5,3 °C 60 % 1009,9 hPa 0,0 mm 22,9 km/h (4 Bft) W 266 ° 1 min 0,000 mm 2,5 UV-I 410 W/m² -1,8 °C 1,1 °C 41,8 km/h (6 Bft)
01.03.2017 12:05 5,3 °C 5,3 °C 60 % 1009,9 hPa 0,0 mm 28,6 km/h (4 Bft) W 264 ° 1 min 0,000 mm 2,3 UV-I 339 W/m² -1,8 °C 0,6 °C 38,6 km/h (5 Bft)
01.03.2017 12:06 5,3 °C 5,3 °C 61 % 1009,9 hPa 0,0 mm 20,6 km/h (4 Bft) W-NW 282 ° 1 min 0,000 mm 2,3 UV-I 302 W/m² -1,6 °C 1,4 °C 27,4 km/h (4 Bft)
01.03.2017 12:07 5,3 °C 5,3 °C 60 % 1009,9 hPa 0,0 mm 16,0 km/h (3 Bft) W 259 ° 1 min 0,000 mm 2,3 UV-I 315 W/m² -1,8 °C 2,0 °C 22,5 km/h (4 Bft)
01.03.2017 12:08 5,3 °C 5,3 °C 62 % 1010,0 hPa 0,0 mm 16,4 km/h (3 Bft) W-NW 288 ° 1 min 0,000 mm 2,3 UV-I 327 W/m² -1,4 °C 1,9 °C 25,7 km/h (4 Bft)
01.03.2017 12:09 5,3 °C 5,4 °C 62 % 1009,9 hPa 0,0 mm 16,9 km/h (3 Bft) W 260 ° 1 min 0,000 mm 2,6 UV-I 401 W/m² -1,4 °C 1,8 °C 24,1 km/h (4 Bft)
01.03.2017 12:10 5,4 °C 5,4 °C 62 % 1009,9 hPa 0,0 mm 15,1 km/h (3 Bft) SW 228 ° 1 min 0,000 mm 2,6 UV-I 378 W/m² -1,3 °C 2,2 °C 22,5 km/h (4 Bft)
01.03.2017 12:11 5,4 °C 5,4 °C 62 % 1009,9 hPa 0,0 mm 12,3 km/h (3 Bft) W 274 ° 1 min 0,000 mm 2,8 UV-I 441 W/m² -1,3 °C 2,7 °C 20,9 km/h (4 Bft)
01.03.2017 12:12 5,4 °C 5,5 °C 59 % 1009,9 hPa 0,0 mm 26,3 km/h (4 Bft) W-SW 248 ° 1 min 0,000 mm 2,7 UV-I 422 W/m² -2,0 °C 0,9 °C 38,6 km/h (5 Bft)
01.03.2017 12:13 5,4 °C 5,4 °C 57 % 1010,1 hPa 0,0 mm 19,0 km/h (3 Bft) W-SW 249 ° 1 min 0,000 mm 2,7 UV-I 457 W/m² -2,4 °C 1,7 °C 25,7 km/h (4 Bft)
01.03.2017 12:14 5,4 °C 5,4 °C 61 % 1009,9 hPa 0,0 mm 22,8 km/h (4 Bft) W-SW 243 ° 1 min 0,000 mm 2,8 UV-I 468 W/m² -1,5 °C 1,3 °C 37,0 km/h (5 Bft)
01.03.2017 12:15 5,4 °C 5,4 °C 58 % 1009,8 hPa 0,0 mm 19,6 km/h (3 Bft) W-NW 288 ° 1 min 0,000 mm 3,2 UV-I 526 W/m² -2,2 °C 1,6 °C 33,8 km/h (5 Bft)
01.03.2017 12:16 5,5 °C 5,5 °C 59 % 1010,0 hPa 0,0 mm 24,5 km/h (4 Bft) W-SW 245 ° 1 min 0,000 mm 3,1 UV-I 585 W/m² -1,9 °C 1,2 °C 32,2 km/h (5 Bft)
01.03.2017 12:17 5,5 °C 5,5 °C 58 % 1009,9 hPa 0,0 mm 22,9 km/h (4 Bft) W-NW 294 ° 1 min 0,000 mm 3,1 UV-I 592 W/m² -2,1 °C 1,4 °C 33,8 km/h (5 Bft)
01.03.2017 12:18 5,6 °C 5,6 °C 59 % 1009,9 hPa 0,0 mm 26,8 km/h (4 Bft) W 269 ° 1 min 0,000 mm 3,1 UV-I 592 W/m² -1,8 °C 1,1 °C 46,7 km/h (6 Bft)
01.03.2017 12:19 5,6 °C 5,6 °C 58 % 1009,9 hPa 0,0 mm 18,2 km/h (3 Bft) W 261 ° 1 min 0,000 mm 2,6 UV-I 438 W/m² -2,0 °C 2,0 °C 27,4 km/h (4 Bft)
01.03.2017 12:20 5,6 °C 5,6 °C 57 % 1009,8 hPa 0,0 mm 21,7 km/h (4 Bft) W-SW 250 ° 1 min 0,000 mm 3,1 UV-I 422 W/m² -2,2 °C 1,6 °C 30,6 km/h (5 Bft)
01.03.2017 12:21 5,6 °C 5,6 °C 59 % 1009,9 hPa 0,0 mm 18,1 km/h (3 Bft) W-SW 250 ° 1 min 0,000 mm 2,9 UV-I 429 W/m² -1,8 °C 2,1 °C 40,2 km/h (6 Bft)
01.03.2017 12:22 5,6 °C 5,6 °C 58 % 1010,0 hPa 0,0 mm 24,4 km/h (4 Bft) W-NW 288 ° 1 min 0,000 mm 3,0 UV-I 515 W/m² -2,0 °C 1,3 °C 37,0 km/h (5 Bft)
01.03.2017 12:23 5,6 °C 5,6 °C 57 % 1010,0 hPa 0,0 mm 21,1 km/h (4 Bft) W 269 ° 1 min 0,000 mm 3,0 UV-I 575 W/m² -2,2 °C 1,7 °C 33,8 km/h (5 Bft)
01.03.2017 12:24 5,5 °C 5,6 °C 58 % 1009,9 hPa 0,0 mm 28,1 km/h (4 Bft) W-SW 239 ° 1 min 0,000 mm 3,0 UV-I 591 W/m² -2,1 °C 0,9 °C 37,0 km/h (5 Bft)
01.03.2017 12:25 5,6 °C 5,6 °C 57 % 1009,8 hPa 0,0 mm 18,1 km/h (3 Bft) S-SW 213 ° 1 min 0,000 mm 3,1 UV-I 563 W/m² -2,2 °C 2,1 °C 24,1 km/h (4 Bft)
01.03.2017 12:26 5,6 °C 5,6 °C 60 % 1009,8 hPa 0,0 mm 28,8 km/h (4 Bft) W 264 ° 1 min 0,000 mm 3,1 UV-I 587 W/m² -1,5 °C 0,9 °C 43,5 km/h (6 Bft)
01.03.2017 12:27 5,6 °C 5,7 °C 59 % 1009,8 hPa 0,0 mm 20,9 km/h (4 Bft) W-SW 254 ° 1 min 0,000 mm 3,2 UV-I 596 W/m² -1,8 °C 1,7 °C 30,6 km/h (5 Bft)
01.03.2017 12:28 5,7 °C 5,7 °C 58 % 1009,8 hPa 0,0 mm 15,2 km/h (3 Bft) W 280 ° 1 min 0,000 mm 3,1 UV-I 564 W/m² -1,9 °C 2,6 °C 22,5 km/h (4 Bft)
01.03.2017 12:29 5,7 °C 5,7 °C 57 % 1009,9 hPa 0,0 mm 24,9 km/h (4 Bft) W-NW 300 ° 1 min 0,000 mm 3,1 UV-I 555 W/m² -2,1 °C 1,4 °C 40,2 km/h (6 Bft)
01.03.2017 12:30 5,7 °C 5,7 °C 57 % 1009,8 hPa 0,0 mm 20,0 km/h (4 Bft) SW 232 ° 1 min 0,000 mm 3,3 UV-I 622 W/m² -2,1 °C 2,0 °C 29,0 km/h (5 Bft)
01.03.2017 12:31 5,7 °C 5,7 °C 58 % 1009,9 hPa 0,0 mm 28,1 km/h (4 Bft) W-SW 244 ° 1 min 0,000 mm 3,3 UV-I 622 W/m² -1,9 °C 1,1 °C 38,6 km/h (5 Bft)
01.03.2017 12:32 5,8 °C 5,8 °C 59 % 1009,8 hPa 0,0 mm 23,5 km/h (4 Bft) W-NW 288 ° 1 min 0,000 mm 3,3 UV-I 622 W/m² -1,6 °C 1,7 °C 33,8 km/h (5 Bft)
01.03.2017 12:33 5,9 °C 5,9 °C 59 % 1009,9 hPa 0,0 mm 14,3 km/h (3 Bft) W-SW 237 ° 1 min 0,000 mm 3,4 UV-I 615 W/m² -1,5 °C 3,0 °C 20,9 km/h (4 Bft)
01.03.2017 12:34 5,9 °C 6,0 °C 58 % 1009,9 hPa 0,0 mm 14,2 km/h (3 Bft) W-SW 250 ° 1 min 0,000 mm 3,4 UV-I 631 W/m² -1,7 °C 3,0 °C 20,9 km/h (4 Bft)
01.03.2017 12:35 6,1 °C 6,1 °C 57 % 1009,9 hPa 0,0 mm 20,9 km/h (4 Bft) W-NW 284 ° 1 min 0,000 mm 3,4 UV-I 622 W/m² -1,8 °C 2,4 °C 33,8 km/h (5 Bft)
01.03.2017 12:36 6,1 °C 6,1 °C 58 % 1009,9 hPa 0,0 mm 20,7 km/h (4 Bft) W 271 ° 1 min 0,000 mm 3,2 UV-I 541 W/m² -1,5 °C 2,4 °C 29,0 km/h (5 Bft)
01.03.2017 12:37 6,1 °C 6,1 °C 59 % 1009,9 hPa 0,0 mm 16,6 km/h (3 Bft) W 268 ° 1 min 0,000 mm 3,1 UV-I 561 W/m² -1,3 °C 2,9 °C 30,6 km/h (5 Bft)
01.03.2017 12:38 6,1 °C 6,1 °C 59 % 1009,9 hPa 0,0 mm 24,2 km/h (4 Bft) W-SW 252 ° 1 min 0,000 mm 3,0 UV-I 522 W/m² -1,3 °C 2,0 °C 37,0 km/h (5 Bft)
01.03.2017 12:39 6,1 °C 6,1 °C 57 % 1009,8 hPa 0,0 mm 21,1 km/h (4 Bft) W-NW 300 ° 1 min 0,000 mm 3,1 UV-I 541 W/m² -1,8 °C 2,3 °C 32,2 km/h (5 Bft)
01.03.2017 12:40 6,1 °C 6,1 °C 59 % 1009,9 hPa 0,0 mm 16,4 km/h (3 Bft) W 265 ° 1 min 0,000 mm 3,0 UV-I 536 W/m² -1,3 °C 2,9 °C 25,7 km/h (4 Bft)
01.03.2017 12:41 6,0 °C 6,1 °C 57 % 1009,8 hPa 0,0 mm 26,8 km/h (4 Bft) NW 309 ° 1 min 0,000 mm 2,7 UV-I 441 W/m² -1,9 °C 1,6 °C 41,8 km/h (6 Bft)
01.03.2017 12:42 5,9 °C 6,0 °C 58 % 1009,7 hPa 0,0 mm 19,0 km/h (3 Bft) W 276 ° 1 min 0,000 mm 2,6 UV-I 387 W/m² -1,7 °C 2,3 °C 25,7 km/h (4 Bft)
01.03.2017 12:43 5,9 °C 5,9 °C 59 % 1009,8 hPa 0,0 mm 15,6 km/h (3 Bft) W 271 ° 1 min 0,000 mm 2,5 UV-I 388 W/m² -1,5 °C 2,8 °C 22,5 km/h (4 Bft)
01.03.2017 12:44 5,9 °C 5,9 °C 58 % 1009,8 hPa 0,0 mm 12,9 km/h (3 Bft) W-SW 257 ° 1 min 0,000 mm 2,6 UV-I 399 W/m² -1,7 °C 3,2 °C 20,9 km/h (4 Bft)
01.03.2017 12:45 5,8 °C 5,9 °C 56 % 1009,7 hPa 0,0 mm 24,2 km/h (4 Bft) SW 222 ° 1 min 0,000 mm 2,6 UV-I 413 W/m² -2,3 °C 1,6 °C 35,4 km/h (5 Bft)
01.03.2017 12:46 5,8 °C 5,8 °C 56 % 1009,8 hPa 0,0 mm 23,4 km/h (4 Bft) W-SW 248 ° 1 min 0,000 mm 2,6 UV-I 418 W/m² -2,3 °C 1,7 °C 32,2 km/h (5 Bft)
01.03.2017 12:47 5,7 °C 5,8 °C 58 % 1009,8 hPa 0,0 mm 13,8 km/h (3 Bft) SW 235 ° 1 min 0,000 mm 2,7 UV-I 429 W/m² -1,9 °C 2,8 °C 20,9 km/h (4 Bft)
01.03.2017 12:48 5,7 °C 5,7 °C 58 % 1009,8 hPa 0,0 mm 16,5 km/h (3 Bft) W-NW 283 ° 1 min 0,000 mm 2,6 UV-I 404 W/m² -1,9 °C 2,4 °C 24,1 km/h (4 Bft)
01.03.2017 12:49 5,7 °C 5,7 °C 56 % 1009,7 hPa 0,0 mm 24,1 km/h (4 Bft) W-NW 296 ° 1 min 0,000 mm 2,7 UV-I 429 W/m² -2,4 °C 1,5 °C 33,8 km/h (5 Bft)
01.03.2017 12:50 5,7 °C 5,7 °C 57 % 1009,9 hPa 0,0 mm 24,5 km/h (4 Bft) S-SW 193 ° 1 min 0,000 mm 2,6 UV-I 431 W/m² -2,1 °C 1,5 °C 35,4 km/h (5 Bft)
01.03.2017 12:51 5,6 °C 5,7 °C 57 % 1009,8 hPa 0,0 mm 17,5 km/h (3 Bft) W-SW 258 ° 1 min 0,000 mm 2,5 UV-I 355 W/m² -2,2 °C 2,1 °C 25,7 km/h (4 Bft)
01.03.2017 12:52 5,6 °C 5,6 °C 58 % 1009,8 hPa 0,0 mm 23,3 km/h (4 Bft) W-NW 296 ° 1 min 0,000 mm 3,2 UV-I 355 W/m² -2,0 °C 1,5 °C 32,2 km/h (5 Bft)
01.03.2017 12:53 5,7 °C 5,7 °C 55 % 1009,8 hPa 0,0 mm 20,9 km/h (4 Bft) NW 314 ° 1 min 0,000 mm 3,3 UV-I 612 W/m² -2,6 °C 1,8 °C 41,8 km/h (6 Bft)
01.03.2017 12:54 5,8 °C 5,8 °C 57 % 1009,8 hPa 0,0 mm 27,9 km/h (4 Bft) W 266 ° 1 min 0,000 mm 3,3 UV-I 617 W/m² -2,0 °C 1,3 °C 46,7 km/h (6 Bft)
01.03.2017 12:55 5,8 °C 5,8 °C 55 % 1009,8 hPa 0,0 mm 25,9 km/h (4 Bft) W-SW 242 ° 1 min 0,000 mm 3,1 UV-I 577 W/m² -2,5 °C 1,5 °C 38,6 km/h (5 Bft)
01.03.2017 12:56 5,8 °C 5,8 °C 55 % 1009,7 hPa 0,0 mm 18,9 km/h (3 Bft) W 276 ° 1 min 0,000 mm 3,2 UV-I 577 W/m² -2,5 °C 2,2 °C 25,7 km/h (4 Bft)
01.03.2017 12:57 5,9 °C 5,9 °C 57 % 1009,7 hPa 0,0 mm 20,1 km/h (4 Bft) W 273 ° 1 min 0,000 mm 3,1 UV-I 582 W/m² -2,0 °C 2,2 °C 30,6 km/h (5 Bft)
01.03.2017 12:58 5,9 °C 5,9 °C 56 % 1009,7 hPa 0,0 mm 22,1 km/h (4 Bft) W-NW 282 ° 1 min 0,000 mm 3,1 UV-I 568 W/m² -2,2 °C 2,0 °C 32,2 km/h (5 Bft)
01.03.2017 12:59 6,1 °C 6,1 °C 56 % 1009,7 hPa 0,0 mm 20,7 km/h (4 Bft) W-NW 286 ° 1 min 0,000 mm 3,2 UV-I 615 W/m² -2,0 °C 2,4 °C 29,0 km/h (5 Bft)
01.03.2017 13:00 6,2 °C 6,2 °C 55 % 1009,8 hPa 0,0 mm 16,6 km/h (3 Bft) W-SW 246 ° 1 min 0,280 mm 3,3 UV-I 557 W/m² -2,2 °C 3,0 °C 27,4 km/h (4 Bft)
01.03.2017 13:01 6,1 °C 6,2 °C 53 % 1009,7 hPa 0,0 mm 18,4 km/h (3 Bft) W 259 ° 1 min 0,000 mm 3,1 UV-I 584 W/m² -2,7 °C 2,6 °C 30,6 km/h (5 Bft)
01.03.2017 13:02 6,2 °C 6,2 °C 55 % 1009,9 hPa 0,0 mm 20,4 km/h (4 Bft) W 259 ° 1 min 0,000 mm 3,0 UV-I 545 W/m² -2,2 °C 2,5 °C 27,4 km/h (4 Bft)
01.03.2017 13:03 6,2 °C 6,2 °C 55 % 1009,9 hPa 0,0 mm 18,9 km/h (3 Bft) SW 225 ° 1 min 0,000 mm 3,1 UV-I 547 W/m² -2,2 °C 2,7 °C 24,1 km/h (4 Bft)
01.03.2017 13:04 6,3 °C 6,3 °C 53 % 1009,9 hPa 0,0 mm 22,3 km/h (4 Bft) W-SW 255 ° 1 min 0,000 mm 3,1 UV-I 575 W/m² -2,6 °C 2,5 °C 40,2 km/h (6 Bft)
01.03.2017 13:05 6,3 °C 6,3 °C 54 % 1010,0 hPa 0,0 mm 28,3 km/h (4 Bft) W 262 ° 1 min 0,000 mm 3,1 UV-I 552 W/m² -2,3 °C 1,9 °C 43,5 km/h (6 Bft)
01.03.2017 13:06 6,3 °C 6,3 °C 52 % 1010,0 hPa 0,0 mm 22,5 km/h (4 Bft) W-SW 258 ° 1 min 0,000 mm 3,0 UV-I 478 W/m² -2,8 °C 2,4 °C 35,4 km/h (5 Bft)
01.03.2017 13:07 6,3 °C 6,3 °C 51 % 1010,0 hPa 0,0 mm 23,1 km/h (4 Bft) W-SW 241 ° 1 min 0,000 mm 2,0 UV-I 478 W/m² -3,1 °C 2,4 °C 35,4 km/h (5 Bft)
01.03.2017 13:08 6,3 °C 6,3 °C 54 % 1010,0 hPa 0,0 mm 20,4 km/h (4 Bft) W 277 ° 1 min 0,000 mm 2,9 UV-I 478 W/m² -2,3 °C 2,7 °C 30,6 km/h (5 Bft)
01.03.2017 13:09 6,3 °C 6,3 °C 54 % 1009,9 hPa 0,0 mm 22,9 km/h (4 Bft) W-SW 238 ° 1 min 0,000 mm 2,7 UV-I 471 W/m² -2,3 °C 2,4 °C 45,1 km/h (6 Bft)
01.03.2017 13:10 6,2 °C 6,3 °C 53 % 1010,0 hPa 0,0 mm 25,4 km/h (4 Bft) W-NW 284 ° 1 min 0,000 mm 2,0 UV-I 471 W/m² -2,7 °C 2,0 °C 37,0 km/h (5 Bft)
01.03.2017 13:11 6,1 °C 6,2 °C 54 % 1010,1 hPa 0,0 mm 27,8 km/h (4 Bft) W 275 ° 1 min 0,000 mm 2,0 UV-I 225 W/m² -2,5 °C 1,7 °C 38,6 km/h (5 Bft)
01.03.2017 13:12 6,1 °C 6,1 °C 54 % 1010,0 hPa 0,0 mm 26,9 km/h (4 Bft) W 265 ° 1 min 0,000 mm 2,8 UV-I 225 W/m² -2,5 °C 1,8 °C 35,4 km/h (5 Bft)
01.03.2017 13:13 6,0 °C 6,1 °C 55 % 1010,1 hPa 0,0 mm 29,0 km/h (5 Bft) SW 236 ° 1 min 0,000 mm 2,4 UV-I 517 W/m² -2,3 °C 1,4 °C 45,1 km/h (6 Bft)
01.03.2017 13:14 6,0 °C 6,0 °C 55 % 1010,1 hPa 0,0 mm 34,3 km/h (5 Bft) W-SW 240 ° 1 min 0,000 mm 2,7 UV-I 480 W/m² -2,3 °C 1,0 °C 40,2 km/h (6 Bft)
01.03.2017 13:15 5,9 °C 6,0 °C 54 % 1010,0 hPa 0,0 mm 26,1 km/h (4 Bft) W 259 ° 1 min 0,000 mm 2,2 UV-I 432 W/m² -2,7 °C 1,6 °C 38,6 km/h (5 Bft)
01.03.2017 13:16 5,9 °C 5,9 °C 54 % 1010,0 hPa 0,0 mm 20,8 km/h (4 Bft) W-SW 248 ° 1 min 0,000 mm 2,4 UV-I 411 W/m² -2,7 °C 2,1 °C 32,2 km/h (5 Bft)
01.03.2017 13:17 5,9 °C 5,9 °C 56 % 1010,1 hPa 0,0 mm 18,8 km/h (3 Bft) W 265 ° 1 min 0,000 mm 2,1 UV-I 338 W/m² -2,2 °C 2,3 °C 29,0 km/h (5 Bft)
01.03.2017 13:18 5,9 °C 5,9 °C 56 % 1010,0 hPa 0,0 mm 23,3 km/h (4 Bft) W 267 ° 1 min 0,000 mm 2,1 UV-I 287 W/m² -2,2 °C 1,8 °C 35,4 km/h (5 Bft)
01.03.2017 13:19 5,8 °C 5,9 °C 55 % 1010,1 hPa 0,0 mm 23,3 km/h (4 Bft) W-SW 254 ° 1 min 0,000 mm 2,3 UV-I 332 W/m² -2,5 °C 1,7 °C 35,4 km/h (5 Bft)
01.03.2017 13:20 5,8 °C 5,8 °C 55 % 1010,1 hPa 0,0 mm 22,3 km/h (4 Bft) W 260 ° 1 min 0,000 mm 2,2 UV-I 265 W/m² -2,5 °C 1,8 °C 33,8 km/h (5 Bft)
01.03.2017 13:21 5,8 °C 5,8 °C 55 % 1010,2 hPa 0,0 mm 25,9 km/h (4 Bft) W-NW 298 ° 1 min 0,000 mm 2,0 UV-I 265 W/m² -2,5 °C 1,5 °C 33,8 km/h (5 Bft)
01.03.2017 13:22 5,8 °C 5,8 °C 56 % 1010,1 hPa 0,0 mm 16,5 km/h (3 Bft) W-SW 246 ° 1 min 0,000 mm 2,4 UV-I 265 W/m² -2,3 °C 2,5 °C 24,1 km/h (4 Bft)
01.03.2017 13:23 5,8 °C 5,8 °C 57 % 1010,2 hPa 0,0 mm 13,0 km/h (3 Bft) NW 307 ° 1 min 0,000 mm 2,1 UV-I 457 W/m² -2,0 °C 3,1 °C 19,3 km/h (3 Bft)
01.03.2017 13:24 5,8 °C 5,8 °C 57 % 1010,3 hPa 0,0 mm 25,3 km/h (4 Bft) W 269 ° 1 min 0,000 mm 2,4 UV-I 457 W/m² -2,0 °C 1,5 °C 33,8 km/h (5 Bft)
01.03.2017 13:25 5,8 °C 5,8 °C 56 % 1010,2 hPa 0,0 mm 24,7 km/h (4 Bft) W 277 ° 1 min 0,000 mm 1,9 UV-I 457 W/m² -2,3 °C 1,6 °C 40,2 km/h (6 Bft)
01.03.2017 13:26 5,7 °C 5,8 °C 56 % 1010,2 hPa 0,0 mm 20,7 km/h (4 Bft) W 278 ° 1 min 0,000 mm 1,9 UV-I 200 W/m² -2,4 °C 1,9 °C 27,4 km/h (4 Bft)
01.03.2017 13:27 5,7 °C 5,7 °C 56 % 1010,1 hPa 0,0 mm 19,4 km/h (3 Bft) W-SW 256 ° 1 min 0,000 mm 2,0 UV-I 229 W/m² -2,4 °C 2,0 °C 27,4 km/h (4 Bft)
01.03.2017 13:28 5,6 °C 5,7 °C 55 % 1010,1 hPa 0,0 mm 22,0 km/h (4 Bft) W-SW 253 ° 0 min 0,000 mm 1,8 UV-I 186 W/m² -2,7 °C 1,6 °C 32,2 km/h (5 Bft)
01.03.2017 13:29 5,6 °C 5,6 °C 56 % 1010,0 hPa 0,0 mm 24,3 km/h (4 Bft) W-NW 284 ° 1 min 0,000 mm 2,6 UV-I 225 W/m² -2,5 °C 1,4 °C 37,0 km/h (5 Bft)
01.03.2017 13:30 5,6 °C 5,6 °C 56 % 1010,1 hPa 0,0 mm 27,5 km/h (4 Bft) W 267 ° 1 min 0,000 mm 2,3 UV-I 225 W/m² -2,5 °C 1,1 °C 35,4 km/h (5 Bft)
01.03.2017 13:31 5,6 °C 5,6 °C 56 % 1010,2 hPa 0,0 mm 22,3 km/h (4 Bft) S-SW 198 ° 1 min 0,000 mm 1,9 UV-I 225 W/m² -2,5 °C 1,6 °C 33,8 km/h (5 Bft)
01.03.2017 13:32 5,6 °C 5,6 °C 55 % 1010,1 hPa 0,0 mm 25,1 km/h (4 Bft) W 271 ° 1 min 0,000 mm 2,5 UV-I 225 W/m² -2,7 °C 1,3 °C 40,2 km/h (6 Bft)
01.03.2017 13:33 5,5 °C 5,6 °C 57 % 1010,1 hPa 0,0 mm 16,8 km/h (3 Bft) SW 232 ° 1 min 0,000 mm 2,5 UV-I 418 W/m² -2,3 °C 2,1 °C 22,5 km/h (4 Bft)
01.03.2017 13:34 5,6 °C 5,6 °C 56 % 1010,1 hPa 0,0 mm 26,6 km/h (4 Bft) W 265 ° 1 min 0,000 mm 2,2 UV-I 329 W/m² -2,5 °C 1,1 °C 35,4 km/h (5 Bft)
01.03.2017 13:35 5,6 °C 5,6 °C 58 % 1010,0 hPa 0,0 mm 15,3 km/h (3 Bft) SW 217 ° 1 min 0,000 mm 1,9 UV-I 283 W/m² -2,0 °C 2,4 °C 22,5 km/h (4 Bft)
01.03.2017 13:36 5,6 °C 5,6 °C 57 % 1010,1 hPa 0,0 mm 24,3 km/h (4 Bft) W 261 ° 1 min 0,000 mm 1,9 UV-I 237 W/m² -2,2 °C 1,4 °C 32,2 km/h (5 Bft)
01.03.2017 13:37 5,6 °C 5,6 °C 57 % 1010,1 hPa 0,0 mm 13,5 km/h (3 Bft) W 267 ° 1 min 0,000 mm 1,8 UV-I 250 W/m² -2,2 °C 2,7 °C 19,3 km/h (3 Bft)
01.03.2017 13:38 5,6 °C 5,6 °C 58 % 1010,1 hPa 0,0 mm 18,7 km/h (3 Bft) W 266 ° 1 min 0,000 mm 1,9 UV-I 246 W/m² -2,0 °C 2,0 °C 30,6 km/h (5 Bft)
01.03.2017 13:39 5,6 °C 5,6 °C 59 % 1010,0 hPa 0,0 mm 16,6 km/h (3 Bft) SW 226 ° 1 min 0,000 mm 1,8 UV-I 239 W/m² -1,8 °C 2,3 °C 25,7 km/h (4 Bft)
01.03.2017 13:40 5,6 °C 5,6 °C 59 % 1010,1 hPa 0,0 mm 16,4 km/h (3 Bft) W 261 ° 1 min 0,000 mm 1,7 UV-I 214 W/m² -1,8 °C 2,3 °C 25,7 km/h (4 Bft)
01.03.2017 13:41 5,6 °C 5,6 °C 58 % 1010,1 hPa 0,0 mm 17,9 km/h (3 Bft) W 269 ° 1 min 0,000 mm 2,0 UV-I 267 W/m² -2,0 °C 2,1 °C 22,5 km/h (4 Bft)
01.03.2017 13:42 5,6 °C 5,6 °C 58 % 1010,0 hPa 0,0 mm 20,0 km/h (4 Bft) W-SW 256 ° 1 min 0,000 mm 1,8 UV-I 234 W/m² -2,0 °C 1,8 °C 29,0 km/h (5 Bft)
01.03.2017 13:43 5,6 °C 5,6 °C 57 % 1010,1 hPa 0,0 mm 23,3 km/h (4 Bft) W-SW 242 ° 1 min 0,000 mm 2,1 UV-I 234 W/m² -2,2 °C 1,5 °C 32,2 km/h (5 Bft)
01.03.2017 13:44 5,6 °C 5,6 °C 57 % 1010,0 hPa 0,0 mm 23,9 km/h (4 Bft) W-NW 288 ° 1 min 0,000 mm 2,2 UV-I 332 W/m² -2,2 °C 1,4 °C 33,8 km/h (5 Bft)
01.03.2017 13:45 5,6 °C 5,6 °C 57 % 1010,0 hPa 0,0 mm 22,0 km/h (4 Bft) W-SW 254 ° 1 min 0,000 mm 2,1 UV-I 318 W/m² -2,2 °C 1,6 °C 35,4 km/h (5 Bft)
01.03.2017 13:46 5,6 °C 5,6 °C 57 % 1009,8 hPa 0,0 mm 28,8 km/h (4 Bft) W 269 ° 1 min 0,000 mm 2,1 UV-I 325 W/m² -2,2 °C 0,9 °C 53,1 km/h (7 Bft)
01.03.2017 13:47 5,6 °C 5,6 °C 56 % 1010,0 hPa 0,0 mm 26,8 km/h (4 Bft) W-SW 250 ° 1 min 0,000 mm 2,1 UV-I 341 W/m² -2,5 °C 1,1 °C 40,2 km/h (6 Bft)
01.03.2017 13:48 5,6 °C 5,6 °C 57 % 1010,0 hPa 0,0 mm 26,0 km/h (4 Bft) W-SW 257 ° 1 min 0,000 mm 2,0 UV-I 323 W/m² -2,2 °C 1,2 °C 38,6 km/h (5 Bft)
01.03.2017 13:49 5,6 °C 5,6 °C 57 % 1010,0 hPa 0,0 mm 16,6 km/h (3 Bft) W 277 ° 1 min 0,000 mm 1,9 UV-I 225 W/m² -2,2 °C 2,3 °C 29,0 km/h (5 Bft)
01.03.2017 13:50 5,6 °C 5,6 °C 58 % 1010,0 hPa 0,0 mm 16,8 km/h (3 Bft) W-SW 246 ° 1 min 0,000 mm 1,8 UV-I 218 W/m² -2,0 °C 2,2 °C 22,5 km/h (4 Bft)
01.03.2017 13:51 5,6 °C 5,6 °C 58 % 1010,0 hPa 0,0 mm 21,0 km/h (4 Bft) W 261 ° 1 min 0,000 mm 2,1 UV-I 285 W/m² -2,0 °C 1,7 °C 29,0 km/h (5 Bft)
01.03.2017 13:52 5,6 °C 5,6 °C 57 % 1010,0 hPa 0,0 mm 16,2 km/h (3 Bft) W-NW 296 ° 1 min 0,000 mm 2,0 UV-I 359 W/m² -2,2 °C 2,3 °C 24,1 km/h (4 Bft)
01.03.2017 13:53 5,6 °C 5,6 °C 57 % 1010,0 hPa 0,0 mm 14,4 km/h (3 Bft) W-SW 251 ° 1 min 0,000 mm 2,1 UV-I 241 W/m² -2,2 °C 2,6 °C 19,3 km/h (3 Bft)
01.03.2017 13:54 5,6 °C 5,6 °C 58 % 1010,0 hPa 0,0 mm 14,6 km/h (3 Bft) W-SW 242 ° 1 min 0,000 mm 2,1 UV-I 334 W/m² -2,0 °C 2,5 °C 20,9 km/h (4 Bft)
01.03.2017 13:55 5,6 °C 5,6 °C 56 % 1010,0 hPa 0,0 mm 14,1 km/h (3 Bft) W-SW 252 ° 1 min 0,000 mm 1,8 UV-I 334 W/m² -2,5 °C 2,6 °C 24,1 km/h (4 Bft)
01.03.2017 13:56 5,6 °C 5,7 °C 56 % 1009,9 hPa 0,0 mm 18,1 km/h (3 Bft) W 263 ° 1 min 0,000 mm 1,8 UV-I 227 W/m² -2,5 °C 2,1 °C 25,7 km/h (4 Bft)
01.03.2017 13:57 5,7 °C 5,7 °C 58 % 1009,9 hPa 0,0 mm 21,3 km/h (4 Bft) W 281 ° 1 min 0,000 mm 1,8 UV-I 227 W/m² -1,9 °C 1,8 °C 30,6 km/h (5 Bft)
01.03.2017 13:58 5,7 °C 5,7 °C 57 % 1010,0 hPa 0,0 mm 15,4 km/h (3 Bft) W 270 ° 1 min 0,000 mm 1,7 UV-I 209 W/m² -2,1 °C 2,6 °C 20,9 km/h (4 Bft)
01.03.2017 13:59 5,7 °C 5,7 °C 58 % 1010,0 hPa 0,0 mm 14,5 km/h (3 Bft) W 276 ° 1 min 0,000 mm 1,6 UV-I 207 W/m² -1,9 °C 2,7 °C 19,3 km/h (3 Bft)
01.03.2017 14:00 5,7 °C 5,7 °C 57 % 1010,0 hPa 0,0 mm 10,2 km/h (2 Bft) W-SW 248 ° 1 min 0,000 mm 1,8 UV-I 271 W/m² -2,1 °C 3,5 °C 16,1 km/h (3 Bft)
01.03.2017 14:01 5,7 °C 5,7 °C 58 % 1010,1 hPa 0,0 mm 9,2 km/h (2 Bft) W 267 ° 1 min 0,228 mm 1,6 UV-I 216 W/m² -1,9 °C 3,7 °C 16,1 km/h (3 Bft)
01.03.2017 14:02 5,8 °C 5,8 °C 58 % 1010,0 hPa 0,0 mm 12,1 km/h (2 Bft) W 272 ° 1 min 0,000 mm 1,6 UV-I 214 W/m² -1,8 °C 3,2 °C 20,9 km/h (4 Bft)
01.03.2017 14:03 5,8 °C 5,8 °C 57 % 1010,0 hPa 0,0 mm 13,2 km/h (3 Bft) SW 230 ° 1 min 0,000 mm 1,6 UV-I 234 W/m² -2,0 °C 3,0 °C 19,3 km/h (3 Bft)
01.03.2017 14:04 5,8 °C 5,8 °C 57 % 1010,0 hPa 0,0 mm 15,3 km/h (3 Bft) W 261 ° 1 min 0,000 mm 1,6 UV-I 211 W/m² -2,0 °C 2,7 °C 22,5 km/h (4 Bft)
01.03.2017 14:05 5,8 °C 5,8 °C 56 % 1010,0 hPa 0,0 mm 15,0 km/h (3 Bft) W-SW 250 ° 0 min 0,000 mm 1,4 UV-I 195 W/m² -2,3 °C 2,7 °C 25,7 km/h (4 Bft)
01.03.2017 14:06 5,8 °C 5,8 °C 56 % 1009,9 hPa 0,0 mm 15,0 km/h (3 Bft) W 264 ° 0 min 0,000 mm 1,3 UV-I 192 W/m² -2,3 °C 2,7 °C 20,9 km/h (4 Bft)
01.03.2017 14:07 5,8 °C 5,8 °C 58 % 1010,0 hPa 0,0 mm 11,3 km/h (2 Bft) W-NW 289 ° 0 min 0,000 mm 1,4 UV-I 195 W/m² -1,8 °C 3,4 °C 14,5 km/h (3 Bft)
01.03.2017 14:08 5,8 °C 5,8 °C 58 % 1009,9 hPa 0,0 mm 14,1 km/h (3 Bft) W-SW 246 ° 1 min 0,000 mm 1,4 UV-I 220 W/m² -1,8 °C 2,9 °C 19,3 km/h (3 Bft)
01.03.2017 14:09 5,8 °C 5,8 °C 57 % 1009,9 hPa 0,0 mm 12,5 km/h (3 Bft) W 261 ° 1 min 0,000 mm 1,5 UV-I 209 W/m² -2,0 °C 3,1 °C 17,7 km/h (3 Bft)
01.03.2017 14:10 5,8 °C 5,8 °C 58 % 1009,9 hPa 0,0 mm 22,5 km/h (4 Bft) W 259 ° 1 min 0,000 mm 1,6 UV-I 216 W/m² -1,8 °C 1,8 °C 25,7 km/h (4 Bft)
01.03.2017 14:11 5,8 °C 5,9 °C 55 % 1010,0 hPa 0,0 mm 13,0 km/h (3 Bft) SW 232 ° 1 min 0,000 mm 1,5 UV-I 213 W/m² -2,5 °C 3,1 °C 17,7 km/h (3 Bft)
01.03.2017 14:12 5,8 °C 5,8 °C 55 % 1009,9 hPa 0,0 mm 11,5 km/h (2 Bft) W-SW 244 ° 1 min 0,000 mm 1,5 UV-I 209 W/m² -2,5 °C 3,3 °C 19,3 km/h (3 Bft)
01.03.2017 14:13 5,9 °C 5,9 °C 55 % 1009,9 hPa 0,0 mm 16,0 km/h (3 Bft) W-SW 254 ° 1 min 0,000 mm 1,4 UV-I 202 W/m² -2,4 °C 2,7 °C 20,9 km/h (4 Bft)
01.03.2017 14:14 5,9 °C 5,9 °C 56 % 1010,0 hPa 0,0 mm 15,1 km/h (3 Bft) NW 309 ° 0 min 0,000 mm 1,3 UV-I 190 W/m² -2,2 °C 2,8 °C 20,9 km/h (4 Bft)
01.03.2017 14:15 5,9 °C 5,9 °C 56 % 1010,0 hPa 0,0 mm 15,4 km/h (3 Bft) W 271 ° 0 min 0,000 mm 1,3 UV-I 181 W/m² -2,2 °C 2,8 °C 24,1 km/h (4 Bft)
01.03.2017 14:16 5,8 °C 5,9 °C 55 % 1010,0 hPa 0,0 mm 23,3 km/h (4 Bft) W 263 ° 0 min 0,000 mm 1,3 UV-I 165 W/m² -2,5 °C 1,7 °C 30,6 km/h (5 Bft)
01.03.2017 14:17 5,8 °C 5,9 °C 54 % 1009,9 hPa 0,0 mm 23,3 km/h (4 Bft) W-SW 242 ° 0 min 0,000 mm 1,3 UV-I 172 W/m² -2,8 °C 1,7 °C 29,0 km/h (5 Bft)
01.03.2017 14:18 5,8 °C 5,8 °C 54 % 1010,0 hPa 0,0 mm 15,4 km/h (3 Bft) W-SW 244 ° 0 min 0,000 mm 1,3 UV-I 176 W/m² -2,8 °C 2,7 °C 24,1 km/h (4 Bft)
01.03.2017 14:19 5,8 °C 5,8 °C 54 % 1010,1 hPa 0,0 mm 21,4 km/h (4 Bft) W-SW 249 ° 0 min 0,000 mm 1,3 UV-I 179 W/m² -2,8 °C 1,9 °C 33,8 km/h (5 Bft)
01.03.2017 14:20 5,8 °C 5,8 °C 53 % 1010,1 hPa 0,0 mm 22,7 km/h (4 Bft) SW 234 ° 0 min 0,000 mm 1,3 UV-I 186 W/m² -3,0 °C 1,8 °C 33,8 km/h (5 Bft)
01.03.2017 14:21 5,8 °C 5,8 °C 53 % 1010,0 hPa 0,0 mm 19,6 km/h (3 Bft) SW 227 ° 0 min 0,000 mm 1,3 UV-I 176 W/m² -3,0 °C 2,1 °C 27,4 km/h (4 Bft)
01.03.2017 14:22 5,8 °C 5,8 °C 54 % 1010,1 hPa 0,0 mm 17,3 km/h (3 Bft) W-SW 254 ° 0 min 0,000 mm 1,3 UV-I 169 W/m² -2,8 °C 2,4 °C 27,4 km/h (4 Bft)
01.03.2017 14:23 5,8 °C 5,8 °C 54 % 1010,0 hPa 0,0 mm 21,2 km/h (4 Bft) W 265 ° 0 min 0,000 mm 1,3 UV-I 163 W/m² -2,8 °C 1,9 °C 27,4 km/h (4 Bft)
01.03.2017 14:24 5,8 °C 5,8 °C 54 % 1010,0 hPa 0,0 mm 20,0 km/h (4 Bft) W 271 ° 0 min 0,000 mm 1,3 UV-I 163 W/m² -2,8 °C 2,1 °C 25,7 km/h (4 Bft)
01.03.2017 14:25 5,8 °C 5,8 °C 54 % 1010,0 hPa 0,0 mm 16,2 km/h (3 Bft) W-SW 258 ° 0 min 0,000 mm 1,3 UV-I 167 W/m² -2,8 °C 2,6 °C 25,7 km/h (4 Bft)
01.03.2017 14:26 5,8 °C 5,8 °C 56 % 1010,0 hPa 0,0 mm 17,9 km/h (3 Bft) W 261 ° 0 min 0,000 mm 1,3 UV-I 171 W/m² -2,3 °C 2,3 °C 25,7 km/h (4 Bft)
01.03.2017 14:27 5,8 °C 5,8 °C 54 % 1010,1 hPa 0,0 mm 13,1 km/h (3 Bft) W-NW 301 ° 0 min 0,000 mm 1,3 UV-I 163 W/m² -2,8 °C 3,0 °C 27,4 km/h (4 Bft)
01.03.2017 14:28 5,8 °C 5,8 °C 53 % 1010,1 hPa 0,0 mm 9,6 km/h (2 Bft) W-SW 257 ° 0 min 0,000 mm 1,2 UV-I 158 W/m² -3,0 °C 3,7 °C 16,1 km/h (3 Bft)
01.03.2017 14:29 5,8 °C 5,8 °C 55 % 1010,0 hPa 0,0 mm 10,9 km/h (2 Bft) W-NW 287 ° 0 min 0,000 mm 1,2 UV-I 155 W/m² -2,5 °C 3,4 °C 16,1 km/h (3 Bft)
01.03.2017 14:30 5,9 °C 5,9 °C 56 % 1010,0 hPa 0,0 mm 9,2 km/h (2 Bft) W-NW 295 ° 0 min 0,000 mm 1,1 UV-I 151 W/m² -2,2 °C 3,9 °C 14,5 km/h (3 Bft)
01.03.2017 14:31 5,9 °C 5,9 °C 56 % 1010,0 hPa 0,0 mm 9,3 km/h (2 Bft) SW 225 ° 0 min 0,000 mm 1,1 UV-I 155 W/m² -2,2 °C 3,9 °C 12,9 km/h (3 Bft)
01.03.2017 14:32 5,9 °C 5,9 °C 56 % 1010,1 hPa 0,0 mm 16,9 km/h (3 Bft) W-NW 284 ° 0 min 0,000 mm 1,1 UV-I 156 W/m² -2,2 °C 2,6 °C 22,5 km/h (4 Bft)
01.03.2017 14:33 5,9 °C 5,9 °C 53 % 1010,0 hPa 0,0 mm 15,6 km/h (3 Bft) W 265 ° 0 min 0,000 mm 1,1 UV-I 155 W/m² -2,9 °C 2,8 °C 24,1 km/h (4 Bft)
01.03.2017 14:34 5,9 °C 5,9 °C 55 % 1010,1 hPa 0,0 mm 11,1 km/h (2 Bft) W-SW 256 ° 0 min 0,000 mm 1,1 UV-I 153 W/m² -2,4 °C 3,5 °C 16,1 km/h (3 Bft)
01.03.2017 14:35 5,9 °C 5,9 °C 56 % 1010,1 hPa 0,0 mm 8,2 km/h (2 Bft) W-SW 246 ° 0 min 0,000 mm 1,1 UV-I 149 W/m² -2,2 °C 4,1 °C 12,9 km/h (3 Bft)
01.03.2017 14:36 6,0 °C 6,0 °C 54 % 1010,1 hPa 0,0 mm 13,2 km/h (3 Bft) W-SW 245 ° 0 min 0,000 mm 1,1 UV-I 149 W/m² -2,6 °C 3,3 °C 17,7 km/h (3 Bft)
01.03.2017 14:37 5,9 °C 6,0 °C 54 % 1010,0 hPa 0,0 mm 11,3 km/h (2 Bft) W-SW 255 ° 0 min 0,000 mm 1,0 UV-I 148 W/m² -2,7 °C 3,5 °C 14,5 km/h (3 Bft)
01.03.2017 14:38 6,0 °C 6,0 °C 54 % 1010,0 hPa 0,0 mm 8,0 km/h (2 Bft) S-SW 207 ° 0 min 0,000 mm 1,0 UV-I 141 W/m² -2,6 °C 4,3 °C 12,9 km/h (3 Bft)
01.03.2017 14:39 6,0 °C 6,0 °C 54 % 1010,1 hPa 0,0 mm 11,8 km/h (2 Bft) W-SW 255 ° 0 min 0,000 mm 1,0 UV-I 144 W/m² -2,6 °C 3,5 °C 19,3 km/h (3 Bft)
01.03.2017 14:40 6,0 °C 6,0 °C 52 % 1010,0 hPa 0,0 mm 9,9 km/h (2 Bft) W 272 ° 0 min 0,000 mm 1,0 UV-I 148 W/m² -3,1 °C 3,9 °C 14,5 km/h (3 Bft)
01.03.2017 14:41 6,0 °C 6,0 °C 54 % 1010,1 hPa 0,0 mm 13,5 km/h (3 Bft) SW 224 ° 0 min 0,000 mm 1,0 UV-I 146 W/m² -2,6 °C 3,2 °C 20,9 km/h (4 Bft)
01.03.2017 14:42 6,0 °C 6,1 °C 52 % 1010,1 hPa 0,0 mm 16,5 km/h (3 Bft) W-SW 252 ° 0 min 0,000 mm 1,0 UV-I 141 W/m² -3,1 °C 2,8 °C 22,5 km/h (4 Bft)
01.03.2017 14:43 6,1 °C 6,1 °C 53 % 1010,0 hPa 0,0 mm 14,8 km/h (3 Bft) W 260 ° 0 min 0,000 mm 1,0 UV-I 139 W/m² -2,7 °C 3,1 °C 24,1 km/h (4 Bft)
01.03.2017 14:44 6,1 °C 6,1 °C 54 % 1010,1 hPa 0,0 mm 13,4 km/h (3 Bft) W 261 ° 0 min 0,000 mm 1,0 UV-I 139 W/m² -2,5 °C 3,4 °C 19,3 km/h (3 Bft)
01.03.2017 14:45 6,1 °C 6,1 °C 52 % 1010,1 hPa 0,0 mm 13,1 km/h (3 Bft) W-SW 248 ° 0 min 0,000 mm 1,0 UV-I 148 W/m² -3,0 °C 3,4 °C 22,5 km/h (4 Bft)
01.03.2017 14:46 6,1 °C 6,1 °C 54 % 1010,1 hPa 0,0 mm 10,0 km/h (2 Bft) S-SW 198 ° 0 min 0,000 mm 1,0 UV-I 153 W/m² -2,5 °C 4,0 °C 14,5 km/h (3 Bft)
01.03.2017 14:47 6,0 °C 6,1 °C 54 % 1010,1 hPa 0,0 mm 7,7 km/h (2 Bft) W-SW 255 ° 0 min 0,000 mm 1,0 UV-I 153 W/m² -2,6 °C 4,4 °C 11,3 km/h (2 Bft)
01.03.2017 14:48 6,1 °C 6,1 °C 54 % 1010,1 hPa 0,0 mm 14,8 km/h (3 Bft) W-SW 250 ° 0 min 0,000 mm 1,0 UV-I 149 W/m² -2,5 °C 3,1 °C 22,5 km/h (4 Bft)
01.03.2017 14:49 6,1 °C 6,1 °C 52 % 1010,1 hPa 0,0 mm 23,3 km/h (4 Bft) W 270 ° 0 min 0,000 mm 1,0 UV-I 144 W/m² -3,0 °C 2,1 °C 29,0 km/h (5 Bft)
01.03.2017 14:50 6,1 °C 6,1 °C 54 % 1010,0 hPa 0,0 mm 15,9 km/h (3 Bft) W 265 ° 0 min 0,000 mm 1,0 UV-I 144 W/m² -2,5 °C 3,0 °C 20,9 km/h (4 Bft)
01.03.2017 14:51 6,1 °C 6,1 °C 53 % 1010,0 hPa 0,0 mm 18,3 km/h (3 Bft) W-SW 250 ° 0 min 0,000 mm 1,0 UV-I 146 W/m² -2,7 °C 2,7 °C 25,7 km/h (4 Bft)
01.03.2017 14:52 6,1 °C 6,1 °C 53 % 1010,1 hPa 0,0 mm 13,3 km/h (3 Bft) W-NW 302 ° 0 min 0,000 mm 1,0 UV-I 146 W/m² -2,7 °C 3,4 °C 20,9 km/h (4 Bft)
01.03.2017 14:53 6,1 °C 6,1 °C 54 % 1010,1 hPa 0,0 mm 17,1 km/h (3 Bft) W-SW 238 ° 0 min 0,000 mm 1,1 UV-I 155 W/m² -2,5 °C 2,8 °C 25,7 km/h (4 Bft)
01.03.2017 14:54 6,1 °C 6,1 °C 53 % 1010,1 hPa 0,0 mm 21,9 km/h (4 Bft) SW 233 ° 0 min 0,000 mm 1,1 UV-I 171 W/m² -2,7 °C 2,2 °C 30,6 km/h (5 Bft)
01.03.2017 14:55 6,1 °C 6,1 °C 53 % 1010,1 hPa 0,0 mm 19,6 km/h (3 Bft) W 271 ° 0 min 0,000 mm 1,2 UV-I 185 W/m² -2,7 °C 2,5 °C 33,8 km/h (5 Bft)
01.03.2017 14:56 6,1 °C 6,1 °C 52 % 1010,0 hPa 0,0 mm 16,7 km/h (3 Bft) SW 221 ° 0 min 0,000 mm 1,2 UV-I 185 W/m² -3,0 °C 2,9 °C 24,1 km/h (4 Bft)
01.03.2017 14:57 6,1 °C 6,2 °C 52 % 1009,9 hPa 0,0 mm 12,5 km/h (3 Bft) W-SW 238 ° 1 min 0,000 mm 1,3 UV-I 218 W/m² -3,0 °C 3,5 °C 17,7 km/h (3 Bft)
01.03.2017 14:58 6,2 °C 6,2 °C 54 % 1010,0 hPa 0,0 mm 11,9 km/h (2 Bft) W-SW 238 ° 1 min 0,000 mm 1,3 UV-I 204 W/m² -2,4 °C 3,7 °C 22,5 km/h (4 Bft)
01.03.2017 14:59 6,2 °C 6,2 °C 54 % 1009,9 hPa 0,0 mm 15,8 km/h (3 Bft) W 265 ° 1 min 0,000 mm 1,3 UV-I 206 W/m² -2,4 °C 3,1 °C 19,3 km/h (3 Bft)
01.03.2017 15:00 6,3 °C 6,3 °C 53 % 1010,0 hPa 0,0 mm 12,4 km/h (3 Bft) S-SW 198 ° 0 min 0,000 mm 1,3 UV-I 197 W/m² -2,6 °C 3,8 °C 19,3 km/h (3 Bft)
01.03.2017 15:01 6,3 °C 6,3 °C 52 % 1010,0 hPa 0,0 mm 16,0 km/h (3 Bft) W-NW 292 ° 1 min 0,127 mm 1,3 UV-I 218 W/m² -2,8 °C 3,2 °C 19,3 km/h (3 Bft)
01.03.2017 15:02 6,3 °C 6,3 °C 54 % 1010,0 hPa 0,0 mm 13,9 km/h (3 Bft) W 281 ° 1 min 0,000 mm 1,4 UV-I 220 W/m² -2,3 °C 3,5 °C 19,3 km/h (3 Bft)
01.03.2017 15:03 6,4 °C 6,4 °C 55 % 1010,0 hPa 0,0 mm 14,6 km/h (3 Bft) W 270 ° 1 min 0,000 mm 1,4 UV-I 209 W/m² -2,0 °C 3,5 °C 22,5 km/h (4 Bft)
01.03.2017 15:04 6,4 °C 6,4 °C 55 % 1010,0 hPa 0,0 mm 15,4 km/h (3 Bft) W 274 ° 0 min 0,000 mm 1,3 UV-I 195 W/m² -2,0 °C 3,4 °C 24,1 km/h (4 Bft)
01.03.2017 15:05 6,4 °C 6,4 °C 53 % 1009,9 hPa 0,0 mm 15,5 km/h (3 Bft) W-SW 250 ° 0 min 0,000 mm 1,3 UV-I 186 W/m² -2,5 °C 3,4 °C 20,9 km/h (4 Bft)
01.03.2017 15:06 6,4 °C 6,4 °C 53 % 1009,9 hPa 0,0 mm 18,9 km/h (3 Bft) W-SW 254 ° 0 min 0,000 mm 1,3 UV-I 179 W/m² -2,5 °C 3,0 °C 20,9 km/h (4 Bft)
01.03.2017 15:07 6,3 °C 6,4 °C 53 % 1010,0 hPa 0,0 mm 18,8 km/h (3 Bft) W 277 ° 0 min 0,000 mm 1,3 UV-I 178 W/m² -2,6 °C 2,8 °C 27,4 km/h (4 Bft)
01.03.2017 15:08 6,3 °C 6,3 °C 53 % 1009,9 hPa 0,0 mm 13,2 km/h (3 Bft) W-SW 251 ° 0 min 0,000 mm 1,2 UV-I 171 W/m² -2,6 °C 3,6 °C 17,7 km/h (3 Bft)
01.03.2017 15:09 6,3 °C 6,3 °C 54 % 1009,9 hPa 0,0 mm 10,9 km/h (2 Bft) W 265 ° 0 min 0,000 mm 1,2 UV-I 165 W/m² -2,3 °C 4,0 °C 12,9 km/h (3 Bft)
01.03.2017 15:10 6,3 °C 6,3 °C 54 % 1009,9 hPa 0,0 mm 10,9 km/h (2 Bft) SW 234 ° 0 min 0,000 mm 1,2 UV-I 162 W/m² -2,3 °C 4,0 °C 14,5 km/h (3 Bft)
01.03.2017 15:11 6,3 °C 6,3 °C 54 % 1009,9 hPa 0,0 mm 12,3 km/h (3 Bft) W 262 ° 0 min 0,000 mm 1,2 UV-I 155 W/m² -2,3 °C 3,8 °C 16,1 km/h (3 Bft)
01.03.2017 15:12 6,3 °C 6,3 °C 54 % 1009,9 hPa 0,0 mm 11,1 km/h (2 Bft) W-SW 253 ° 0 min 0,000 mm 1,2 UV-I 155 W/m² -2,3 °C 4,0 °C 16,1 km/h (3 Bft)
01.03.2017 15:13 6,3 °C 6,3 °C 54 % 1009,9 hPa 0,0 mm 12,3 km/h (3 Bft) W-SW 247 ° 0 min 0,000 mm 1,2 UV-I 160 W/m² -2,3 °C 3,8 °C 19,3 km/h (3 Bft)
01.03.2017 15:14 6,3 °C 6,3 °C 53 % 1009,9 hPa 0,0 mm 12,4 km/h (3 Bft) W-SW 252 ° 0 min 0,000 mm 1,2 UV-I 195 W/m² -2,6 °C 3,8 °C 24,1 km/h (4 Bft)
01.03.2017 15:15 6,2 °C 6,3 °C 53 % 1009,9 hPa 0,0 mm 16,0 km/h (3 Bft) W-SW 254 ° 0 min 0,000 mm 1,2 UV-I 193 W/m² -2,7 °C 3,1 °C 22,5 km/h (4 Bft)
01.03.2017 15:16 6,2 °C 6,3 °C 54 % 1009,9 hPa 0,0 mm 10,2 km/h (2 Bft) W-SW 248 ° 0 min 0,000 mm 1,2 UV-I 185 W/m² -2,4 °C 4,1 °C 19,3 km/h (3 Bft)
01.03.2017 15:17 6,2 °C 6,2 °C 53 % 1009,9 hPa 0,0 mm 17,3 km/h (3 Bft) W 263 ° 0 min 0,000 mm 1,2 UV-I 192 W/m² -2,7 °C 2,9 °C 24,1 km/h (4 Bft)
01.03.2017 15:18 6,2 °C 6,2 °C 55 % 1009,9 hPa 0,0 mm 16,8 km/h (3 Bft) W 264 ° 0 min 0,000 mm 1,2 UV-I 192 W/m² -2,2 °C 3,0 °C 20,9 km/h (4 Bft)
01.03.2017 15:19 6,2 °C 6,3 °C 54 % 1009,9 hPa 0,0 mm 15,6 km/h (3 Bft) W-NW 302 ° 0 min 0,000 mm 1,2 UV-I 181 W/m² -2,4 °C 3,1 °C 19,3 km/h (3 Bft)
01.03.2017 15:20 6,3 °C 6,3 °C 55 % 1009,8 hPa 0,0 mm 13,0 km/h (3 Bft) W 263 ° 0 min 0,000 mm 1,2 UV-I 186 W/m² -2,1 °C 3,7 °C 20,9 km/h (4 Bft)
01.03.2017 15:21 6,3 °C 6,3 °C 54 % 1009,8 hPa 0,0 mm 12,7 km/h (3 Bft) W 267 ° 0 min 0,000 mm 1,2 UV-I 188 W/m² -2,3 °C 3,7 °C 17,7 km/h (3 Bft)
01.03.2017 15:22 6,3 °C 6,3 °C 54 % 1009,7 hPa 0,0 mm 15,3 km/h (3 Bft) W-SW 252 ° 0 min 0,000 mm 1,2 UV-I 186 W/m² -2,3 °C 3,3 °C 20,9 km/h (4 Bft)
01.03.2017 15:23 6,3 °C 6,3 °C 55 % 1009,7 hPa 0,0 mm 11,7 km/h (2 Bft) W-SW 250 ° 0 min 0,000 mm 1,2 UV-I 179 W/m² -2,1 °C 3,9 °C 16,1 km/h (3 Bft)
01.03.2017 15:24 6,3 °C 6,3 °C 55 % 1009,7 hPa 0,0 mm 13,0 km/h (3 Bft) W-SW 252 ° 0 min 0,000 mm 1,2 UV-I 176 W/m² -2,1 °C 3,7 °C 19,3 km/h (3 Bft)
01.03.2017 15:25 6,3 °C 6,3 °C 55 % 1009,5 hPa 0,0 mm 13,1 km/h (3 Bft) W-SW 249 ° 0 min 0,000 mm 1,2 UV-I 174 W/m² -2,1 °C 3,6 °C 22,5 km/h (4 Bft)
01.03.2017 15:26 6,3 °C 6,3 °C 54 % 1009,7 hPa 0,0 mm 12,1 km/h (2 Bft) W 271 ° 0 min 0,000 mm 1,1 UV-I 163 W/m² -2,3 °C 3,8 °C 20,9 km/h (4 Bft)
01.03.2017 15:27 6,3 °C 6,3 °C 55 % 1009,6 hPa 0,0 mm 12,7 km/h (3 Bft) W 270 ° 0 min 0,000 mm 1,1 UV-I 156 W/m² -2,1 °C 3,7 °C 17,7 km/h (3 Bft)
01.03.2017 15:28 6,2 °C 6,3 °C 54 % 1009,5 hPa 0,0 mm 17,0 km/h (3 Bft) W-SW 247 ° 0 min 0,000 mm 1,1 UV-I 153 W/m² -2,4 °C 3,0 °C 22,5 km/h (4 Bft)
01.03.2017 15:29 6,2 °C 6,3 °C 55 % 1009,5 hPa 0,0 mm 13,8 km/h (3 Bft) W-NW 292 ° 0 min 0,000 mm 1,1 UV-I 160 W/m² -2,2 °C 3,4 °C 20,9 km/h (4 Bft)
01.03.2017 15:30 6,3 °C 6,3 °C 55 % 1009,5 hPa 0,0 mm 12,7 km/h (3 Bft) W-SW 254 ° 0 min 0,000 mm 1,1 UV-I 158 W/m² -2,1 °C 3,7 °C 17,7 km/h (3 Bft)
01.03.2017 15:31 6,2 °C 6,3 °C 55 % 1009,5 hPa 0,0 mm 15,0 km/h (3 Bft) W-SW 256 ° 0 min 0,000 mm 1,1 UV-I 158 W/m² -2,2 °C 3,2 °C 19,3 km/h (3 Bft)
01.03.2017 15:32 6,2 °C 6,2 °C 55 % 1009,6 hPa 0,0 mm 16,5 km/h (3 Bft) SW 234 ° 0 min 0,000 mm 1,1 UV-I 156 W/m² -2,2 °C 3,0 °C 25,7 km/h (4 Bft)
01.03.2017 15:33 6,2 °C 6,2 °C 54 % 1009,5 hPa 0,0 mm 12,3 km/h (3 Bft) W-SW 257 ° 0 min 0,000 mm 1,0 UV-I 149 W/m² -2,4 °C 3,7 °C 16,1 km/h (3 Bft)
01.03.2017 15:34 6,2 °C 6,2 °C 55 % 1009,5 hPa 0,0 mm 12,9 km/h (3 Bft) W 270 ° 0 min 0,000 mm 1,0 UV-I 146 W/m² -2,2 °C 3,6 °C 24,1 km/h (4 Bft)
01.03.2017 15:35 6,2 °C 6,2 °C 55 % 1009,4 hPa 0,0 mm 20,2 km/h (4 Bft) W-SW 256 ° 0 min 0,000 mm 1,0 UV-I 142 W/m² -2,2 °C 2,6 °C 29,0 km/h (5 Bft)
01.03.2017 15:36 6,2 °C 6,2 °C 55 % 1009,4 hPa 0,0 mm 15,2 km/h (3 Bft) W 270 ° 0 min 0,000 mm 1,0 UV-I 142 W/m² -2,2 °C 3,2 °C 25,7 km/h (4 Bft)
01.03.2017 15:37 6,2 °C 6,2 °C 54 % 1009,4 hPa 0,0 mm 16,0 km/h (3 Bft) W-SW 246 ° 0 min 0,000 mm 1,0 UV-I 141 W/m² -2,4 °C 3,1 °C 24,1 km/h (4 Bft)
01.03.2017 15:38 6,1 °C 6,2 °C 55 % 1009,5 hPa 0,0 mm 16,8 km/h (3 Bft) W 268 ° 0 min 0,000 mm 1,0 UV-I 142 W/m² -2,2 °C 2,9 °C 22,5 km/h (4 Bft)
01.03.2017 15:39 6,1 °C 6,1 °C 55 % 1009,4 hPa 0,0 mm 14,0 km/h (3 Bft) NW 309 ° 0 min 0,000 mm 1,0 UV-I 144 W/m² -2,2 °C 3,3 °C 17,7 km/h (3 Bft)
01.03.2017 15:40 6,1 °C 6,1 °C 55 % 1009,4 hPa 0,0 mm 13,5 km/h (3 Bft) W-NW 283 ° 0 min 0,000 mm 1,0 UV-I 146 W/m² -2,2 °C 3,3 °C 17,7 km/h (3 Bft)
01.03.2017 15:41 6,1 °C 6,1 °C 55 % 1009,4 hPa 0,0 mm 16,8 km/h (3 Bft) SW 233 ° 0 min 0,000 mm 1,0 UV-I 141 W/m² -2,2 °C 2,9 °C 25,7 km/h (4 Bft)
01.03.2017 15:42 6,1 °C 6,1 °C 55 % 1009,4 hPa 0,0 mm 16,4 km/h (3 Bft) W 267 ° 0 min 0,000 mm 1,0 UV-I 137 W/m² -2,2 °C 2,9 °C 25,7 km/h (4 Bft)
01.03.2017 15:43 6,1 °C 6,1 °C 56 % 1009,3 hPa 0,0 mm 9,9 km/h (2 Bft) NW 307 ° 0 min 0,000 mm 1,0 UV-I 128 W/m² -2,0 °C 4,0 °C 12,9 km/h (3 Bft)
01.03.2017 15:44 6,1 °C 6,1 °C 55 % 1009,3 hPa 0,0 mm 13,5 km/h (3 Bft) W-NW 286 ° 0 min 0,000 mm 1,0 UV-I 142 W/m² -2,2 °C 3,3 °C 20,9 km/h (4 Bft)
01.03.2017 15:45 6,1 °C 6,1 °C 56 % 1009,3 hPa 0,0 mm 10,3 km/h (2 Bft) W 266 ° 0 min 0,000 mm 1,0 UV-I 146 W/m² -2,0 °C 3,9 °C 14,5 km/h (3 Bft)
01.03.2017 15:46 6,1 °C 6,1 °C 57 % 1009,3 hPa 0,0 mm 8,4 km/h (2 Bft) W-SW 258 ° 0 min 0,000 mm 1,0 UV-I 151 W/m² -1,8 °C 4,3 °C 11,3 km/h (2 Bft)
01.03.2017 15:47 6,1 °C 6,1 °C 57 % 1009,4 hPa 0,0 mm 10,1 km/h (2 Bft) W 271 ° 0 min 0,000 mm 1,0 UV-I 155 W/m² -1,8 °C 4,0 °C 14,5 km/h (3 Bft)
01.03.2017 15:48 6,1 °C 6,1 °C 57 % 1009,2 hPa 0,0 mm 6,8 km/h (2 Bft) W-SW 252 ° 0 min 0,000 mm 1,0 UV-I 158 W/m² -1,8 °C 4,7 °C 11,3 km/h (2 Bft)
01.03.2017 15:49 6,1 °C 6,1 °C 57 % 1009,3 hPa 0,0 mm 9,6 km/h (2 Bft) W-SW 251 ° 0 min 0,000 mm 1,0 UV-I 162 W/m² -1,8 °C 4,1 °C 12,9 km/h (3 Bft)
01.03.2017 15:50 6,2 °C 6,2 °C 57 % 1009,3 hPa 0,0 mm 11,5 km/h (2 Bft) W-SW 258 ° 0 min 0,000 mm 1,0 UV-I 163 W/m² -1,7 °C 3,8 °C 16,1 km/h (3 Bft)
01.03.2017 15:51 6,2 °C 6,2 °C 56 % 1009,4 hPa 0,0 mm 12,3 km/h (3 Bft) SW 233 ° 0 min 0,000 mm 1,0 UV-I 158 W/m² -1,9 °C 3,7 °C 19,3 km/h (3 Bft)
01.03.2017 15:52 6,2 °C 6,2 °C 55 % 1009,3 hPa 0,0 mm 13,3 km/h (3 Bft) W-NW 295 ° 0 min 0,000 mm 1,0 UV-I 153 W/m² -2,2 °C 3,5 °C 22,5 km/h (4 Bft)
01.03.2017 15:53 6,2 °C 6,2 °C 56 % 1009,3 hPa 0,0 mm 19,4 km/h (3 Bft) W-SW 258 ° 0 min 0,000 mm 0,9 UV-I 146 W/m² -1,9 °C 2,7 °C 27,4 km/h (4 Bft)
01.03.2017 15:54 6,2 °C 6,2 °C 56 % 1009,3 hPa 0,0 mm 12,2 km/h (2 Bft) W-SW 251 ° 0 min 0,000 mm 0,9 UV-I 141 W/m² -1,9 °C 3,7 °C 22,5 km/h (4 Bft)
01.03.2017 15:55 6,2 °C 6,2 °C 56 % 1009,3 hPa 0,0 mm 15,7 km/h (3 Bft) W 259 ° 0 min 0,000 mm 0,9 UV-I 134 W/m² -1,9 °C 3,1 °C 24,1 km/h (4 Bft)
01.03.2017 15:56 6,2 °C 6,2 °C 57 % 1009,4 hPa 0,0 mm 13,1 km/h (3 Bft) W-SW 238 ° 0 min 0,000 mm 0,8 UV-I 125 W/m² -1,7 °C 3,5 °C 24,1 km/h (4 Bft)
01.03.2017 15:57 6,2 °C 6,2 °C 56 % 1009,4 hPa 0,0 mm 14,8 km/h (3 Bft) W-SW 257 ° 0 min 0,000 mm 0,8 UV-I 118 W/m² -1,9 °C 3,3 °C 22,5 km/h (4 Bft)
01.03.2017 15:58 6,2 °C 6,2 °C 56 % 1009,4 hPa 0,0 mm 18,3 km/h (3 Bft) W-NW 289 ° 0 min 0,000 mm 0,8 UV-I 109 W/m² -1,9 °C 2,8 °C 32,2 km/h (5 Bft)
01.03.2017 15:59 6,1 °C 6,2 °C 55 % 1009,4 hPa 0,0 mm 15,0 km/h (3 Bft) W-SW 241 ° 0 min 0,000 mm 0,7 UV-I 102 W/m² -2,2 °C 3,1 °C 22,5 km/h (4 Bft)
01.03.2017 16:00 6,1 °C 6,1 °C 56 % 1009,4 hPa 0,0 mm 16,7 km/h (3 Bft) W 266 ° 0 min 0,000 mm 0,7 UV-I 98 W/m² -2,0 °C 2,9 °C 20,9 km/h (4 Bft)
01.03.2017 16:01 6,1 °C 6,1 °C 56 % 1009,4 hPa 0,0 mm 14,8 km/h (3 Bft) W 275 ° 0 min 0,127 mm 0,7 UV-I 98 W/m² -2,0 °C 3,1 °C 19,3 km/h (3 Bft)
01.03.2017 16:02 6,0 °C 6,1 °C 56 % 1009,4 hPa 0,0 mm 14,2 km/h (3 Bft) W-SW 257 ° 0 min 0,000 mm 0,7 UV-I 104 W/m² -2,1 °C 3,1 °C 19,3 km/h (3 Bft)
01.03.2017 16:03 6,0 °C 6,0 °C 57 % 1009,4 hPa 0,0 mm 11,7 km/h (2 Bft) W 278 ° 0 min 0,000 mm 0,7 UV-I 109 W/m² -1,9 °C 3,5 °C 17,7 km/h (3 Bft)
01.03.2017 16:04 5,9 °C 6,0 °C 56 % 1009,4 hPa 0,0 mm 14,3 km/h (3 Bft) W-NW 293 ° 0 min 0,000 mm 0,7 UV-I 114 W/m² -2,2 °C 3,0 °C 22,5 km/h (4 Bft)
01.03.2017 16:05 5,9 °C 5,9 °C 58 % 1009,4 hPa 0,0 mm 14,6 km/h (3 Bft) W-SW 258 ° 0 min 0,000 mm 0,7 UV-I 118 W/m² -1,7 °C 2,9 °C 20,9 km/h (4 Bft)
01.03.2017 16:06 5,9 °C 5,9 °C 58 % 1009,4 hPa 0,0 mm 10,7 km/h (2 Bft) W-SW 244 ° 0 min 0,000 mm 0,7 UV-I 121 W/m² -1,7 °C 3,6 °C 17,7 km/h (3 Bft)
01.03.2017 16:07 5,9 °C 5,9 °C 58 % 1009,5 hPa 0,0 mm 16,0 km/h (3 Bft) W 267 ° 0 min 0,000 mm 0,7 UV-I 123 W/m² -1,7 °C 2,7 °C 20,9 km/h (4 Bft)
01.03.2017 16:08 5,9 °C 5,9 °C 58 % 1009,6 hPa 0,0 mm 11,5 km/h (2 Bft) SW 236 ° 0 min 0,000 mm 0,7 UV-I 123 W/m² -1,7 °C 3,4 °C 16,1 km/h (3 Bft)
01.03.2017 16:09 5,9 °C 5,9 °C 59 % 1009,5 hPa 0,0 mm 9,9 km/h (2 Bft) W 263 ° 0 min 0,000 mm 0,7 UV-I 121 W/m² -1,5 °C 3,8 °C 16,1 km/h (3 Bft)
01.03.2017 16:10 5,9 °C 5,9 °C 58 % 1009,5 hPa 0,0 mm 7,8 km/h (2 Bft) W 261 ° 0 min 0,000 mm 0,7 UV-I 120 W/m² -1,7 °C 4,2 °C 12,9 km/h (3 Bft)
01.03.2017 16:11 5,9 °C 5,9 °C 58 % 1009,6 hPa 0,0 mm 10,5 km/h (2 Bft) W-SW 250 ° 0 min 0,000 mm 0,7 UV-I 121 W/m² -1,7 °C 3,6 °C 14,5 km/h (3 Bft)
01.03.2017 16:12 5,9 °C 5,9 °C 58 % 1009,6 hPa 0,0 mm 9,6 km/h (2 Bft) W 259 ° 0 min 0,000 mm 0,7 UV-I 123 W/m² -1,7 °C 3,8 °C 16,1 km/h (3 Bft)
01.03.2017 16:13 5,9 °C 6,0 °C 58 % 1009,6 hPa 0,0 mm 8,0 km/h (2 Bft) W 267 ° 0 min 0,000 mm 0,7 UV-I 121 W/m² -1,7 °C 4,2 °C 11,3 km/h (2 Bft)
01.03.2017 16:14 5,9 °C 5,9 °C 59 % 1009,6 hPa 0,0 mm 14,0 km/h (3 Bft) NW 306 ° 0 min 0,000 mm 0,7 UV-I 118 W/m² -1,5 °C 3,0 °C 22,5 km/h (4 Bft)
01.03.2017 16:15 6,0 °C 6,0 °C 58 % 1009,6 hPa 0,0 mm 14,9 km/h (3 Bft) W-NW 284 ° 0 min 0,000 mm 0,7 UV-I 114 W/m² -1,6 °C 3,0 °C 20,9 km/h (4 Bft)
01.03.2017 16:16 5,9 °C 6,0 °C 58 % 1009,7 hPa 0,0 mm 7,8 km/h (2 Bft) SW 234 ° 0 min 0,000 mm 0,7 UV-I 113 W/m² -1,7 °C 4,2 °C 11,3 km/h (2 Bft)
01.03.2017 16:17 5,9 °C 5,9 °C 60 % 1009,6 hPa 0,0 mm 15,8 km/h (3 Bft) W-SW 240 ° 0 min 0,000 mm 0,7 UV-I 109 W/m² -1,3 °C 2,7 °C 22,5 km/h (4 Bft)
01.03.2017 16:18 5,9 °C 5,9 °C 58 % 1009,6 hPa 0,0 mm 12,3 km/h (3 Bft) W-SW 254 ° 0 min 0,000 mm 0,6 UV-I 109 W/m² -1,7 °C 3,3 °C 16,1 km/h (3 Bft)
01.03.2017 16:19 5,9 °C 5,9 °C 59 % 1009,7 hPa 0,0 mm 11,5 km/h (2 Bft) W-SW 244 ° 0 min 0,000 mm 0,6 UV-I 107 W/m² -1,5 °C 3,4 °C 16,1 km/h (3 Bft)
01.03.2017 16:20 5,9 °C 5,9 °C 59 % 1009,7 hPa 0,0 mm 13,9 km/h (3 Bft) W 265 ° 0 min 0,000 mm 0,6 UV-I 105 W/m² -1,5 °C 3,0 °C 19,3 km/h (3 Bft)
01.03.2017 16:21 5,9 °C 5,9 °C 59 % 1009,7 hPa 0,0 mm 9,8 km/h (2 Bft) W 266 ° 0 min 0,000 mm 0,6 UV-I 104 W/m² -1,5 °C 3,8 °C 14,5 km/h (3 Bft)
01.03.2017 16:22 5,9 °C 5,9 °C 59 % 1009,7 hPa 0,0 mm 9,5 km/h (2 Bft) W-SW 238 ° 0 min 0,000 mm 0,6 UV-I 102 W/m² -1,5 °C 3,8 °C 16,1 km/h (3 Bft)
01.03.2017 16:23 5,9 °C 5,9 °C 59 % 1009,7 hPa 0,0 mm 11,0 km/h (2 Bft) W-SW 256 ° 0 min 0,000 mm 0,6 UV-I 98 W/m² -1,5 °C 3,5 °C 14,5 km/h (3 Bft)
01.03.2017 16:24 5,9 °C 5,9 °C 59 % 1009,7 hPa 0,0 mm 7,0 km/h (2 Bft) W-SW 248 ° 0 min 0,000 mm 0,6 UV-I 88 W/m² -1,5 °C 4,5 °C 9,7 km/h (2 Bft)
01.03.2017 16:25 5,9 °C 5,9 °C 60 % 1009,8 hPa 0,0 mm 9,5 km/h (2 Bft) W-SW 250 ° 0 min 0,000 mm 0,6 UV-I 83 W/m² -1,3 °C 3,8 °C 14,5 km/h (3 Bft)
01.03.2017 16:26 5,9 °C 5,9 °C 59 % 1009,8 hPa 0,0 mm 12,6 km/h (3 Bft) W-SW 252 ° 0 min 0,000 mm 0,6 UV-I 79 W/m² -1,5 °C 3,2 °C 14,5 km/h (3 Bft)
01.03.2017 16:27 5,8 °C 5,9 °C 60 % 1009,8 hPa 0,0 mm 10,0 km/h (2 Bft) W-NW 283 ° 0 min 0,000 mm 0,6 UV-I 76 W/m² -1,4 °C 3,6 °C 12,9 km/h (3 Bft)
01.03.2017 16:28 5,8 °C 5,8 °C 59 % 1009,8 hPa 0,0 mm 10,1 km/h (2 Bft) W-NW 287 ° 0 min 0,000 mm 0,6 UV-I 74 W/m² -1,6 °C 3,6 °C 12,9 km/h (3 Bft)
01.03.2017 16:29 5,8 °C 5,8 °C 60 % 1009,8 hPa 0,0 mm 13,0 km/h (3 Bft) SW 232 ° 0 min 0,000 mm 0,5 UV-I 76 W/m² -1,4 °C 3,1 °C 22,5 km/h (4 Bft)
01.03.2017 16:30 5,7 °C 5,8 °C 60 % 1009,8 hPa 0,0 mm 13,6 km/h (3 Bft) W-NW 299 ° 0 min 0,000 mm 0,5 UV-I 79 W/m² -1,4 °C 2,8 °C 19,3 km/h (3 Bft)
01.03.2017 16:31 5,7 °C 5,8 °C 59 % 1009,9 hPa 0,0 mm 14,3 km/h (3 Bft) W-SW 255 ° 0 min 0,000 mm 0,5 UV-I 83 W/m² -1,7 °C 2,7 °C 17,7 km/h (3 Bft)
01.03.2017 16:32 5,7 °C 5,7 °C 59 % 1010,0 hPa 0,0 mm 10,1 km/h (2 Bft) W-SW 246 ° 0 min 0,000 mm 0,5 UV-I 84 W/m² -1,7 °C 3,5 °C 14,5 km/h (3 Bft)
01.03.2017 16:33 5,7 °C 5,7 °C 61 % 1010,1 hPa 0,0 mm 13,2 km/h (3 Bft) SW 235 ° 0 min 0,000 mm 0,5 UV-I 86 W/m² -1,2 °C 2,9 °C 19,3 km/h (3 Bft)
01.03.2017 16:34 5,6 °C 5,7 °C 60 % 1010,1 hPa 0,0 mm 8,9 km/h (2 Bft) W 273 ° 0 min 0,000 mm 0,5 UV-I 86 W/m² -1,5 °C 3,6 °C 14,5 km/h (3 Bft)
01.03.2017 16:35 5,6 °C 5,6 °C 61 % 1010,1 hPa 0,0 mm 10,2 km/h (2 Bft) W-NW 282 ° 0 min 0,000 mm 0,5 UV-I 83 W/m² -1,3 °C 3,3 °C 16,1 km/h (3 Bft)
01.03.2017 16:36 5,6 °C 5,6 °C 61 % 1010,0 hPa 0,0 mm 11,2 km/h (2 Bft) W-SW 253 ° 0 min 0,000 mm 0,5 UV-I 69 W/m² -1,3 °C 3,1 °C 17,7 km/h (3 Bft)
01.03.2017 16:37 5,6 °C 5,6 °C 61 % 1010,2 hPa 0,0 mm 19,7 km/h (3 Bft) W 263 ° 0 min 0,000 mm 0,0 UV-I 62 W/m² -1,3 °C 1,9 °C 27,4 km/h (4 Bft)
01.03.2017 16:38 5,5 °C 5,6 °C 61 % 1010,2 hPa 0,0 mm 15,7 km/h (3 Bft) W-SW 240 ° 0 min 0,000 mm 0,0 UV-I 51 W/m² -1,4 °C 2,3 °C 24,1 km/h (4 Bft)
01.03.2017 16:39 5,4 °C 5,5 °C 61 % 1010,2 hPa 0,0 mm 19,5 km/h (3 Bft) W 259 ° 0 min 0,000 mm 0,0 UV-I 44 W/m² -1,5 °C 1,6 °C 25,7 km/h (4 Bft)
01.03.2017 16:40 5,4 °C 5,4 °C 62 % 1010,2 hPa 0,0 mm 18,2 km/h (3 Bft) W 269 ° 0 min 0,000 mm 0,0 UV-I 44 W/m² -1,3 °C 1,8 °C 25,7 km/h (4 Bft)
01.03.2017 16:41 5,4 °C 5,4 °C 62 % 1010,2 hPa 0,0 mm 17,8 km/h (3 Bft) W-NW 294 ° 0 min 0,000 mm 0,0 UV-I 39 W/m² -1,3 °C 1,8 °C 22,5 km/h (4 Bft)
01.03.2017 16:42 5,3 °C 5,4 °C 62 % 1010,2 hPa 0,0 mm 12,4 km/h (3 Bft) W 270 ° 0 min 0,000 mm 0,0 UV-I 44 W/m² -1,4 °C 2,5 °C 16,1 km/h (3 Bft)
01.03.2017 16:43 5,3 °C 5,3 °C 62 % 1010,1 hPa 0,0 mm 10,5 km/h (2 Bft) SW 218 ° 0 min 0,000 mm 0,0 UV-I 44 W/m² -1,4 °C 2,9 °C 16,1 km/h (3 Bft)
01.03.2017 16:44 5,3 °C 5,3 °C 62 % 1010,1 hPa 0,0 mm 7,5 km/h (2 Bft) W 259 ° 0 min 0,000 mm 0,0 UV-I 44 W/m² -1,4 °C 3,6 °C 11,3 km/h (2 Bft)
01.03.2017 16:45 5,3 °C 5,3 °C 64 % 1010,2 hPa 0,0 mm 8,2 km/h (2 Bft) SW 236 ° 0 min 0,000 mm 0,0 UV-I 46 W/m² -0,9 °C 3,4 °C 16,1 km/h (3 Bft)
01.03.2017 16:46 5,2 °C 5,3 °C 64 % 1010,1 hPa 0,0 mm 7,4 km/h (2 Bft) SW 226 ° 0 min 0,000 mm 0,0 UV-I 51 W/m² -1,0 °C 3,5 °C 11,3 km/h (2 Bft)
01.03.2017 16:47 5,2 °C 5,3 °C 62 % 1010,1 hPa 0,0 mm 5,6 km/h (1 Bft) W 265 ° 0 min 0,000 mm 0,0 UV-I 54 W/m² -1,5 °C 4,1 °C 9,7 km/h (2 Bft)
01.03.2017 16:48 5,2 °C 5,3 °C 62 % 1010,1 hPa 0,0 mm 9,4 km/h (2 Bft) W-SW 245 ° 0 min 0,000 mm 0,0 UV-I 58 W/m² -1,5 °C 3,0 °C 12,9 km/h (3 Bft)
01.03.2017 16:49 5,2 °C 5,3 °C 62 % 1010,1 hPa 0,0 mm 7,6 km/h (2 Bft) W 259 ° 0 min 0,000 mm 0,0 UV-I 60 W/m² -1,5 °C 3,5 °C 12,9 km/h (3 Bft)
01.03.2017 16:50 5,3 °C 5,3 °C 62 % 1010,1 hPa 0,0 mm 10,7 km/h (2 Bft) SW 216 ° 0 min 0,000 mm 0,0 UV-I 60 W/m² -1,4 °C 2,9 °C 16,1 km/h (3 Bft)
01.03.2017 16:51 5,3 °C 5,3 °C 62 % 1010,1 hPa 0,0 mm 6,5 km/h (2 Bft) S-SW 196 ° 0 min 0,000 mm 0,0 UV-I 62 W/m² -1,4 °C 3,9 °C 11,3 km/h (2 Bft)
01.03.2017 16:52 5,3 °C 5,3 °C 62 % 1010,0 hPa 0,0 mm 2,9 km/h (1 Bft) S-SW 201 ° 0 min 0,000 mm 0,0 UV-I 63 W/m² -1,4 °C 5,3 °C 6,4 km/h (2 Bft)
01.03.2017 16:53 5,3 °C 5,3 °C 61 % 1010,1 hPa 0,0 mm 7,2 km/h (2 Bft) W-SW 243 ° 0 min 0,000 mm 0,0 UV-I 63 W/m² -1,6 °C 3,7 °C 12,9 km/h (3 Bft)
01.03.2017 16:54 5,3 °C 5,3 °C 62 % 1010,1 hPa 0,0 mm 6,5 km/h (2 Bft) S-SW 205 ° 0 min 0,000 mm 0,0 UV-I 62 W/m² -1,4 °C 3,9 °C 9,7 km/h (2 Bft)
01.03.2017 16:55 5,3 °C 5,3 °C 62 % 1010,1 hPa 0,0 mm 8,6 km/h (2 Bft) W 259 ° 0 min 0,000 mm 0,0 UV-I 60 W/m² -1,4 °C 3,3 °C 11,3 km/h (2 Bft)
01.03.2017 16:56 5,3 °C 5,3 °C 62 % 1010,1 hPa 0,0 mm 10,5 km/h (2 Bft) S-SW 198 ° 0 min 0,000 mm 0,0 UV-I 56 W/m² -1,4 °C 2,9 °C 12,9 km/h (3 Bft)
01.03.2017 16:57 5,3 °C 5,3 °C 63 % 1010,2 hPa 0,0 mm 9,9 km/h (2 Bft) W 266 ° 0 min 0,000 mm 0,0 UV-I 56 W/m² -1,2 °C 3,0 °C 12,9 km/h (3 Bft)
01.03.2017 16:58 5,3 °C 5,3 °C 63 % 1010,2 hPa 0,0 mm 10,5 km/h (2 Bft) W 271 ° 0 min 0,000 mm 0,0 UV-I 49 W/m² -1,2 °C 2,9 °C 12,9 km/h (3 Bft)
01.03.2017 16:59 5,2 °C 5,3 °C 64 % 1010,1 hPa 0,0 mm 9,1 km/h (2 Bft) W-SW 258 ° 0 min 0,000 mm 0,0 UV-I 44 W/m² -1,0 °C 3,1 °C 12,9 km/h (3 Bft)
01.03.2017 17:00 5,2 °C 5,2 °C 63 % 1010,2 hPa 0,0 mm 7,8 km/h (2 Bft) W 267 ° 0 min 0,000 mm 0,0 UV-I 33 W/m² -1,3 °C 3,4 °C 12,9 km/h (3 Bft)
01.03.2017 17:01 5,2 °C 5,2 °C 64 % 1010,2 hPa 0,0 mm 5,2 km/h (1 Bft) W 271 ° 0 min 0,077 mm 0,0 UV-I 30 W/m² -1,0 °C 4,2 °C 9,7 km/h (2 Bft)
01.03.2017 17:02 5,2 °C 5,2 °C 64 % 1010,2 hPa 0,0 mm 5,7 km/h (1 Bft) W 259 ° 0 min 0,000 mm 0,0 UV-I 26 W/m² -1,0 °C 4,1 °C 9,7 km/h (2 Bft)
01.03.2017 17:03 5,1 °C 5,2 °C 64 % 1010,2 hPa 0,0 mm 3,9 km/h (1 Bft) W 269 ° 0 min 0,000 mm 0,0 UV-I 26 W/m² -1,1 °C 5,1 °C 4,8 km/h (1 Bft)
01.03.2017 17:04 5,1 °C 5,1 °C 64 % 1010,2 hPa 0,0 mm 5,7 km/h (1 Bft) W 279 ° 0 min 0,000 mm 0,0 UV-I 28 W/m² -1,1 °C 3,9 °C 8,0 km/h (2 Bft)
01.03.2017 17:05 5,1 °C 5,1 °C 65 % 1010,2 hPa 0,0 mm 8,2 km/h (2 Bft) W-NW 294 ° 0 min 0,000 mm 0,0 UV-I 30 W/m² -0,9 °C 3,2 °C 12,9 km/h (3 Bft)
01.03.2017 17:06 5,1 °C 5,1 °C 64 % 1010,2 hPa 0,0 mm 5,9 km/h (2 Bft) W-SW 245 ° 0 min 0,000 mm 0,0 UV-I 33 W/m² -1,1 °C 3,9 °C 11,3 km/h (2 Bft)
01.03.2017 17:07 5,0 °C 5,1 °C 64 % 1010,3 hPa 0,0 mm 7,0 km/h (2 Bft) SW 232 ° 0 min 0,000 mm 0,0 UV-I 33 W/m² -1,2 °C 3,4 °C 11,3 km/h (2 Bft)
01.03.2017 17:08 5,0 °C 5,1 °C 64 % 1010,3 hPa 0,0 mm 6,1 km/h (2 Bft) SW 220 ° 0 min 0,000 mm 0,0 UV-I 33 W/m² -1,2 °C 3,7 °C 12,9 km/h (3 Bft)
01.03.2017 17:09 5,0 °C 5,0 °C 64 % 1010,3 hPa 0,0 mm 9,4 km/h (2 Bft) W-NW 286 ° 0 min 0,000 mm 0,0 UV-I 33 W/m² -1,2 °C 2,8 °C 12,9 km/h (3 Bft)
01.03.2017 17:10 5,0 °C 5,0 °C 64 % 1010,3 hPa 0,0 mm 8,7 km/h (2 Bft) W 261 ° 0 min 0,000 mm 0,0 UV-I 35 W/m² -1,2 °C 3,0 °C 11,3 km/h (2 Bft)
01.03.2017 17:11 5,0 °C 5,0 °C 64 % 1010,3 hPa 0,0 mm 9,3 km/h (2 Bft) SW 227 ° 0 min 0,000 mm 0,0 UV-I 39 W/m² -1,2 °C 2,8 °C 14,5 km/h (3 Bft)
01.03.2017 17:12 5,0 °C 5,0 °C 64 % 1010,3 hPa 0,0 mm 9,8 km/h (2 Bft) W-SW 249 ° 0 min 0,000 mm 0,0 UV-I 39 W/m² -1,2 °C 2,7 °C 12,9 km/h (3 Bft)
01.03.2017 17:13 4,9 °C 5,0 °C 64 % 1010,3 hPa 0,0 mm 8,5 km/h (2 Bft) W 266 ° 0 min 0,000 mm 0,0 UV-I 39 W/m² -1,3 °C 2,9 °C 14,5 km/h (3 Bft)
01.03.2017 17:14 4,9 °C 4,9 °C 65 % 1010,2 hPa 0,0 mm 5,3 km/h (1 Bft) SW 216 ° 0 min 0,000 mm 0,0 UV-I 35 W/m² -1,1 °C 3,9 °C 8,0 km/h (2 Bft)
01.03.2017 17:15 4,9 °C 4,9 °C 64 % 1010,3 hPa 0,0 mm 6,7 km/h (2 Bft) SW 230 ° 0 min 0,000 mm 0,0 UV-I 33 W/m² -1,3 °C 3,4 °C 9,7 km/h (2 Bft)
01.03.2017 17:16 4,9 °C 4,9 °C 64 % 1010,3 hPa 0,0 mm 7,2 km/h (2 Bft) W-SW 242 ° 0 min 0,000 mm 0,0 UV-I 33 W/m² -1,3 °C 3,2 °C 11,3 km/h (2 Bft)
01.03.2017 17:17 4,9 °C 4,9 °C 64 % 1010,3 hPa 0,0 mm 12,0 km/h (2 Bft) W-SW 246 ° 0 min 0,000 mm 0,0 UV-I 33 W/m² -1,3 °C 2,1 °C 16,1 km/h (3 Bft)
01.03.2017 17:18 4,9 °C 4,9 °C 65 % 1010,4 hPa 0,0 mm 10,8 km/h (2 Bft) W-NW 289 ° 0 min 0,000 mm 0,0 UV-I 33 W/m² -1,1 °C 2,4 °C 16,1 km/h (3 Bft)
01.03.2017 17:19 4,9 °C 4,9 °C 64 % 1010,2 hPa 0,0 mm 7,5 km/h (2 Bft) W-NW 297 ° 0 min 0,000 mm 0,0 UV-I 32 W/m² -1,3 °C 3,2 °C 11,3 km/h (2 Bft)
01.03.2017 17:20 4,8 °C 4,9 °C 65 % 1010,2 hPa 0,0 mm 8,6 km/h (2 Bft) W-SW 248 ° 0 min 0,000 mm 0,0 UV-I 32 W/m² -1,2 °C 2,7 °C 16,1 km/h (3 Bft)
01.03.2017 17:21 4,8 °C 4,9 °C 65 % 1010,2 hPa 0,0 mm 9,3 km/h (2 Bft) W-SW 244 ° 0 min 0,000 mm 0,0 UV-I 32 W/m² -1,2 °C 2,6 °C 11,3 km/h (2 Bft)
01.03.2017 17:22 4,8 °C 4,9 °C 66 % 1010,2 hPa 0,0 mm 5,7 km/h (1 Bft) W-SW 242 ° 0 min 0,000 mm 0,0 UV-I 32 W/m² -1,0 °C 3,6 °C 8,0 km/h (2 Bft)
01.03.2017 17:23 4,8 °C 4,8 °C 66 % 1010,2 hPa 0,0 mm 5,2 km/h (1 Bft) W-SW 254 ° 0 min 0,000 mm 0,0 UV-I 28 W/m² -1,0 °C 3,8 °C 11,3 km/h (2 Bft)
01.03.2017 17:24 4,7 °C 4,8 °C 66 % 1010,2 hPa 0,0 mm 6,2 km/h (2 Bft) W 263 ° 0 min 0,000 mm 0,0 UV-I 26 W/m² -1,1 °C 3,3 °C 9,7 km/h (2 Bft)
01.03.2017 17:25 4,8 °C 4,8 °C 66 % 1010,2 hPa 0,0 mm 3,8 km/h (1 Bft) W-SW 251 ° 0 min 0,000 mm 0,0 UV-I 25 W/m² -1,0 °C 4,8 °C 6,4 km/h (2 Bft)
01.03.2017 17:26 4,7 °C 4,8 °C 65 % 1010,1 hPa 0,0 mm 5,1 km/h (1 Bft) SW 232 ° 0 min 0,000 mm 0,0 UV-I 23 W/m² -1,3 °C 3,7 °C 8,0 km/h (2 Bft)
01.03.2017 17:27 4,7 °C 4,7 °C 66 % 1010,1 hPa 0,0 mm 3,5 km/h (1 Bft) SW 232 ° 0 min 0,000 mm 0,0 UV-I 23 W/m² -1,1 °C 4,7 °C 8,0 km/h (2 Bft)
01.03.2017 17:28 4,7 °C 4,7 °C 65 % 1010,1 hPa 0,0 mm 1,7 km/h (1 Bft) SW 232 ° 0 min 0,000 mm 0,0 UV-I 19 W/m² -1,3 °C 4,7 °C 3,2 km/h (1 Bft)
01.03.2017 17:29 4,6 °C 4,7 °C 66 % 1010,1 hPa 0,0 mm 2,3 km/h (1 Bft) W-SW 254 ° 0 min 0,000 mm 0,0 UV-I 18 W/m² -1,2 °C 4,6 °C 4,8 km/h (1 Bft)
01.03.2017 17:30 4,7 °C 4,7 °C 67 % 1010,0 hPa 0,0 mm 5,5 km/h (1 Bft) W-SW 249 ° 0 min 0,000 mm 0,0 UV-I 16 W/m² -0,9 °C 3,6 °C 9,7 km/h (2 Bft)
01.03.2017 17:31 4,6 °C 4,7 °C 67 % 1009,9 hPa 0,0 mm 1,9 km/h (1 Bft) W-SW 249 ° 0 min 0,000 mm 0,0 UV-I 16 W/m² -1,0 °C 4,6 °C 3,2 km/h (1 Bft)
01.03.2017 17:32 4,6 °C 4,6 °C 68 % 1009,9 hPa 0,0 mm 1,3 km/h (1 Bft) W-SW 249 ° 0 min 0,000 mm 0,0 UV-I 14 W/m² -0,8 °C 4,6 °C 3,2 km/h (1 Bft)
01.03.2017 17:33 4,5 °C 4,6 °C 67 % 1009,9 hPa 0,0 mm 2,5 km/h (1 Bft) W-SW 249 ° 0 min 0,000 mm 0,0 UV-I 14 W/m² -1,1 °C 4,5 °C 3,2 km/h (1 Bft)
01.03.2017 17:34 4,4 °C 4,5 °C 68 % 1009,9 hPa 0,0 mm 2,1 km/h (1 Bft) W-SW 249 ° 0 min 0,000 mm 0,0 UV-I 14 W/m² -1,0 °C 4,4 °C 3,2 km/h (1 Bft)
01.03.2017 17:35 4,4 °C 4,5 °C 68 % 1009,9 hPa 0,0 mm 2,3 km/h (1 Bft) W-SW 249 ° 0 min 0,000 mm 0,0 UV-I 12 W/m² -1,0 °C 4,4 °C 4,8 km/h (1 Bft)
01.03.2017 17:36 4,4 °C 4,4 °C 67 % 1010,0 hPa 0,0 mm 4,7 km/h (1 Bft) W-SW 255 ° 0 min 0,000 mm 0,0 UV-I 12 W/m² -1,2 °C 3,5 °C 6,4 km/h (2 Bft)
01.03.2017 17:37 4,4 °C 4,4 °C 68 % 1009,9 hPa 0,0 mm 3,3 km/h (1 Bft) W 273 ° 0 min 0,000 mm 0,0 UV-I 11 W/m² -1,0 °C 4,4 °C 4,8 km/h (1 Bft)
01.03.2017 17:38 4,4 °C 4,4 °C 67 % 1010,0 hPa 0,0 mm 3,2 km/h (1 Bft) W-NW 284 ° 0 min 0,000 mm 0,0 UV-I 11 W/m² -1,2 °C 4,4 °C 4,8 km/h (1 Bft)
01.03.2017 17:39 4,4 °C 4,4 °C 68 % 1010,0 hPa 0,0 mm 4,5 km/h (1 Bft) W-NW 295 ° 0 min 0,000 mm 0,0 UV-I 9 W/m² -1,0 °C 4,4 °C 6,4 km/h (2 Bft)
01.03.2017 17:40 4,3 °C 4,4 °C 69 % 1010,0 hPa 0,0 mm 3,8 km/h (1 Bft) W-SW 256 ° 0 min 0,000 mm 0,0 UV-I 9 W/m² -0,9 °C 4,3 °C 6,4 km/h (2 Bft)
01.03.2017 17:41 4,2 °C 4,3 °C 70 % 1010,1 hPa 0,0 mm 3,4 km/h (1 Bft) W 267 ° 0 min 0,000 mm 0,0 UV-I 7 W/m² -0,8 °C 4,2 °C 4,8 km/h (1 Bft)
01.03.2017 17:42 4,2 °C 4,2 °C 69 % 1010,1 hPa 0,0 mm 3,9 km/h (1 Bft) W-SW 248 ° 0 min 0,000 mm 0,0 UV-I 5 W/m² -1,0 °C 4,2 °C 6,4 km/h (2 Bft)
01.03.2017 17:43 4,2 °C 4,2 °C 68 % 1010,1 hPa 0,0 mm 3,4 km/h (1 Bft) W 260 ° 0 min 0,000 mm 0,0 UV-I 5 W/m² -1,2 °C 4,2 °C 4,8 km/h (1 Bft)
01.03.2017 17:44 4,2 °C 4,2 °C 68 % 1010,1 hPa 0,0 mm 3,9 km/h (1 Bft) W 278 ° 0 min 0,000 mm 0,0 UV-I 5 W/m² -1,2 °C 4,2 °C 6,4 km/h (2 Bft)
01.03.2017 17:45 4,2 °C 4,2 °C 68 % 1010,2 hPa 0,0 mm 5,0 km/h (1 Bft) W-NW 284 ° 0 min 0,000 mm 0,0 UV-I 5 W/m² -1,2 °C 3,2 °C 11,3 km/h (2 Bft)
01.03.2017 17:46 4,2 °C 4,2 °C 68 % 1010,2 hPa 0,0 mm 7,4 km/h (2 Bft) W-NW 284 ° 0 min 0,000 mm 0,0 UV-I 0 W/m² -1,2 °C 2,4 °C 12,9 km/h (3 Bft)
01.03.2017 17:47 4,3 °C 4,3 °C 69 % 1010,2 hPa 0,0 mm 6,8 km/h (2 Bft) W 268 ° 0 min 0,000 mm 0,0 UV-I 0 W/m² -0,9 °C 2,7 °C 11,3 km/h (2 Bft)
01.03.2017 17:48 4,2 °C 4,3 °C 68 % 1010,3 hPa 0,0 mm 7,8 km/h (2 Bft) W 278 ° 0 min 0,000 mm 0,0 UV-I 0 W/m² -1,2 °C 2,2 °C 12,9 km/h (3 Bft)
01.03.2017 17:49 4,3 °C 4,3 °C 68 % 1010,3 hPa 0,0 mm 7,9 km/h (2 Bft) W 269 ° 0 min 0,000 mm 0,0 UV-I 0 W/m² -1,1 °C 2,3 °C 12,9 km/h (3 Bft)
01.03.2017 17:50 4,3 °C 4,3 °C 68 % 1010,2 hPa 0,0 mm 6,2 km/h (2 Bft) W 275 ° 0 min 0,000 mm 0,0 UV-I 0 W/m² -1,1 °C 2,9 °C 11,3 km/h (2 Bft)
01.03.2017 17:51 4,2 °C 4,3 °C 68 % 1010,3 hPa 0,0 mm 5,4 km/h (1 Bft) W 269 ° 0 min 0,000 mm 0,0 UV-I 0 W/m² -1,2 °C 3,0 °C 6,4 km/h (2 Bft)
01.03.2017 17:52 4,2 °C 4,3 °C 69 % 1010,3 hPa 0,0 mm 8,9 km/h (2 Bft) W-SW 249 ° 0 min 0,000 mm 0,0 UV-I 0 W/m² -1,0 °C 2,0 °C 12,9 km/h (3 Bft)
01.03.2017 17:53 4,2 °C 4,2 °C 69 % 1010,3 hPa 0,0 mm 5,5 km/h (1 Bft) W 267 ° 0 min 0,000 mm 0,0 UV-I 0 W/m² -1,0 °C 3,0 °C 11,3 km/h (2 Bft)
01.03.2017 17:54 4,2 °C 4,2 °C 69 % 1010,3 hPa 0,0 mm 8,6 km/h (2 Bft) W 267 ° 0 min 0,000 mm 0,0 UV-I 0 W/m² -1,0 °C 2,0 °C 16,1 km/h (3 Bft)
01.03.2017 17:55 4,2 °C 4,2 °C 69 % 1010,3 hPa 0,0 mm 7,2 km/h (2 Bft) W 274 ° 0 min 0,000 mm 0,0 UV-I 0 W/m² -1,0 °C 2,4 °C 11,3 km/h (2 Bft)
01.03.2017 17:56 4,1 °C 4,2 °C 70 % 1010,3 hPa 0,0 mm 3,6 km/h (1 Bft) W-NW 287 ° 0 min 0,000 mm 0,0 UV-I 0 W/m² -0,9 °C 4,1 °C 6,4 km/h (2 Bft)
01.03.2017 17:57 4,1 °C 4,1 °C 70 % 1010,3 hPa 0,0 mm 4,8 km/h (1 Bft) W-SW 250 ° 0 min 0,000 mm 0,0 UV-I 0 W/m² -0,9 °C 3,1 °C 11,3 km/h (2 Bft)
01.03.2017 17:58 4,0 °C 4,1 °C 70 % 1010,3 hPa 0,0 mm 3,7 km/h (1 Bft) W-NW 282 ° 0 min 0,000 mm 0,0 UV-I 0 W/m² -1,0 °C 4,0 °C 6,4 km/h (2 Bft)
01.03.2017 17:59 3,9 °C 4,1 °C 70 % 1010,3 hPa 0,0 mm 4,4 km/h (1 Bft) W-SW 252 ° 0 min 0,000 mm 0,0 UV-I 0 W/m² -1,1 °C 3,9 °C 6,4 km/h (2 Bft)
01.03.2017 18:00 3,9 °C 4,0 °C 70 % 1010,3 hPa 0,0 mm 1,9 km/h (1 Bft) W-SW 252 ° 0 min 0,000 mm 0,0 UV-I 0 W/m² -1,1 °C 3,9 °C 4,8 km/h (1 Bft)
01.03.2017 18:01 3,9 °C 3,9 °C 70 % 1010,3 hPa 0,0 mm 0,5 km/h (0 Bft) W-SW 252 ° 0 min 0,025 mm 0,0 UV-I 0 W/m² -1,1 °C 3,9 °C 3,2 km/h (1 Bft)
01.03.2017 18:02 3,9 °C 3,9 °C 71 % 1010,3 hPa 0,0 mm 2,1 km/h (1 Bft) W-SW 252 ° 0 min 0,000 mm 0,0 UV-I 0 W/m² -0,9 °C 3,9 °C 3,2 km/h (1 Bft)
01.03.2017 18:03 3,9 °C 3,9 °C 70 % 1010,2 hPa 0,0 mm 4,9 km/h (1 Bft) W-SW 244 ° 0 min 0,000 mm 0,0 UV-I 0 W/m² -1,1 °C 2,9 °C 12,9 km/h (3 Bft)
01.03.2017 18:04 3,9 °C 3,9 °C 71 % 1010,3 hPa 0,0 mm 4,7 km/h (1 Bft) W-SW 244 ° 0 min 0,000 mm 0,0 UV-I 0 W/m² -0,9 °C 3,0 °C 8,0 km/h (2 Bft)
01.03.2017 18:05 3,9 °C 3,9 °C 71 % 1010,2 hPa 0,0 mm 4,2 km/h (1 Bft) SW 229 ° 0 min 0,000 mm 0,0 UV-I 0 W/m² -0,9 °C 3,9 °C 6,4 km/h (2 Bft)
01.03.2017 18:06 3,8 °C 3,9 °C 71 % 1010,2 hPa 0,0 mm 3,5 km/h (1 Bft) SW 229 ° 0 min 0,000 mm 0,0 UV-I 0 W/m² -1,0 °C 3,8 °C 4,8 km/h (1 Bft)
01.03.2017 18:07 3,8 °C 3,9 °C 71 % 1010,3 hPa 0,0 mm 3,2 km/h (1 Bft) SW 232 ° 0 min 0,000 mm 0,0 UV-I 0 W/m² -1,0 °C 3,8 °C 6,4 km/h (2 Bft)
01.03.2017 18:08 3,9 °C 3,9 °C 71 % 1010,2 hPa 0,0 mm 4,2 km/h (1 Bft) W-SW 238 ° 0 min 0,000 mm 0,0 UV-I 0 W/m² -0,9 °C 3,9 °C 6,4 km/h (2 Bft)
01.03.2017 18:09 3,8 °C 3,9 °C 71 % 1010,2 hPa 0,0 mm 7,5 km/h (2 Bft) SW 236 ° 0 min 0,000 mm 0,0 UV-I 0 W/m² -1,0 °C 1,9 °C 12,9 km/h (3 Bft)
01.03.2017 18:10 3,8 °C 3,9 °C 71 % 1010,1 hPa 0,0 mm 3,4 km/h (1 Bft) SW 236 ° 0 min 0,000 mm 0,0 UV-I 0 W/m² -1,0 °C 3,8 °C 6,4 km/h (2 Bft)
01.03.2017 18:11 3,9 °C 3,9 °C 70 % 1010,2 hPa 0,0 mm 1,8 km/h (1 Bft) SW 236 ° 0 min 0,000 mm 0,0 UV-I 0 W/m² -1,1 °C 3,9 °C 3,2 km/h (1 Bft)
01.03.2017 18:12 3,9 °C 3,9 °C 72 % 1010,3 hPa 0,0 mm 1,1 km/h (1 Bft) SW 236 ° 0 min 0,000 mm 0,0 UV-I 0 W/m² -0,7 °C 3,9 °C 1,6 km/h (1 Bft)
01.03.2017 18:13 3,8 °C 3,9 °C 71 % 1010,3 hPa 0,0 mm 2,4 km/h (1 Bft) SW 236 ° 0 min 0,000 mm 0,0 UV-I 0 W/m² -1,0 °C 3,8 °C 4,8 km/h (1 Bft)
01.03.2017 18:14 3,8 °C 3,8 °C 71 % 1010,3 hPa 0,0 mm 1,0 km/h (0 Bft) SW 236 ° 0 min 0,000 mm 0,0 UV-I 0 W/m² -1,0 °C 3,8 °C 3,2 km/h (1 Bft)
01.03.2017 18:15 3,8 °C 3,8 °C 71 % 1010,3 hPa 0,0 mm 2,5 km/h (1 Bft) SW 236 ° 0 min 0,000 mm 0,0 UV-I 0 W/m² -1,0 °C 3,8 °C 3,2 km/h (1 Bft)
01.03.2017 18:16 3,8 °C 3,8 °C 72 % 1010,3 hPa 0,0 mm 2,5 km/h (1 Bft) SW 229 ° 0 min 0,000 mm 0,0 UV-I 0 W/m² -0,8 °C 3,8 °C 4,8 km/h (1 Bft)
01.03.2017 18:17 3,8 °C 3,8 °C 71 % 1010,4 hPa 0,0 mm 5,8 km/h (2 Bft) SW 233 ° 0 min 0,000 mm 0,0 UV-I 0 W/m² -1,0 °C 2,4 °C 9,7 km/h (2 Bft)
01.03.2017 18:18 3,8 °C 3,8 °C 71 % 1010,3 hPa 0,0 mm 3,7 km/h (1 Bft) W-SW 246 ° 0 min 0,000 mm 0,0 UV-I 0 W/m² -1,0 °C 3,8 °C 6,4 km/h (2 Bft)
01.03.2017 18:19 3,8 °C 3,8 °C 71 % 1010,3 hPa 0,0 mm 2,5 km/h (1 Bft) SW 223 ° 0 min 0,000 mm 0,0 UV-I 0 W/m² -1,0 °C 3,8 °C 4,8 km/h (1 Bft)
01.03.2017 18:20 3,8 °C 3,8 °C 72 % 1010,3 hPa 0,0 mm 1,5 km/h (1 Bft) SW 223 ° 0 min 0,000 mm 0,0 UV-I 0 W/m² -0,8 °C 3,8 °C 3,2 km/h (1 Bft)
01.03.2017 18:21 3,8 °C 3,8 °C 72 % 1010,4 hPa 0,0 mm 1,7 km/h (1 Bft) SW 223 ° 0 min 0,000 mm 0,0 UV-I 0 W/m² -0,8 °C 3,8 °C 3,2 km/h (1 Bft)
01.03.2017 18:22 3,8 °C 3,8 °C 71 % 1010,4 hPa 0,0 mm 3,2 km/h (1 Bft) SW 225 ° 0 min 0,000 mm 0,0 UV-I 0 W/m² -1,0 °C 3,8 °C 4,8 km/h (1 Bft)
01.03.2017 18:23 3,8 °C 3,8 °C 71 % 1010,4 hPa 0,0 mm 1,7 km/h (1 Bft) SW 225 ° 0 min 0,000 mm 0,0 UV-I 0 W/m² -1,0 °C 3,8 °C 3,2 km/h (1 Bft)
01.03.2017 18:24 3,8 °C 3,8 °C 72 % 1010,4 hPa 0,0 mm 1,4 km/h (1 Bft) SW 225 ° 0 min 0,000 mm 0,0 UV-I 0 W/m² -0,8 °C 3,8 °C 3,2 km/h (1 Bft)
01.03.2017 18:25 3,8 °C 3,8 °C 71 % 1010,4 hPa 0,0 mm 0,5 km/h (0 Bft) SW 225 ° 0 min 0,000 mm 0,0 UV-I 0 W/m² -1,0 °C 3,8 °C 1,6 km/h (1 Bft)
01.03.2017 18:26 3,8 °C 3,8 °C 72 % 1010,4 hPa 0,0 mm 1,3 km/h (1 Bft) SW 225 ° 0 min 0,000 mm 0,0 UV-I 0 W/m² -0,8 °C 3,8 °C 1,6 km/h (1 Bft)
01.03.2017 18:27 3,8 °C 3,8 °C 71 % 1010,5 hPa 0,0 mm 0,0 km/h (0 Bft) SW 225 ° 0 min 0,000 mm 0,0 UV-I 0 W/m² -1,0 °C 3,8 °C 0,0 km/h (0 Bft)
01.03.2017 18:28 3,8 °C 3,8 °C 71 % 1010,4 hPa 0,0 mm 0,3 km/h (0 Bft) SW 225 ° 0 min 0,000 mm 0,0 UV-I 0 W/m² -1,0 °C 3,8 °C 1,6 km/h (1 Bft)
01.03.2017 18:29 3,8 °C 3,8 °C 72 % 1010,4 hPa 0,0 mm 0,3 km/h (0 Bft) SW 225 ° 0 min 0,000 mm 0,0 UV-I 0 W/m² -0,8 °C 3,8 °C 1,6 km/h (1 Bft)
01.03.2017 18:30 3,8 °C 3,8 °C 72 % 1010,5 hPa 0,0 mm 0,5 km/h (0 Bft) SW 225 ° 0 min 0,000 mm 0,0 UV-I 0 W/m² -0,8 °C 3,8 °C 1,6 km/h (1 Bft)
01.03.2017 18:31 3,7 °C 3,8 °C 73 % 1010,4 hPa 0,0 mm 0,1 km/h (0 Bft) SW 225 ° 0 min 0,000 mm 0,0 UV-I 0 W/m² -0,7 °C 3,7 °C 1,6 km/h (1 Bft)
01.03.2017 18:32 3,7 °C 3,7 °C 73 % 1010,4 hPa 0,0 mm 0,0 km/h (0 Bft) SW 225 ° 0 min 0,000 mm 0,0 UV-I 0 W/m² -0,7 °C 3,7 °C 0,0 km/h (0 Bft)
01.03.2017 18:33 3,7 °C 3,7 °C 73 % 1010,4 hPa 0,0 mm 1,8 km/h (1 Bft) SW 225 ° 0 min 0,000 mm 0,0 UV-I 0 W/m² -0,7 °C 3,7 °C 3,2 km/h (1 Bft)
01.03.2017 18:34 3,7 °C 3,7 °C 72 % 1010,4 hPa 0,0 mm 2,7 km/h (1 Bft) SW 225 ° 0 min 0,000 mm 0,0 UV-I 0 W/m² -0,9 °C 3,7 °C 3,2 km/h (1 Bft)
01.03.2017 18:35 3,7 °C 3,7 °C 72 % 1010,3 hPa 0,0 mm 3,5 km/h (1 Bft) S-SW 193 ° 0 min 0,000 mm 0,0 UV-I 0 W/m² -0,9 °C 3,7 °C 4,8 km/h (1 Bft)
01.03.2017 18:36 3,7 °C 3,8 °C 72 % 1010,3 hPa 0,0 mm 3,2 km/h (1 Bft) S 180 ° 0 min 0,000 mm 0,0 UV-I 0 W/m² -0,9 °C 3,7 °C 4,8 km/h (1 Bft)
01.03.2017 18:37 3,7 °C 3,7 °C 74 % 1010,2 hPa 0,0 mm 1,7 km/h (1 Bft) S 180 ° 0 min 0,000 mm 0,0 UV-I 0 W/m² -0,5 °C 3,7 °C 3,2 km/h (1 Bft)
01.03.2017 18:38 3,7 °C 3,7 °C 73 % 1010,2 hPa 0,0 mm 1,5 km/h (1 Bft) S 180 ° 0 min 0,000 mm 0,0 UV-I 0 W/m² -0,7 °C 3,7 °C 1,6 km/h (1 Bft)
01.03.2017 18:39 3,7 °C 3,7 °C 73 % 1010,2 hPa 0,0 mm 0,8 km/h (0 Bft) S 180 ° 0 min 0,000 mm 0,0 UV-I 0 W/m² -0,7 °C 3,7 °C 1,6 km/h (1 Bft)
01.03.2017 18:40 3,6 °C 3,7 °C 74 % 1010,2 hPa 0,0 mm 0,1 km/h (0 Bft) S 180 ° 0 min 0,000 mm 0,0 UV-I 0 W/m² -0,6 °C 3,6 °C 1,6 km/h (1 Bft)
01.03.2017 18:41 3,6 °C 3,6 °C 73 % 1010,2 hPa 0,0 mm 0,1 km/h (0 Bft) S 180 ° 0 min 0,000 mm 0,0 UV-I 0 W/m² -0,8 °C 3,6 °C 1,6 km/h (1 Bft)
01.03.2017 18:42 3,6 °C 3,6 °C 73 % 1010,2 hPa 0,0 mm 0,0 km/h (0 Bft) S 180 ° 0 min 0,000 mm 0,0 UV-I 0 W/m² -0,8 °C 3,6 °C 0,0 km/h (0 Bft)
01.03.2017 18:43 3,6 °C 3,6 °C 73 % 1010,2 hPa 0,0 mm 0,6 km/h (0 Bft) S 180 ° 0 min 0,000 mm 0,0 UV-I 0 W/m² -0,8 °C 3,6 °C 1,6 km/h (1 Bft)
01.03.2017 18:44 3,6 °C 3,6 °C 74 % 1010,2 hPa 0,0 mm 1,3 km/h (1 Bft) S 180 ° 0 min 0,000 mm 0,0 UV-I 0 W/m² -0,6 °C 3,6 °C 3,2 km/h (1 Bft)
01.03.2017 18:45 3,5 °C 3,6 °C 74 % 1010,2 hPa 0,0 mm 0,3 km/h (0 Bft) S 180 ° 0 min 0,000 mm 0,0 UV-I 0 W/m² -0,7 °C 3,5 °C 3,2 km/h (1 Bft)
01.03.2017 18:46 3,4 °C 3,5 °C 75 % 1010,2 hPa 0,0 mm 1,9 km/h (1 Bft) S 180 ° 0 min 0,000 mm 0,0 UV-I 0 W/m² -0,6 °C 3,4 °C 3,2 km/h (1 Bft)
01.03.2017 18:47 3,4 °C 3,4 °C 74 % 1010,3 hPa 0,0 mm 1,1 km/h (1 Bft) S 180 ° 0 min 0,000 mm 0,0 UV-I 0 W/m² -0,8 °C 3,4 °C 3,2 km/h (1 Bft)
01.03.2017 18:48 3,4 °C 3,4 °C 74 % 1010,2 hPa 0,0 mm 1,9 km/h (1 Bft) S 180 ° 0 min 0,000 mm 0,0 UV-I 0 W/m² -0,8 °C 3,4 °C 3,2 km/h (1 Bft)
01.03.2017 18:49 3,4 °C 3,4 °C 74 % 1010,2 hPa 0,0 mm 3,3 km/h (1 Bft) S 180 ° 0 min 0,000 mm 0,0 UV-I 0 W/m² -0,8 °C 3,4 °C 4,8 km/h (1 Bft)
01.03.2017 18:50 3,4 °C 3,4 °C 74 % 1010,2 hPa 0,0 mm 2,6 km/h (1 Bft) S 180 ° 0 min 0,000 mm 0,0 UV-I 0 W/m² -0,8 °C 3,4 °C 3,2 km/h (1 Bft)
01.03.2017 18:51 3,4 °C 3,5 °C 74 % 1010,2 hPa 0,0 mm 1,5 km/h (1 Bft) S 180 ° 0 min 0,000 mm 0,0 UV-I 0 W/m² -0,8 °C 3,4 °C 3,2 km/h (1 Bft)
01.03.2017 18:52 3,5 °C 3,5 °C 74 % 1010,3 hPa 0,0 mm 1,1 km/h (1 Bft) S 180 ° 0 min 0,000 mm 0,0 UV-I 0 W/m² -0,7 °C 3,5 °C 3,2 km/h (1 Bft)
01.03.2017 18:53 3,5 °C 3,5 °C 75 % 1010,2 hPa 0,0 mm 2,6 km/h (1 Bft) S 180 ° 0 min 0,000 mm 0,0 UV-I 0 W/m² -0,5 °C 3,5 °C 4,8 km/h (1 Bft)
01.03.2017 18:54 3,4 °C 3,5 °C 75 % 1010,2 hPa 0,0 mm 4,0 km/h (1 Bft) S 180 ° 0 min 0,000 mm 0,0 UV-I 0 W/m² -0,6 °C 3,4 °C 4,8 km/h (1 Bft)
01.03.2017 18:55 3,4 °C 3,4 °C 74 % 1010,2 hPa 0,0 mm 3,2 km/h (1 Bft) S 180 ° 0 min 0,000 mm 0,0 UV-I 0 W/m² -0,8 °C 3,4 °C 4,8 km/h (1 Bft)
01.03.2017 18:56 3,4 °C 3,4 °C 75 % 1010,1 hPa 0,0 mm 1,4 km/h (1 Bft) S 180 ° 0 min 0,000 mm 0,0 UV-I 0 W/m² -0,6 °C 3,4 °C 3,2 km/h (1 Bft)
01.03.2017 18:57 3,4 °C 3,4 °C 76 % 1010,1 hPa 0,0 mm 0,0 km/h (0 Bft) S 180 ° 0 min 0,000 mm 0,0 UV-I 0 W/m² -0,4 °C 3,4 °C 0,0 km/h (0 Bft)
01.03.2017 18:58 3,4 °C 3,4 °C 75 % 1010,1 hPa 0,0 mm 0,0 km/h (0 Bft) S 180 ° 0 min 0,000 mm 0,0 UV-I 0 W/m² -0,6 °C 3,4 °C 0,0 km/h (0 Bft)
01.03.2017 18:59 3,4 °C 3,4 °C 75 % 1010,2 hPa 0,0 mm 0,1 km/h (0 Bft) S 180 ° 0 min 0,000 mm 0,0 UV-I 0 W/m² -0,6 °C 3,4 °C 1,6 km/h (1 Bft)
01.03.2017 19:00 3,3 °C 3,4 °C 75 % 1010,2 hPa 0,0 mm 0,8 km/h (0 Bft) S 180 ° 0 min 0,000 mm 0,0 UV-I 0 W/m² -0,7 °C 3,3 °C 1,6 km/h (1 Bft)
01.03.2017 19:01 3,3 °C 3,3 °C 75 % 1010,2 hPa 0,0 mm 2,7 km/h (1 Bft) S 180 ° 0 min 0,000 mm 0,0 UV-I 0 W/m² -0,7 °C 3,3 °C 4,8 km/h (1 Bft)
01.03.2017 19:02 3,3 °C 3,3 °C 75 % 1010,2 hPa 0,0 mm 3,4 km/h (1 Bft) S 180 ° 0 min 0,000 mm 0,0 UV-I 0 W/m² -0,7 °C 3,3 °C 4,8 km/h (1 Bft)
01.03.2017 19:03 3,3 °C 3,3 °C 75 % 1010,2 hPa 0,0 mm 4,0 km/h (1 Bft) S 180 ° 0 min 0,000 mm 0,0 UV-I 0 W/m² -0,7 °C 3,3 °C 4,8 km/h (1 Bft)
01.03.2017 19:04 3,3 °C 3,3 °C 74 % 1010,2 hPa 0,0 mm 3,2 km/h (1 Bft) S 181 ° 0 min 0,000 mm 0,0 UV-I 0 W/m² -0,9 °C 3,3 °C 4,8 km/h (1 Bft)
01.03.2017 19:05 3,4 °C 3,4 °C 73 % 1010,1 hPa 0,0 mm 3,5 km/h (1 Bft) S 181 ° 0 min 0,000 mm 0,0 UV-I 0 W/m² -1,0 °C 3,4 °C 4,8 km/h (1 Bft)
01.03.2017 19:06 3,5 °C 3,5 °C 74 % 1010,0 hPa 0,0 mm 3,3 km/h (1 Bft) S 181 ° 0 min 0,000 mm 0,0 UV-I 0 W/m² -0,7 °C 3,5 °C 4,8 km/h (1 Bft)
01.03.2017 19:07 3,4 °C 3,5 °C 74 % 1010,1 hPa 0,0 mm 3,2 km/h (1 Bft) S 181 ° 0 min 0,000 mm 0,0 UV-I 0 W/m² -0,8 °C 3,4 °C 4,8 km/h (1 Bft)
01.03.2017 19:08 3,4 °C 3,4 °C 73 % 1010,0 hPa 0,0 mm 3,0 km/h (1 Bft) S 181 ° 0 min 0,000 mm 0,0 UV-I 0 W/m² -1,0 °C 3,4 °C 4,8 km/h (1 Bft)
01.03.2017 19:09 3,4 °C 3,5 °C 74 % 1009,9 hPa 0,0 mm 1,5 km/h (1 Bft) S 180 ° 0 min 0,000 mm 0,0 UV-I 0 W/m² -0,8 °C 3,4 °C 4,8 km/h (1 Bft)
01.03.2017 19:10 3,4 °C 3,5 °C 74 % 1009,9 hPa 0,0 mm 3,7 km/h (1 Bft) S 180 ° 0 min 0,000 mm 0,0 UV-I 0 W/m² -0,8 °C 3,4 °C 4,8 km/h (1 Bft)
01.03.2017 19:11 3,4 °C 3,4 °C 74 % 1010,0 hPa 0,0 mm 1,5 km/h (1 Bft) S 180 ° 0 min 0,000 mm 0,0 UV-I 0 W/m² -0,8 °C 3,4 °C 3,2 km/h (1 Bft)
01.03.2017 19:12 3,4 °C 3,4 °C 76 % 1010,0 hPa 0,0 mm 0,3 km/h (0 Bft) S 180 ° 0 min 0,000 mm 0,0 UV-I 0 W/m² -0,4 °C 3,4 °C 1,6 km/h (1 Bft)
01.03.2017 19:13 3,3 °C 3,4 °C 76 % 1010,0 hPa 0,0 mm 0,5 km/h (0 Bft) S 180 ° 0 min 0,000 mm 0,0 UV-I 0 W/m² -0,5 °C 3,3 °C 1,6 km/h (1 Bft)
01.03.2017 19:14 3,3 °C 3,3 °C 75 % 1010,0 hPa 0,0 mm 0,5 km/h (0 Bft) S 180 ° 0 min 0,000 mm 0,0 UV-I 0 W/m² -0,7 °C 3,3 °C 1,6 km/h (1 Bft)
01.03.2017 19:15 3,3 °C 3,3 °C 74 % 1010,0 hPa 0,0 mm 1,9 km/h (1 Bft) S 180 ° 0 min 0,000 mm 0,0 UV-I 0 W/m² -0,9 °C 3,3 °C 3,2 km/h (1 Bft)
01.03.2017 19:16 3,3 °C 3,3 °C 75 % 1009,9 hPa 0,0 mm 1,6 km/h (1 Bft) S 180 ° 0 min 0,000 mm 0,0 UV-I 0 W/m² -0,7 °C 3,3 °C 3,2 km/h (1 Bft)
01.03.2017 19:17 3,3 °C 3,3 °C 75 % 1009,9 hPa 0,0 mm 2,4 km/h (1 Bft) S 181 ° 0 min 0,000 mm 0,0 UV-I 0 W/m² -0,7 °C 3,3 °C 4,8 km/h (1 Bft)
01.03.2017 19:18 3,3 °C 3,4 °C 75 % 1009,9 hPa 0,0 mm 2,0 km/h (1 Bft) S 181 ° 0 min 0,000 mm 0,0 UV-I 0 W/m² -0,7 °C 3,3 °C 3,2 km/h (1 Bft)
01.03.2017 19:19 3,4 °C 3,4 °C 74 % 1009,9 hPa 0,0 mm 2,0 km/h (1 Bft) S 181 ° 0 min 0,000 mm 0,0 UV-I 0 W/m² -0,8 °C 3,4 °C 3,2 km/h (1 Bft)
01.03.2017 19:20 3,4 °C 3,4 °C 75 % 1009,9 hPa 0,0 mm 0,8 km/h (0 Bft) S 181 ° 0 min 0,000 mm 0,0 UV-I 0 W/m² -0,6 °C 3,4 °C 1,6 km/h (1 Bft)
01.03.2017 19:21 3,4 °C 3,4 °C 75 % 1009,9 hPa 0,0 mm 0,0 km/h (0 Bft) S 181 ° 0 min 0,000 mm 0,0 UV-I 0 W/m² -0,6 °C 3,4 °C 0,0 km/h (0 Bft)
01.03.2017 19:22 3,4 °C 3,4 °C 76 % 1009,9 hPa 0,0 mm 0,0 km/h (0 Bft) S 181 ° 0 min 0,000 mm 0,0 UV-I 0 W/m² -0,4 °C 3,4 °C 0,0 km/h (0 Bft)
01.03.2017 19:23 3,3 °C 3,4 °C 75 % 1009,9 hPa 0,0 mm 0,4 km/h (0 Bft) S 181 ° 0 min 0,000 mm 0,0 UV-I 0 W/m² -0,7 °C 3,3 °C 1,6 km/h (1 Bft)
01.03.2017 19:24 3,3 °C 3,3 °C 75 % 1009,9 hPa 0,0 mm 1,9 km/h (1 Bft) S 180 ° 0 min 0,000 mm 0,0 UV-I 0 W/m² -0,7 °C 3,3 °C 3,2 km/h (1 Bft)
01.03.2017 19:25 3,3 °C 3,3 °C 77 % 1009,8 hPa 0,0 mm 3,5 km/h (1 Bft) S 180 ° 0 min 0,000 mm 0,0 UV-I 0 W/m² -0,3 °C 3,3 °C 4,8 km/h (1 Bft)
01.03.2017 19:26 3,3 °C 3,3 °C 77 % 1009,9 hPa 0,0 mm 2,0 km/h (1 Bft) S 180 ° 0 min 0,000 mm 0,0 UV-I 0 W/m² -0,3 °C 3,3 °C 3,2 km/h (1 Bft)
01.03.2017 19:27 3,3 °C 3,3 °C 76 % 1009,8 hPa 0,0 mm 1,3 km/h (1 Bft) S 180 ° 0 min 0,000 mm 0,0 UV-I 0 W/m² -0,5 °C 3,3 °C 1,6 km/h (1 Bft)
01.03.2017 19:28 3,3 °C 3,3 °C 77 % 1009,8 hPa 0,0 mm 0,3 km/h (0 Bft) S 180 ° 0 min 0,000 mm 0,0 UV-I 0 W/m² -0,3 °C 3,3 °C 1,6 km/h (1 Bft)
01.03.2017 19:29 3,2 °C 3,3 °C 78 % 1009,8 hPa 0,0 mm 0,0 km/h (0 Bft) S 180 ° 0 min 0,000 mm 0,0 UV-I 0 W/m² -0,3 °C 3,2 °C 0,0 km/h (0 Bft)
01.03.2017 19:30 3,2 °C 3,2 °C 78 % 1009,9 hPa 0,0 mm 0,0 km/h (0 Bft) S 180 ° 0 min 0,000 mm 0,0 UV-I 0 W/m² -0,3 °C 3,2 °C 0,0 km/h (0 Bft)
01.03.2017 19:31 3,1 °C 3,2 °C 78 % 1009,9 hPa 0,0 mm 0,0 km/h (0 Bft) S 180 ° 0 min 0,000 mm 0,0 UV-I 0 W/m² -0,4 °C 3,1 °C 0,0 km/h (0 Bft)
01.03.2017 19:32 3,1 °C 3,1 °C 77 % 1009,8 hPa 0,0 mm 0,1 km/h (0 Bft) S 180 ° 0 min 0,000 mm 0,0 UV-I 0 W/m² -0,5 °C 3,1 °C 1,6 km/h (1 Bft)
01.03.2017 19:33 3,1 °C 3,1 °C 78 % 1009,8 hPa 0,0 mm 1,7 km/h (1 Bft) S 180 ° 0 min 0,000 mm 0,0 UV-I 0 W/m² -0,4 °C 3,1 °C 3,2 km/h (1 Bft)
01.03.2017 19:34 3,1 °C 3,1 °C 78 % 1009,7 hPa 0,0 mm 2,6 km/h (1 Bft) S 180 ° 0 min 0,000 mm 0,0 UV-I 0 W/m² -0,4 °C 3,1 °C 3,2 km/h (1 Bft)
01.03.2017 19:35 3,1 °C 3,1 °C 77 % 1009,8 hPa 0,0 mm 1,5 km/h (1 Bft) S 180 ° 0 min 0,000 mm 0,0 UV-I 0 W/m² -0,5 °C 3,1 °C 3,2 km/h (1 Bft)
01.03.2017 19:36 3,1 °C 3,1 °C 77 % 1009,8 hPa 0,0 mm 1,3 km/h (1 Bft) S 180 ° 0 min 0,000 mm 0,0 UV-I 0 W/m² -0,5 °C 3,1 °C 3,2 km/h (1 Bft)
01.03.2017 19:37 3,1 °C 3,1 °C 77 % 1009,7 hPa 0,0 mm 1,9 km/h (1 Bft) S 180 ° 0 min 0,000 mm 0,0 UV-I 0 W/m² -0,5 °C 3,1 °C 3,2 km/h (1 Bft)
01.03.2017 19:38 3,1 °C 3,1 °C 77 % 1009,8 hPa 0,0 mm 0,3 km/h (0 Bft) S 180 ° 0 min 0,000 mm 0,0 UV-I 0 W/m² -0,5 °C 3,1 °C 3,2 km/h (1 Bft)
01.03.2017 19:39 3,1 °C 3,1 °C 78 % 1009,7 hPa 0,0 mm 2,1 km/h (1 Bft) S 180 ° 0 min 0,000 mm 0,0 UV-I 0 W/m² -0,4 °C 3,1 °C 3,2 km/h (1 Bft)
01.03.2017 19:40 3,1 °C 3,1 °C 78 % 1009,8 hPa 0,0 mm 2,2 km/h (1 Bft) S 180 ° 0 min 0,000 mm 0,0 UV-I 0 W/m² -0,4 °C 3,1 °C 3,2 km/h (1 Bft)
01.03.2017 19:41 3,1 °C 3,1 °C 78 % 1009,9 hPa 0,0 mm 1,2 km/h (1 Bft) S 180 ° 0 min 0,000 mm 0,0 UV-I 0 W/m² -0,4 °C 3,1 °C 1,6 km/h (1 Bft)
01.03.2017 19:42 3,0 °C 3,1 °C 79 % 1009,9 hPa 0,0 mm 0,1 km/h (0 Bft) S 180 ° 0 min 0,000 mm 0,0 UV-I 0 W/m² -0,3 °C 3,0 °C 1,6 km/h (1 Bft)
01.03.2017 19:43 2,9 °C 3,0 °C 79 % 1009,8 hPa 0,0 mm 0,0 km/h (0 Bft) S 180 ° 0 min 0,000 mm 0,0 UV-I 0 W/m² -0,4 °C 2,9 °C 0,0 km/h (0 Bft)
01.03.2017 19:44 2,9 °C 2,9 °C 79 % 1009,8 hPa 0,0 mm 0,1 km/h (0 Bft) S 180 ° 0 min 0,000 mm 0,0 UV-I 0 W/m² -0,4 °C 2,9 °C 1,6 km/h (1 Bft)
01.03.2017 19:45 2,9 °C 2,9 °C 78 % 1009,9 hPa 0,0 mm 2,5 km/h (1 Bft) S 180 ° 0 min 0,000 mm 0,0 UV-I 0 W/m² -0,5 °C 2,9 °C 4,8 km/h (1 Bft)
01.03.2017 19:46 2,9 °C 2,9 °C 78 % 1009,9 hPa 0,0 mm 1,4 km/h (1 Bft) S 180 ° 0 min 0,000 mm 0,0 UV-I 0 W/m² -0,5 °C 2,9 °C 3,2 km/h (1 Bft)
01.03.2017 19:47 2,8 °C 2,9 °C 79 % 1009,9 hPa 0,0 mm 0,6 km/h (0 Bft) S 180 ° 0 min 0,000 mm 0,0 UV-I 0 W/m² -0,5 °C 2,8 °C 1,6 km/h (1 Bft)
01.03.2017 19:48 2,9 °C 2,9 °C 78 % 1009,8 hPa 0,0 mm 0,3 km/h (0 Bft) S 180 ° 0 min 0,000 mm 0,0 UV-I 0 W/m² -0,5 °C 2,9 °C 1,6 km/h (1 Bft)
01.03.2017 19:49 2,9 °C 2,9 °C 78 % 1009,8 hPa 0,0 mm 0,0 km/h (0 Bft) S 180 ° 0 min 0,000 mm 0,0 UV-I 0 W/m² -0,5 °C 2,9 °C 0,0 km/h (0 Bft)
01.03.2017 19:50 2,9 °C 2,9 °C 79 % 1009,8 hPa 0,0 mm 0,6 km/h (0 Bft) S 180 ° 0 min 0,000 mm 0,0 UV-I 0 W/m² -0,4 °C 2,9 °C 1,6 km/h (1 Bft)
01.03.2017 19:51 2,9 °C 2,9 °C 78 % 1009,8 hPa 0,0 mm 0,7 km/h (0 Bft) S 180 ° 0 min 0,000 mm 0,0 UV-I 0 W/m² -0,5 °C 2,9 °C 1,6 km/h (1 Bft)
01.03.2017 19:52 2,9 °C 2,9 °C 78 % 1009,8 hPa 0,0 mm 1,2 km/h (1 Bft) S 180 ° 0 min 0,000 mm 0,0 UV-I 0 W/m² -0,5 °C 2,9 °C 1,6 km/h (1 Bft)
01.03.2017 19:53 2,9 °C 2,9 °C 79 % 1009,8 hPa 0,0 mm 0,8 km/h (0 Bft) S 180 ° 0 min 0,000 mm 0,0 UV-I 0 W/m² -0,4 °C 2,9 °C 1,6 km/h (1 Bft)
01.03.2017 19:54 2,9 °C 2,9 °C 78 % 1009,8 hPa 0,0 mm 1,7 km/h (1 Bft) S 180 ° 0 min 0,000 mm 0,0 UV-I 0 W/m² -0,5 °C 2,9 °C 3,2 km/h (1 Bft)
01.03.2017 19:55 3,0 °C 3,0 °C 79 % 1009,8 hPa 0,0 mm 2,4 km/h (1 Bft) S 180 ° 0 min 0,000 mm 0,0 UV-I 0 W/m² -0,3 °C 3,0 °C 3,2 km/h (1 Bft)
01.03.2017 19:56 3,0 °C 3,0 °C 79 % 1009,7 hPa 0,0 mm 0,5 km/h (0 Bft) S 180 ° 0 min 0,000 mm 0,0 UV-I 0 W/m² -0,3 °C 3,0 °C 1,6 km/h (1 Bft)
01.03.2017 19:57 3,0 °C 3,0 °C 79 % 1009,8 hPa 0,0 mm 0,0 km/h (0 Bft) S 180 ° 0 min 0,000 mm 0,0 UV-I 0 W/m² -0,3 °C 3,0 °C 0,0 km/h (0 Bft)
01.03.2017 19:58 2,9 °C 3,0 °C 79 % 1009,8 hPa 0,0 mm 0,0 km/h (0 Bft) S 180 ° 0 min 0,000 mm 0,0 UV-I 0 W/m² -0,4 °C 2,9 °C 0,0 km/h (0 Bft)
01.03.2017 19:59 2,9 °C 2,9 °C 80 % 1009,8 hPa 0,0 mm 0,0 km/h (0 Bft) S 180 ° 0 min 0,000 mm 0,0 UV-I 0 W/m² -0,2 °C 2,9 °C 0,0 km/h (0 Bft)
01.03.2017 20:00 2,8 °C 2,9 °C 80 % 1009,7 hPa 0,0 mm 0,1 km/h (0 Bft) S 180 ° 0 min 0,000 mm 0,0 UV-I 0 W/m² -0,3 °C 2,8 °C 1,6 km/h (1 Bft)
01.03.2017 20:01 2,8 °C 2,8 °C 80 % 1009,8 hPa 0,0 mm 0,3 km/h (0 Bft) S 180 ° 0 min 0,025 mm 0,0 UV-I 0 W/m² -0,3 °C 2,8 °C 1,6 km/h (1 Bft)
01.03.2017 20:02 2,8 °C 2,8 °C 79 % 1009,8 hPa 0,0 mm 0,0 km/h (0 Bft) S 180 ° 0 min 0,000 mm 0,0 UV-I 0 W/m² -0,5 °C 2,8 °C 0,0 km/h (0 Bft)
01.03.2017 20:03 2,8 °C 2,8 °C 80 % 1009,8 hPa 0,0 mm 0,1 km/h (0 Bft) S 180 ° 0 min 0,000 mm 0,0 UV-I 0 W/m² -0,3 °C 2,8 °C 1,6 km/h (1 Bft)
01.03.2017 20:04 2,8 °C 2,8 °C 80 % 1009,7 hPa 0,0 mm 1,7 km/h (1 Bft) S 180 ° 0 min 0,000 mm 0,0 UV-I 0 W/m² -0,3 °C 2,8 °C 3,2 km/h (1 Bft)
01.03.2017 20:05 2,8 °C 2,8 °C 79 % 1009,7 hPa 0,0 mm 0,3 km/h (0 Bft) S 180 ° 0 min 0,000 mm 0,0 UV-I 0 W/m² -0,5 °C 2,8 °C 1,6 km/h (1 Bft)
01.03.2017 20:06 2,9 °C 2,9 °C 79 % 1009,7 hPa 0,0 mm 0,0 km/h (0 Bft) S 180 ° 0 min 0,000 mm 0,0 UV-I 0 W/m² -0,4 °C 2,9 °C 0,0 km/h (0 Bft)
01.03.2017 20:07 2,9 °C 2,9 °C 80 % 1009,7 hPa 0,0 mm 0,1 km/h (0 Bft) S 180 ° 0 min 0,000 mm 0,0 UV-I 0 W/m² -0,2 °C 2,9 °C 1,6 km/h (1 Bft)
01.03.2017 20:08 2,9 °C 2,9 °C 80 % 1009,6 hPa 0,0 mm 0,2 km/h (0 Bft) S 180 ° 0 min 0,000 mm 0,0 UV-I 0 W/m² -0,2 °C 2,9 °C 1,6 km/h (1 Bft)
01.03.2017 20:09 2,8 °C 2,9 °C 80 % 1009,6 hPa 0,0 mm 0,1 km/h (0 Bft) S 180 ° 0 min 0,000 mm 0,0 UV-I 0 W/m² -0,3 °C 2,8 °C 1,6 km/h (1 Bft)
01.03.2017 20:10 2,8 °C 2,8 °C 81 % 1009,6 hPa 0,0 mm 0,7 km/h (0 Bft) S 180 ° 0 min 0,000 mm 0,0 UV-I 0 W/m² -0,1 °C 2,8 °C 3,2 km/h (1 Bft)
01.03.2017 20:11 2,8 °C 2,8 °C 79 % 1009,7 hPa 0,0 mm 3,4 km/h (1 Bft) S 180 ° 0 min 0,000 mm 0,0 UV-I 0 W/m² -0,5 °C 2,8 °C 4,8 km/h (1 Bft)
01.03.2017 20:12 2,8 °C 2,8 °C 79 % 1009,6 hPa 0,0 mm 5,1 km/h (1 Bft) S-SO 158 ° 0 min 0,000 mm 0,0 UV-I 0 W/m² -0,5 °C 1,5 °C 8,0 km/h (2 Bft)
01.03.2017 20:13 2,9 °C 2,9 °C 79 % 1009,5 hPa 0,0 mm 3,3 km/h (1 Bft) S-SO 158 ° 0 min 0,000 mm 0,0 UV-I 0 W/m² -0,4 °C 2,9 °C 4,8 km/h (1 Bft)
01.03.2017 20:14 2,9 °C 2,9 °C 80 % 1009,6 hPa 0,0 mm 2,3 km/h (1 Bft) S-SO 158 ° 0 min 0,000 mm 0,0 UV-I 0 W/m² -0,2 °C 2,9 °C 3,2 km/h (1 Bft)
01.03.2017 20:15 2,9 °C 2,9 °C 79 % 1009,6 hPa 0,0 mm 1,9 km/h (1 Bft) S-SO 158 ° 0 min 0,000 mm 0,0 UV-I 0 W/m² -0,4 °C 2,9 °C 3,2 km/h (1 Bft)
01.03.2017 20:16 2,9 °C 2,9 °C 79 % 1009,6 hPa 0,0 mm 0,9 km/h (0 Bft) S-SO 158 ° 0 min 0,000 mm 0,0 UV-I 0 W/m² -0,4 °C 2,9 °C 1,6 km/h (1 Bft)
01.03.2017 20:17 2,9 °C 3,0 °C 80 % 1009,6 hPa 0,0 mm 2,5 km/h (1 Bft) S-SO 163 ° 0 min 0,000 mm 0,0 UV-I 0 W/m² -0,2 °C 2,9 °C 3,2 km/h (1 Bft)
01.03.2017 20:18 2,9 °C 2,9 °C 79 % 1009,7 hPa 0,0 mm 3,4 km/h (1 Bft) SW 215 ° 0 min 0,000 mm 0,0 UV-I 0 W/m² -0,4 °C 2,9 °C 4,8 km/h (1 Bft)
01.03.2017 20:19 2,9 °C 2,9 °C 80 % 1009,6 hPa 0,0 mm 1,7 km/h (1 Bft) SW 215 ° 0 min 0,000 mm 0,0 UV-I 0 W/m² -0,2 °C 2,9 °C 3,2 km/h (1 Bft)
01.03.2017 20:20 2,9 °C 2,9 °C 80 % 1009,7 hPa 0,0 mm 0,4 km/h (0 Bft) SW 215 ° 0 min 0,000 mm 0,0 UV-I 0 W/m² -0,2 °C 2,9 °C 1,6 km/h (1 Bft)
01.03.2017 20:21 2,9 °C 2,9 °C 80 % 1009,7 hPa 0,0 mm 0,9 km/h (0 Bft) SW 215 ° 0 min 0,000 mm 0,0 UV-I 0 W/m² -0,2 °C 2,9 °C 1,6 km/h (1 Bft)
01.03.2017 20:22 2,9 °C 2,9 °C 80 % 1009,6 hPa 0,0 mm 1,4 km/h (1 Bft) S-SW 197 ° 0 min 0,000 mm 0,0 UV-I 0 W/m² -0,2 °C 2,9 °C 3,2 km/h (1 Bft)
01.03.2017 20:23 2,9 °C 2,9 °C 80 % 1009,5 hPa 0,0 mm 1,5 km/h (1 Bft) S-SW 197 ° 0 min 0,000 mm 0,0 UV-I 0 W/m² -0,2 °C 2,9 °C 3,2 km/h (1 Bft)
01.03.2017 20:24 2,9 °C 2,9 °C 80 % 1009,6 hPa 0,0 mm 0,2 km/h (0 Bft) S-SW 197 ° 0 min 0,000 mm 0,0 UV-I 0 W/m² -0,2 °C 2,9 °C 1,6 km/h (1 Bft)
01.03.2017 20:25 2,9 °C 2,9 °C 80 % 1009,6 hPa 0,0 mm 0,1 km/h (0 Bft) S-SW 197 ° 0 min 0,000 mm 0,0 UV-I 0 W/m² -0,2 °C 2,9 °C 1,6 km/h (1 Bft)
01.03.2017 20:26 2,8 °C 2,9 °C 81 % 1009,5 hPa 0,0 mm 1,6 km/h (1 Bft) S-SW 198 ° 0 min 0,000 mm 0,0 UV-I 0 W/m² -0,1 °C 2,8 °C 3,2 km/h (1 Bft)
01.03.2017 20:27 2,8 °C 2,8 °C 81 % 1009,6 hPa 0,0 mm 1,0 km/h (0 Bft) S-SW 198 ° 0 min 0,000 mm 0,0 UV-I 0 W/m² -0,1 °C 2,8 °C 1,6 km/h (1 Bft)
01.03.2017 20:28 2,8 °C 2,8 °C 81 % 1009,5 hPa 0,0 mm 0,3 km/h (0 Bft) S-SW 198 ° 0 min 0,000 mm 0,0 UV-I 0 W/m² -0,1 °C 2,8 °C 1,6 km/h (1 Bft)
01.03.2017 20:29 2,8 °C 2,8 °C 81 % 1009,5 hPa 0,0 mm 0,1 km/h (0 Bft) S-SW 198 ° 0 min 0,000 mm 0,0 UV-I 0 W/m² -0,1 °C 2,8 °C 1,6 km/h (1 Bft)
01.03.2017 20:30 2,7 °C 2,8 °C 82 % 1009,5 hPa 0,0 mm 0,4 km/h (0 Bft) S-SW 198 ° 0 min 0,000 mm 0,0 UV-I 0 W/m² -0,1 °C 2,7 °C 1,6 km/h (1 Bft)
01.03.2017 20:31 2,8 °C 2,8 °C 81 % 1009,5 hPa 0,0 mm 1,2 km/h (1 Bft) S-SW 197 ° 0 min 0,000 mm 0,0 UV-I 0 W/m² -0,1 °C 2,8 °C 1,6 km/h (1 Bft)
01.03.2017 20:32 2,7 °C 2,8 °C 81 % 1009,5 hPa 0,0 mm 2,3 km/h (1 Bft) S-SW 197 ° 0 min 0,000 mm 0,0 UV-I 0 W/m² -0,2 °C 2,7 °C 3,2 km/h (1 Bft)
01.03.2017 20:33 2,8 °C 2,8 °C 81 % 1009,5 hPa 0,0 mm 2,3 km/h (1 Bft) S-SW 197 ° 0 min 0,000 mm 0,0 UV-I 0 W/m² -0,1 °C 2,8 °C 4,8 km/h (1 Bft)
01.03.2017 20:34 2,8 °C 2,8 °C 81 % 1009,5 hPa 0,0 mm 4,2 km/h (1 Bft) S 187 ° 0 min 0,000 mm 0,0 UV-I 0 W/m² -0,1 °C 2,8 °C 4,8 km/h (1 Bft)
01.03.2017 20:35 2,8 °C 2,8 °C 81 % 1009,4 hPa 0,0 mm 2,6 km/h (1 Bft) S 187 ° 0 min 0,000 mm 0,0 UV-I 0 W/m² -0,1 °C 2,8 °C 3,2 km/h (1 Bft)
01.03.2017 20:36 2,9 °C 2,9 °C 81 % 1009,4 hPa 0,0 mm 0,3 km/h (0 Bft) S 187 ° 0 min 0,000 mm 0,0 UV-I 0 W/m² -0,0 °C 2,9 °C 1,6 km/h (1 Bft)
01.03.2017 20:37 2,9 °C 2,9 °C 82 % 1009,4 hPa 0,0 mm 0,1 km/h (0 Bft) S 187 ° 0 min 0,000 mm 0,0 UV-I 0 W/m² 0,1 °C 2,9 °C 1,6 km/h (1 Bft)
01.03.2017 20:38 2,8 °C 2,9 °C 81 % 1009,4 hPa 0,0 mm 0,5 km/h (0 Bft) S 187 ° 0 min 0,000 mm 0,0 UV-I 0 W/m² -0,1 °C 2,8 °C 1,6 km/h (1 Bft)
01.03.2017 20:39 2,9 °C 2,9 °C 81 % 1009,4 hPa 0,0 mm 0,1 km/h (0 Bft) S 187 ° 0 min 0,000 mm 0,0 UV-I 0 W/m² -0,0 °C 2,9 °C 1,6 km/h (1 Bft)
01.03.2017 20:40 2,8 °C 2,9 °C 81 % 1009,4 hPa 0,0 mm 0,0 km/h (0 Bft) S 187 ° 0 min 0,000 mm 0,0 UV-I 0 W/m² -0,1 °C 2,8 °C 0,0 km/h (0 Bft)
01.03.2017 20:41 2,8 °C 2,8 °C 81 % 1009,4 hPa 0,0 mm 0,0 km/h (0 Bft) S 187 ° 0 min 0,000 mm 0,0 UV-I 0 W/m² -0,1 °C 2,8 °C 0,0 km/h (0 Bft)
01.03.2017 20:42 2,8 °C 2,8 °C 81 % 1009,3 hPa 0,0 mm 0,3 km/h (0 Bft) S 187 ° 0 min 0,000 mm 0,0 UV-I 0 W/m² -0,1 °C 2,8 °C 1,6 km/h (1 Bft)
01.03.2017 20:43 2,8 °C 2,8 °C 81 % 1009,3 hPa 0,0 mm 0,3 km/h (0 Bft) S 187 ° 0 min 0,000 mm 0,0 UV-I 0 W/m² -0,1 °C 2,8 °C 1,6 km/h (1 Bft)
01.03.2017 20:44 2,7 °C 2,8 °C 82 % 1009,2 hPa 0,0 mm 1,5 km/h (1 Bft) S 187 ° 0 min 0,000 mm 0,0 UV-I 0 W/m² -0,1 °C 2,7 °C 3,2 km/h (1 Bft)
01.03.2017 20:45 2,7 °C 2,8 °C 81 % 1009,3 hPa 0,0 mm 0,1 km/h (0 Bft) S 187 ° 0 min 0,000 mm 0,0 UV-I 0 W/m² -0,2 °C 2,7 °C 1,6 km/h (1 Bft)
01.03.2017 20:46 2,7 °C 2,8 °C 82 % 1009,3 hPa 0,0 mm 0,0 km/h (0 Bft) S 187 ° 0 min 0,000 mm 0,0 UV-I 0 W/m² -0,1 °C 2,7 °C 0,0 km/h (0 Bft)
01.03.2017 20:47 2,7 °C 2,8 °C 82 % 1009,3 hPa 0,0 mm 0,0 km/h (0 Bft) S 187 ° 0 min 0,000 mm 0,0 UV-I 0 W/m² -0,1 °C 2,7 °C 0,0 km/h (0 Bft)
01.03.2017 20:48 2,7 °C 2,7 °C 82 % 1009,2 hPa 0,0 mm 0,0 km/h (0 Bft) S 187 ° 0 min 0,000 mm 0,0 UV-I 0 W/m² -0,1 °C 2,7 °C 0,0 km/h (0 Bft)
01.03.2017 20:49 2,7 °C 2,7 °C 82 % 1009,2 hPa 0,0 mm 0,0 km/h (0 Bft) S 187 ° 0 min 0,000 mm 0,0 UV-I 0 W/m² -0,1 °C 2,7 °C 0,0 km/h (0 Bft)
01.03.2017 20:50 2,7 °C 2,7 °C 82 % 1009,3 hPa 0,0 mm 0,1 km/h (0 Bft) S 187 ° 0 min 0,000 mm 0,0 UV-I 0 W/m² -0,1 °C 2,7 °C 1,6 km/h (1 Bft)
01.03.2017 20:51 2,7 °C 2,7 °C 81 % 1009,3 hPa 0,0 mm 0,0 km/h (0 Bft) S 187 ° 0 min 0,000 mm 0,0 UV-I 0 W/m² -0,2 °C 2,7 °C 0,0 km/h (0 Bft)
01.03.2017 20:52 2,7 °C 2,7 °C 81 % 1009,3 hPa 0,0 mm 0,0 km/h (0 Bft) S 187 ° 0 min 0,000 mm 0,0 UV-I 0 W/m² -0,2 °C 2,7 °C 0,0 km/h (0 Bft)
01.03.2017 20:53 2,7 °C 2,8 °C 81 % 1009,3 hPa 0,0 mm 0,0 km/h (0 Bft) S 187 ° 0 min 0,000 mm 0,0 UV-I 0 W/m² -0,2 °C 2,7 °C 0,0 km/h (0 Bft)
01.03.2017 20:54 2,7 °C 2,7 °C 81 % 1009,3 hPa 0,0 mm 0,1 km/h (0 Bft) S 187 ° 0 min 0,000 mm 0,0 UV-I 0 W/m² -0,2 °C 2,7 °C 1,6 km/h (1 Bft)
01.03.2017 20:55 2,7 °C 2,7 °C 82 % 1009,2 hPa 0,0 mm 0,7 km/h (0 Bft) S 187 ° 0 min 0,000 mm 0,0 UV-I 0 W/m² -0,1 °C 2,7 °C 1,6 km/h (1 Bft)
01.03.2017 20:56 2,7 °C 2,7 °C 82 % 1009,2 hPa 0,0 mm 0,0 km/h (0 Bft) S 187 ° 0 min 0,000 mm 0,0 UV-I 0 W/m² -0,1 °C 2,7 °C 0,0 km/h (0 Bft)
01.03.2017 20:57 2,7 °C 2,7 °C 82 % 1009,2 hPa 0,0 mm 0,0 km/h (0 Bft) S 187 ° 0 min 0,000 mm 0,0 UV-I 0 W/m² -0,1 °C 2,7 °C 0,0 km/h (0 Bft)
01.03.2017 20:58 2,7 °C 2,7 °C 82 % 1009,2 hPa 0,0 mm 0,0 km/h (0 Bft) S 187 ° 0 min 0,000 mm 0,0 UV-I 0 W/m² -0,1 °C 2,7 °C 0,0 km/h (0 Bft)
01.03.2017 20:59 2,7 °C 2,7 °C 81 % 1009,2 hPa 0,0 mm 0,0 km/h (0 Bft) S 187 ° 0 min 0,000 mm 0,0 UV-I 0 W/m² -0,2 °C 2,7 °C 0,0 km/h (0 Bft)
01.03.2017 21:00 2,7 °C 2,7 °C 81 % 1009,2 hPa 0,0 mm 0,4 km/h (0 Bft) S 187 ° 0 min 0,000 mm 0,0 UV-I 0 W/m² -0,2 °C 2,7 °C 1,6 km/h (1 Bft)
01.03.2017 21:01 2,7 °C 2,7 °C 81 % 1009,2 hPa 0,0 mm 0,0 km/h (0 Bft) S 187 ° 0 min 0,000 mm 0,0 UV-I 0 W/m² -0,2 °C 2,7 °C 0,0 km/h (0 Bft)
01.03.2017 21:02 2,7 °C 2,7 °C 81 % 1009,2 hPa 0,0 mm 0,0 km/h (0 Bft) S 187 ° 0 min 0,000 mm 0,0 UV-I 0 W/m² -0,2 °C 2,7 °C 0,0 km/h (0 Bft)
01.03.2017 21:03 2,7 °C 2,7 °C 82 % 1009,2 hPa 0,0 mm 1,0 km/h (0 Bft) S 187 ° 0 min 0,000 mm 0,0 UV-I 0 W/m² -0,1 °C 2,7 °C 1,6 km/h (1 Bft)
01.03.2017 21:04 2,7 °C 2,7 °C 81 % 1009,1 hPa 0,0 mm 1,7 km/h (1 Bft) S 187 ° 0 min 0,000 mm 0,0 UV-I 0 W/m² -0,2 °C 2,7 °C 3,2 km/h (1 Bft)
01.03.2017 21:05 2,7 °C 2,7 °C 81 % 1009,1 hPa 0,0 mm 1,9 km/h (1 Bft) S 187 ° 0 min 0,000 mm 0,0 UV-I 0 W/m² -0,2 °C 2,7 °C 3,2 km/h (1 Bft)
01.03.2017 21:06 2,7 °C 2,7 °C 82 % 1009,1 hPa 0,0 mm 0,6 km/h (0 Bft) S 187 ° 0 min 0,000 mm 0,0 UV-I 0 W/m² -0,1 °C 2,7 °C 1,6 km/h (1 Bft)
01.03.2017 21:07 2,7 °C 2,7 °C 82 % 1009,1 hPa 0,0 mm 0,7 km/h (0 Bft) S 187 ° 0 min 0,000 mm 0,0 UV-I 0 W/m² -0,1 °C 2,7 °C 1,6 km/h (1 Bft)
01.03.2017 21:08 2,6 °C 2,7 °C 82 % 1009,1 hPa 0,0 mm 1,2 km/h (1 Bft) S 187 ° 0 min 0,000 mm 0,0 UV-I 0 W/m² -0,2 °C 2,6 °C 3,2 km/h (1 Bft)
01.03.2017 21:09 2,6 °C 2,6 °C 82 % 1009,1 hPa 0,0 mm 0,7 km/h (0 Bft) S 187 ° 0 min 0,000 mm 0,0 UV-I 0 W/m² -0,2 °C 2,6 °C 3,2 km/h (1 Bft)
01.03.2017 21:10 2,6 °C 2,6 °C 82 % 1009,1 hPa 0,0 mm 0,6 km/h (0 Bft) S 187 ° 0 min 0,000 mm 0,0 UV-I 0 W/m² -0,2 °C 2,6 °C 1,6 km/h (1 Bft)
01.03.2017 21:11 2,6 °C 2,6 °C 82 % 1009,1 hPa 0,0 mm 0,1 km/h (0 Bft) S 187 ° 0 min 0,000 mm 0,0 UV-I 0 W/m² -0,2 °C 2,6 °C 1,6 km/h (1 Bft)
01.03.2017 21:12 2,6 °C 2,6 °C 83 % 1009,1 hPa 0,0 mm 0,0 km/h (0 Bft) S 187 ° 0 min 0,000 mm 0,0 UV-I 0 W/m² 0,0 °C 2,6 °C 0,0 km/h (0 Bft)
01.03.2017 21:13 2,6 °C 2,6 °C 82 % 1009,1 hPa 0,0 mm 0,5 km/h (0 Bft) S 187 ° 0 min 0,000 mm 0,0 UV-I 0 W/m² -0,2 °C 2,6 °C 1,6 km/h (1 Bft)
01.03.2017 21:14 2,6 °C 2,6 °C 82 % 1009,1 hPa 0,0 mm 0,9 km/h (0 Bft) S 187 ° 0 min 0,000 mm 0,0 UV-I 0 W/m² -0,2 °C 2,6 °C 1,6 km/h (1 Bft)
01.03.2017 21:15 2,6 °C 2,6 °C 82 % 1009,1 hPa 0,0 mm 0,0 km/h (0 Bft) S 187 ° 0 min 0,000 mm 0,0 UV-I 0 W/m² -0,2 °C 2,6 °C 0,0 km/h (0 Bft)
01.03.2017 21:16 2,6 °C 2,6 °C 82 % 1009,1 hPa 0,0 mm 0,5 km/h (0 Bft) S 187 ° 0 min 0,000 mm 0,0 UV-I 0 W/m² -0,2 °C 2,6 °C 1,6 km/h (1 Bft)
01.03.2017 21:17 2,7 °C 2,7 °C 82 % 1009,1 hPa 0,0 mm 0,6 km/h (0 Bft) S 187 ° 0 min 0,000 mm 0,0 UV-I 0 W/m² -0,1 °C 2,7 °C 1,6 km/h (1 Bft)
01.03.2017 21:18 2,7 °C 2,7 °C 82 % 1009,1 hPa 0,0 mm 0,7 km/h (0 Bft) S 187 ° 0 min 0,000 mm 0,0 UV-I 0 W/m² -0,1 °C 2,7 °C 1,6 km/h (1 Bft)
01.03.2017 21:19 2,7 °C 2,7 °C 82 % 1009,0 hPa 0,0 mm 0,8 km/h (0 Bft) S 187 ° 0 min 0,000 mm 0,0 UV-I 0 W/m² -0,1 °C 2,7 °C 1,6 km/h (1 Bft)
01.03.2017 21:20 2,7 °C 2,7 °C 82 % 1009,1 hPa 0,0 mm 0,0 km/h (0 Bft) S 187 ° 0 min 0,000 mm 0,0 UV-I 0 W/m² -0,1 °C 2,7 °C 0,0 km/h (0 Bft)
01.03.2017 21:21 2,8 °C 2,8 °C 82 % 1009,1 hPa 0,0 mm 0,0 km/h (0 Bft) S 187 ° 0 min 0,000 mm 0,0 UV-I 0 W/m² 0,0 °C 2,8 °C 0,0 km/h (0 Bft)
01.03.2017 21:22 2,8 °C 2,8 °C 82 % 1009,0 hPa 0,0 mm 0,6 km/h (0 Bft) S 187 ° 0 min 0,000 mm 0,0 UV-I 0 W/m² 0,0 °C 2,8 °C 1,6 km/h (1 Bft)
01.03.2017 21:23 2,8 °C 2,8 °C 82 % 1009,0 hPa 0,0 mm 0,2 km/h (0 Bft) S 187 ° 0 min 0,000 mm 0,0 UV-I 0 W/m² 0,0 °C 2,8 °C 1,6 km/h (1 Bft)
01.03.2017 21:24 2,8 °C 2,8 °C 82 % 1009,1 hPa 0,0 mm 0,7 km/h (0 Bft) S 187 ° 0 min 0,000 mm 0,0 UV-I 0 W/m² 0,0 °C 2,8 °C 3,2 km/h (1 Bft)
01.03.2017 21:25 2,7 °C 2,8 °C 82 % 1009,0 hPa 0,0 mm 0,9 km/h (0 Bft) S 187 ° 0 min 0,000 mm 0,0 UV-I 0 W/m² -0,1 °C 2,7 °C 3,2 km/h (1 Bft)
01.03.2017 21:26 2,7 °C 2,8 °C 82 % 1009,1 hPa 0,0 mm 1,0 km/h (0 Bft) S 187 ° 0 min 0,000 mm 0,0 UV-I 0 W/m² -0,1 °C 2,7 °C 3,2 km/h (1 Bft)
01.03.2017 21:27 2,7 °C 2,7 °C 82 % 1009,0 hPa 0,0 mm 0,1 km/h (0 Bft) S 188 ° 0 min 0,000 mm 0,0 UV-I 0 W/m² -0,1 °C 2,7 °C 1,6 km/h (1 Bft)
01.03.2017 21:28 2,7 °C 2,7 °C 82 % 1009,0 hPa 0,0 mm 0,0 km/h (0 Bft) S 187 ° 0 min 0,000 mm 0,0 UV-I 0 W/m² -0,1 °C 2,7 °C 0,0 km/h (0 Bft)
01.03.2017 21:29 2,7 °C 2,7 °C 82 % 1009,1 hPa 0,0 mm 1,0 km/h (0 Bft) S 187 ° 0 min 0,000 mm 0,0 UV-I 0 W/m² -0,1 °C 2,7 °C 3,2 km/h (1 Bft)
01.03.2017 21:30 2,7 °C 2,7 °C 82 % 1009,0 hPa 0,0 mm 1,2 km/h (1 Bft) S 187 ° 0 min 0,000 mm 0,0 UV-I 0 W/m² -0,1 °C 2,7 °C 3,2 km/h (1 Bft)
01.03.2017 21:31 2,7 °C 2,7 °C 82 % 1009,2 hPa 0,0 mm 0,8 km/h (0 Bft) W-SW 244 ° 0 min 0,000 mm 0,0 UV-I 0 W/m² -0,1 °C 2,7 °C 1,6 km/h (1 Bft)
01.03.2017 21:32 2,7 °C 2,7 °C 83 % 1009,1 hPa 0,0 mm 1,3 km/h (1 Bft) W-SW 244 ° 0 min 0,000 mm 0,0 UV-I 0 W/m² 0,1 °C 2,7 °C 3,2 km/h (1 Bft)
01.03.2017 21:33 2,7 °C 2,7 °C 83 % 1009,1 hPa 0,0 mm 0,3 km/h (0 Bft) W-SW 244 ° 0 min 0,000 mm 0,0 UV-I 0 W/m² 0,1 °C 2,7 °C 1,6 km/h (1 Bft)
01.03.2017 21:34 2,7 °C 2,7 °C 83 % 1009,2 hPa 0,0 mm 0,0 km/h (0 Bft) W-SW 244 ° 0 min 0,000 mm 0,0 UV-I 0 W/m² 0,1 °C 2,7 °C 0,0 km/h (0 Bft)
01.03.2017 21:35 2,7 °C 2,7 °C 82 % 1009,1 hPa 0,0 mm 0,0 km/h (0 Bft) W-SW 244 ° 0 min 0,000 mm 0,0 UV-I 0 W/m² -0,1 °C 2,7 °C 0,0 km/h (0 Bft)
01.03.2017 21:36 2,7 °C 2,7 °C 82 % 1009,1 hPa 0,0 mm 0,0 km/h (0 Bft) W-SW 244 ° 0 min 0,000 mm 0,0 UV-I 0 W/m² -0,1 °C 2,7 °C 0,0 km/h (0 Bft)
01.03.2017 21:37 2,7 °C 2,7 °C 82 % 1009,1 hPa 0,0 mm 0,2 km/h (0 Bft) W-SW 244 ° 0 min 0,000 mm 0,0 UV-I 0 W/m² -0,1 °C 2,7 °C 1,6 km/h (1 Bft)
01.03.2017 21:38 2,7 °C 2,7 °C 82 % 1009,1 hPa 0,0 mm 0,5 km/h (0 Bft) W-SW 244 ° 0 min 0,000 mm 0,0 UV-I 0 W/m² -0,1 °C 2,7 °C 1,6 km/h (1 Bft)
01.03.2017 21:39 2,7 °C 2,7 °C 83 % 1009,1 hPa 0,0 mm 0,4 km/h (0 Bft) W-SW 244 ° 0 min 0,000 mm 0,0 UV-I 0 W/m² 0,1 °C 2,7 °C 3,2 km/h (1 Bft)
01.03.2017 21:40 2,7 °C 2,7 °C 83 % 1009,1 hPa 0,0 mm 1,1 km/h (1 Bft) W-SW 244 ° 0 min 0,000 mm 0,0 UV-I 0 W/m² 0,1 °C 2,7 °C 3,2 km/h (1 Bft)
01.03.2017 21:41 2,7 °C 2,7 °C 83 % 1009,2 hPa 0,0 mm 0,0 km/h (0 Bft) W-SW 244 ° 0 min 0,000 mm 0,0 UV-I 0 W/m² 0,1 °C 2,7 °C 0,0 km/h (0 Bft)
01.03.2017 21:42 2,7 °C 2,7 °C 83 % 1009,2 hPa 0,0 mm 0,1 km/h (0 Bft) W-SW 244 ° 0 min 0,000 mm 0,0 UV-I 0 W/m² 0,1 °C 2,7 °C 1,6 km/h (1 Bft)
01.03.2017 21:43 2,7 °C 2,7 °C 83 % 1009,1 hPa 0,0 mm 0,1 km/h (0 Bft) W-SW 244 ° 0 min 0,000 mm 0,0 UV-I 0 W/m² 0,1 °C 2,7 °C 1,6 km/h (1 Bft)
01.03.2017 21:44 2,7 °C 2,7 °C 82 % 1009,2 hPa 0,0 mm 0,6 km/h (0 Bft) W-SW 244 ° 0 min 0,000 mm 0,0 UV-I 0 W/m² -0,1 °C 2,7 °C 1,6 km/h (1 Bft)
01.03.2017 21:45 2,7 °C 2,7 °C 82 % 1009,1 hPa 0,0 mm 0,0 km/h (0 Bft) W-SW 244 ° 0 min 0,000 mm 0,0 UV-I 0 W/m² -0,1 °C 2,7 °C 0,0 km/h (0 Bft)
01.03.2017 21:46 2,8 °C 2,8 °C 82 % 1009,1 hPa 0,0 mm 2,0 km/h (1 Bft) SW 236 ° 0 min 0,000 mm 0,0 UV-I 0 W/m² 0,0 °C 2,8 °C 6,4 km/h (2 Bft)
01.03.2017 21:47 2,8 °C 2,8 °C 82 % 1009,1 hPa 0,0 mm 6,1 km/h (2 Bft) W 259 ° 0 min 0,000 mm 0,0 UV-I 0 W/m² 0,0 °C 1,2 °C 16,1 km/h (3 Bft)
01.03.2017 21:48 3,1 °C 3,1 °C 81 % 1009,1 hPa 0,0 mm 5,7 km/h (1 Bft) SW 220 ° 0 min 0,000 mm 0,0 UV-I 0 W/m² 0,2 °C 1,6 °C 11,3 km/h (2 Bft)
01.03.2017 21:49 3,4 °C 3,4 °C 79 % 1009,0 hPa 0,0 mm 12,2 km/h (2 Bft) S-SW 207 ° 0 min 0,000 mm 0,0 UV-I 0 W/m² 0,1 °C 0,3 °C 22,5 km/h (4 Bft)
01.03.2017 21:50 3,8 °C 3,8 °C 77 % 1008,9 hPa 0,0 mm 11,0 km/h (2 Bft) W 279 ° 0 min 0,000 mm 0,0 UV-I 0 W/m² 0,1 °C 1,0 °C 16,1 km/h (3 Bft)
01.03.2017 21:51 4,2 °C 4,2 °C 77 % 1009,0 hPa 0,0 mm 13,1 km/h (3 Bft) W-SW 240 ° 0 min 0,000 mm 0,0 UV-I 0 W/m² 0,5 °C 1,1 °C 19,3 km/h (3 Bft)
01.03.2017 21:52 4,6 °C 4,6 °C 75 % 1009,0 hPa 0,0 mm 6,1 km/h (2 Bft) W-SW 252 ° 0 min 0,000 mm 0,0 UV-I 0 W/m² 0,6 °C 3,2 °C 8,0 km/h (2 Bft)
01.03.2017 21:53 4,8 °C 4,8 °C 74 % 1009,0 hPa 0,0 mm 4,4 km/h (1 Bft) W 264 ° 0 min 0,000 mm 0,0 UV-I 0 W/m² 0,6 °C 4,8 °C 6,4 km/h (2 Bft)
01.03.2017 21:54 5,1 °C 5,1 °C 73 % 1008,9 hPa 0,0 mm 11,0 km/h (2 Bft) W-SW 254 ° 0 min 0,000 mm 0,0 UV-I 0 W/m² 0,7 °C 2,6 °C 14,5 km/h (3 Bft)
01.03.2017 21:55 5,3 °C 5,3 °C 72 % 1008,8 hPa 0,0 mm 8,2 km/h (2 Bft) W-SW 257 ° 0 min 0,000 mm 0,0 UV-I 0 W/m² 0,7 °C 3,4 °C 16,1 km/h (3 Bft)
01.03.2017 21:56 5,3 °C 5,3 °C 72 % 1008,8 hPa 0,0 mm 6,3 km/h (2 Bft) SW 229 ° 0 min 0,000 mm 0,0 UV-I 0 W/m² 0,7 °C 4,0 °C 9,7 km/h (2 Bft)
01.03.2017 21:57 5,4 °C 5,4 °C 72 % 1008,8 hPa 0,0 mm 7,2 km/h (2 Bft) S-SW 192 ° 0 min 0,000 mm 0,0 UV-I 0 W/m² 0,8 °C 3,8 °C 11,3 km/h (2 Bft)
01.03.2017 21:58 5,5 °C 5,5 °C 72 % 1008,7 hPa 0,0 mm 5,2 km/h (1 Bft) SW 217 ° 0 min 0,000 mm 0,0 UV-I 0 W/m² 0,9 °C 4,6 °C 9,7 km/h (2 Bft)
01.03.2017 21:59 5,7 °C 5,7 °C 71 % 1008,7 hPa 0,0 mm 9,7 km/h (2 Bft) W-SW 246 ° 0 min 0,000 mm 0,0 UV-I 0 W/m² 0,9 °C 3,6 °C 12,9 km/h (3 Bft)
01.03.2017 22:00 5,8 °C 5,8 °C 71 % 1008,8 hPa 0,0 mm 7,3 km/h (2 Bft) S-SW 209 ° 0 min 0,000 mm 0,0 UV-I 0 W/m² 1,0 °C 4,3 °C 11,3 km/h (2 Bft)
01.03.2017 22:01 5,8 °C 5,8 °C 71 % 1008,8 hPa 0,0 mm 8,9 km/h (2 Bft) W 261 ° 0 min 0,026 mm 0,0 UV-I 0 W/m² 1,0 °C 3,9 °C 16,1 km/h (3 Bft)
01.03.2017 22:02 5,9 °C 5,9 °C 70 % 1008,7 hPa 0,0 mm 8,8 km/h (2 Bft) W 267 ° 0 min 0,000 mm 0,0 UV-I 0 W/m² 0,9 °C 4,0 °C 12,9 km/h (3 Bft)
01.03.2017 22:03 5,9 °C 5,9 °C 70 % 1008,8 hPa 0,0 mm 6,2 km/h (2 Bft) W 278 ° 0 min 0,000 mm 0,0 UV-I 0 W/m² 0,9 °C 4,7 °C 8,0 km/h (2 Bft)
01.03.2017 22:04 6,0 °C 6,0 °C 70 % 1008,7 hPa 0,0 mm 6,4 km/h (2 Bft) SW 220 ° 0 min 0,000 mm 0,0 UV-I 0 W/m² 1,0 °C 4,7 °C 11,3 km/h (2 Bft)
01.03.2017 22:05 6,1 °C 6,1 °C 70 % 1008,8 hPa 0,0 mm 8,0 km/h (2 Bft) W 259 ° 0 min 0,000 mm 0,0 UV-I 0 W/m² 1,0 °C 4,4 °C 16,1 km/h (3 Bft)
01.03.2017 22:06 6,1 °C 6,1 °C 70 % 1008,8 hPa 0,0 mm 4,8 km/h (1 Bft) W-SW 253 ° 0 min 0,000 mm 0,0 UV-I 0 W/m² 1,0 °C 5,4 °C 8,0 km/h (2 Bft)
01.03.2017 22:07 6,1 °C 6,1 °C 70 % 1008,7 hPa 0,0 mm 7,4 km/h (2 Bft) W 263 ° 0 min 0,000 mm 0,0 UV-I 0 W/m² 1,0 °C 4,6 °C 11,3 km/h (2 Bft)
01.03.2017 22:08 6,1 °C 6,1 °C 70 % 1008,8 hPa 0,0 mm 7,2 km/h (2 Bft) SW 225 ° 0 min 0,000 mm 0,0 UV-I 0 W/m² 1,0 °C 4,6 °C 12,9 km/h (3 Bft)
01.03.2017 22:09 6,1 °C 6,1 °C 70 % 1008,7 hPa 0,0 mm 6,8 km/h (2 Bft) SW 236 ° 0 min 0,000 mm 0,0 UV-I 0 W/m² 1,0 °C 4,7 °C 14,5 km/h (3 Bft)
01.03.2017 22:10 6,1 °C 6,1 °C 70 % 1008,7 hPa 0,0 mm 11,9 km/h (2 Bft) W 280 ° 0 min 0,000 mm 0,0 UV-I 0 W/m² 1,0 °C 3,6 °C 14,5 km/h (3 Bft)
01.03.2017 22:11 6,2 °C 6,2 °C 70 % 1008,7 hPa 0,0 mm 8,7 km/h (2 Bft) W-SW 242 ° 0 min 0,000 mm 0,0 UV-I 0 W/m² 1,1 °C 4,4 °C 16,1 km/h (3 Bft)
01.03.2017 22:12 6,2 °C 6,2 °C 70 % 1008,7 hPa 0,0 mm 7,8 km/h (2 Bft) W 269 ° 0 min 0,000 mm 0,0 UV-I 0 W/m² 1,1 °C 4,6 °C 12,9 km/h (3 Bft)
01.03.2017 22:13 6,3 °C 6,3 °C 70 % 1008,6 hPa 0,0 mm 7,3 km/h (2 Bft) W 272 ° 0 min 0,000 mm 0,0 UV-I 0 W/m² 1,2 °C 4,8 °C 12,9 km/h (3 Bft)
01.03.2017 22:14 6,3 °C 6,3 °C 70 % 1008,7 hPa 0,0 mm 10,2 km/h (2 Bft) W-SW 243 ° 0 min 0,000 mm 0,0 UV-I 0 W/m² 1,2 °C 4,2 °C 16,1 km/h (3 Bft)
01.03.2017 22:15 6,3 °C 6,3 °C 71 % 1008,8 hPa 0,0 mm 8,6 km/h (2 Bft) W 260 ° 0 min 0,000 mm 0,0 UV-I 0 W/m² 1,4 °C 4,5 °C 12,9 km/h (3 Bft)
01.03.2017 22:16 6,3 °C 6,4 °C 70 % 1008,8 hPa 0,0 mm 7,2 km/h (2 Bft) W-SW 257 ° 0 min 0,000 mm 0,0 UV-I 0 W/m² 1,2 °C 4,9 °C 11,3 km/h (2 Bft)
01.03.2017 22:17 6,4 °C 6,4 °C 70 % 1008,7 hPa 0,0 mm 10,0 km/h (2 Bft) W-SW 253 ° 0 min 0,000 mm 0,0 UV-I 0 W/m² 1,3 °C 4,3 °C 12,9 km/h (3 Bft)
01.03.2017 22:18 6,4 °C 6,4 °C 70 % 1008,7 hPa 0,0 mm 10,3 km/h (2 Bft) W-NW 300 ° 0 min 0,000 mm 0,0 UV-I 0 W/m² 1,3 °C 4,3 °C 14,5 km/h (3 Bft)
01.03.2017 22:19 6,5 °C 6,5 °C 70 % 1008,7 hPa 0,0 mm 8,6 km/h (2 Bft) W-SW 251 ° 0 min 0,000 mm 0,0 UV-I 0 W/m² 1,4 °C 4,8 °C 12,9 km/h (3 Bft)
01.03.2017 22:20 6,6 °C 6,6 °C 70 % 1008,6 hPa 0,0 mm 7,5 km/h (2 Bft) W-SW 251 ° 0 min 0,000 mm 0,0 UV-I 0 W/m² 1,5 °C 5,1 °C 12,9 km/h (3 Bft)
01.03.2017 22:21 6,6 °C 6,6 °C 70 % 1008,7 hPa 0,0 mm 9,7 km/h (2 Bft) W-SW 252 ° 0 min 0,000 mm 0,0 UV-I 0 W/m² 1,5 °C 4,6 °C 12,9 km/h (3 Bft)
01.03.2017 22:22 6,7 °C 6,7 °C 70 % 1008,6 hPa 0,0 mm 6,7 km/h (2 Bft) SW 226 ° 0 min 0,000 mm 0,0 UV-I 0 W/m² 1,6 °C 5,5 °C 11,3 km/h (2 Bft)
01.03.2017 22:23 6,7 °C 6,7 °C 70 % 1008,5 hPa 0,0 mm 7,3 km/h (2 Bft) SW 236 ° 0 min 0,000 mm 0,0 UV-I 0 W/m² 1,6 °C 5,3 °C 14,5 km/h (3 Bft)
01.03.2017 22:24 6,7 °C 6,7 °C 70 % 1008,6 hPa 0,0 mm 6,8 km/h (2 Bft) W 262 ° 0 min 0,000 mm 0,0 UV-I 0 W/m² 1,6 °C 5,4 °C 14,5 km/h (3 Bft)
01.03.2017 22:25 6,7 °C 6,7 °C 70 % 1008,6 hPa 0,0 mm 15,4 km/h (3 Bft) W-SW 255 ° 0 min 0,000 mm 0,0 UV-I 0 W/m² 1,6 °C 3,8 °C 19,3 km/h (3 Bft)
01.03.2017 22:26 6,7 °C 6,7 °C 70 % 1008,5 hPa 0,0 mm 7,9 km/h (2 Bft) SW 228 ° 0 min 0,000 mm 0,0 UV-I 0 W/m² 1,6 °C 5,2 °C 12,9 km/h (3 Bft)
01.03.2017 22:27 6,8 °C 6,8 °C 70 % 1008,5 hPa 0,0 mm 5,4 km/h (1 Bft) SW 236 ° 0 min 0,000 mm 0,0 UV-I 0 W/m² 1,7 °C 6,0 °C 8,0 km/h (2 Bft)
01.03.2017 22:28 6,8 °C 6,8 °C 70 % 1008,5 hPa 0,0 mm 8,7 km/h (2 Bft) SW 223 ° 0 min 0,000 mm 0,0 UV-I 0 W/m² 1,7 °C 5,1 °C 11,3 km/h (2 Bft)
01.03.2017 22:29 6,8 °C 6,8 °C 69 % 1008,5 hPa 0,0 mm 5,6 km/h (1 Bft) W 261 ° 0 min 0,000 mm 0,0 UV-I 0 W/m² 1,5 °C 5,9 °C 9,7 km/h (2 Bft)
01.03.2017 22:30 6,8 °C 6,9 °C 70 % 1008,5 hPa 0,0 mm 11,3 km/h (2 Bft) W 272 ° 0 min 0,000 mm 0,0 UV-I 0 W/m² 1,7 °C 4,6 °C 19,3 km/h (3 Bft)
01.03.2017 22:31 6,9 °C 6,9 °C 69 % 1008,5 hPa 0,0 mm 7,4 km/h (2 Bft) W 264 ° 0 min 0,000 mm 0,0 UV-I 0 W/m² 1,6 °C 5,5 °C 11,3 km/h (2 Bft)
01.03.2017 22:32 6,8 °C 6,9 °C 70 % 1008,5 hPa 0,0 mm 5,8 km/h (2 Bft) W 267 ° 0 min 0,000 mm 0,0 UV-I 0 W/m² 1,7 °C 5,9 °C 8,0 km/h (2 Bft)
01.03.2017 22:33 6,8 °C 6,8 °C 70 % 1008,5 hPa 0,0 mm 6,1 km/h (2 Bft) W 262 ° 0 min 0,000 mm 0,0 UV-I 0 W/m² 1,7 °C 5,8 °C 11,3 km/h (2 Bft)
01.03.2017 22:34 6,8 °C 6,8 °C 71 % 1008,5 hPa 0,0 mm 3,5 km/h (1 Bft) W 261 ° 0 min 0,000 mm 0,0 UV-I 0 W/m² 1,9 °C 6,8 °C 6,4 km/h (2 Bft)
01.03.2017 22:35 6,8 °C 6,8 °C 70 % 1008,6 hPa 0,0 mm 4,8 km/h (1 Bft) W 264 ° 0 min 0,000 mm 0,0 UV-I 0 W/m² 1,7 °C 6,2 °C 8,0 km/h (2 Bft)
01.03.2017 22:36 6,8 °C 6,8 °C 70 % 1008,5 hPa 0,0 mm 8,6 km/h (2 Bft) W 259 ° 0 min 0,000 mm 0,0 UV-I 0 W/m² 1,7 °C 5,1 °C 14,5 km/h (3 Bft)
01.03.2017 22:37 6,8 °C 6,8 °C 71 % 1008,5 hPa 0,0 mm 4,9 km/h (1 Bft) W-SW 254 ° 0 min 0,000 mm 0,0 UV-I 0 W/m² 1,9 °C 6,2 °C 6,4 km/h (2 Bft)
01.03.2017 22:38 6,8 °C 6,8 °C 71 % 1008,4 hPa 0,0 mm 2,5 km/h (1 Bft) W 259 ° 0 min 0,000 mm 0,0 UV-I 0 W/m² 1,9 °C 6,8 °C 4,8 km/h (1 Bft)
01.03.2017 22:39 6,8 °C 6,8 °C 70 % 1008,5 hPa 0,0 mm 6,5 km/h (2 Bft) W-SW 255 ° 0 min 0,000 mm 0,0 UV-I 0 W/m² 1,7 °C 5,6 °C 11,3 km/h (2 Bft)
01.03.2017 22:40 6,8 °C 6,8 °C 70 % 1008,4 hPa 0,0 mm 5,2 km/h (1 Bft) SW 236 ° 0 min 0,000 mm 0,0 UV-I 0 W/m² 1,7 °C 6,1 °C 6,4 km/h (2 Bft)
01.03.2017 22:41 6,8 °C 6,8 °C 71 % 1008,4 hPa 0,0 mm 5,2 km/h (1 Bft) W-SW 244 ° 0 min 0,000 mm 0,0 UV-I 0 W/m² 1,9 °C 6,1 °C 9,7 km/h (2 Bft)
01.03.2017 22:42 6,8 °C 6,8 °C 71 % 1008,4 hPa 0,0 mm 4,9 km/h (1 Bft) W-SW 250 ° 0 min 0,000 mm 0,0 UV-I 0 W/m² 1,9 °C 6,2 °C 11,3 km/h (2 Bft)
01.03.2017 22:43 6,8 °C 6,8 °C 71 % 1008,4 hPa 0,0 mm 6,2 km/h (2 Bft) W 272 ° 0 min 0,000 mm 0,0 UV-I 0 W/m² 1,9 °C 5,7 °C 9,7 km/h (2 Bft)
01.03.2017 22:44 6,8 °C 6,9 °C 71 % 1008,3 hPa 0,0 mm 5,7 km/h (1 Bft) W-SW 252 ° 0 min 0,000 mm 0,0 UV-I 0 W/m² 1,9 °C 5,9 °C 9,7 km/h (2 Bft)
01.03.2017 22:45 6,8 °C 6,8 °C 71 % 1008,4 hPa 0,0 mm 7,8 km/h (2 Bft) W-SW 251 ° 0 min 0,000 mm 0,0 UV-I 0 W/m² 1,9 °C 5,3 °C 11,3 km/h (2 Bft)
01.03.2017 22:46 6,8 °C 6,8 °C 71 % 1008,3 hPa 0,0 mm 3,8 km/h (1 Bft) W 267 ° 0 min 0,000 mm 0,0 UV-I 0 W/m² 1,9 °C 6,8 °C 6,4 km/h (2 Bft)
01.03.2017 22:47 6,8 °C 6,8 °C 72 % 1008,4 hPa 0,0 mm 4,7 km/h (1 Bft) W 262 ° 0 min 0,000 mm 0,0 UV-I 0 W/m² 2,1 °C 6,2 °C 6,4 km/h (2 Bft)
01.03.2017 22:48 6,8 °C 6,8 °C 71 % 1008,2 hPa 0,0 mm 4,0 km/h (1 Bft) W-SW 248 ° 0 min 0,000 mm 0,0 UV-I 0 W/m² 1,9 °C 6,8 °C 6,4 km/h (2 Bft)
01.03.2017 22:49 6,8 °C 6,8 °C 71 % 1008,3 hPa 0,0 mm 3,6 km/h (1 Bft) W 267 ° 0 min 0,000 mm 0,0 UV-I 0 W/m² 1,9 °C 6,8 °C 4,8 km/h (1 Bft)
01.03.2017 22:50 6,8 °C 6,9 °C 71 % 1008,3 hPa 0,0 mm 4,4 km/h (1 Bft) W 264 ° 0 min 0,000 mm 0,0 UV-I 0 W/m² 1,9 °C 6,8 °C 6,4 km/h (2 Bft)
01.03.2017 22:51 6,8 °C 6,9 °C 71 % 1008,2 hPa 0,0 mm 5,6 km/h (1 Bft) SW 229 ° 0 min 0,000 mm 0,0 UV-I 0 W/m² 1,9 °C 5,9 °C 9,7 km/h (2 Bft)
01.03.2017 22:52 6,8 °C 6,8 °C 72 % 1008,3 hPa 0,0 mm 11,5 km/h (2 Bft) W-SW 256 ° 0 min 0,000 mm 0,0 UV-I 0 W/m² 2,1 °C 4,5 °C 14,5 km/h (3 Bft)
01.03.2017 22:53 6,8 °C 6,8 °C 71 % 1008,2 hPa 0,0 mm 8,2 km/h (2 Bft) SW 236 ° 0 min 0,000 mm 0,0 UV-I 0 W/m² 1,9 °C 5,2 °C 11,3 km/h (2 Bft)
01.03.2017 22:54 6,8 °C 6,8 °C 72 % 1008,1 hPa 0,0 mm 4,0 km/h (1 Bft) W 269 ° 0 min 0,000 mm 0,0 UV-I 0 W/m² 2,1 °C 6,8 °C 4,8 km/h (1 Bft)
01.03.2017 22:55 6,9 °C 6,9 °C 71 % 1008,1 hPa 0,0 mm 4,1 km/h (1 Bft) SW 217 ° 0 min 0,000 mm 0,0 UV-I 0 W/m² 2,0 °C 6,9 °C 6,4 km/h (2 Bft)
01.03.2017 22:56 6,9 °C 6,9 °C 71 % 1008,1 hPa 0,0 mm 7,2 km/h (2 Bft) W 266 ° 0 min 0,000 mm 0,0 UV-I 0 W/m² 2,0 °C 5,6 °C 11,3 km/h (2 Bft)
01.03.2017 22:57 6,9 °C 6,9 °C 71 % 1008,0 hPa 0,0 mm 3,5 km/h (1 Bft) SW 229 ° 0 min 0,000 mm 0,0 UV-I 0 W/m² 2,0 °C 6,9 °C 4,8 km/h (1 Bft)
01.03.2017 22:58 6,9 °C 6,9 °C 71 % 1008,0 hPa 0,0 mm 6,9 km/h (2 Bft) W-SW 248 ° 0 min 0,000 mm 0,0 UV-I 0 W/m² 2,0 °C 5,6 °C 12,9 km/h (3 Bft)
01.03.2017 22:59 7,0 °C 7,0 °C 71 % 1008,1 hPa 0,0 mm 9,6 km/h (2 Bft) W-SW 253 ° 0 min 0,000 mm 0,0 UV-I 0 W/m² 2,1 °C 5,1 °C 14,5 km/h (3 Bft)
01.03.2017 23:00 7,1 °C 7,1 °C 71 % 1008,1 hPa 0,0 mm 8,4 km/h (2 Bft) W 270 ° 0 min 0,000 mm 0,0 UV-I 0 W/m² 2,2 °C 5,5 °C 12,9 km/h (3 Bft)
01.03.2017 23:01 7,1 °C 7,1 °C 71 % 1008,1 hPa 0,0 mm 5,2 km/h (1 Bft) W-SW 245 ° 0 min 0,025 mm 0,0 UV-I 0 W/m² 2,2 °C 6,4 °C 8,0 km/h (2 Bft)
01.03.2017 23:02 7,1 °C 7,1 °C 70 % 1008,1 hPa 0,0 mm 7,4 km/h (2 Bft) SW 217 ° 0 min 0,000 mm 0,0 UV-I 0 W/m² 2,0 °C 5,7 °C 12,9 km/h (3 Bft)
01.03.2017 23:03 7,1 °C 7,1 °C 71 % 1008,1 hPa 0,0 mm 5,6 km/h (1 Bft) W 267 ° 0 min 0,000 mm 0,0 UV-I 0 W/m² 2,2 °C 6,3 °C 6,4 km/h (2 Bft)
01.03.2017 23:04 7,2 °C 7,2 °C 70 % 1008,1 hPa 0,0 mm 6,8 km/h (2 Bft) SW 223 ° 0 min 0,000 mm 0,0 UV-I 0 W/m² 2,1 °C 6,0 °C 12,9 km/h (3 Bft)
01.03.2017 23:05 7,2 °C 7,2 °C 70 % 1008,2 hPa 0,0 mm 8,6 km/h (2 Bft) W 275 ° 0 min 0,000 mm 0,0 UV-I 0 W/m² 2,1 °C 5,6 °C 12,9 km/h (3 Bft)
01.03.2017 23:06 7,2 °C 7,2 °C 71 % 1008,1 hPa 0,0 mm 8,0 km/h (2 Bft) SW 232 ° 0 min 0,000 mm 0,0 UV-I 0 W/m² 2,3 °C 5,7 °C 16,1 km/h (3 Bft)
01.03.2017 23:07 7,2 °C 7,2 °C 71 % 1008,1 hPa 0,0 mm 10,5 km/h (2 Bft) W-SW 241 ° 0 min 0,000 mm 0,0 UV-I 0 W/m² 2,3 °C 5,2 °C 16,1 km/h (3 Bft)
01.03.2017 23:08 7,2 °C 7,2 °C 71 % 1008,1 hPa 0,0 mm 9,7 km/h (2 Bft) W 261 ° 0 min 0,000 mm 0,0 UV-I 0 W/m² 2,3 °C 5,3 °C 14,5 km/h (3 Bft)
01.03.2017 23:09 7,2 °C 7,2 °C 70 % 1008,1 hPa 0,0 mm 10,2 km/h (2 Bft) W-SW 252 ° 0 min 0,000 mm 0,0 UV-I 0 W/m² 2,1 °C 5,2 °C 12,9 km/h (3 Bft)
01.03.2017 23:10 7,2 °C 7,2 °C 71 % 1008,1 hPa 0,0 mm 10,1 km/h (2 Bft) W-SW 251 ° 0 min 0,000 mm 0,0 UV-I 0 W/m² 2,3 °C 5,3 °C 14,5 km/h (3 Bft)
01.03.2017 23:11 7,2 °C 7,2 °C 71 % 1008,1 hPa 0,0 mm 8,2 km/h (2 Bft) W-SW 258 ° 0 min 0,000 mm 0,0 UV-I 0 W/m² 2,3 °C 5,7 °C 14,5 km/h (3 Bft)
01.03.2017 23:12 7,1 °C 7,2 °C 71 % 1008,2 hPa 0,0 mm 7,3 km/h (2 Bft) W 281 ° 0 min 0,000 mm 0,0 UV-I 0 W/m² 2,2 °C 5,8 °C 11,3 km/h (2 Bft)
01.03.2017 23:13 7,1 °C 7,1 °C 71 % 1008,2 hPa 0,0 mm 5,0 km/h (1 Bft) W 269 ° 0 min 0,000 mm 0,0 UV-I 0 W/m² 2,2 °C 6,5 °C 6,4 km/h (2 Bft)
01.03.2017 23:14 7,1 °C 7,1 °C 71 % 1008,1 hPa 0,0 mm 7,0 km/h (2 Bft) W 271 ° 0 min 0,000 mm 0,0 UV-I 0 W/m² 2,2 °C 5,9 °C 9,7 km/h (2 Bft)
01.03.2017 23:15 7,0 °C 7,1 °C 72 % 1008,2 hPa 0,0 mm 5,7 km/h (1 Bft) W-SW 244 ° 0 min 0,000 mm 0,0 UV-I 0 W/m² 2,3 °C 6,1 °C 9,7 km/h (2 Bft)
01.03.2017 23:16 6,9 °C 7,0 °C 73 % 1008,2 hPa 0,0 mm 3,1 km/h (1 Bft) W-SW 240 ° 0 min 0,000 mm 0,0 UV-I 0 W/m² 2,4 °C 6,9 °C 4,8 km/h (1 Bft)
01.03.2017 23:17 6,9 °C 6,9 °C 72 % 1008,1 hPa 0,0 mm 3,4 km/h (1 Bft) SW 236 ° 0 min 0,000 mm 0,0 UV-I 0 W/m² 2,2 °C 6,9 °C 6,4 km/h (2 Bft)
01.03.2017 23:18 6,9 °C 6,9 °C 73 % 1008,1 hPa 0,0 mm 3,8 km/h (1 Bft) W-SW 240 ° 0 min 0,000 mm 0,0 UV-I 0 W/m² 2,4 °C 6,9 °C 4,8 km/h (1 Bft)
01.03.2017 23:19 6,9 °C 6,9 °C 73 % 1008,1 hPa 0,0 mm 4,0 km/h (1 Bft) W-SW 245 ° 0 min 0,000 mm 0,0 UV-I 0 W/m² 2,4 °C 6,9 °C 6,4 km/h (2 Bft)
01.03.2017 23:20 6,9 °C 6,9 °C 74 % 1008,1 hPa 0,0 mm 4,5 km/h (1 Bft) W 259 ° 0 min 0,000 mm 0,0 UV-I 0 W/m² 2,6 °C 6,9 °C 6,4 km/h (2 Bft)
01.03.2017 23:21 6,8 °C 6,9 °C 74 % 1008,1 hPa 0,0 mm 3,5 km/h (1 Bft) SW 223 ° 0 min 0,000 mm 0,0 UV-I 0 W/m² 2,5 °C 6,8 °C 4,8 km/h (1 Bft)
01.03.2017 23:22 6,8 °C 6,8 °C 74 % 1008,0 hPa 0,0 mm 3,4 km/h (1 Bft) W 269 ° 0 min 0,000 mm 0,0 UV-I 0 W/m² 2,5 °C 6,8 °C 8,0 km/h (2 Bft)
01.03.2017 23:23 6,7 °C 6,8 °C 75 % 1008,0 hPa 0,0 mm 4,0 km/h (1 Bft) W 275 ° 0 min 0,000 mm 0,0 UV-I 0 W/m² 2,6 °C 6,7 °C 6,4 km/h (2 Bft)
01.03.2017 23:24 6,7 °C 6,7 °C 75 % 1008,0 hPa 0,0 mm 4,8 km/h (1 Bft) W-NW 283 ° 0 min 0,000 mm 0,0 UV-I 0 W/m² 2,6 °C 6,1 °C 11,3 km/h (2 Bft)
01.03.2017 23:25 6,7 °C 6,7 °C 75 % 1008,1 hPa 0,0 mm 6,0 km/h (2 Bft) W 271 ° 0 min 0,000 mm 0,0 UV-I 0 W/m² 2,6 °C 5,7 °C 11,3 km/h (2 Bft)
01.03.2017 23:26 6,6 °C 6,7 °C 76 % 1008,1 hPa 0,0 mm 6,4 km/h (2 Bft) W-NW 284 ° 0 min 0,000 mm 0,0 UV-I 0 W/m² 2,7 °C 5,4 °C 9,7 km/h (2 Bft)
01.03.2017 23:27 6,6 °C 6,6 °C 76 % 1008,1 hPa 0,0 mm 6,2 km/h (2 Bft) W 263 ° 0 min 0,000 mm 0,0 UV-I 0 W/m² 2,7 °C 5,5 °C 9,7 km/h (2 Bft)
01.03.2017 23:28 6,5 °C 6,6 °C 77 % 1008,1 hPa 0,0 mm 5,2 km/h (1 Bft) W-SW 244 ° 0 min 0,000 mm 0,0 UV-I 0 W/m² 2,8 °C 5,7 °C 9,7 km/h (2 Bft)
01.03.2017 23:29 6,4 °C 6,5 °C 77 % 1008,2 hPa 0,0 mm 6,2 km/h (2 Bft) W 263 ° 0 min 0,000 mm 0,0 UV-I 0 W/m² 2,7 °C 5,3 °C 9,7 km/h (2 Bft)
01.03.2017 23:30 6,4 °C 6,4 °C 76 % 1008,1 hPa 0,0 mm 4,4 km/h (1 Bft) W 279 ° 0 min 0,000 mm 0,0 UV-I 0 W/m² 2,5 °C 6,4 °C 6,4 km/h (2 Bft)
01.03.2017 23:31 6,4 °C 6,4 °C 77 % 1008,1 hPa 0,0 mm 4,3 km/h (1 Bft) W 263 ° 0 min 0,000 mm 0,0 UV-I 0 W/m² 2,7 °C 6,4 °C 6,4 km/h (2 Bft)
01.03.2017 23:32 6,4 °C 6,4 °C 76 % 1008,2 hPa 0,0 mm 4,5 km/h (1 Bft) W 279 ° 0 min 0,000 mm 0,0 UV-I 0 W/m² 2,5 °C 6,4 °C 6,4 km/h (2 Bft)
01.03.2017 23:33 6,3 °C 6,4 °C 78 % 1008,1 hPa 0,0 mm 4,8 km/h (1 Bft) W 275 ° 0 min 0,000 mm 0,0 UV-I 0 W/m² 2,8 °C 5,6 °C 6,4 km/h (2 Bft)
01.03.2017 23:34 6,3 °C 6,3 °C 77 % 1008,1 hPa 0,0 mm 4,1 km/h (1 Bft) W 265 ° 0 min 0,000 mm 0,0 UV-I 0 W/m² 2,6 °C 6,3 °C 4,8 km/h (1 Bft)
01.03.2017 23:35 6,3 °C 6,3 °C 78 % 1008,1 hPa 0,0 mm 4,4 km/h (1 Bft) W-SW 244 ° 0 min 0,000 mm 0,0 UV-I 0 W/m² 2,8 °C 6,3 °C 6,4 km/h (2 Bft)
01.03.2017 23:36 6,3 °C 6,3 °C 78 % 1008,1 hPa 0,0 mm 4,0 km/h (1 Bft) W 265 ° 0 min 0,000 mm 0,0 UV-I 0 W/m² 2,8 °C 6,3 °C 6,4 km/h (2 Bft)
01.03.2017 23:37 6,2 °C 6,3 °C 78 % 1008,1 hPa 0,0 mm 3,0 km/h (1 Bft) W 265 ° 0 min 0,000 mm 0,0 UV-I 0 W/m² 2,7 °C 6,2 °C 4,8 km/h (1 Bft)
01.03.2017 23:38 6,2 °C 6,2 °C 78 % 1008,1 hPa 0,0 mm 2,8 km/h (1 Bft) W-SW 256 ° 0 min 0,000 mm 0,0 UV-I 0 W/m² 2,7 °C 6,2 °C 4,8 km/h (1 Bft)
01.03.2017 23:39 6,2 °C 6,2 °C 78 % 1008,2 hPa 0,0 mm 6,2 km/h (2 Bft) W-SW 248 ° 0 min 0,000 mm 0,0 UV-I 0 W/m² 2,7 °C 5,0 °C 8,0 km/h (2 Bft)
01.03.2017 23:40 6,2 °C 6,2 °C 78 % 1008,2 hPa 0,0 mm 4,8 km/h (1 Bft) W-SW 254 ° 0 min 0,000 mm 0,0 UV-I 0 W/m² 2,7 °C 5,5 °C 6,4 km/h (2 Bft)
01.03.2017 23:41 6,2 °C 6,2 °C 77 % 1008,2 hPa 0,0 mm 4,1 km/h (1 Bft) W-SW 255 ° 0 min 0,000 mm 0,0 UV-I 0 W/m² 2,5 °C 6,2 °C 4,8 km/h (1 Bft)
01.03.2017 23:42 6,2 °C 6,2 °C 77 % 1008,2 hPa 0,0 mm 6,8 km/h (2 Bft) W 272 ° 0 min 0,000 mm 0,0 UV-I 0 W/m² 2,5 °C 4,9 °C 9,7 km/h (2 Bft)
01.03.2017 23:43 6,2 °C 6,2 °C 78 % 1008,2 hPa 0,0 mm 4,9 km/h (1 Bft) W-SW 252 ° 0 min 0,000 mm 0,0 UV-I 0 W/m² 2,7 °C 5,5 °C 8,0 km/h (2 Bft)
01.03.2017 23:44 6,2 °C 6,2 °C 78 % 1008,2 hPa 0,0 mm 6,1 km/h (2 Bft) W-SW 252 ° 0 min 0,000 mm 0,0 UV-I 0 W/m² 2,7 °C 5,1 °C 11,3 km/h (2 Bft)
01.03.2017 23:45 6,2 °C 6,2 °C 78 % 1008,2 hPa 0,0 mm 7,2 km/h (2 Bft) W-SW 257 ° 0 min 0,000 mm 0,0 UV-I 0 W/m² 2,7 °C 4,8 °C 9,7 km/h (2 Bft)
01.03.2017 23:46 6,2 °C 6,2 °C 78 % 1008,2 hPa 0,0 mm 7,0 km/h (2 Bft) W-SW 254 ° 0 min 0,000 mm 0,0 UV-I 0 W/m² 2,7 °C 4,8 °C 9,7 km/h (2 Bft)
01.03.2017 23:47 6,2 °C 6,2 °C 78 % 1008,2 hPa 0,0 mm 4,6 km/h (1 Bft) W 259 ° 0 min 0,000 mm 0,0 UV-I 0 W/m² 2,7 °C 5,6 °C 6,4 km/h (2 Bft)
01.03.2017 23:48 6,2 °C 6,2 °C 78 % 1008,2 hPa 0,0 mm 9,9 km/h (2 Bft) W-SW 253 ° 0 min 0,000 mm 0,0 UV-I 0 W/m² 2,7 °C 4,1 °C 16,1 km/h (3 Bft)
01.03.2017 23:49 6,2 °C 6,2 °C 77 % 1008,2 hPa 0,0 mm 11,1 km/h (2 Bft) W-SW 241 ° 0 min 0,000 mm 0,0 UV-I 0 W/m² 2,5 °C 3,9 °C 16,1 km/h (3 Bft)
01.03.2017 23:50 6,3 °C 6,3 °C 77 % 1008,2 hPa 0,0 mm 13,9 km/h (3 Bft) W 260 ° 0 min 0,000 mm 0,0 UV-I 0 W/m² 2,6 °C 3,5 °C 16,1 km/h (3 Bft)
01.03.2017 23:51 6,3 °C 6,3 °C 77 % 1008,2 hPa 0,0 mm 6,1 km/h (2 Bft) W-SW 255 ° 0 min 0,000 mm 0,0 UV-I 0 W/m² 2,6 °C 5,2 °C 9,7 km/h (2 Bft)
01.03.2017 23:52 6,4 °C 6,4 °C 77 % 1008,2 hPa 0,0 mm 7,6 km/h (2 Bft) W-SW 249 ° 0 min 0,000 mm 0,0 UV-I 0 W/m² 2,7 °C 4,9 °C 11,3 km/h (2 Bft)
01.03.2017 23:53 6,4 °C 6,4 °C 77 % 1008,2 hPa 0,0 mm 10,3 km/h (2 Bft) W-SW 256 ° 0 min 0,000 mm 0,0 UV-I 0 W/m² 2,7 °C 4,3 °C 17,7 km/h (3 Bft)
01.03.2017 23:54 6,4 °C 6,4 °C 77 % 1008,2 hPa 0,0 mm 7,9 km/h (2 Bft) SW 225 ° 0 min 0,000 mm 0,0 UV-I 0 W/m² 2,7 °C 4,8 °C 11,3 km/h (2 Bft)
01.03.2017 23:55 6,4 °C 6,4 °C 77 % 1008,1 hPa 0,0 mm 7,5 km/h (2 Bft) W-SW 241 ° 0 min 0,000 mm 0,0 UV-I 0 W/m² 2,7 °C 4,9 °C 14,5 km/h (3 Bft)
01.03.2017 23:56 6,4 °C 6,4 °C 77 % 1008,1 hPa 0,0 mm 12,5 km/h (3 Bft) W-SW 253 ° 0 min 0,000 mm 0,0 UV-I 0 W/m² 2,7 °C 3,9 °C 17,7 km/h (3 Bft)
01.03.2017 23:57 6,4 °C 6,5 °C 77 % 1008,1 hPa 0,0 mm 10,1 km/h (2 Bft) W-SW 250 ° 0 min 0,000 mm 0,0 UV-I 0 W/m² 2,7 °C 4,3 °C 16,1 km/h (3 Bft)
01.03.2017 23:58 6,5 °C 6,6 °C 77 % 1008,0 hPa 0,0 mm 4,8 km/h (1 Bft) SW 224 ° 0 min 0,000 mm 0,0 UV-I 0 W/m² 2,8 °C 5,9 °C 6,4 km/h (2 Bft)
01.03.2017 23:59 6,5 °C 6,6 °C 77 % 1008,0 hPa 0,0 mm 11,3 km/h (2 Bft) W-SW 258 ° 0 min 0,000 mm 0,0 UV-I 0 W/m² 2,8 °C 4,2 °C 16,1 km/h (3 Bft)
_ Min-Zeit 04:57 05:38 13:07 00:06 - 21:45 - - - - - - 06:17 01:03 21:45
Minimum _ 0,2 °C 0,3 °C 51 % 1003,1 hPa - 0,0 km/h (0 Bft) - - - - - - -4,6 °C -5,4 °C 0,0 km/h (0 Bft)
_ Max-Zeit 23:11 23:12 00:53 18:30 00:53 13:14 - - 15:03 13:00 12:35 11:20 23:59 23:20 13:46
Maximum _ 7,2 °C 7,2 °C 92 % 1010,5 hPa 0,2 mm 34,3 km/h
W-SW (5 Bft)
- - 1 min 0,280 mm 3,4 UV-I 729 W/m² 2,8 °C 6,9 °C 53,1 km/h
W-SW (7 Bft)
Durchschnitt _ 3,3 °C 3,4 °C 72 % 1008,1 hPa #0,2 mm 12,2 km/h (2 Bft) W-SW - #4:07 h #1,727 mm 1,7 UV-I 93 W/m² -1,4 °C 0,6 °C 18,4 km/h (3 Bft)